<?xml version="1.0" encoding="UTF-8" standalone="yes"?>
<gpx
 xmlns="http://www.topografix.com/GPX/1/1"
 creator="OziExplorer Version 3955k - http://www.oziexplorer.com"
 version="1.1"
 xmlns:xsi="http://www.w3.org/2001/XMLSchema-instance"
 xsi:schemaLocation="http://www.topografix.com/GPX/1/1 http://www.topografix.com/GPX/1/1/gpx.xsd">
<metadata>
 <time>2011-11-12T16:11:45Z</time>
 <bounds minlat="29.519682" minlon="34.773661" maxlat="33.306557" maxlon="35.771904"/>
</metadata>
<trk>
 <name>day01</name>
 <desc>day01</desc>
<trkseg>
<trkpt lat="33.3065570" lon="35.7719040">
<ele>1646.285767</ele>
<time>2008-04-25T05:30:00.003Z</time>
</trkpt>
<trkpt lat="33.3052530" lon="35.7707950">
<ele>1651.375854</ele>
<time>2008-04-06T20:52:09.155Z</time>
</trkpt>
<trkpt lat="33.3044870" lon="35.7699650">
<ele>1662.562134</ele>
<time>2008-04-06T20:52:10.986Z</time>
</trkpt>
<trkpt lat="33.3035700" lon="35.7684000">
<ele>1635.130127</ele>
<time>2008-04-06T20:52:13.215Z</time>
</trkpt>
<trkpt lat="33.3031110" lon="35.7676640">
<ele>1608.643066</ele>
<time>2008-04-06T20:52:14.831Z</time>
</trkpt>
<trkpt lat="33.3023440" lon="35.7671090">
<ele>1590.111084</ele>
<time>2008-04-06T20:52:16.188Z</time>
</trkpt>
<trkpt lat="33.3014210" lon="35.7669200">
<ele>1572.097412</ele>
<time>2008-04-06T20:52:18.373Z</time>
</trkpt>
<trkpt lat="33.3008820" lon="35.7668240">
<ele>1578.681030</ele>
<time>2008-04-06T20:52:20.093Z</time>
</trkpt>
<trkpt lat="33.3006520" lon="35.7665480">
<ele>1586.057251</ele>
<time>2008-04-06T20:53:24.124Z</time>
</trkpt>
<trkpt lat="33.3001960" lon="35.7652610">
<ele>1593.951660</ele>
<time>2008-04-06T20:53:25.575Z</time>
</trkpt>
<trkpt lat="33.2997400" lon="35.7638830">
<ele>1565.788086</ele>
<time>2008-04-06T20:53:27.061Z</time>
</trkpt>
<trkpt lat="33.2992050" lon="35.7629630">
<ele>1538.203735</ele>
<time>2008-04-06T20:53:28.738Z</time>
</trkpt>
<trkpt lat="33.2983600" lon="35.7626820">
<ele>1510.405884</ele>
<time>2008-04-06T20:53:29.636Z</time>
</trkpt>
<trkpt lat="33.2976660" lon="35.7628620">
<ele>1507.845581</ele>
<time>2008-04-06T20:53:30.517Z</time>
</trkpt>
<trkpt lat="33.2967400" lon="35.7632220">
<ele>1525.066772</ele>
<time>2008-04-06T20:53:31.908Z</time>
</trkpt>
<trkpt lat="33.2962030" lon="35.7628520">
<ele>1525.219238</ele>
<time>2008-04-06T20:53:32.738Z</time>
</trkpt>
<trkpt lat="33.2954360" lon="35.7621140">
<ele>1517.995361</ele>
<time>2008-04-06T20:53:34.077Z</time>
</trkpt>
<trkpt lat="33.2946700" lon="35.7611920">
<ele>1508.180908</ele>
<time>2008-04-06T20:53:35.874Z</time>
</trkpt>
<trkpt lat="33.2942880" lon="35.7605480">
<ele>1508.363770</ele>
<time>2008-04-06T20:57:16.393Z</time>
</trkpt>
<trkpt lat="33.2939830" lon="35.7599960">
<ele>1509.400146</ele>
<time>2008-04-06T20:57:17.879Z</time>
</trkpt>
<trkpt lat="33.2936000" lon="35.7595350">
<ele>1508.394165</ele>
<time>2008-04-06T20:57:20.652Z</time>
</trkpt>
<trkpt lat="33.2933730" lon="35.7586170">
<ele>1496.567993</ele>
<time>2008-04-06T20:57:23.936Z</time>
</trkpt>
<trkpt lat="33.2929140" lon="35.7578810">
<ele>1474.073853</ele>
<time>2008-04-06T20:57:25.093Z</time>
</trkpt>
<trkpt lat="33.2924540" lon="35.7575110">
<ele>1458.589844</ele>
<time>2008-04-06T20:57:26.484Z</time>
</trkpt>
<trkpt lat="33.2918370" lon="35.7576910">
<ele>1451.945313</ele>
<time>2008-04-06T20:57:27.858Z</time>
</trkpt>
<trkpt lat="33.2918330" lon="35.7585160">
<ele>1454.475098</ele>
<time>2008-04-06T20:57:28.999Z</time>
</trkpt>
<trkpt lat="33.2918290" lon="35.7595240">
<ele>1458.986206</ele>
<time>2008-04-06T20:57:29.984Z</time>
</trkpt>
<trkpt lat="33.2915960" lon="35.7600730">
<ele>1463.192383</ele>
<time>2008-04-06T20:57:31.081Z</time>
</trkpt>
<trkpt lat="33.2910560" lon="35.7602530">
<ele>1465.204102</ele>
<time>2008-04-06T20:57:32.714Z</time>
</trkpt>
<trkpt lat="33.2902870" lon="35.7600650">
<ele>1465.844238</ele>
<time>2008-04-06T20:57:34.235Z</time>
</trkpt>
<trkpt lat="33.2898250" lon="35.7599700">
<ele>1471.665771</ele>
<time>2008-04-06T20:57:37.077Z</time>
</trkpt>
<trkpt lat="33.2895190" lon="35.7596020">
<ele>1478.523804</ele>
<time>2008-04-06T20:57:38.313Z</time>
</trkpt>
<trkpt lat="33.2895220" lon="35.7589600">
<ele>1482.059448</ele>
<time>2008-04-06T20:57:39.332Z</time>
</trkpt>
<trkpt lat="33.2898340" lon="35.7580450">
<ele>1497.208130</ele>
<time>2008-04-06T20:57:40.343Z</time>
</trkpt>
<trkpt lat="33.2901430" lon="35.7576800">
<ele>1494.373413</ele>
<time>2008-04-06T20:57:41.293Z</time>
</trkpt>
<trkpt lat="33.2899930" lon="35.7568540">
<ele>1499.859741</ele>
<time>2008-04-06T20:57:42.425Z</time>
</trkpt>
<trkpt lat="33.2894610" lon="35.7552920">
<ele>1502.145752</ele>
<time>2008-04-06T20:57:44.136Z</time>
</trkpt>
<trkpt lat="33.2889290" lon="35.7537310">
<ele>1453.987427</ele>
<time>2008-04-06T20:57:45.734Z</time>
</trkpt>
<trkpt lat="33.2881600" lon="35.7534510">
<ele>1446.489380</ele>
<time>2008-04-06T20:57:47.108Z</time>
</trkpt>
<trkpt lat="33.2872360" lon="35.7533530">
<ele>1444.172852</ele>
<time>2008-04-06T20:57:49.121Z</time>
</trkpt>
<trkpt lat="33.2864650" lon="35.7536240">
<ele>1439.722778</ele>
<time>2008-04-06T20:57:50.875Z</time>
</trkpt>
<trkpt lat="33.2859240" lon="35.7541700">
<ele>1431.828491</ele>
<time>2008-04-06T20:57:52.214Z</time>
</trkpt>
<trkpt lat="33.2849990" lon="35.7543480">
<ele>1422.257813</ele>
<time>2008-04-06T20:57:53.484Z</time>
</trkpt>
<trkpt lat="33.2844590" lon="35.7545280">
<ele>1411.193481</ele>
<time>2008-04-06T20:57:54.435Z</time>
</trkpt>
<trkpt lat="33.2840710" lon="35.7552590">
<ele>1396.441162</ele>
<time>2008-04-06T20:57:55.783Z</time>
</trkpt>
<trkpt lat="33.2838370" lon="35.7559910">
<ele>1391.899658</ele>
<time>2008-04-06T20:57:56.811Z</time>
</trkpt>
<trkpt lat="33.2839880" lon="35.7567250">
<ele>1398.300537</ele>
<time>2008-04-06T20:57:58.124Z</time>
</trkpt>
<trkpt lat="33.2843690" lon="35.7574610">
<ele>1405.310913</ele>
<time>2008-04-06T20:57:59.126Z</time>
</trkpt>
<trkpt lat="33.2844440" lon="35.7579200">
<ele>1402.537231</ele>
<time>2008-04-06T20:57:59.878Z</time>
</trkpt>
<trkpt lat="33.2844410" lon="35.7587450">
<ele>1396.532593</ele>
<time>2008-04-06T20:58:00.924Z</time>
</trkpt>
<trkpt lat="33.2844360" lon="35.7598450">
<ele>1389.674561</ele>
<time>2008-04-06T20:58:02.029Z</time>
</trkpt>
<trkpt lat="33.2845070" lon="35.7611290">
<ele>1385.163574</ele>
<time>2008-04-06T20:58:03.153Z</time>
</trkpt>
<trkpt lat="33.2845820" lon="35.7616790">
<ele>1380.805054</ele>
<time>2008-04-06T20:58:04.812Z</time>
</trkpt>
<trkpt lat="33.2845020" lon="35.7622290">
<ele>1385.072266</ele>
<time>2008-04-06T20:58:05.658Z</time>
</trkpt>
<trkpt lat="33.2842710" lon="35.7624110">
<ele>1392.234985</ele>
<time>2008-04-06T20:58:06.686Z</time>
</trkpt>
<trkpt lat="33.2837330" lon="35.7622240">
<ele>1397.812744</ele>
<time>2008-04-06T20:58:08.129Z</time>
</trkpt>
<trkpt lat="33.2815060" lon="35.7607430">
<ele>1388.821167</ele>
<time>2008-04-06T20:58:10.142Z</time>
</trkpt>
<trkpt lat="33.2795100" lon="35.7593560">
<ele>1365.046753</ele>
<time>2008-04-06T20:58:11.844Z</time>
</trkpt>
<trkpt lat="33.2790490" lon="35.7592610">
<ele>1380.012451</ele>
<time>2008-04-06T20:58:13.158Z</time>
</trkpt>
<trkpt lat="33.2787420" lon="35.7589840">
<ele>1379.890625</ele>
<time>2008-04-06T20:58:14.220Z</time>
</trkpt>
<trkpt lat="33.2776690" lon="35.7577860">
<ele>1349.867798</ele>
<time>2008-04-06T20:58:15.828Z</time>
</trkpt>
<trkpt lat="33.2765940" lon="35.7572290">
<ele>1329.659546</ele>
<time>2008-04-06T20:58:17.296Z</time>
</trkpt>
<trkpt lat="33.2757490" lon="35.7568570">
<ele>1289.944092</ele>
<time>2008-04-06T20:58:18.731Z</time>
</trkpt>
<trkpt lat="33.2749010" lon="35.7570350">
<ele>1277.935059</ele>
<time>2008-04-06T20:58:19.862Z</time>
</trkpt>
<trkpt lat="33.2741290" lon="35.7573970">
<ele>1282.385010</ele>
<time>2008-04-06T20:58:21.262Z</time>
</trkpt>
<trkpt lat="33.2735110" lon="35.7578520">
<ele>1299.453735</ele>
<time>2008-04-06T20:58:22.472Z</time>
</trkpt>
<trkpt lat="33.2732040" lon="35.7577580">
<ele>1296.558228</ele>
<time>2008-04-06T20:58:24.044Z</time>
</trkpt>
<trkpt lat="33.2728960" lon="35.7576650">
<ele>1293.052979</ele>
<time>2008-04-06T20:58:24.813Z</time>
</trkpt>
<trkpt lat="33.2725890" lon="35.7575710">
<ele>1287.536255</ele>
<time>2008-04-06T20:58:25.668Z</time>
</trkpt>
<trkpt lat="33.2708960" lon="35.7573770">
<ele>1294.180786</ele>
<time>2008-04-06T20:58:27.699Z</time>
</trkpt>
<trkpt lat="33.2704340" lon="35.7571910">
<ele>1294.455078</ele>
<time>2008-04-06T20:58:29.185Z</time>
</trkpt>
<trkpt lat="33.2701300" lon="35.7564560">
<ele>1292.169067</ele>
<time>2008-04-06T20:58:31.017Z</time>
</trkpt>
<trkpt lat="33.2699030" lon="35.7555380">
<ele>1270.954956</ele>
<time>2008-04-06T20:58:32.511Z</time>
</trkpt>
<trkpt lat="33.2695200" lon="35.7549860">
<ele>1251.386963</ele>
<time>2008-04-06T20:58:42.594Z</time>
</trkpt>
<trkpt lat="33.2689040" lon="35.7550730">
<ele>1251.478271</ele>
<time>2008-04-06T20:58:43.674Z</time>
</trkpt>
<trkpt lat="33.2685180" lon="35.7551630">
<ele>1248.521851</ele>
<time>2008-04-06T20:58:44.988Z</time>
</trkpt>
<trkpt lat="33.2679810" lon="35.7547010">
<ele>1237.762329</ele>
<time>2008-04-06T20:58:46.249Z</time>
</trkpt>
<trkpt lat="33.2676750" lon="35.7544240">
<ele>1236.725952</ele>
<time>2008-04-06T20:58:47.372Z</time>
</trkpt>
<trkpt lat="33.2669020" lon="35.7549690">
<ele>1226.972412</ele>
<time>2008-04-06T20:58:48.858Z</time>
</trkpt>
<trkpt lat="33.2662080" lon="35.7553320">
<ele>1219.809570</ele>
<time>2008-04-06T20:58:50.465Z</time>
</trkpt>
<trkpt lat="33.2656680" lon="35.7555120">
<ele>1207.983398</ele>
<time>2008-04-06T20:58:51.372Z</time>
</trkpt>
<trkpt lat="33.2655140" lon="35.7555110">
<ele>1203.350342</ele>
<time>2008-04-06T20:58:53.092Z</time>
</trkpt>
<trkpt lat="33.2655100" lon="35.7563360">
<ele>1195.547485</ele>
<time>2008-04-06T20:58:54.327Z</time>
</trkpt>
<trkpt lat="33.2655070" lon="35.7571600">
<ele>1186.891235</ele>
<time>2008-04-06T20:58:55.546Z</time>
</trkpt>
<trkpt lat="33.2661140" lon="35.7591810">
<ele>1174.973511</ele>
<time>2008-04-06T20:58:57.300Z</time>
</trkpt>
<trkpt lat="33.2661100" lon="35.7600970">
<ele>1162.324341</ele>
<time>2008-04-06T20:58:59.019Z</time>
</trkpt>
<trkpt lat="33.2661070" lon="35.7607390">
<ele>1154.490967</ele>
<time>2008-04-06T20:59:00.108Z</time>
</trkpt>
<trkpt lat="33.2664110" lon="35.7615650">
<ele>1155.710205</ele>
<time>2008-04-06T20:59:01.248Z</time>
</trkpt>
<trkpt lat="33.2665630" lon="35.7621160">
<ele>1150.894287</ele>
<time>2008-04-06T20:59:02.924Z</time>
</trkpt>
<trkpt lat="33.2667140" lon="35.7627590">
<ele>1148.212158</ele>
<time>2008-04-06T20:59:04.799Z</time>
</trkpt>
<trkpt lat="33.2667120" lon="35.7632170">
<ele>1146.657593</ele>
<time>2008-04-06T20:59:06.000Z</time>
</trkpt>
<trkpt lat="33.2661720" lon="35.7633970">
<ele>1139.129028</ele>
<time>2008-04-06T20:59:23.747Z</time>
</trkpt>
<trkpt lat="33.2654800" lon="35.7633010">
<ele>1134.618042</ele>
<time>2008-04-06T20:59:24.714Z</time>
</trkpt>
<trkpt lat="33.2648690" lon="35.7621970">
<ele>1125.443481</ele>
<time>2008-04-06T20:59:25.924Z</time>
</trkpt>
<trkpt lat="33.2644050" lon="35.7624690">
<ele>1114.074463</ele>
<time>2008-04-06T20:59:26.796Z</time>
</trkpt>
<trkpt lat="33.2645540" lon="35.7637530">
<ele>1114.104980</ele>
<time>2008-04-06T20:59:28.308Z</time>
</trkpt>
<trkpt lat="33.2642460" lon="35.7637510">
<ele>1109.837769</ele>
<time>2008-04-06T20:59:29.440Z</time>
</trkpt>
<trkpt lat="33.2636330" lon="35.7630140">
<ele>1097.066650</ele>
<time>2008-04-06T20:59:30.564Z</time>
</trkpt>
<trkpt lat="33.2627930" lon="35.7615430">
<ele>1077.071777</ele>
<time>2008-04-06T20:59:32.050Z</time>
</trkpt>
<trkpt lat="33.2614160" lon="35.7594260">
<ele>1062.685181</ele>
<time>2008-04-06T20:59:33.622Z</time>
</trkpt>
<trkpt lat="33.2605740" lon="35.7584130">
<ele>1043.574219</ele>
<time>2008-04-06T20:59:34.987Z</time>
</trkpt>
<trkpt lat="33.2598040" lon="35.7584080">
<ele>1033.576782</ele>
<time>2008-04-06T20:59:36.188Z</time>
</trkpt>
<trkpt lat="33.2590340" lon="35.7584030">
<ele>1027.358887</ele>
<time>2008-04-06T20:59:37.450Z</time>
</trkpt>
<trkpt lat="33.2588040" lon="35.7581270">
<ele>1022.786926</ele>
<time>2008-04-06T20:59:38.340Z</time>
</trkpt>
<trkpt lat="33.2594260" lon="35.7567560">
<ele>1012.545593</ele>
<time>2008-04-06T20:59:42.012Z</time>
</trkpt>
<trkpt lat="33.2603580" lon="35.7549290">
<ele>1003.432129</ele>
<time>2008-04-06T20:59:43.705Z</time>
</trkpt>
<trkpt lat="33.2598980" lon="35.7543760">
<ele>996.482666</ele>
<time>2008-04-06T20:59:44.655Z</time>
</trkpt>
<trkpt lat="33.2594390" lon="35.7538230">
<ele>993.221313</ele>
<time>2008-04-06T20:59:46.081Z</time>
</trkpt>
<trkpt lat="33.2590570" lon="35.7531790">
<ele>1004.255066</ele>
<time>2008-04-06T20:59:47.403Z</time>
</trkpt>
<trkpt lat="33.2587500" lon="35.7529030">
<ele>1003.188232</ele>
<time>2008-04-06T20:59:48.250Z</time>
</trkpt>
<trkpt lat="33.2587560" lon="35.7514360">
<ele>999.286804</ele>
<time>2008-04-06T20:59:49.831Z</time>
</trkpt>
<trkpt lat="33.2579930" lon="35.7497820">
<ele>992.581177</ele>
<time>2008-04-06T20:59:51.559Z</time>
</trkpt>
<trkpt lat="33.2572290" lon="35.7485860">
<ele>989.136963</ele>
<time>2008-04-06T20:59:57.434Z</time>
</trkpt>
<trkpt lat="33.2569230" lon="35.7479430">
<ele>983.132385</ele>
<time>2008-04-06T21:00:01.953Z</time>
</trkpt>
<trkpt lat="33.2569290" lon="35.7466600">
<ele>969.324951</ele>
<time>2008-04-06T21:00:04.139Z</time>
</trkpt>
<trkpt lat="33.2570860" lon="35.7459270">
<ele>968.593445</ele>
<time>2008-04-06T21:00:37.878Z</time>
</trkpt>
<trkpt lat="33.2573980" lon="35.7450130">
<ele>971.428101</ele>
<time>2008-04-06T21:00:40.090Z</time>
</trkpt>
<trkpt lat="33.2581720" lon="35.7440090">
<ele>975.299072</ele>
<time>2008-04-06T21:00:41.636Z</time>
</trkpt>
<trkpt lat="33.2592520" lon="35.7436490">
<ele>971.793884</ele>
<time>2008-04-06T21:00:43.027Z</time>
</trkpt>
<trkpt lat="33.2604820" lon="35.7439320">
<ele>982.370422</ele>
<time>2008-04-06T21:00:44.487Z</time>
</trkpt>
<trkpt lat="33.2614050" lon="35.7442120">
<ele>985.052673</ele>
<time>2008-04-06T21:00:45.576Z</time>
</trkpt>
<trkpt lat="33.2620220" lon="35.7440330">
<ele>982.888550</ele>
<time>2008-04-06T21:00:48.470Z</time>
</trkpt>
<trkpt lat="33.2627960" lon="35.7430290">
<ele>994.288086</ele>
<time>2008-04-06T21:00:49.887Z</time>
</trkpt>
<trkpt lat="33.2633400" lon="35.7418410">
<ele>996.695984</ele>
<time>2008-04-06T21:00:51.468Z</time>
</trkpt>
<trkpt lat="33.2632660" lon="35.7411080">
<ele>987.460571</ele>
<time>2008-04-06T21:00:52.626Z</time>
</trkpt>
<trkpt lat="33.2628830" lon="35.7406470">
<ele>982.919067</ele>
<time>2008-04-06T21:00:53.637Z</time>
</trkpt>
<trkpt lat="33.2626530" lon="35.7405540">
<ele>981.547485</ele>
<time>2008-04-06T21:00:58.199Z</time>
</trkpt>
<trkpt lat="33.2620360" lon="35.7407330">
<ele>977.310669</ele>
<time>2008-04-06T21:00:59.357Z</time>
</trkpt>
<trkpt lat="33.2614210" lon="35.7405460">
<ele>966.551331</ele>
<time>2008-04-06T21:01:00.782Z</time>
</trkpt>
<trkpt lat="33.2611940" lon="35.7396290">
<ele>950.640686</ele>
<time>2008-04-06T21:01:02.424Z</time>
</trkpt>
<trkpt lat="33.2614290" lon="35.7387140">
<ele>948.507080</ele>
<time>2008-04-06T21:01:03.703Z</time>
</trkpt>
<trkpt lat="33.2613530" lon="35.7382550">
<ele>946.099182</ele>
<time>2008-04-06T21:01:07.988Z</time>
</trkpt>
<trkpt lat="33.2611250" lon="35.7376120">
<ele>942.990234</ele>
<time>2008-04-06T21:01:09.267Z</time>
</trkpt>
<trkpt lat="33.2605930" lon="35.7359590">
<ele>923.452515</ele>
<time>2008-04-06T21:01:10.718Z</time>
</trkpt>
<trkpt lat="33.2603730" lon="35.7333000">
<ele>903.792969</ele>
<time>2008-04-06T21:01:11.816Z</time>
</trkpt>
<trkpt lat="33.2602260" lon="35.7316490">
<ele>895.410950</ele>
<time>2008-04-06T21:01:19.341Z</time>
</trkpt>
<trkpt lat="33.2602340" lon="35.7299080">
<ele>892.393433</ele>
<time>2008-04-06T21:01:20.438Z</time>
</trkpt>
<trkpt lat="33.2603940" lon="35.7284430">
<ele>879.591858</ele>
<time>2008-04-06T21:01:21.674Z</time>
</trkpt>
<trkpt lat="33.2601660" lon="35.7277080">
<ele>874.867432</ele>
<time>2008-04-06T21:01:22.624Z</time>
</trkpt>
<trkpt lat="33.2594730" lon="35.7276130">
<ele>856.427063</ele>
<time>2008-04-06T21:01:23.877Z</time>
</trkpt>
<trkpt lat="33.2588530" lon="35.7286170">
<ele>852.129333</ele>
<time>2008-04-06T21:01:25.372Z</time>
</trkpt>
<trkpt lat="33.2580020" lon="35.7297120">
<ele>847.496399</ele>
<time>2008-04-06T21:01:26.737Z</time>
</trkpt>
<trkpt lat="33.2573070" lon="35.7300740">
<ele>834.481445</ele>
<time>2008-04-06T21:01:28.690Z</time>
</trkpt>
<trkpt lat="33.2545330" lon="35.7306990">
<ele>818.479431</ele>
<time>2008-04-06T21:01:30.409Z</time>
</trkpt>
<trkpt lat="33.2517580" lon="35.7312330">
<ele>800.557190</ele>
<time>2008-04-06T21:01:31.999Z</time>
</trkpt>
<trkpt lat="33.2511420" lon="35.7313210">
<ele>805.434021</ele>
<time>2008-04-06T21:01:33.174Z</time>
</trkpt>
<trkpt lat="33.2507590" lon="35.7308600">
<ele>811.194702</ele>
<time>2008-04-06T21:01:39.809Z</time>
</trkpt>
<trkpt lat="33.2499930" lon="35.7298480">
<ele>800.496277</ele>
<time>2008-04-06T21:01:41.019Z</time>
</trkpt>
<trkpt lat="33.2494580" lon="35.7290200">
<ele>777.392395</ele>
<time>2008-04-06T21:01:42.315Z</time>
</trkpt>
<trkpt lat="33.2499250" lon="35.7278310">
<ele>775.837891</ele>
<time>2008-04-06T21:01:43.205Z</time>
</trkpt>
<trkpt lat="33.2503930" lon="35.7263680">
<ele>766.815857</ele>
<time>2008-04-06T21:01:44.518Z</time>
</trkpt>
<trkpt lat="33.2507860" lon="35.7244460">
<ele>753.983765</ele>
<time>2008-04-06T21:01:45.702Z</time>
</trkpt>
<trkpt lat="33.2511790" lon="35.7225240">
<ele>732.007690</ele>
<time>2008-04-06T21:01:46.894Z</time>
</trkpt>
<trkpt lat="33.2516460" lon="35.7212430">
<ele>726.947998</ele>
<time>2008-04-06T21:01:47.793Z</time>
</trkpt>
<trkpt lat="33.2524190" lon="35.7205150">
<ele>725.515442</ele>
<time>2008-04-06T21:01:48.752Z</time>
</trkpt>
<trkpt lat="33.2529610" lon="35.7197850">
<ele>729.203491</ele>
<time>2008-04-06T21:01:49.624Z</time>
</trkpt>
<trkpt lat="33.2531170" lon="35.7192360">
<ele>731.337097</ele>
<time>2008-04-06T21:01:50.514Z</time>
</trkpt>
<trkpt lat="33.2528100" lon="35.7188680">
<ele>724.661987</ele>
<time>2008-04-06T21:01:51.361Z</time>
</trkpt>
<trkpt lat="33.2523480" lon="35.7189570">
<ele>711.128906</ele>
<time>2008-04-06T21:01:54.687Z</time>
</trkpt>
<trkpt lat="33.2514220" lon="35.7194090">
<ele>686.622925</ele>
<time>2008-04-06T21:01:55.733Z</time>
</trkpt>
<trkpt lat="33.2501100" lon="35.7201350">
<ele>650.382263</ele>
<time>2008-04-06T21:01:57.124Z</time>
</trkpt>
<trkpt lat="33.2496460" lon="35.7207740">
<ele>637.915894</ele>
<time>2008-04-06T21:01:57.893Z</time>
</trkpt>
<trkpt lat="33.2490250" lon="35.7218700">
<ele>625.144775</ele>
<time>2008-04-06T21:01:59.327Z</time>
</trkpt>
<trkpt lat="33.2487140" lon="35.7226930">
<ele>635.355591</ele>
<time>2008-04-06T21:02:00.200Z</time>
</trkpt>
<trkpt lat="33.2487140" lon="35.7226930">
<ele>635.355591</ele>
<time>2008-04-06T21:02:00.347Z</time>
</trkpt>
<trkpt lat="33.2477890" lon="35.7230540">
<ele>640.781067</ele>
<time>2008-04-06T21:02:01.764Z</time>
</trkpt>
<trkpt lat="33.2468650" lon="35.7230480">
<ele>640.689575</ele>
<time>2008-04-06T21:02:02.653Z</time>
</trkpt>
<trkpt lat="33.2461720" lon="35.7228610">
<ele>650.504150</ele>
<time>2008-04-06T21:02:03.872Z</time>
</trkpt>
<trkpt lat="33.2457900" lon="35.7221260">
<ele>653.338806</ele>
<time>2008-04-06T21:02:04.831Z</time>
</trkpt>
<trkpt lat="33.2460270" lon="35.7208440">
<ele>654.588501</ele>
<time>2008-04-06T21:02:06.481Z</time>
</trkpt>
<trkpt lat="33.2462630" lon="35.7195630">
<ele>631.118896</ele>
<time>2008-04-06T21:02:07.716Z</time>
</trkpt>
<trkpt lat="33.2460390" lon="35.7179120">
<ele>607.923584</ele>
<time>2008-04-06T21:02:09.704Z</time>
</trkpt>
<trkpt lat="33.2453490" lon="35.7170830">
<ele>583.051941</ele>
<time>2008-04-06T21:02:11.000Z</time>
</trkpt>
<trkpt lat="33.2436590" lon="35.7162490">
<ele>568.970154</ele>
<time>2008-04-06T21:02:26.750Z</time>
</trkpt>
<trkpt lat="33.2415050" lon="35.7156870">
<ele>553.669189</ele>
<time>2008-04-06T21:02:28.167Z</time>
</trkpt>
<trkpt lat="33.2404270" lon="35.7156810">
<ele>566.988953</ele>
<time>2008-04-06T21:02:29.325Z</time>
</trkpt>
<trkpt lat="33.2391140" lon="35.7165890">
<ele>547.634155</ele>
<time>2008-04-06T21:02:30.517Z</time>
</trkpt>
<trkpt lat="33.2381090" lon="35.7176830">
<ele>545.652954</ele>
<time>2008-04-06T21:02:31.718Z</time>
</trkpt>
<trkpt lat="33.2373370" lon="35.7181370">
<ele>550.285950</ele>
<time>2008-04-06T21:02:32.591Z</time>
</trkpt>
<trkpt lat="33.2367230" lon="35.7176750">
<ele>553.120544</ele>
<time>2008-04-06T21:02:33.481Z</time>
</trkpt>
<trkpt lat="33.2363420" lon="35.7167570">
<ele>548.853333</ele>
<time>2008-04-06T21:02:34.466Z</time>
</trkpt>
<trkpt lat="33.2368890" lon="35.7147440">
<ele>534.802063</ele>
<time>2008-04-06T21:02:35.641Z</time>
</trkpt>
<trkpt lat="33.2377450" lon="35.7123670">
<ele>510.540009</ele>
<time>2008-04-06T21:02:36.825Z</time>
</trkpt>
<trkpt lat="33.2389120" lon="35.7094420">
<ele>489.691681</ele>
<time>2008-04-06T21:02:38.043Z</time>
</trkpt>
<trkpt lat="33.2401540" lon="35.7069750">
<ele>471.403687</ele>
<time>2008-04-06T21:02:39.183Z</time>
</trkpt>
<trkpt lat="33.2403130" lon="35.7056010">
<ele>456.468475</ele>
<time>2008-04-06T21:02:40.393Z</time>
</trkpt>
<trkpt lat="33.2398570" lon="35.7042240">
<ele>451.378326</ele>
<time>2008-04-06T21:02:41.654Z</time>
</trkpt>
<trkpt lat="33.2392460" lon="35.7028460">
<ele>437.266083</ele>
<time>2008-04-06T21:02:43.261Z</time>
</trkpt>
<trkpt lat="33.2402560" lon="35.7005610">
<ele>418.277069</ele>
<time>2008-04-06T21:02:48.808Z</time>
</trkpt>
<trkpt lat="33.2406470" lon="35.6990970">
<ele>410.138885</ele>
<time>2008-04-06T21:02:49.828Z</time>
</trkpt>
<trkpt lat="33.2406500" lon="35.6983640">
<ele>405.566864</ele>
<time>2008-04-06T21:02:50.562Z</time>
</trkpt>
<trkpt lat="33.2412670" lon="35.6981850">
<ele>403.494263</ele>
<time>2008-04-06T21:02:51.487Z</time>
</trkpt>
<trkpt lat="33.2419610" lon="35.6979140">
<ele>395.904724</ele>
<time>2008-04-06T21:02:52.299Z</time>
</trkpt>
<trkpt lat="33.2422700" lon="35.6975490">
<ele>393.100555</ele>
<time>2008-04-06T21:02:55.202Z</time>
</trkpt>
<trkpt lat="33.2428850" lon="35.6979190">
<ele>393.222473</ele>
<time>2008-04-06T21:02:56.844Z</time>
</trkpt>
<trkpt lat="33.2432710" lon="35.6976460">
<ele>388.894318</ele>
<time>2008-04-06T21:02:57.828Z</time>
</trkpt>
<trkpt lat="33.2434280" lon="35.6968220">
<ele>381.670532</ele>
<time>2008-04-06T21:02:58.917Z</time>
</trkpt>
<trkpt lat="33.2438940" lon="35.6957250">
<ele>375.879333</ele>
<time>2008-04-06T21:03:00.066Z</time>
</trkpt>
<trkpt lat="33.2445130" lon="35.6949040">
<ele>364.845612</ele>
<time>2008-04-06T21:03:01.094Z</time>
</trkpt>
<trkpt lat="33.2451310" lon="35.6944490">
<ele>360.517456</ele>
<time>2008-04-06T21:03:12.629Z</time>
</trkpt>
<trkpt lat="33.2460550" lon="35.6944540">
<ele>361.279449</ele>
<time>2008-04-06T21:03:13.484Z</time>
</trkpt>
<trkpt lat="33.2465180" lon="35.6940900">
<ele>358.932465</ele>
<time>2008-04-06T21:03:14.314Z</time>
</trkpt>
<trkpt lat="33.2468300" lon="35.6931750">
<ele>353.446075</ele>
<time>2008-04-06T21:03:18.435Z</time>
</trkpt>
<trkpt lat="33.2469870" lon="35.6923520">
<ele>349.178864</ele>
<time>2008-04-06T21:03:20.232Z</time>
</trkpt>
<trkpt lat="33.2474490" lon="35.6924460">
<ele>350.916260</ele>
<time>2008-04-06T21:03:22.124Z</time>
</trkpt>
<trkpt lat="33.2479120" lon="35.6920820">
<ele>349.849457</ele>
<time>2008-04-06T21:03:22.893Z</time>
</trkpt>
<trkpt lat="33.2480680" lon="35.6915330">
<ele>347.411041</ele>
<time>2008-04-06T21:03:23.688Z</time>
</trkpt>
<trkpt lat="33.2480700" lon="35.6909830">
<ele>347.715851</ele>
<time>2008-04-06T21:03:24.405Z</time>
</trkpt>
<trkpt lat="33.2476120" lon="35.6900640">
<ele>345.521271</ele>
<time>2008-04-06T21:03:25.753Z</time>
</trkpt>
<trkpt lat="33.2474620" lon="35.6888720">
<ele>346.862396</ele>
<time>2008-04-06T21:03:26.824Z</time>
</trkpt>
<trkpt lat="33.2474770" lon="35.6849320">
<ele>341.558868</ele>
<time>2008-04-06T21:03:28.362Z</time>
</trkpt>
<trkpt lat="33.2476400" lon="35.6827340">
<ele>332.689209</ele>
<time>2008-04-06T21:03:29.356Z</time>
</trkpt>
<trkpt lat="33.2479570" lon="35.6803530">
<ele>319.308472</ele>
<time>2008-04-06T21:03:33.123Z</time>
</trkpt>
<trkpt lat="33.2482720" lon="35.6785220">
<ele>303.032166</ele>
<time>2008-04-06T21:03:34.186Z</time>
</trkpt>
<trkpt lat="33.2488130" lon="35.6777910">
<ele>288.828461</ele>
<time>2008-04-06T21:03:35.188Z</time>
</trkpt>
<trkpt lat="33.2495060" lon="35.6777950">
<ele>283.829773</ele>
<time>2008-04-06T21:03:36.017Z</time>
</trkpt>
<trkpt lat="33.2504280" lon="35.6783500">
<ele>289.133270</ele>
<time>2008-04-06T21:03:37.106Z</time>
</trkpt>
<trkpt lat="33.2510450" lon="35.6781700">
<ele>284.347931</ele>
<time>2008-04-06T21:03:37.935Z</time>
</trkpt>
<trkpt lat="33.2513550" lon="35.6776220">
<ele>279.562561</ele>
<time>2008-04-06T21:03:38.722Z</time>
</trkpt>
<trkpt lat="33.2512810" lon="35.6768880">
<ele>275.691589</ele>
<time>2008-04-06T21:03:42.247Z</time>
</trkpt>
<trkpt lat="33.2505940" lon="35.6750520">
<ele>265.297913</ele>
<time>2008-04-06T21:03:43.888Z</time>
</trkpt>
<trkpt lat="33.2502900" lon="35.6740420">
<ele>259.537201</ele>
<time>2008-04-06T21:03:44.951Z</time>
</trkpt>
<trkpt lat="33.2504470" lon="35.6734010">
<ele>254.447037</ele>
<time>2008-04-06T21:03:45.590Z</time>
</trkpt>
<trkpt lat="33.2507560" lon="35.6730370">
<ele>253.746002</ele>
<time>2008-04-06T21:03:46.187Z</time>
</trkpt>
<trkpt lat="33.2511420" lon="35.6728550">
<ele>256.550171</ele>
<time>2008-04-06T21:03:47.284Z</time>
</trkpt>
<trkpt lat="33.2506820" lon="35.6723030">
<ele>252.191528</ele>
<time>2008-04-06T21:03:57.721Z</time>
</trkpt>
<trkpt lat="33.2490710" lon="35.6704620">
<ele>241.645432</ele>
<time>2008-04-06T21:03:59.311Z</time>
</trkpt>
<trkpt lat="33.2464640" lon="35.6675160">
<ele>223.022171</ele>
<time>2008-04-06T21:04:06.482Z</time>
</trkpt>
<trkpt lat="33.2467740" lon="35.6671510">
<ele>223.662231</ele>
<time>2008-04-06T21:04:07.424Z</time>
</trkpt>
<trkpt lat="33.2467800" lon="35.6655020">
<ele>218.328232</ele>
<time>2008-04-06T21:04:10.923Z</time>
</trkpt>
<trkpt lat="33.2471720" lon="35.6634880">
<ele>212.415131</ele>
<time>2008-04-06T21:04:12.158Z</time>
</trkpt>
<trkpt lat="33.2471770" lon="35.6620220">
<ele>207.812637</ele>
<time>2008-04-06T21:04:13.126Z</time>
</trkpt>
<trkpt lat="33.2473370" lon="35.6605560">
<ele>202.295761</ele>
<time>2008-04-06T21:04:14.267Z</time>
</trkpt>
<trkpt lat="33.2480360" lon="35.6589100">
<ele>200.375534</ele>
<time>2008-04-06T21:04:17.377Z</time>
</trkpt>
<trkpt lat="33.2486560" lon="35.6577220">
<ele>198.180969</ele>
<time>2008-04-06T21:04:18.483Z</time>
</trkpt>
<trkpt lat="33.2494300" lon="35.6566270">
<ele>198.119995</ele>
<time>2008-04-06T21:04:19.606Z</time>
</trkpt>
<trkpt lat="33.2498950" lon="35.6556210">
<ele>199.887833</ele>
<time>2008-04-06T21:04:21.127Z</time>
</trkpt>
<trkpt lat="33.2498970" lon="35.6550710">
<ele>204.337921</ele>
<time>2008-04-06T21:04:26.717Z</time>
</trkpt>
<trkpt lat="33.2503610" lon="35.6545240">
<ele>206.471527</ele>
<time>2008-04-06T21:04:27.624Z</time>
</trkpt>
<trkpt lat="33.2505960" lon="35.6534250">
<ele>205.953369</ele>
<time>2008-04-06T21:04:29.767Z</time>
</trkpt>
<trkpt lat="33.2506010" lon="35.6519590">
<ele>197.449432</ele>
<time>2008-04-06T21:04:31.261Z</time>
</trkpt>
<trkpt lat="33.2502230" lon="35.6499410">
<ele>187.512970</ele>
<time>2008-04-06T21:04:32.488Z</time>
</trkpt>
<trkpt lat="33.2498420" lon="35.6489310">
<ele>187.909195</ele>
<time>2008-04-06T21:04:33.361Z</time>
</trkpt>
<trkpt lat="33.2496140" lon="35.6479220">
<ele>187.055771</ele>
<time>2008-04-06T21:04:34.268Z</time>
</trkpt>
<trkpt lat="33.2492310" lon="35.6473700">
<ele>187.360565</ele>
<time>2008-04-06T21:04:35.089Z</time>
</trkpt>
<trkpt lat="33.2483070" lon="35.6473660">
<ele>183.885834</ele>
<time>2008-04-06T21:04:39.936Z</time>
</trkpt>
<trkpt lat="33.2474630" lon="35.6465370">
<ele>178.307999</ele>
<time>2008-04-06T21:04:40.826Z</time>
</trkpt>
<trkpt lat="33.2465420" lon="35.6457070">
<ele>172.699677</ele>
<time>2008-04-06T21:04:41.612Z</time>
</trkpt>
<trkpt lat="33.2461600" lon="35.6450640">
<ele>172.638733</ele>
<time>2008-04-06T21:07:47.986Z</time>
</trkpt>
<trkpt lat="33.2457010" lon="35.6440540">
<ele>171.602402</ele>
<time>2008-04-06T21:07:54.673Z</time>
</trkpt>
<trkpt lat="33.2453960" lon="35.6432280">
<ele>165.994080</ele>
<time>2008-04-06T21:07:55.908Z</time>
</trkpt>
<trkpt lat="33.2452450" lon="35.6424940">
<ele>163.708069</ele>
<time>2008-04-06T21:07:56.954Z</time>
</trkpt>
<trkpt lat="33.2449380" lon="35.6420340">
<ele>162.763199</ele>
<time>2008-04-06T21:08:02.950Z</time>
</trkpt>
<trkpt lat="33.2447850" lon="35.6416670">
<ele>162.123123</ele>
<time>2008-04-06T21:08:04.574Z</time>
</trkpt>
<trkpt lat="33.2444810" lon="35.6405660">
<ele>161.848801</ele>
<time>2008-04-06T21:08:05.378Z</time>
</trkpt>
<trkpt lat="33.2441770" lon="35.6394650">
<ele>160.233368</ele>
<time>2008-04-06T21:08:06.138Z</time>
</trkpt>
<trkpt lat="33.2441020" lon="35.6390060">
<ele>158.374069</ele>
<time>2008-04-06T21:09:36.063Z</time>
</trkpt>
<trkpt lat="33.2432550" lon="35.6388190">
<ele>157.185364</ele>
<time>2008-04-06T21:09:37.152Z</time>
</trkpt>
<trkpt lat="33.2421780" lon="35.6386300">
<ele>158.435043</ele>
<time>2008-04-06T21:09:38.033Z</time>
</trkpt>
<trkpt lat="33.2421830" lon="35.6372560">
<ele>161.025833</ele>
<time>2008-04-06T21:09:38.811Z</time>
</trkpt>
<trkpt lat="33.2420320" lon="35.6363390">
<ele>159.440872</ele>
<time>2008-04-06T21:09:39.874Z</time>
</trkpt>
<trkpt lat="33.2411870" lon="35.6357850">
<ele>158.374069</ele>
<time>2008-04-06T21:09:40.582Z</time>
</trkpt>
<trkpt lat="33.2402630" lon="35.6356890">
<ele>156.880569</ele>
<time>2008-04-06T21:09:41.403Z</time>
</trkpt>
<trkpt lat="33.2401110" lon="35.6351390">
<ele>156.392868</ele>
<time>2008-04-06T21:09:42.232Z</time>
</trkpt>
<trkpt lat="33.2402690" lon="35.6340400">
<ele>155.905197</ele>
<time>2008-04-06T21:09:43.001Z</time>
</trkpt>
<trkpt lat="33.2385760" lon="35.6336650">
<ele>154.350723</ele>
<time>2008-04-06T21:09:48.220Z</time>
</trkpt>
<trkpt lat="33.2373490" lon="35.6321930">
<ele>154.990799</ele>
<time>2008-04-06T21:09:49.144Z</time>
</trkpt>
<trkpt lat="33.2368910" lon="35.6310920">
<ele>152.399994</ele>
<time>2008-04-06T21:09:49.887Z</time>
</trkpt>
<trkpt lat="33.2359700" lon="35.6302630">
<ele>150.936966</ele>
<time>2008-04-06T21:09:51.045Z</time>
</trkpt>
<trkpt lat="33.2353560" lon="35.6294350">
<ele>149.291031</ele>
<time>2008-04-06T21:09:51.684Z</time>
</trkpt>
<trkpt lat="33.2347430" lon="35.6286990">
<ele>143.896088</ele>
<time>2008-04-06T21:09:52.764Z</time>
</trkpt>
<trkpt lat="33.2341300" lon="35.6277800">
<ele>142.189194</ele>
<time>2008-04-06T21:10:33.113Z</time>
</trkpt>
<trkpt lat="33.2334390" lon="35.6271350">
<ele>138.836395</ele>
<time>2008-04-06T21:10:33.830Z</time>
</trkpt>
<trkpt lat="33.2323580" lon="35.6281380">
<ele>136.489441</ele>
<time>2008-04-06T21:10:34.582Z</time>
</trkpt>
<trkpt lat="33.2316700" lon="35.6267610">
<ele>132.709915</ele>
<time>2008-04-06T21:10:35.377Z</time>
</trkpt>
<trkpt lat="33.2312130" lon="35.6251090">
<ele>126.461517</ele>
<time>2008-04-06T21:10:36.293Z</time>
</trkpt>
<trkpt lat="33.2306800" lon="35.6233660">
<ele>119.938797</ele>
<time>2008-04-06T21:10:37.122Z</time>
</trkpt>
<trkpt lat="33.2301470" lon="35.6216230">
<ele>118.597679</ele>
<time>2008-04-06T21:10:38.202Z</time>
</trkpt>
<trkpt lat="33.2292250" lon="35.6210690">
<ele>116.159279</ele>
<time>2008-04-06T21:10:39.127Z</time>
</trkpt>
<trkpt lat="33.2279960" lon="35.6200550">
<ele>110.246162</ele>
<time>2008-04-06T21:10:39.792Z</time>
</trkpt>
<trkpt lat="33.2273850" lon="35.6185870">
<ele>109.971840</ele>
<time>2008-04-06T21:10:40.483Z</time>
</trkpt>
<trkpt lat="33.2271580" lon="35.6173030">
<ele>109.697517</ele>
<time>2008-04-06T21:10:41.762Z</time>
</trkpt>
<trkpt lat="33.2263150" lon="35.6162000">
<ele>105.186485</ele>
<time>2008-04-06T21:10:42.574Z</time>
</trkpt>
<trkpt lat="33.2253930" lon="35.6155540">
<ele>101.620316</ele>
<time>2008-04-06T21:10:47.032Z</time>
</trkpt>
<trkpt lat="33.2249320" lon="35.6150940">
<ele>102.138481</ele>
<time>2008-04-06T21:10:49.547Z</time>
</trkpt>
<trkpt lat="33.2244710" lon="35.6147260">
<ele>101.894638</ele>
<time>2008-04-06T21:10:50.298Z</time>
</trkpt>
<trkpt lat="33.2247050" lon="35.6138110">
<ele>101.406967</ele>
<time>2008-04-06T21:10:51.033Z</time>
</trkpt>
<trkpt lat="33.2248610" lon="35.6131700">
<ele>102.443283</ele>
<time>2008-04-06T21:10:53.314Z</time>
</trkpt>
<trkpt lat="33.2254010" lon="35.6130810">
<ele>104.729279</ele>
<time>2008-04-06T21:10:54.731Z</time>
</trkpt>
<trkpt lat="33.2264020" lon="35.6130850">
<ele>107.716316</ele>
<time>2008-04-06T21:10:55.500Z</time>
</trkpt>
<trkpt lat="33.2285580" lon="35.6129120">
<ele>119.024399</ele>
<time>2008-04-06T21:10:56.778Z</time>
</trkpt>
<trkpt lat="33.2303290" lon="35.6128280">
<ele>125.547119</ele>
<time>2008-04-06T21:10:57.547Z</time>
</trkpt>
<trkpt lat="33.2312540" lon="35.6125580">
<ele>130.820160</ele>
<time>2008-04-06T21:10:58.325Z</time>
</trkpt>
<trkpt lat="33.2321020" lon="35.6121950">
<ele>134.020569</ele>
<time>2008-04-06T21:10:59.232Z</time>
</trkpt>
<trkpt lat="33.2332580" lon="35.6119260">
<ele>140.451843</ele>
<time>2008-04-06T21:11:00.217Z</time>
</trkpt>
<trkpt lat="33.2341840" lon="35.6114720">
<ele>146.730713</ele>
<time>2008-04-06T21:11:06.153Z</time>
</trkpt>
<trkpt lat="33.2353410" lon="35.6105610">
<ele>154.655518</ele>
<time>2008-04-06T21:11:07.207Z</time>
</trkpt>
<trkpt lat="33.2363450" lon="35.6098320">
<ele>163.250870</ele>
<time>2008-04-06T21:11:07.872Z</time>
</trkpt>
<trkpt lat="33.2374250" lon="35.6091960">
<ele>171.571930</ele>
<time>2008-04-06T21:11:08.546Z</time>
</trkpt>
<trkpt lat="33.2374280" lon="35.6082800">
<ele>170.566071</ele>
<time>2008-04-06T21:11:11.017Z</time>
</trkpt>
<trkpt lat="33.2371240" lon="35.6069040">
<ele>171.785278</ele>
<time>2008-04-06T21:11:11.561Z</time>
</trkpt>
<trkpt lat="33.2368220" lon="35.6050700">
<ele>169.560242</ele>
<time>2008-04-06T21:11:12.252Z</time>
</trkpt>
<trkpt lat="33.2366740" lon="35.6032370">
<ele>167.121841</ele>
<time>2008-04-06T21:11:13.091Z</time>
</trkpt>
<trkpt lat="33.2366780" lon="35.6017710">
<ele>184.708801</ele>
<time>2008-04-06T21:11:13.955Z</time>
</trkpt>
<trkpt lat="33.2366060" lon="35.6002130">
<ele>192.633606</ele>
<time>2008-04-06T21:11:14.654Z</time>
</trkpt>
<trkpt lat="33.2366870" lon="35.5990220">
<ele>196.108322</ele>
<time>2008-04-06T21:11:15.216Z</time>
</trkpt>
<trkpt lat="33.2369980" lon="35.5981070">
<ele>199.765930</ele>
<time>2008-04-06T21:11:15.717Z</time>
</trkpt>
<trkpt lat="33.2373850" lon="35.5971930">
<ele>203.758804</ele>
<time>2008-04-06T21:11:16.503Z</time>
</trkpt>
<trkpt lat="33.2383110" lon="35.5965550">
<ele>210.311996</ele>
<time>2008-04-06T21:11:17.220Z</time>
</trkpt>
<trkpt lat="33.2396980" lon="35.5963780">
<ele>217.383362</ele>
<time>2008-04-06T21:11:18.093Z</time>
</trkpt>
<trkpt lat="33.2407760" lon="35.5964750">
<ele>221.345764</ele>
<time>2008-04-06T21:11:19.190Z</time>
</trkpt>
<trkpt lat="33.2417770" lon="35.5962960">
<ele>225.491043</ele>
<time>2008-04-06T21:11:19.752Z</time>
</trkpt>
<trkpt lat="33.2425480" lon="35.5959330">
<ele>231.617523</ele>
<time>2008-04-06T21:11:22.456Z</time>
</trkpt>
<trkpt lat="33.2436260" lon="35.5959370">
<ele>236.555267</ele>
<time>2008-04-06T21:11:22.983Z</time>
</trkpt>
<trkpt lat="33.2443190" lon="35.5959400">
<ele>241.554001</ele>
<time>2008-04-06T21:11:23.605Z</time>
</trkpt>
<trkpt lat="33.2446300" lon="35.5950250">
<ele>248.747269</ele>
<time>2008-04-06T21:11:24.668Z</time>
</trkpt>
<trkpt lat="33.2444800" lon="35.5935590">
<ele>251.947678</ele>
<time>2008-04-06T21:11:25.532Z</time>
</trkpt>
<trkpt lat="33.2441010" lon="35.5918160">
<ele>252.313431</ele>
<time>2008-04-06T21:11:26.422Z</time>
</trkpt>
<trkpt lat="33.2441040" lon="35.5906250">
<ele>245.546875</ele>
<time>2008-04-06T21:11:27.061Z</time>
</trkpt>
<trkpt lat="33.2443390" lon="35.5893430">
<ele>252.587769</ele>
<time>2008-04-06T21:11:27.658Z</time>
</trkpt>
<trkpt lat="33.2444210" lon="35.5876940">
<ele>260.085846</ele>
<time>2008-04-06T21:11:28.487Z</time>
</trkpt>
<trkpt lat="33.2442730" lon="35.5858610">
<ele>266.943848</ele>
<time>2008-04-06T21:11:29.437Z</time>
</trkpt>
<trkpt lat="33.2440460" lon="35.5844850">
<ele>274.441925</ele>
<time>2008-04-06T21:11:50.096Z</time>
</trkpt>
<trkpt lat="33.2442800" lon="35.5834780">
<ele>277.368011</ele>
<time>2008-04-06T21:11:50.657Z</time>
</trkpt>
<trkpt lat="33.2442820" lon="35.5826540">
<ele>284.500336</ele>
<time>2008-04-06T21:11:51.487Z</time>
</trkpt>
<trkpt lat="33.2435130" lon="35.5823750">
<ele>287.030151</ele>
<time>2008-04-06T21:11:52.109Z</time>
</trkpt>
<trkpt lat="33.2428980" lon="35.5820060">
<ele>294.131989</ele>
<time>2008-04-06T21:11:52.653Z</time>
</trkpt>
<trkpt lat="33.2422840" lon="35.5814540">
<ele>297.728638</ele>
<time>2008-04-06T21:11:53.465Z</time>
</trkpt>
<trkpt lat="33.2422090" lon="35.5809040">
<ele>304.921936</ele>
<time>2008-04-06T21:11:54.061Z</time>
</trkpt>
<trkpt lat="33.2419030" lon="35.5802610">
<ele>311.749451</ele>
<time>2008-04-06T21:11:54.934Z</time>
</trkpt>
<trkpt lat="33.2410570" lon="35.5797990">
<ele>309.341522</ele>
<time>2008-04-06T21:11:55.781Z</time>
</trkpt>
<trkpt lat="33.2407510" lon="35.5792480">
<ele>310.895996</ele>
<time>2008-04-06T21:11:56.342Z</time>
</trkpt>
<trkpt lat="33.2404450" lon="35.5785140">
<ele>313.273468</ele>
<time>2008-04-06T21:11:57.362Z</time>
</trkpt>
<trkpt lat="33.2402930" lon="35.5778720">
<ele>314.340240</ele>
<time>2008-04-06T21:11:57.889Z</time>
</trkpt>
<trkpt lat="33.2399860" lon="35.5774130">
<ele>312.054230</ele>
<time>2008-04-06T21:11:58.511Z</time>
</trkpt>
<trkpt lat="33.2396790" lon="35.5770450">
<ele>316.992004</ele>
<time>2008-04-06T21:11:59.531Z</time>
</trkpt>
<trkpt lat="33.2387560" lon="35.5768580">
<ele>319.156067</ele>
<time>2008-04-06T21:12:00.144Z</time>
</trkpt>
<trkpt lat="33.2379870" lon="35.5763050">
<ele>301.142395</ele>
<time>2008-04-06T21:12:01.250Z</time>
</trkpt>
<trkpt lat="33.2370640" lon="35.5760260">
<ele>294.467285</ele>
<time>2008-04-06T21:12:01.829Z</time>
</trkpt>
<trkpt lat="33.2365260" lon="35.5757490">
<ele>305.074341</ele>
<time>2008-04-06T21:12:02.606Z</time>
</trkpt>
<trkpt lat="33.2365280" lon="35.5750160">
<ele>334.182739</ele>
<time>2008-04-06T21:12:16.465Z</time>
</trkpt>
<trkpt lat="33.2372240" lon="35.5739190">
<ele>339.547211</ele>
<time>2008-04-06T21:12:17.389Z</time>
</trkpt>
<trkpt lat="33.2379970" lon="35.5729150">
<ele>345.399353</ele>
<time>2008-04-06T21:12:18.029Z</time>
</trkpt>
<trkpt lat="33.2386170" lon="35.5717260">
<ele>350.977203</ele>
<time>2008-04-06T21:12:18.798Z</time>
</trkpt>
<trkpt lat="33.2382340" lon="35.5709000">
<ele>355.122467</ele>
<time>2008-04-06T21:12:53.738Z</time>
</trkpt>
<trkpt lat="33.2370820" lon="35.5697960">
<ele>368.655609</ele>
<time>2008-04-06T21:12:54.593Z</time>
</trkpt>
<trkpt lat="33.2361610" lon="35.5689670">
<ele>372.282715</ele>
<time>2008-04-06T21:12:55.405Z</time>
</trkpt>
<trkpt lat="33.2353930" lon="35.5682310">
<ele>372.739929</ele>
<time>2008-04-06T21:12:57.548Z</time>
</trkpt>
<trkpt lat="33.2348570" lon="35.5671300">
<ele>393.161530</ele>
<time>2008-04-06T21:13:01.497Z</time>
</trkpt>
<trkpt lat="33.2354750" lon="35.5663990">
<ele>381.792480</ele>
<time>2008-04-06T21:13:02.456Z</time>
</trkpt>
<trkpt lat="33.2361710" lon="35.5653940">
<ele>350.733337</ele>
<time>2008-04-06T21:13:03.233Z</time>
</trkpt>
<trkpt lat="33.2349390" lon="35.5652060">
<ele>346.222321</ele>
<time>2008-04-06T21:13:13.204Z</time>
</trkpt>
<trkpt lat="33.2334790" lon="35.5642840">
<ele>340.187286</ele>
<time>2008-04-06T21:13:14.128Z</time>
</trkpt>
<trkpt lat="33.2320960" lon="35.5634540">
<ele>317.601593</ele>
<time>2008-04-06T21:13:14.794Z</time>
</trkpt>
<trkpt lat="33.2309420" lon="35.5629910">
<ele>322.478394</ele>
<time>2008-04-06T21:13:15.658Z</time>
</trkpt>
<trkpt lat="33.2297110" lon="35.5627110">
<ele>355.092010</ele>
<time>2008-04-06T21:13:22.112Z</time>
</trkpt>
<trkpt lat="33.2287890" lon="35.5620660">
<ele>373.440948</ele>
<time>2008-04-06T21:13:22.941Z</time>
</trkpt>
<trkpt lat="33.2281720" lon="35.5624300">
<ele>373.715271</ele>
<time>2008-04-06T21:13:23.917Z</time>
</trkpt>
<trkpt lat="33.2272490" lon="35.5619680">
<ele>364.144531</ele>
<time>2008-04-06T21:13:24.764Z</time>
</trkpt>
<trkpt lat="33.2263240" lon="35.5624230">
<ele>368.442261</ele>
<time>2008-04-06T21:13:25.404Z</time>
</trkpt>
<trkpt lat="33.2255540" lon="35.5622370">
<ele>348.538788</ele>
<time>2008-04-06T21:13:26.717Z</time>
</trkpt>
<trkpt lat="33.2248600" lon="35.5626920">
<ele>349.087463</ele>
<time>2008-04-06T21:13:27.564Z</time>
</trkpt>
<trkpt lat="33.2241670" lon="35.5627810">
<ele>348.874084</ele>
<time>2008-04-06T21:13:28.644Z</time>
</trkpt>
<trkpt lat="33.2229360" lon="35.5625010">
<ele>345.216461</ele>
<time>2008-04-06T21:13:29.706Z</time>
</trkpt>
<trkpt lat="33.2227030" lon="35.5629580">
<ele>357.438934</ele>
<time>2008-04-06T21:13:33.594Z</time>
</trkpt>
<trkpt lat="33.2215470" lon="35.5633200">
<ele>355.793060</ele>
<time>2008-04-06T21:13:34.605Z</time>
</trkpt>
<trkpt lat="33.2204680" lon="35.5637740">
<ele>343.082886</ele>
<time>2008-04-06T21:13:35.659Z</time>
</trkpt>
<trkpt lat="33.2193900" lon="35.5638610">
<ele>333.847443</ele>
<time>2008-04-06T21:13:40.636Z</time>
</trkpt>
<trkpt lat="33.2186980" lon="35.5634000">
<ele>335.737213</ele>
<time>2008-04-06T21:13:41.405Z</time>
</trkpt>
<trkpt lat="33.2178540" lon="35.5625720">
<ele>342.625671</ele>
<time>2008-04-06T21:13:46.831Z</time>
</trkpt>
<trkpt lat="33.2172390" lon="35.5621120">
<ele>350.428558</ele>
<time>2008-04-06T21:13:47.608Z</time>
</trkpt>
<trkpt lat="33.2165460" lon="35.5619260">
<ele>359.572540</ele>
<time>2008-04-06T21:13:48.636Z</time>
</trkpt>
<trkpt lat="33.2158540" lon="35.5616480">
<ele>365.668549</ele>
<time>2008-04-06T21:13:49.207Z</time>
</trkpt>
<trkpt lat="33.2150100" lon="35.5607290">
<ele>357.134155</ele>
<time>2008-04-06T21:13:50.105Z</time>
</trkpt>
<trkpt lat="33.2143960" lon="35.5599020">
<ele>340.492065</ele>
<time>2008-04-06T21:13:50.935Z</time>
</trkpt>
<trkpt lat="33.2136280" lon="35.5593490">
<ele>329.458313</ele>
<time>2008-04-06T21:13:51.669Z</time>
</trkpt>
<trkpt lat="33.2127820" lon="35.5589800">
<ele>334.396088</ele>
<time>2008-04-06T21:13:52.654Z</time>
</trkpt>
<trkpt lat="33.2117030" lon="35.5591590">
<ele>337.748871</ele>
<time>2008-04-06T21:13:53.371Z</time>
</trkpt>
<trkpt lat="33.2104710" lon="35.5594290">
<ele>337.718414</ele>
<time>2008-04-06T21:13:54.641Z</time>
</trkpt>
<trkpt lat="33.2095450" lon="35.5598830">
<ele>321.777344</ele>
<time>2008-04-06T21:13:55.471Z</time>
</trkpt>
<trkpt lat="33.2078490" lon="35.5606090">
<ele>312.176147</ele>
<time>2008-04-06T21:14:23.542Z</time>
</trkpt>
<trkpt lat="33.2071570" lon="35.5602400">
<ele>309.311035</ele>
<time>2008-04-06T21:14:24.233Z</time>
</trkpt>
<trkpt lat="33.2064680" lon="35.5591380">
<ele>319.704742</ele>
<time>2008-04-06T21:14:24.855Z</time>
</trkpt>
<trkpt lat="33.2055440" lon="35.5590430">
<ele>326.227448</ele>
<time>2008-04-06T21:14:25.624Z</time>
</trkpt>
<trkpt lat="33.2050820" lon="35.5591330">
<ele>322.600342</ele>
<time>2008-04-06T21:14:27.231Z</time>
</trkpt>
<trkpt lat="33.2047730" lon="35.5592230">
<ele>317.235840</ele>
<time>2008-04-06T21:15:13.360Z</time>
</trkpt>
<trkpt lat="33.2039270" lon="35.5591280">
<ele>313.517273</ele>
<time>2008-04-06T21:15:15.002Z</time>
</trkpt>
<trkpt lat="33.2028490" lon="35.5591240">
<ele>309.493927</ele>
<time>2008-04-06T21:15:15.667Z</time>
</trkpt>
<trkpt lat="33.2014620" lon="35.5594850">
<ele>294.985443</ele>
<time>2008-04-06T21:15:16.721Z</time>
</trkpt>
<trkpt lat="33.2002290" lon="35.5596630">
<ele>278.099518</ele>
<time>2008-04-06T21:15:17.456Z</time>
</trkpt>
<trkpt lat="33.1995370" lon="35.5594770">
<ele>278.800568</ele>
<time>2008-04-06T21:15:18.112Z</time>
</trkpt>
<trkpt lat="33.1988450" lon="35.5591080">
<ele>278.587189</ele>
<time>2008-04-06T21:15:18.674Z</time>
</trkpt>
<trkpt lat="33.1976130" lon="35.5590110">
<ele>290.657288</ele>
<time>2008-04-06T21:15:20.030Z</time>
</trkpt>
<trkpt lat="33.1966890" lon="35.5590990">
<ele>298.795441</ele>
<time>2008-04-06T21:15:20.627Z</time>
</trkpt>
<trkpt lat="33.1950730" lon="35.5589100">
<ele>305.927765</ele>
<time>2008-04-06T21:15:21.707Z</time>
</trkpt>
<trkpt lat="33.1938400" lon="35.5590880">
<ele>302.178741</ele>
<time>2008-04-06T21:15:22.294Z</time>
</trkpt>
<trkpt lat="33.1921450" lon="35.5594480">
<ele>290.748718</ele>
<time>2008-04-06T21:15:23.374Z</time>
</trkpt>
<trkpt lat="33.1912980" lon="35.5593530">
<ele>272.094971</ele>
<time>2008-04-06T21:15:35.824Z</time>
</trkpt>
<trkpt lat="33.1898370" lon="35.5588890">
<ele>269.747986</ele>
<time>2008-04-06T21:15:36.671Z</time>
</trkpt>
<trkpt lat="33.1886050" lon="35.5588840">
<ele>268.925049</ele>
<time>2008-04-06T21:15:37.328Z</time>
</trkpt>
<trkpt lat="33.1869870" lon="35.5590610">
<ele>251.155197</ele>
<time>2008-04-06T21:15:38.140Z</time>
</trkpt>
<trkpt lat="33.1857560" lon="35.5586900">
<ele>275.996399</ele>
<time>2008-04-06T21:15:38.874Z</time>
</trkpt>
<trkpt lat="33.1842180" lon="35.5583180">
<ele>292.973755</ele>
<time>2008-04-06T21:15:39.738Z</time>
</trkpt>
<trkpt lat="33.1832960" lon="35.5575820">
<ele>315.986145</ele>
<time>2008-04-06T21:15:40.481Z</time>
</trkpt>
<trkpt lat="33.1820650" lon="35.5571190">
<ele>324.398651</ele>
<time>2008-04-06T21:15:41.466Z</time>
</trkpt>
<trkpt lat="33.1812950" lon="35.5572070">
<ele>329.702148</ele>
<time>2008-04-06T21:15:42.503Z</time>
</trkpt>
<trkpt lat="33.1805240" lon="35.5573880">
<ele>327.507599</ele>
<time>2008-04-06T21:15:43.860Z</time>
</trkpt>
<trkpt lat="33.1794480" lon="35.5568340">
<ele>339.425262</ele>
<time>2008-04-06T21:15:44.749Z</time>
</trkpt>
<trkpt lat="33.1782920" lon="35.5570120">
<ele>340.156799</ele>
<time>2008-04-06T21:15:45.484Z</time>
</trkpt>
<trkpt lat="33.1766740" lon="35.5573720">
<ele>349.605591</ele>
<time>2008-04-06T21:15:46.737Z</time>
</trkpt>
<trkpt lat="33.1754420" lon="35.5573680">
<ele>360.517456</ele>
<time>2008-04-06T21:15:47.687Z</time>
</trkpt>
<trkpt lat="33.1731320" lon="35.5576330">
<ele>373.227600</ele>
<time>2008-04-06T21:15:53.294Z</time>
</trkpt>
<trkpt lat="33.1715150" lon="35.5574440">
<ele>388.193268</ele>
<time>2008-04-06T21:15:54.089Z</time>
</trkpt>
<trkpt lat="33.1698990" lon="35.5571630">
<ele>392.612885</ele>
<time>2008-04-06T21:15:55.230Z</time>
</trkpt>
<trkpt lat="33.1688990" lon="35.5569760">
<ele>402.793213</ele>
<time>2008-04-06T21:15:56.249Z</time>
</trkpt>
<trkpt lat="33.1672840" lon="35.5562370">
<ele>450.159119</ele>
<time>2008-04-06T21:15:57.269Z</time>
</trkpt>
<trkpt lat="33.1662060" lon="35.5562330">
<ele>464.698059</ele>
<time>2008-04-06T21:15:58.029Z</time>
</trkpt>
<trkpt lat="33.1648200" lon="35.5562270">
<ele>476.493866</ele>
<time>2008-04-06T21:15:59.075Z</time>
</trkpt>
<trkpt lat="33.1636650" lon="35.5560400">
<ele>490.727997</ele>
<time>2008-04-06T21:15:59.999Z</time>
</trkpt>
<trkpt lat="33.1622800" lon="35.5558510">
<ele>529.864319</ele>
<time>2008-04-06T21:17:12.013Z</time>
</trkpt>
<trkpt lat="33.1611250" lon="35.5558470">
<ele>512.673584</ele>
<time>2008-04-06T21:17:12.921Z</time>
</trkpt>
<trkpt lat="33.1605110" lon="35.5551120">
<ele>520.476501</ele>
<time>2008-04-06T21:17:13.906Z</time>
</trkpt>
<trkpt lat="33.1598190" lon="35.5547430">
<ele>532.241760</ele>
<time>2008-04-06T21:17:14.718Z</time>
</trkpt>
<trkpt lat="33.1589700" lon="35.5554720">
<ele>525.078918</ele>
<time>2008-04-06T21:17:15.720Z</time>
</trkpt>
<trkpt lat="33.1582750" lon="35.5561100">
<ele>513.984253</ele>
<time>2008-04-06T21:17:16.921Z</time>
</trkpt>
<trkpt lat="33.1570440" lon="35.5559220">
<ele>513.008850</ele>
<time>2008-04-06T21:17:17.984Z</time>
</trkpt>
<trkpt lat="33.1561210" lon="35.5553690">
<ele>521.969971</ele>
<time>2008-04-06T21:17:18.874Z</time>
</trkpt>
<trkpt lat="33.1552740" lon="35.5556410">
<ele>525.932373</ele>
<time>2008-04-06T21:17:19.798Z</time>
</trkpt>
<trkpt lat="33.1543500" lon="35.5554540">
<ele>534.741150</ele>
<time>2008-04-06T21:17:29.345Z</time>
</trkpt>
<trkpt lat="33.1528850" lon="35.5561810">
<ele>540.136047</ele>
<time>2008-04-06T21:17:30.512Z</time>
</trkpt>
<trkpt lat="33.1517310" lon="35.5559930">
<ele>542.300171</ele>
<time>2008-04-06T21:17:31.358Z</time>
</trkpt>
<trkpt lat="33.1506540" lon="35.5556230">
<ele>545.256714</ele>
<time>2008-04-06T21:17:32.300Z</time>
</trkpt>
<trkpt lat="33.1496530" lon="35.5557100">
<ele>543.671753</ele>
<time>2008-04-06T21:17:33.095Z</time>
</trkpt>
<trkpt lat="33.1490360" lon="35.5560740">
<ele>538.977844</ele>
<time>2008-04-06T21:17:33.924Z</time>
</trkpt>
<trkpt lat="33.1484180" lon="35.5567120">
<ele>534.588745</ele>
<time>2008-04-06T21:17:37.294Z</time>
</trkpt>
<trkpt lat="33.1472640" lon="35.5563420">
<ele>534.192444</ele>
<time>2008-04-06T21:17:38.953Z</time>
</trkpt>
<trkpt lat="33.1461860" lon="35.5563380">
<ele>525.536133</ele>
<time>2008-04-06T21:17:39.921Z</time>
</trkpt>
<trkpt lat="33.1451090" lon="35.5561500">
<ele>511.728729</ele>
<time>2008-04-06T21:17:40.949Z</time>
</trkpt>
<trkpt lat="33.1441070" lon="35.5563300">
<ele>503.773468</ele>
<time>2008-04-06T21:17:47.377Z</time>
</trkpt>
<trkpt lat="33.1434900" lon="35.5566020">
<ele>500.725464</ele>
<time>2008-04-06T21:17:48.638Z</time>
</trkpt>
<trkpt lat="33.1429510" lon="35.5567830">
<ele>495.757202</ele>
<time>2008-04-06T21:17:49.684Z</time>
</trkpt>
<trkpt lat="33.1429520" lon="35.5563250">
<ele>492.526337</ele>
<time>2008-04-06T21:17:50.669Z</time>
</trkpt>
<trkpt lat="33.1421060" lon="35.5560470">
<ele>488.990662</ele>
<time>2008-04-06T21:17:51.671Z</time>
</trkpt>
<trkpt lat="33.1414910" lon="35.5555870">
<ele>487.131348</ele>
<time>2008-04-06T21:18:02.324Z</time>
</trkpt>
<trkpt lat="33.1414170" lon="35.5545800">
<ele>482.681274</ele>
<time>2008-04-06T21:18:03.205Z</time>
</trkpt>
<trkpt lat="33.1417270" lon="35.5539410">
<ele>472.074249</ele>
<time>2008-04-06T21:18:04.519Z</time>
</trkpt>
<trkpt lat="33.1407260" lon="35.5537540">
<ele>459.303131</ele>
<time>2008-04-06T21:18:05.331Z</time>
</trkpt>
<trkpt lat="33.1398800" lon="35.5535670">
<ele>450.067657</ele>
<time>2008-04-06T21:18:06.091Z</time>
</trkpt>
<trkpt lat="33.1391100" lon="35.5535640">
<ele>446.105286</ele>
<time>2008-04-06T21:18:06.981Z</time>
</trkpt>
<trkpt lat="33.1386490" lon="35.5531960">
<ele>441.899048</ele>
<time>2008-04-06T21:18:08.044Z</time>
</trkpt>
<trkpt lat="33.1383420" lon="35.5527380">
<ele>436.016388</ele>
<time>2008-04-06T21:18:08.908Z</time>
</trkpt>
<trkpt lat="33.1383430" lon="35.5523720">
<ele>432.907440</ele>
<time>2008-04-06T21:18:10.480Z</time>
</trkpt>
<trkpt lat="33.1385000" lon="35.5513650">
<ele>424.159668</ele>
<time>2008-04-06T21:18:18.732Z</time>
</trkpt>
<trkpt lat="33.1375010" lon="35.5506290">
<ele>414.802338</ele>
<time>2008-04-06T21:18:19.423Z</time>
</trkpt>
<trkpt lat="33.1378100" lon="35.5501730">
<ele>411.723846</ele>
<time>2008-04-06T21:18:21.125Z</time>
</trkpt>
<trkpt lat="33.1369640" lon="35.5498950">
<ele>411.480011</ele>
<time>2008-04-06T21:18:21.876Z</time>
</trkpt>
<trkpt lat="33.1358870" lon="35.5495250">
<ele>410.900879</ele>
<time>2008-04-06T21:18:22.637Z</time>
</trkpt>
<trkpt lat="33.1348110" lon="35.5488800">
<ele>419.282867</ele>
<time>2008-04-06T21:18:25.687Z</time>
</trkpt>
<trkpt lat="33.1341980" lon="35.5475970">
<ele>429.310791</ele>
<time>2008-04-06T21:18:27.518Z</time>
</trkpt>
<trkpt lat="33.1340470" lon="35.5464060">
<ele>431.779663</ele>
<time>2008-04-06T21:18:28.486Z</time>
</trkpt>
<trkpt lat="33.1339740" lon="35.5450330">
<ele>430.560486</ele>
<time>2008-04-06T21:18:29.748Z</time>
</trkpt>
<trkpt lat="33.1335160" lon="35.5435670">
<ele>428.152557</ele>
<time>2008-04-06T21:18:30.810Z</time>
</trkpt>
<trkpt lat="33.1335190" lon="35.5422860">
<ele>415.655731</ele>
<time>2008-04-06T21:18:32.141Z</time>
</trkpt>
<trkpt lat="33.1336760" lon="35.5412800">
<ele>411.175201</ele>
<time>2008-04-06T21:18:35.640Z</time>
</trkpt>
<trkpt lat="33.1326770" lon="35.5406360">
<ele>418.398956</ele>
<time>2008-04-06T21:18:39.407Z</time>
</trkpt>
<trkpt lat="33.1314450" lon="35.5405400">
<ele>419.648651</ele>
<time>2008-04-06T21:18:40.824Z</time>
</trkpt>
<trkpt lat="33.1294400" lon="35.5416300">
<ele>422.056549</ele>
<time>2008-04-06T21:18:41.861Z</time>
</trkpt>
<trkpt lat="33.1299760" lon="35.5427300">
<ele>416.509186</ele>
<time>2008-04-06T21:18:42.846Z</time>
</trkpt>
<trkpt lat="33.1298200" lon="35.5434620">
<ele>402.061676</ele>
<time>2008-04-06T21:18:43.779Z</time>
</trkpt>
<trkpt lat="33.1272040" lon="35.5429950">
<ele>388.193268</ele>
<time>2008-04-06T21:18:44.919Z</time>
</trkpt>
<trkpt lat="33.1234280" lon="35.5438950">
<ele>383.438385</ele>
<time>2008-04-06T21:18:45.965Z</time>
</trkpt>
<trkpt lat="33.1220440" lon="35.5433410">
<time>2008-04-22T15:26:16.221Z</time>
</trkpt>
<trkpt lat="33.1205810" lon="35.5434270">
<time>2008-04-22T15:26:25.423Z</time>
</trkpt>
<trkpt lat="33.1198100" lon="35.5437900">
<time>2008-04-22T15:26:31.091Z</time>
</trkpt>
<trkpt lat="33.1191150" lon="35.5442450">
<time>2008-04-22T15:26:34.106Z</time>
</trkpt>
<trkpt lat="33.1187280" lon="35.5450670">
<time>2008-04-22T15:26:42.029Z</time>
</trkpt>
<trkpt lat="33.1180300" lon="35.5470780">
<time>2008-04-22T15:26:41.268Z</time>
</trkpt>
<trkpt lat="33.1178700" lon="35.5492730">
<time>2008-04-22T15:26:51.377Z</time>
</trkpt>
<trkpt lat="33.1181760" lon="35.5498230">
<ele>381.731537</ele>
<time>2008-04-06T21:18:47.200Z</time>
</trkpt>
<trkpt lat="33.1169440" lon="35.5498190">
<ele>382.584930</ele>
<time>2008-04-06T21:18:54.268Z</time>
</trkpt>
<trkpt lat="33.1158670" lon="35.5496310">
<ele>381.304810</ele>
<time>2008-04-06T21:18:55.296Z</time>
</trkpt>
<trkpt lat="33.1149440" lon="35.5492620">
<ele>381.182861</ele>
<time>2008-04-06T21:18:56.765Z</time>
</trkpt>
<trkpt lat="33.1144060" lon="35.5490770">
<ele>379.872253</ele>
<time>2008-04-06T21:19:27.860Z</time>
</trkpt>
<trkpt lat="33.1135590" lon="35.5488910">
<ele>379.841736</ele>
<time>2008-04-06T21:19:29.735Z</time>
</trkpt>
<trkpt lat="33.1131740" lon="35.5487980">
<ele>380.542786</ele>
<time>2008-04-06T21:19:31.230Z</time>
</trkpt>
<trkpt lat="33.1120210" lon="35.5480610">
<ele>377.891052</ele>
<time>2008-04-06T21:19:33.424Z</time>
</trkpt>
<trkpt lat="33.1110200" lon="35.5480570">
<ele>384.718536</ele>
<time>2008-04-06T21:19:34.746Z</time>
</trkpt>
<trkpt lat="33.1105560" lon="35.5488790">
<ele>387.431274</ele>
<time>2008-04-06T21:19:36.267Z</time>
</trkpt>
<trkpt lat="33.1104750" lon="35.5503430">
<ele>391.058411</ele>
<time>2008-04-06T21:19:41.969Z</time>
</trkpt>
<trkpt lat="33.1107020" lon="35.5518070">
<ele>400.354797</ele>
<time>2008-04-06T21:19:46.471Z</time>
</trkpt>
<trkpt lat="33.1113920" lon="35.5529080">
<ele>403.890472</ele>
<time>2008-04-06T21:19:47.784Z</time>
</trkpt>
<trkpt lat="33.1113890" lon="35.5540060">
<ele>415.290009</ele>
<time>2008-04-06T21:19:49.028Z</time>
</trkpt>
<trkpt lat="33.1103890" lon="35.5536360">
<ele>423.458649</ele>
<time>2008-04-06T21:19:54.160Z</time>
</trkpt>
<trkpt lat="33.1066920" lon="35.5540790">
<ele>418.002716</ele>
<time>2008-04-06T21:19:55.188Z</time>
</trkpt>
<trkpt lat="33.1064530" lon="35.5569150">
<ele>414.131744</ele>
<time>2008-04-06T21:19:56.441Z</time>
</trkpt>
</trkseg>
</trk>
<trk>
 <name>day02</name>
 <desc>10/4/2008 8:58:00 AM</desc>
<trkseg>
<trkpt lat="33.1001600" lon="35.5494800">
<time>2008-04-26T03:00:01.002Z</time>
</trkpt>
<trkpt lat="33.1003160" lon="35.5486570">
<time>2008-04-26T03:00:01.996Z</time>
</trkpt>
<trkpt lat="33.1002420" lon="35.5475590">
<time>2008-04-26T03:00:02.998Z</time>
</trkpt>
<trkpt lat="33.0997830" lon="35.5465510">
<time>2008-04-26T03:00:04.000Z</time>
</trkpt>
<trkpt lat="33.0988620" lon="35.5453580">
<time>2008-04-26T03:00:05.003Z</time>
</trkpt>
<trkpt lat="33.0985550" lon="35.5449910">
<time>2008-04-26T03:00:05.996Z</time>
</trkpt>
<trkpt lat="33.0957840" lon="35.5444320">
<time>2008-04-26T03:00:06.998Z</time>
</trkpt>
<trkpt lat="33.0949420" lon="35.5425990">
<time>2008-04-26T03:00:08.001Z</time>
</trkpt>
<trkpt lat="33.0951750" lon="35.5417770">
<time>2008-04-26T03:00:09.003Z</time>
</trkpt>
<trkpt lat="33.0954860" lon="35.5408630">
<time>2008-04-26T03:00:09.996Z</time>
</trkpt>
<trkpt lat="33.0953340" lon="35.5400390">
<time>2008-04-26T03:00:10.999Z</time>
</trkpt>
<trkpt lat="33.0951810" lon="35.5394900">
<time>2008-04-26T03:00:12.001Z</time>
</trkpt>
<trkpt lat="33.0958780" lon="35.5382120">
<time>2008-04-26T03:00:13.003Z</time>
</trkpt>
<trkpt lat="33.0965730" lon="35.5372080">
<time>2008-04-26T03:00:13.997Z</time>
</trkpt>
<trkpt lat="33.0967280" lon="35.5369340">
<time>2008-04-26T03:00:14.999Z</time>
</trkpt>
<trkpt lat="33.0985900" lon="35.5316350">
<time>2008-04-26T03:00:16.001Z</time>
</trkpt>
<trkpt lat="33.0986680" lon="35.5311780">
<time>2008-04-26T03:00:17.004Z</time>
</trkpt>
<trkpt lat="33.0998280" lon="35.5289870">
<time>2008-04-26T03:00:17.997Z</time>
</trkpt>
<trkpt lat="33.1006790" lon="35.5277090">
<time>2008-04-26T03:00:18.999Z</time>
</trkpt>
<trkpt lat="33.1003720" lon="35.5273420">
<time>2008-04-26T03:00:20.002Z</time>
</trkpt>
<trkpt lat="33.0998340" lon="35.5269740">
<time>2008-04-26T03:00:21.004Z</time>
</trkpt>
<trkpt lat="33.0986790" lon="35.5266040">
<time>2008-04-26T03:00:21.997Z</time>
</trkpt>
<trkpt lat="33.0964490" lon="35.5254980">
<time>2008-04-26T03:00:23.000Z</time>
</trkpt>
<trkpt lat="33.0953730" lon="35.5248540">
<time>2008-04-26T03:00:24.002Z</time>
</trkpt>
<trkpt lat="33.0942970" lon="35.5242100">
<time>2008-04-26T03:00:25.004Z</time>
</trkpt>
<trkpt lat="33.0932960" lon="35.5242060">
<time>2008-04-26T03:00:25.998Z</time>
</trkpt>
<trkpt lat="33.0922960" lon="35.5237460">
<time>2008-04-26T03:00:27.000Z</time>
</trkpt>
<trkpt lat="33.0913730" lon="35.5232850">
<time>2008-04-26T03:00:28.002Z</time>
</trkpt>
<trkpt lat="33.0903740" lon="35.5225500">
<time>2008-04-26T03:00:28.996Z</time>
</trkpt>
<trkpt lat="33.0899900" lon="35.5220910">
<time>2008-04-26T03:00:29.998Z</time>
</trkpt>
<trkpt lat="33.0896070" lon="35.5214490">
<time>2008-04-26T03:00:31.000Z</time>
</trkpt>
<trkpt lat="33.0887610" lon="35.5207150">
<time>2008-04-26T03:00:32.003Z</time>
</trkpt>
<trkpt lat="33.0873000" lon="35.5201610">
<time>2008-04-26T03:00:32.996Z</time>
</trkpt>
<trkpt lat="33.0864540" lon="35.5196090">
<time>2008-04-26T03:00:33.998Z</time>
</trkpt>
<trkpt lat="33.0852230" lon="35.5190560">
<time>2008-04-26T03:00:35.001Z</time>
</trkpt>
<trkpt lat="33.0853800" lon="35.5179590">
<time>2008-04-26T03:00:36.003Z</time>
</trkpt>
<trkpt lat="33.0850760" lon="35.5164940">
<time>2008-04-26T03:00:36.996Z</time>
</trkpt>
<trkpt lat="33.0846160" lon="35.5155780">
<time>2008-04-26T03:00:37.999Z</time>
</trkpt>
<trkpt lat="33.0839240" lon="35.5151180">
<time>2008-04-26T03:00:39.001Z</time>
</trkpt>
<trkpt lat="33.0830780" lon="35.5148410">
<time>2008-04-26T03:00:40.003Z</time>
</trkpt>
<trkpt lat="33.0819230" lon="35.5146540">
<time>2008-04-26T03:00:40.997Z</time>
</trkpt>
<trkpt lat="33.0812310" lon="35.5144690">
<time>2008-04-26T03:00:41.999Z</time>
</trkpt>
<trkpt lat="33.0801540" lon="35.5140080">
<time>2008-04-26T03:00:43.001Z</time>
</trkpt>
<trkpt lat="33.0792320" lon="35.5131810">
<time>2008-04-26T03:00:44.004Z</time>
</trkpt>
<trkpt lat="33.0786170" lon="35.5125390">
<time>2008-04-26T03:00:44.997Z</time>
</trkpt>
<trkpt lat="33.0784640" lon="35.5122640">
<time>2008-04-26T03:00:45.999Z</time>
</trkpt>
<trkpt lat="33.0783130" lon="35.5111660">
<time>2008-04-26T03:00:47.002Z</time>
</trkpt>
<trkpt lat="33.0780080" lon="35.5097020">
<time>2008-04-26T03:00:48.004Z</time>
</trkpt>
<trkpt lat="33.0775480" lon="35.5087860">
<time>2008-04-26T03:00:48.997Z</time>
</trkpt>
<trkpt lat="33.0769350" lon="35.5075030">
<time>2008-04-26T03:00:50.000Z</time>
</trkpt>
<trkpt lat="33.0765530" lon="35.5065870">
<time>2008-04-26T03:00:51.002Z</time>
</trkpt>
<trkpt lat="33.0760150" lon="35.5058540">
<time>2008-04-26T03:00:52.004Z</time>
</trkpt>
<trkpt lat="33.0758640" lon="35.5047560">
<time>2008-04-26T03:00:52.998Z</time>
</trkpt>
<trkpt lat="33.0756350" lon="35.5038410">
<time>2008-04-26T03:00:54.000Z</time>
</trkpt>
<trkpt lat="33.0746370" lon="35.5025570">
<time>2008-04-26T03:00:55.002Z</time>
</trkpt>
<trkpt lat="33.0738690" lon="35.5017310">
<time>2008-04-26T03:00:55.996Z</time>
</trkpt>
<trkpt lat="33.0732550" lon="35.5009060">
<time>2008-04-26T03:00:56.998Z</time>
</trkpt>
<trkpt lat="33.0729480" lon="35.5003560">
<time>2008-04-26T03:00:58.000Z</time>
</trkpt>
<trkpt lat="33.0724880" lon="35.4998060">
<time>2008-04-26T03:00:59.003Z</time>
</trkpt>
<trkpt lat="33.0721830" lon="35.4984330">
<time>2008-04-26T03:00:59.996Z</time>
</trkpt>
<trkpt lat="33.0721100" lon="35.4965130">
<time>2008-04-26T03:01:00.998Z</time>
</trkpt>
<trkpt lat="33.0723440" lon="35.4950500">
<time>2008-04-26T03:01:02.001Z</time>
</trkpt>
<trkpt lat="33.0727320" lon="35.4937710">
<time>2008-04-26T03:01:03.003Z</time>
</trkpt>
<trkpt lat="33.0731200" lon="35.4926750">
<time>2008-04-26T03:01:03.996Z</time>
</trkpt>
<trkpt lat="33.0735830" lon="35.4919450">
<time>2008-04-26T03:01:04.999Z</time>
</trkpt>
<trkpt lat="33.0741240" lon="35.4913060">
<time>2008-04-26T03:01:06.001Z</time>
</trkpt>
<trkpt lat="33.0748950" lon="35.4908510">
<time>2008-04-26T03:01:07.003Z</time>
</trkpt>
<trkpt lat="33.0752810" lon="35.4901210">
<time>2008-04-26T03:01:07.997Z</time>
</trkpt>
<trkpt lat="33.0755920" lon="35.4890240">
<time>2008-04-26T03:01:08.999Z</time>
</trkpt>
<trkpt lat="33.0758260" lon="35.4875620">
<time>2008-04-26T03:01:10.001Z</time>
</trkpt>
<trkpt lat="33.0762140" lon="35.4864660">
<time>2008-04-26T03:01:11.004Z</time>
</trkpt>
<trkpt lat="33.0766010" lon="35.4853690">
<time>2008-04-26T03:01:11.997Z</time>
</trkpt>
<trkpt lat="33.0768350" lon="35.4839070">
<time>2008-04-26T03:01:12.999Z</time>
</trkpt>
<trkpt lat="33.0766070" lon="35.4828080">
<time>2008-04-26T03:01:14.002Z</time>
</trkpt>
<trkpt lat="33.0761470" lon="35.4816180">
<time>2008-04-26T03:01:15.004Z</time>
</trkpt>
<trkpt lat="33.0755330" lon="35.4809760">
<time>2008-04-26T03:01:15.997Z</time>
</trkpt>
<trkpt lat="33.0745330" lon="35.4801500">
<time>2008-04-26T03:01:17.000Z</time>
</trkpt>
<trkpt lat="33.0739180" lon="35.4798740">
<time>2008-04-26T03:01:18.002Z</time>
</trkpt>
<trkpt lat="33.0731490" lon="35.4794140">
<time>2008-04-26T03:01:19.004Z</time>
</trkpt>
<trkpt lat="33.0718410" lon="35.4789530">
<time>2008-04-10T06:02:15.873Z</time>
</trkpt>
<trkpt lat="33.0705330" lon="35.4783090">
<time>2008-04-10T06:02:16.797Z</time>
</trkpt>
<trkpt lat="33.0695340" lon="35.4774830">
<time>2008-04-10T06:02:17.704Z</time>
</trkpt>
<trkpt lat="33.0686130" lon="35.4762000">
<time>2008-04-10T06:02:18.612Z</time>
</trkpt>
<trkpt lat="33.0676150" lon="35.4748250">
<time>2008-04-10T06:02:19.527Z</time>
</trkpt>
<trkpt lat="33.0663860" lon="35.4732670">
<time>2008-04-10T06:02:29.342Z</time>
</trkpt>
<trkpt lat="33.0651560" lon="35.4720740">
<time>2008-04-10T06:02:30.042Z</time>
</trkpt>
<trkpt lat="33.0637730" lon="35.4706980">
<time>2008-04-10T06:02:30.906Z</time>
</trkpt>
<trkpt lat="33.0627740" lon="35.4697810">
<time>2008-04-10T06:02:33.706Z</time>
</trkpt>
<trkpt lat="33.0615440" lon="35.4690460">
<time>2008-04-10T06:02:34.500Z</time>
</trkpt>
<trkpt lat="33.0602350" lon="35.4688590">
<time>2008-04-10T06:02:35.451Z</time>
</trkpt>
<trkpt lat="33.0590810" lon="35.4683070">
<time>2008-04-10T06:02:36.125Z</time>
</trkpt>
<trkpt lat="33.0577750" lon="35.4670230">
<time>2008-04-10T06:02:37.404Z</time>
</trkpt>
<trkpt lat="33.0565460" lon="35.4654650">
<time>2008-04-10T06:02:38.579Z</time>
</trkpt>
<trkpt lat="33.0559330" lon="35.4640920">
<time>2008-04-10T06:02:39.408Z</time>
</trkpt>
<trkpt lat="33.0553210" lon="35.4618960">
<time>2008-04-10T06:02:40.592Z</time>
</trkpt>
<trkpt lat="33.0554020" lon="35.4602500">
<time>2008-04-10T06:02:41.499Z</time>
</trkpt>
<trkpt lat="33.0554830" lon="35.4582390">
<time>2008-04-10T06:02:42.518Z</time>
</trkpt>
<trkpt lat="33.0557950" lon="35.4558620">
<time>2008-04-10T06:03:02.831Z</time>
</trkpt>
<trkpt lat="33.0562610" lon="35.4540350">
<time>2008-04-10T06:03:03.816Z</time>
</trkpt>
<trkpt lat="33.0567260" lon="35.4522070">
<time>2008-04-10T06:03:04.654Z</time>
</trkpt>
<trkpt lat="33.0569590" lon="35.4511110">
<time>2008-04-10T06:03:19.126Z</time>
</trkpt>
<trkpt lat="33.0565770" lon="35.4495550">
<time>2008-04-10T06:03:20.707Z</time>
</trkpt>
<trkpt lat="33.0559630" lon="35.4486390">
<time>2008-04-10T06:03:21.779Z</time>
</trkpt>
<trkpt lat="33.0551950" lon="35.4476310">
<time>2008-04-10T06:03:22.660Z</time>
</trkpt>
<trkpt lat="33.0551970" lon="35.4467170">
<time>2008-04-10T06:03:45.409Z</time>
</trkpt>
<trkpt lat="33.0551980" lon="35.4458940">
<time>2008-04-10T06:03:46.472Z</time>
</trkpt>
<trkpt lat="33.0548910" lon="35.4453450">
<time>2008-04-10T06:03:47.128Z</time>
</trkpt>
<trkpt lat="33.0542770" lon="35.4447030">
<time>2008-04-10T06:03:48.044Z</time>
</trkpt>
<trkpt lat="33.0535080" lon="35.4439700">
<time>2008-04-10T06:03:49.435Z</time>
</trkpt>
<trkpt lat="33.0530470" lon="35.4433280">
<time>2008-04-10T06:03:50.152Z</time>
</trkpt>
<trkpt lat="33.0530480" lon="35.4426880">
<time>2008-04-10T06:03:50.844Z</time>
</trkpt>
<trkpt lat="33.0528190" lon="35.4415900">
<time>2008-04-10T06:03:51.785Z</time>
</trkpt>
<trkpt lat="33.0522820" lon="35.4408580">
<time>2008-04-10T06:03:52.934Z</time>
</trkpt>
<trkpt lat="33.0513590" lon="35.4399410">
<time>2008-04-10T06:03:54.127Z</time>
</trkpt>
<trkpt lat="33.0508980" lon="35.4393910">
<time>2008-04-10T06:03:54.878Z</time>
</trkpt>
<trkpt lat="33.0504390" lon="35.4380180">
<time>2008-04-10T06:03:56.295Z</time>
</trkpt>
<trkpt lat="33.0499030" lon="35.4364630">
<time>2008-04-10T06:04:01.687Z</time>
</trkpt>
<trkpt lat="33.0495190" lon="35.4355480">
<time>2008-04-10T06:04:02.611Z</time>
</trkpt>
<trkpt lat="33.0489040" lon="35.4349970">
<time>2008-04-10T06:04:03.389Z</time>
</trkpt>
<trkpt lat="33.0485200" lon="35.4347220">
<time>2008-04-10T06:04:04.175Z</time>
</trkpt>
<trkpt lat="33.0478290" lon="35.4337150">
<time>2008-04-10T06:04:05.454Z</time>
</trkpt>
<trkpt lat="33.0469080" lon="35.4320670">
<time>2008-04-10T06:04:24.168Z</time>
</trkpt>
<trkpt lat="33.0459870" lon="35.4302360">
<time>2008-04-10T06:04:25.265Z</time>
</trkpt>
<trkpt lat="33.0452200" lon="35.4282230">
<time>2008-04-10T06:04:26.285Z</time>
</trkpt>
<trkpt lat="33.0449150" lon="35.4263930">
<time>2008-04-10T06:04:27.296Z</time>
</trkpt>
<trkpt lat="33.0445340" lon="35.4243810">
<time>2008-04-10T06:04:28.842Z</time>
</trkpt>
<trkpt lat="33.0445370" lon="35.4226440">
<time>2008-04-10T06:04:50.796Z</time>
</trkpt>
<trkpt lat="33.0446170" lon="35.4209990">
<time>2008-04-10T06:04:52.170Z</time>
</trkpt>
<trkpt lat="33.0446190" lon="35.4196270">
<time>2008-04-10T06:04:53.216Z</time>
</trkpt>
<trkpt lat="33.0443890" lon="35.4188950">
<time>2008-04-10T06:04:55.980Z</time>
</trkpt>
<trkpt lat="33.0439280" lon="35.4182540">
<time>2008-04-10T06:04:56.965Z</time>
</trkpt>
<trkpt lat="33.0430820" lon="35.4177040">
<time>2008-04-10T06:04:58.253Z</time>
</trkpt>
<trkpt lat="33.0423130" lon="35.4174280">
<time>2008-04-10T06:04:59.972Z</time>
</trkpt>
<trkpt lat="33.0413120" lon="35.4170600">
<time>2008-04-10T06:05:00.888Z</time>
</trkpt>
<trkpt lat="33.0406200" lon="35.4167840">
<time>2008-04-10T06:05:01.778Z</time>
</trkpt>
<trkpt lat="33.0403120" lon="35.4162340">
<time>2008-04-10T06:05:08.785Z</time>
</trkpt>
<trkpt lat="33.0393120" lon="35.4160490">
<time>2008-04-10T06:05:09.917Z</time>
</trkpt>
<trkpt lat="33.0386200" lon="35.4154990">
<time>2008-04-10T06:05:13.105Z</time>
</trkpt>
<trkpt lat="33.0371580" lon="35.4145820">
<time>2008-04-10T06:05:14.876Z</time>
</trkpt>
<trkpt lat="33.0359280" lon="35.4136650">
<time>2008-04-10T06:05:16.138Z</time>
</trkpt>
<trkpt lat="33.0350820" lon="35.4129310">
<time>2008-04-10T06:05:17.002Z</time>
</trkpt>
<trkpt lat="33.0340060" lon="35.4118320">
<time>2008-04-10T06:05:18.920Z</time>
</trkpt>
<trkpt lat="33.0329290" lon="35.4110980">
<time>2008-04-10T06:05:20.216Z</time>
</trkpt>
<trkpt lat="33.0320060" lon="35.4105480">
<time>2008-04-10T06:05:26.575Z</time>
</trkpt>
<trkpt lat="33.0311590" lon="35.4102720">
<time>2008-04-10T06:05:47.924Z</time>
</trkpt>
<trkpt lat="33.0304670" lon="35.4099960">
<time>2008-04-10T06:05:48.814Z</time>
</trkpt>
<trkpt lat="33.0298510" lon="35.4094460">
<time>2008-04-10T06:05:50.421Z</time>
</trkpt>
<trkpt lat="33.0296220" lon="35.4087140">
<time>2008-04-10T06:05:51.285Z</time>
</trkpt>
<trkpt lat="33.0292380" lon="35.4077990">
<time>2008-04-10T06:05:52.158Z</time>
</trkpt>
<trkpt lat="33.0286230" lon="35.4069750">
<time>2008-04-10T06:05:53.938Z</time>
</trkpt>
<trkpt lat="33.0276230" lon="35.4063330">
<time>2008-04-10T06:05:55.113Z</time>
</trkpt>
<trkpt lat="33.0260080" lon="35.4050500">
<time>2008-04-10T06:05:58.439Z</time>
</trkpt>
<trkpt lat="33.0256230" lon="35.4054150">
<time>2008-04-10T06:06:03.908Z</time>
</trkpt>
<trkpt lat="33.0250820" lon="35.4064190">
<time>2008-04-10T06:06:06.673Z</time>
</trkpt>
<trkpt lat="33.0249260" lon="35.4075160">
<time>2008-04-10T06:06:16.652Z</time>
</trkpt>
<trkpt lat="33.0248480" lon="35.4084290">
<time>2008-04-10T06:06:19.236Z</time>
</trkpt>
<trkpt lat="33.0250780" lon="35.4090700">
<time>2008-04-10T06:06:25.949Z</time>
</trkpt>
<trkpt lat="33.0253850" lon="35.4095270">
<time>2008-04-10T06:06:28.437Z</time>
</trkpt>
<trkpt lat="33.0253850" lon="35.4098020">
<time>2008-04-10T06:06:38.667Z</time>
</trkpt>
<trkpt lat="33.0250770" lon="35.4099840">
<time>2008-04-10T06:06:40.464Z</time>
</trkpt>
<trkpt lat="33.0247690" lon="35.4097090">
<time>2008-04-10T06:06:58.591Z</time>
</trkpt>
<trkpt lat="33.0240770" lon="35.4092500">
<time>2008-04-10T06:06:59.731Z</time>
</trkpt>
<trkpt lat="33.0235380" lon="35.4090660">
<time>2008-04-10T06:07:07.222Z</time>
</trkpt>
<trkpt lat="33.0231530" lon="35.4092480">
<time>2008-04-10T06:07:08.138Z</time>
</trkpt>
<trkpt lat="33.0232290" lon="35.4096140">
<time>2008-04-10T06:07:08.967Z</time>
</trkpt>
<trkpt lat="33.0235360" lon="35.4100720">
<time>2008-04-10T06:07:10.186Z</time>
</trkpt>
<trkpt lat="33.0239210" lon="35.4105300">
<time>2008-04-10T06:07:10.972Z</time>
</trkpt>
<trkpt lat="33.0240740" lon="35.4108960">
<time>2008-04-10T06:07:12.389Z</time>
</trkpt>
<trkpt lat="33.0237660" lon="35.4110780">
<time>2008-04-10T06:07:13.702Z</time>
</trkpt>
<trkpt lat="33.0233040" lon="35.4107110">
<time>2008-04-10T06:07:14.609Z</time>
</trkpt>
<trkpt lat="33.0226890" lon="35.4103440">
<time>2008-04-10T06:07:17.780Z</time>
</trkpt>
<trkpt lat="33.0219190" lon="35.4105250">
<time>2008-04-10T06:07:19.284Z</time>
</trkpt>
<trkpt lat="33.0214560" lon="35.4110730">
<time>2008-04-10T06:07:20.528Z</time>
</trkpt>
<trkpt lat="33.0211470" lon="35.4118030">
<time>2008-04-10T06:07:25.418Z</time>
</trkpt>
<trkpt lat="33.0209910" lon="35.4127170">
<time>2008-04-10T06:07:26.420Z</time>
</trkpt>
<trkpt lat="33.0205270" lon="35.4138120">
<time>2008-04-10T06:07:27.345Z</time>
</trkpt>
<trkpt lat="33.0202180" lon="35.4147260">
<time>2008-04-10T06:07:28.468Z</time>
</trkpt>
<trkpt lat="33.0200630" lon="35.4153650">
<time>2008-04-10T06:07:31.907Z</time>
</trkpt>
<trkpt lat="33.0186780" lon="35.4147220">
<time>2008-04-10T06:07:33.298Z</time>
</trkpt>
<trkpt lat="33.0177550" lon="35.4139890">
<time>2008-04-10T06:07:34.594Z</time>
</trkpt>
<trkpt lat="33.0169860" lon="35.4131650">
<time>2008-04-10T06:07:35.985Z</time>
</trkpt>
<trkpt lat="33.0162950" lon="35.4124320">
<time>2008-04-10T06:07:37.030Z</time>
</trkpt>
<trkpt lat="33.0160640" lon="35.4121570">
<time>2008-04-10T06:07:39.657Z</time>
</trkpt>
<trkpt lat="33.0152160" lon="35.4126120">
<time>2008-04-10T06:07:40.875Z</time>
</trkpt>
<trkpt lat="33.0142150" lon="35.4129760">
<time>2008-04-10T06:07:41.886Z</time>
</trkpt>
<trkpt lat="33.0132900" lon="35.4133390">
<time>2008-04-10T06:07:43.216Z</time>
</trkpt>
<trkpt lat="33.0128280" lon="35.4133380">
<time>2008-04-10T06:07:44.486Z</time>
</trkpt>
<trkpt lat="33.0127530" lon="35.4119670">
<time>2008-04-10T06:07:46.128Z</time>
</trkpt>
<trkpt lat="33.0126790" lon="35.4105040">
<time>2008-04-10T06:07:47.407Z</time>
</trkpt>
<trkpt lat="33.0126040" lon="35.4092250">
<time>2008-04-10T06:07:48.763Z</time>
</trkpt>
<trkpt lat="33.0123750" lon="35.4080360">
<time>2008-04-10T06:07:53.887Z</time>
</trkpt>
<trkpt lat="33.0121450" lon="35.4073960">
<time>2008-04-10T06:07:54.733Z</time>
</trkpt>
<trkpt lat="33.0116060" lon="35.4068460">
<time>2008-04-10T06:07:55.623Z</time>
</trkpt>
<trkpt lat="33.0114530" lon="35.4065720">
<time>2008-04-10T06:07:58.578Z</time>
</trkpt>
<trkpt lat="33.0113010" lon="35.4049270">
<time>2008-04-10T06:07:59.892Z</time>
</trkpt>
<trkpt lat="33.0111500" lon="35.4030070">
<time>2008-04-10T06:08:00.799Z</time>
</trkpt>
<trkpt lat="33.0111530" lon="35.4015450">
<time>2008-04-10T06:08:02.017Z</time>
</trkpt>
<trkpt lat="33.0120790" lon="35.4000840">
<time>2008-04-10T06:08:02.933Z</time>
</trkpt>
<trkpt lat="33.0128510" lon="35.3987150">
<time>2008-04-10T06:08:03.952Z</time>
</trkpt>
<trkpt lat="33.0133920" lon="35.3975280">
<time>2008-04-10T06:08:05.058Z</time>
</trkpt>
<trkpt lat="33.0137780" lon="35.3965240">
<time>2008-04-10T06:08:11.815Z</time>
</trkpt>
<trkpt lat="33.0136250" lon="35.3960660">
<time>2008-04-10T06:08:14.096Z</time>
</trkpt>
<trkpt lat="33.0131640" lon="35.3953340">
<time>2008-04-10T06:08:18.312Z</time>
</trkpt>
<trkpt lat="33.0125490" lon="35.3944190">
<time>2008-04-10T06:08:19.375Z</time>
</trkpt>
<trkpt lat="33.0120880" lon="35.3937780">
<time>2008-04-10T06:08:22.217Z</time>
</trkpt>
<trkpt lat="33.0116270" lon="35.3931380">
<time>2008-04-10T06:08:24.438Z</time>
</trkpt>
<trkpt lat="33.0105490" lon="35.3929530">
<time>2008-04-10T06:08:26.313Z</time>
</trkpt>
<trkpt lat="33.0096250" lon="35.3929510">
<time>2008-04-10T06:08:28.265Z</time>
</trkpt>
<trkpt lat="33.0085470" lon="35.3931310">
<time>2008-04-10T06:08:31.419Z</time>
</trkpt>
<trkpt lat="33.0075460" lon="35.3934950">
<time>2008-04-10T06:08:32.559Z</time>
</trkpt>
<trkpt lat="33.0060830" lon="35.3934920">
<time>2008-04-10T06:08:34.080Z</time>
</trkpt>
<trkpt lat="33.0048500" lon="35.3938550">
<time>2008-04-10T06:08:35.393Z</time>
</trkpt>
<trkpt lat="33.0040030" lon="35.3941270">
<time>2008-04-10T06:08:37.562Z</time>
</trkpt>
<trkpt lat="33.0033090" lon="35.3947660">
<time>2008-04-10T06:08:38.892Z</time>
</trkpt>
<trkpt lat="33.0027680" lon="35.3956780">
<time>2008-04-10T06:08:40.137Z</time>
</trkpt>
<trkpt lat="33.0022270" lon="35.3971390">
<time>2008-04-10T06:08:45.113Z</time>
</trkpt>
<trkpt lat="33.0018410" lon="35.3978700">
<time>2008-04-10T06:08:46.107Z</time>
</trkpt>
<trkpt lat="33.0015330" lon="35.3979600">
<time>2008-04-10T06:08:46.954Z</time>
</trkpt>
<trkpt lat="33.0013030" lon="35.3973200">
<time>2008-04-10T06:08:47.826Z</time>
</trkpt>
<trkpt lat="33.0011500" lon="35.3966800">
<time>2008-04-10T06:08:48.561Z</time>
</trkpt>
<trkpt lat="33.0006890" lon="35.3960400">
<time>2008-04-10T06:08:49.468Z</time>
</trkpt>
<trkpt lat="33.0005360" lon="35.3949430">
<time>2008-04-10T06:08:51.153Z</time>
</trkpt>
<trkpt lat="33.0005380" lon="35.3940290">
<time>2008-04-10T06:08:54.574Z</time>
</trkpt>
<trkpt lat="33.0007700" lon="35.3929330">
<time>2008-04-10T06:08:55.827Z</time>
</trkpt>
<trkpt lat="33.0004630" lon="35.3927490">
<time>2008-04-10T06:08:56.579Z</time>
</trkpt>
<trkpt lat="32.9994620" lon="35.3925650">
<time>2008-04-10T06:08:57.564Z</time>
</trkpt>
<trkpt lat="32.9990000" lon="35.3927460">
<time>2008-04-10T06:08:58.419Z</time>
</trkpt>
<trkpt lat="32.9990760" lon="35.3934780">
<time>2008-04-10T06:09:00.000Z</time>
</trkpt>
<trkpt lat="32.9993050" lon="35.3946660">
<time>2008-04-10T06:09:01.374Z</time>
</trkpt>
<trkpt lat="32.9996110" lon="35.3962200">
<time>2008-04-10T06:09:02.652Z</time>
</trkpt>
<trkpt lat="32.9996090" lon="35.3974990">
<time>2008-04-10T06:09:03.629Z</time>
</trkpt>
<trkpt lat="32.9994530" lon="35.3987780">
<time>2008-04-10T06:09:05.530Z</time>
</trkpt>
<trkpt lat="32.9994510" lon="35.3996920">
<time>2008-04-10T06:09:06.860Z</time>
</trkpt>
<trkpt lat="32.9986790" lon="35.4011530">
<time>2008-04-10T06:09:10.126Z</time>
</trkpt>
<trkpt lat="32.9982160" lon="35.4020650">
<time>2008-04-10T06:09:11.267Z</time>
</trkpt>
<trkpt lat="32.9982150" lon="35.4028880">
<time>2008-04-10T06:09:12.061Z</time>
</trkpt>
<trkpt lat="32.9979830" lon="35.4033440">
<time>2008-04-10T06:09:13.418Z</time>
</trkpt>
<trkpt lat="32.9975200" lon="35.4040740">
<time>2008-04-10T06:09:14.809Z</time>
</trkpt>
<trkpt lat="32.9972880" lon="35.4046220">
<time>2008-04-10T06:09:15.785Z</time>
</trkpt>
<trkpt lat="32.9972860" lon="35.4056270">
<time>2008-04-10T06:09:16.736Z</time>
</trkpt>
<trkpt lat="32.9972850" lon="35.4066320">
<time>2008-04-10T06:09:17.919Z</time>
</trkpt>
<trkpt lat="32.9972830" lon="35.4076370">
<time>2008-04-10T06:09:18.922Z</time>
</trkpt>
<trkpt lat="32.9971280" lon="35.4082770">
<time>2008-04-10T06:09:20.105Z</time>
</trkpt>
<trkpt lat="32.9966650" lon="35.4092810">
<time>2008-04-10T06:09:21.747Z</time>
</trkpt>
<trkpt lat="32.9963550" lon="35.4103770">
<time>2008-04-10T06:09:22.922Z</time>
</trkpt>
<trkpt lat="32.9960450" lon="35.4115640">
<time>2008-04-10T06:09:33.420Z</time>
</trkpt>
<trkpt lat="32.9955820" lon="35.4119280">
<time>2008-04-10T06:09:34.422Z</time>
</trkpt>
<trkpt lat="32.9951190" lon="35.4126580">
<time>2008-04-10T06:09:35.640Z</time>
</trkpt>
<trkpt lat="32.9947330" lon="35.4136620">
<time>2008-04-10T06:09:36.469Z</time>
</trkpt>
<trkpt lat="32.9943470" lon="35.4143010">
<time>2008-04-10T06:09:37.247Z</time>
</trkpt>
<trkpt lat="32.9939620" lon="35.4143000">
<time>2008-04-10T06:09:40.081Z</time>
</trkpt>
<trkpt lat="32.9933460" lon="35.4139330">
<time>2008-04-10T06:09:40.954Z</time>
</trkpt>
<trkpt lat="32.9926530" lon="35.4139320">
<time>2008-04-10T06:09:41.766Z</time>
</trkpt>
<trkpt lat="32.9921910" lon="35.4141130">
<time>2008-04-10T06:09:42.794Z</time>
</trkpt>
<trkpt lat="32.9918830" lon="35.4137470">
<time>2008-04-10T06:09:45.827Z</time>
</trkpt>
<trkpt lat="32.9918850" lon="35.4128340">
<time>2008-04-10T06:09:46.846Z</time>
</trkpt>
<trkpt lat="32.9917330" lon="35.4117370">
<time>2008-04-10T06:09:47.874Z</time>
</trkpt>
<trkpt lat="32.9912720" lon="35.4107310">
<time>2008-04-10T06:09:48.937Z</time>
</trkpt>
<trkpt lat="32.9905800" lon="35.4101810">
<time>2008-04-10T06:09:49.810Z</time>
</trkpt>
<trkpt lat="32.9899640" lon="35.4100880">
<time>2008-04-10T06:09:50.700Z</time>
</trkpt>
<trkpt lat="32.9895790" lon="35.4105440">
<time>2008-04-10T06:09:51.797Z</time>
</trkpt>
<trkpt lat="32.9891150" lon="35.4112740">
<time>2008-04-10T06:09:52.842Z</time>
</trkpt>
<trkpt lat="32.9884980" lon="35.4120950">
<time>2008-04-10T06:09:53.879Z</time>
</trkpt>
<trkpt lat="32.9881120" lon="35.4125510">
<time>2008-04-10T06:09:55.045Z</time>
</trkpt>
<trkpt lat="32.9877270" lon="35.4130070">
<time>2008-04-10T06:10:05.059Z</time>
</trkpt>
<trkpt lat="32.9874950" lon="35.4135550">
<time>2008-04-10T06:10:06.001Z</time>
</trkpt>
<trkpt lat="32.9873400" lon="35.4141020">
<time>2008-04-10T06:10:07.081Z</time>
</trkpt>
<trkpt lat="32.9868010" lon="35.4142840">
<time>2008-04-10T06:10:07.703Z</time>
</trkpt>
<trkpt lat="32.9863380" lon="35.4145570">
<time>2008-04-10T06:10:08.610Z</time>
</trkpt>
<trkpt lat="32.9856450" lon="35.4144640">
<time>2008-04-10T06:10:09.500Z</time>
</trkpt>
<trkpt lat="32.9851060" lon="35.4144630">
<time>2008-04-10T06:10:10.157Z</time>
</trkpt>
<trkpt lat="32.9847200" lon="35.4150100">
<time>2008-04-10T06:10:10.831Z</time>
</trkpt>
<trkpt lat="32.9843350" lon="35.4154660">
<time>2008-04-10T06:10:11.513Z</time>
</trkpt>
<trkpt lat="32.9837180" lon="35.4155560">
<time>2008-04-10T06:10:12.282Z</time>
</trkpt>
<trkpt lat="32.9831020" lon="35.4157370">
<time>2008-04-10T06:10:13.215Z</time>
</trkpt>
<trkpt lat="32.9818700" lon="35.4155520">
<time>2008-04-10T06:10:14.079Z</time>
</trkpt>
<trkpt lat="32.9811010" lon="35.4152760">
<time>2008-04-10T06:10:14.917Z</time>
</trkpt>
<trkpt lat="32.9804850" lon="35.4150000">
<time>2008-04-10T06:10:15.470Z</time>
</trkpt>
<trkpt lat="32.9794070" lon="35.4149980">
<time>2008-04-10T06:10:23.903Z</time>
</trkpt>
<trkpt lat="32.9788680" lon="35.4152710">
<time>2008-04-10T06:10:24.793Z</time>
</trkpt>
<trkpt lat="32.9786360" lon="35.4157270">
<time>2008-04-10T06:10:25.519Z</time>
</trkpt>
<trkpt lat="32.9783270" lon="35.4166400">
<time>2008-04-10T06:10:26.331Z</time>
</trkpt>
<trkpt lat="32.9778630" lon="35.4175520">
<time>2008-04-10T06:10:27.221Z</time>
</trkpt>
<trkpt lat="32.9775540" lon="35.4184650">
<time>2008-04-10T06:10:28.292Z</time>
</trkpt>
<trkpt lat="32.9770900" lon="35.4193780">
<time>2008-04-10T06:10:29.502Z</time>
</trkpt>
<trkpt lat="32.9766270" lon="35.4202900">
<time>2008-04-10T06:10:45.261Z</time>
</trkpt>
<trkpt lat="32.9759330" lon="35.4206540">
<time>2008-04-10T06:10:46.091Z</time>
</trkpt>
<trkpt lat="32.9750860" lon="35.4208350">
<time>2008-04-10T06:10:47.248Z</time>
</trkpt>
<trkpt lat="32.9746230" lon="35.4212900">
<time>2008-04-10T06:10:47.922Z</time>
</trkpt>
<trkpt lat="32.9743900" lon="35.4222030">
<time>2008-04-10T06:10:48.907Z</time>
</trkpt>
<trkpt lat="32.9740040" lon="35.4230250">
<time>2008-04-10T06:10:49.685Z</time>
</trkpt>
<trkpt lat="32.9733860" lon="35.4239370">
<time>2008-04-10T06:10:51.465Z</time>
</trkpt>
<trkpt lat="32.9727700" lon="35.4243920">
<time>2008-04-10T06:10:57.996Z</time>
</trkpt>
<trkpt lat="32.9723070" lon="35.4247560">
<time>2008-04-10T06:10:59.949Z</time>
</trkpt>
<trkpt lat="32.9721520" lon="35.4251210">
<time>2008-04-10T06:11:00.908Z</time>
</trkpt>
<trkpt lat="32.9718430" lon="35.4258510">
<time>2008-04-10T06:11:04.269Z</time>
</trkpt>
<trkpt lat="32.9716880" lon="35.4265820">
<time>2008-04-10T06:11:05.107Z</time>
</trkpt>
<trkpt lat="32.9712250" lon="35.4269460">
<time>2008-04-10T06:11:06.109Z</time>
</trkpt>
<trkpt lat="32.9708400" lon="35.4269450">
<time>2008-04-10T06:11:07.872Z</time>
</trkpt>
<trkpt lat="32.9701480" lon="35.4265780">
<time>2008-04-10T06:11:11.596Z</time>
</trkpt>
<trkpt lat="32.9693020" lon="35.4262110">
<time>2008-04-10T06:11:12.512Z</time>
</trkpt>
<trkpt lat="32.9683780" lon="35.4258430">
<time>2008-04-10T06:11:13.652Z</time>
</trkpt>
<trkpt lat="32.9674540" lon="35.4260230">
<time>2008-04-10T06:11:14.387Z</time>
</trkpt>
<trkpt lat="32.9666840" lon="35.4261130">
<time>2008-04-10T06:11:15.527Z</time>
</trkpt>
<trkpt lat="32.9656820" lon="35.4263840">
<time>2008-04-10T06:11:16.331Z</time>
</trkpt>
<trkpt lat="32.9652200" lon="35.4265660">
<time>2008-04-10T06:11:17.514Z</time>
</trkpt>
<trkpt lat="32.9643730" lon="35.4267470">
<time>2008-04-10T06:11:21.204Z</time>
</trkpt>
<trkpt lat="32.9636030" lon="35.4267450">
<time>2008-04-10T06:11:22.033Z</time>
</trkpt>
<trkpt lat="32.9632940" lon="35.4272010">
<time>2008-04-10T06:11:23.001Z</time>
</trkpt>
<trkpt lat="32.9632150" lon="35.4280230">
<time>2008-04-10T06:11:23.839Z</time>
</trkpt>
<trkpt lat="32.9630600" lon="35.4289360">
<time>2008-04-10T06:11:24.590Z</time>
</trkpt>
<trkpt lat="32.9626740" lon="35.4295740">
<time>2008-04-10T06:11:27.096Z</time>
</trkpt>
<trkpt lat="32.9622880" lon="35.4300300">
<time>2008-04-10T06:11:27.874Z</time>
</trkpt>
<trkpt lat="32.9618250" lon="35.4305770">
<time>2008-04-10T06:11:28.565Z</time>
</trkpt>
<trkpt lat="32.9609000" lon="35.4312140">
<time>2008-04-10T06:11:29.956Z</time>
</trkpt>
<trkpt lat="32.9604370" lon="35.4316690">
<time>2008-04-10T06:11:31.019Z</time>
</trkpt>
<trkpt lat="32.9590500" lon="35.4320310">
<time>2008-04-10T06:11:47.409Z</time>
</trkpt>
<trkpt lat="32.9583560" lon="35.4324860">
<time>2008-04-10T06:11:48.886Z</time>
</trkpt>
<trkpt lat="32.9573540" lon="35.4331230">
<time>2008-04-10T06:11:49.828Z</time>
</trkpt>
<trkpt lat="32.9556580" lon="35.4343980">
<time>2008-04-10T06:11:53.076Z</time>
</trkpt>
<trkpt lat="32.9547330" lon="35.4352170">
<time>2008-04-10T06:11:54.450Z</time>
</trkpt>
<trkpt lat="32.9541150" lon="35.4359460">
<time>2008-04-10T06:11:55.332Z</time>
</trkpt>
<trkpt lat="32.9532660" lon="35.4371320">
<time>2008-04-10T06:11:56.671Z</time>
</trkpt>
<trkpt lat="32.9528030" lon="35.4378610">
<time>2008-04-10T06:11:57.500Z</time>
</trkpt>
<trkpt lat="32.9525700" lon="35.4387740">
<time>2008-04-10T06:11:58.502Z</time>
</trkpt>
<trkpt lat="32.9524910" lon="35.4398700">
<time>2008-04-10T06:11:59.876Z</time>
</trkpt>
<trkpt lat="32.9522580" lon="35.4407820">
<time>2008-04-10T06:12:00.965Z</time>
</trkpt>
<trkpt lat="32.9515640" lon="35.4415110">
<time>2008-04-10T06:12:02.062Z</time>
</trkpt>
<trkpt lat="32.9508690" lon="35.4424230">
<time>2008-04-10T06:12:03.419Z</time>
</trkpt>
<trkpt lat="32.9502550" lon="35.4416900">
<time>2008-04-10T06:12:12.188Z</time>
</trkpt>
<trkpt lat="32.9497940" lon="35.4411410">
<time>2008-04-10T06:12:15.964Z</time>
</trkpt>
<trkpt lat="32.9491790" lon="35.4405920">
<time>2008-04-10T06:12:16.828Z</time>
</trkpt>
<trkpt lat="32.9487180" lon="35.4400420">
<time>2008-04-10T06:12:17.528Z</time>
</trkpt>
<trkpt lat="32.9481030" lon="35.4394020">
<time>2008-04-10T06:12:18.340Z</time>
</trkpt>
<trkpt lat="32.9480280" lon="35.4382140">
<time>2008-04-10T06:12:19.705Z</time>
</trkpt>
<trkpt lat="32.9479530" lon="35.4371180">
<time>2008-04-10T06:12:20.405Z</time>
</trkpt>
<trkpt lat="32.9476460" lon="35.4364780">
<time>2008-04-10T06:12:21.528Z</time>
</trkpt>
<trkpt lat="32.9471850" lon="35.4360200">
<time>2008-04-10T06:12:22.280Z</time>
</trkpt>
<trkpt lat="32.9465700" lon="35.4356530">
<time>2008-04-10T06:12:26.738Z</time>
</trkpt>
<trkpt lat="32.9461850" lon="35.4356520">
<time>2008-04-10T06:12:28.138Z</time>
</trkpt>
<trkpt lat="32.9459530" lon="35.4360170">
<time>2008-04-10T06:12:34.574Z</time>
</trkpt>
<trkpt lat="32.9453370" lon="35.4360160">
<time>2008-04-10T06:12:35.378Z</time>
</trkpt>
<trkpt lat="32.9446440" lon="35.4358310">
<time>2008-04-10T06:12:36.328Z</time>
</trkpt>
<trkpt lat="32.9442580" lon="35.4363780">
<time>2008-04-10T06:12:37.331Z</time>
</trkpt>
<trkpt lat="32.9441030" lon="35.4369260">
<time>2008-04-10T06:12:40.527Z</time>
</trkpt>
<trkpt lat="32.9439480" lon="35.4377470">
<time>2008-04-10T06:12:44.424Z</time>
</trkpt>
<trkpt lat="32.9437930" lon="35.4383860">
<time>2008-04-10T06:12:49.236Z</time>
</trkpt>
<trkpt lat="32.9431760" lon="35.4385670">
<time>2008-04-10T06:12:50.049Z</time>
</trkpt>
<trkpt lat="32.9424060" lon="35.4386570">
<time>2008-04-10T06:12:51.232Z</time>
</trkpt>
<trkpt lat="32.9417900" lon="35.4389290">
<time>2008-04-10T06:12:52.433Z</time>
</trkpt>
<trkpt lat="32.9417120" lon="35.4394770">
<time>2008-04-10T06:12:53.721Z</time>
</trkpt>
<trkpt lat="32.9415570" lon="35.4398410">
<time>2008-04-10T06:12:54.654Z</time>
</trkpt>
<trkpt lat="32.9406320" lon="35.4404780">
<time>2008-04-10T06:12:57.954Z</time>
</trkpt>
<trkpt lat="32.9399380" lon="35.4412070">
<time>2008-04-10T06:12:59.043Z</time>
</trkpt>
<trkpt lat="32.9392440" lon="35.4412970">
<time>2008-04-10T06:12:59.907Z</time>
</trkpt>
<trkpt lat="32.9386290" lon="35.4407470">
<time>2008-04-10T06:13:00.684Z</time>
</trkpt>
<trkpt lat="32.9380920" lon="35.4399240">
<time>2008-04-10T06:13:02.050Z</time>
</trkpt>
<trkpt lat="32.9376320" lon="35.4387360">
<time>2008-04-10T06:13:05.108Z</time>
</trkpt>
<trkpt lat="32.9373260" lon="35.4376390">
<time>2008-04-10T06:13:06.171Z</time>
</trkpt>
<trkpt lat="32.9370970" lon="35.4362690">
<time>2008-04-10T06:13:07.173Z</time>
</trkpt>
<trkpt lat="32.9370230" lon="35.4346250">
<time>2008-04-10T06:13:08.357Z</time>
</trkpt>
<trkpt lat="32.9371810" lon="35.4325250">
<time>2008-04-10T06:13:11.424Z</time>
</trkpt>
<trkpt lat="32.9371830" lon="35.4312470">
<time>2008-04-10T06:13:12.582Z</time>
</trkpt>
<trkpt lat="32.9370300" lon="35.4306070">
<time>2008-04-10T06:13:13.532Z</time>
</trkpt>
<trkpt lat="32.9368780" lon="35.4299680">
<time>2008-04-10T06:13:14.137Z</time>
</trkpt>
<trkpt lat="32.9368780" lon="35.4295110">
<time>2008-04-10T06:13:14.863Z</time>
</trkpt>
<trkpt lat="32.9373410" lon="35.4292380">
<time>2008-04-10T06:13:15.563Z</time>
</trkpt>
<trkpt lat="32.9378800" lon="35.4292390">
<time>2008-04-10T06:13:16.254Z</time>
</trkpt>
<trkpt lat="32.9385730" lon="35.4292410">
<time>2008-04-10T06:13:16.997Z</time>
</trkpt>
<trkpt lat="32.9385740" lon="35.4286020">
<time>2008-04-10T06:13:18.129Z</time>
</trkpt>
<trkpt lat="32.9385750" lon="35.4281450">
<time>2008-04-10T06:13:18.794Z</time>
</trkpt>
<trkpt lat="32.9381130" lon="35.4279620">
<time>2008-04-10T06:13:19.813Z</time>
</trkpt>
<trkpt lat="32.9375750" lon="35.4276860">
<time>2008-04-10T06:13:20.626Z</time>
</trkpt>
<trkpt lat="32.9371900" lon="35.4274120">
<time>2008-04-10T06:13:21.671Z</time>
</trkpt>
<trkpt lat="32.9368060" lon="35.4266800">
<time>2008-04-10T06:13:37.387Z</time>
</trkpt>
<trkpt lat="32.9364230" lon="35.4257660">
<time>2008-04-10T06:13:38.234Z</time>
</trkpt>
<trkpt lat="32.9364240" lon="35.4250350">
<time>2008-04-10T06:13:39.046Z</time>
</trkpt>
<trkpt lat="32.9367330" lon="35.4244880">
<time>2008-04-10T06:13:39.798Z</time>
</trkpt>
<trkpt lat="32.9368880" lon="35.4240320">
<time>2008-04-10T06:13:40.558Z</time>
</trkpt>
<trkpt lat="32.9361950" lon="35.4239390">
<time>2008-04-10T06:13:46.675Z</time>
</trkpt>
<trkpt lat="32.9355020" lon="35.4241200">
<time>2008-04-10T06:13:47.591Z</time>
</trkpt>
<trkpt lat="32.9350390" lon="35.4244840">
<time>2008-04-10T06:13:48.999Z</time>
</trkpt>
<trkpt lat="32.9353480" lon="35.4238460">
<time>2008-04-10T06:18:47.002Z</time>
</trkpt>
<trkpt lat="32.9356570" lon="35.4232990">
<time>2008-04-10T06:18:48.332Z</time>
</trkpt>
<trkpt lat="32.9356570" lon="35.4231160">
<time>2008-04-10T06:18:49.092Z</time>
</trkpt>
<trkpt lat="32.9353500" lon="35.4230240">
<time>2008-04-10T06:18:49.905Z</time>
</trkpt>
<trkpt lat="32.9350410" lon="35.4232970">
<time>2008-04-10T06:18:51.468Z</time>
</trkpt>
<trkpt lat="32.9345780" lon="35.4237530">
<time>2008-04-10T06:19:06.753Z</time>
</trkpt>
<trkpt lat="32.9340380" lon="35.4244820">
<time>2008-04-10T06:19:19.652Z</time>
</trkpt>
<trkpt lat="32.9333440" lon="35.4250280">
<time>2008-04-10T06:19:22.547Z</time>
</trkpt>
<trkpt lat="32.9328820" lon="35.4249360">
<time>2008-04-10T06:19:23.324Z</time>
</trkpt>
<trkpt lat="32.9323440" lon="35.4246600">
<time>2008-04-10T06:19:24.059Z</time>
</trkpt>
<trkpt lat="32.9314970" lon="35.4243850">
<time>2008-04-10T06:19:25.044Z</time>
</trkpt>
<trkpt lat="32.9306510" lon="35.4241090">
<time>2008-04-10T06:19:59.984Z</time>
</trkpt>
<trkpt lat="32.9298810" lon="35.4237420">
<time>2008-04-10T06:20:14.058Z</time>
</trkpt>
<trkpt lat="32.9292660" lon="35.4235570">
<time>2008-04-10T06:20:14.983Z</time>
</trkpt>
<trkpt lat="32.9288050" lon="35.4229170">
<time>2008-04-10T06:20:15.734Z</time>
</trkpt>
<trkpt lat="32.9281900" lon="35.4220940">
<time>2008-04-10T06:20:16.408Z</time>
</trkpt>
<trkpt lat="32.9271910" lon="35.4207220">
<time>2008-04-10T06:20:17.765Z</time>
</trkpt>
<trkpt lat="32.9265770" lon="35.4198080">
<time>2008-04-10T06:20:18.542Z</time>
</trkpt>
<trkpt lat="32.9256550" lon="35.4187100">
<time>2008-04-10T06:20:20.003Z</time>
</trkpt>
<trkpt lat="32.9250400" lon="35.4179780">
<time>2008-04-10T06:20:20.659Z</time>
</trkpt>
<trkpt lat="32.9243480" lon="35.4174290">
<time>2008-04-10T06:20:21.532Z</time>
</trkpt>
<trkpt lat="32.9237330" lon="35.4168790">
<time>2008-04-10T06:20:22.249Z</time>
</trkpt>
<trkpt lat="32.9232710" lon="35.4163300">
<time>2008-04-10T06:20:25.627Z</time>
</trkpt>
<trkpt lat="32.9238120" lon="35.4156010">
<time>2008-04-10T06:21:55.483Z</time>
</trkpt>
<trkpt lat="32.9243530" lon="35.4141420">
<time>2008-04-10T06:21:56.580Z</time>
</trkpt>
<trkpt lat="32.9249720" lon="35.4125910">
<time>2008-04-10T06:21:57.738Z</time>
</trkpt>
<trkpt lat="32.9255900" lon="35.4110400">
<time>2008-04-10T06:21:59.233Z</time>
</trkpt>
<trkpt lat="32.9251290" lon="35.4106740">
<time>2008-04-10T06:22:00.062Z</time>
</trkpt>
<trkpt lat="32.9235890" lon="35.4102140">
<time>2008-04-10T06:22:01.263Z</time>
</trkpt>
<trkpt lat="32.9223580" lon="35.4097550">
<time>2008-04-10T06:22:02.136Z</time>
</trkpt>
<trkpt lat="32.9210500" lon="35.4092040">
<time>2008-04-10T06:22:03.389Z</time>
</trkpt>
<trkpt lat="32.9198190" lon="35.4086540">
<time>2008-04-10T06:22:04.685Z</time>
</trkpt>
<trkpt lat="32.9182030" lon="35.4079200">
<time>2008-04-10T06:22:05.704Z</time>
</trkpt>
<trkpt lat="32.9168180" lon="35.4071860">
<time>2008-04-10T06:22:11.813Z</time>
</trkpt>
<trkpt lat="32.9169720" lon="35.4068210">
<time>2008-04-10T06:22:25.231Z</time>
</trkpt>
<trkpt lat="32.9175900" lon="35.4057270">
<time>2008-04-10T06:22:26.285Z</time>
</trkpt>
<trkpt lat="32.9174380" lon="35.4047230">
<time>2008-04-10T06:22:31.918Z</time>
</trkpt>
<trkpt lat="32.9165150" lon="35.4041730">
<time>2008-04-10T06:22:32.687Z</time>
</trkpt>
<trkpt lat="32.9148220" lon="35.4031650">
<time>2008-04-10T06:22:34.035Z</time>
</trkpt>
<trkpt lat="32.9137450" lon="35.4023410">
<time>2008-04-10T06:22:34.968Z</time>
</trkpt>
<trkpt lat="32.9125150" lon="35.4013340">
<time>2008-04-10T06:22:36.186Z</time>
</trkpt>
<trkpt lat="32.9128230" lon="35.4010610">
<time>2008-04-10T06:22:47.954Z</time>
</trkpt>
<trkpt lat="32.9130560" lon="35.4000570">
<time>2008-04-10T06:22:48.904Z</time>
</trkpt>
<trkpt lat="32.9132120" lon="35.3986880">
<time>2008-04-10T06:22:49.673Z</time>
</trkpt>
<trkpt lat="32.9130590" lon="35.3978660">
<time>2008-04-10T06:22:52.792Z</time>
</trkpt>
<trkpt lat="32.9125210" lon="35.3969520">
<time>2008-04-10T06:22:53.561Z</time>
</trkpt>
<trkpt lat="32.9123690" lon="35.3956740">
<time>2008-04-10T06:22:54.339Z</time>
</trkpt>
<trkpt lat="32.9122170" lon="35.3944870">
<time>2008-04-10T06:22:55.419Z</time>
</trkpt>
<trkpt lat="32.9121410" lon="35.3936650">
<time>2008-04-10T06:22:58.564Z</time>
</trkpt>
<trkpt lat="32.9121430" lon="35.3926610">
<time>2008-04-10T06:22:59.687Z</time>
</trkpt>
<trkpt lat="32.9125290" lon="35.3918400">
<time>2008-04-10T06:23:00.378Z</time>
</trkpt>
<trkpt lat="32.9129910" lon="35.3916590">
<time>2008-04-10T06:23:00.966Z</time>
</trkpt>
<trkpt lat="32.9134530" lon="35.3914770">
<time>2008-04-10T06:23:01.519Z</time>
</trkpt>
<trkpt lat="32.9139160" lon="35.3909300">
<time>2008-04-10T06:23:02.184Z</time>
</trkpt>
<trkpt lat="32.9145340" lon="35.3893790">
<time>2008-04-10T06:23:03.480Z</time>
</trkpt>
<trkpt lat="32.9151520" lon="35.3881030">
<time>2008-04-10T06:23:04.560Z</time>
</trkpt>
<trkpt lat="32.9157700" lon="35.3871000">
<time>2008-04-10T06:23:05.372Z</time>
</trkpt>
<trkpt lat="32.9163870" lon="35.3863700">
<time>2008-04-10T06:23:06.297Z</time>
</trkpt>
<trkpt lat="32.9170040" lon="35.3852760">
<time>2008-04-10T06:23:09.934Z</time>
</trkpt>
<trkpt lat="32.9171610" lon="35.3834510">
<time>2008-04-10T06:23:10.919Z</time>
</trkpt>
<trkpt lat="32.9173930" lon="35.3823550">
<time>2008-04-10T06:23:11.636Z</time>
</trkpt>
<trkpt lat="32.9173180" lon="35.3809860">
<time>2008-04-10T06:23:12.405Z</time>
</trkpt>
<trkpt lat="32.9170120" lon="35.3797990">
<time>2008-04-10T06:23:13.269Z</time>
</trkpt>
<trkpt lat="32.9167050" lon="35.3787020">
<time>2008-04-10T06:23:13.986Z</time>
</trkpt>
<trkpt lat="32.9163990" lon="35.3773320">
<time>2008-04-10T06:23:15.144Z</time>
</trkpt>
<trkpt lat="32.9162460" lon="35.3765110">
<time>2008-04-10T06:23:16.189Z</time>
</trkpt>
<trkpt lat="32.9159390" lon="35.3754140">
<time>2008-04-10T06:23:20.985Z</time>
</trkpt>
<trkpt lat="32.9159410" lon="35.3743190">
<time>2008-04-10T06:23:21.797Z</time>
</trkpt>
<trkpt lat="32.9154030" lon="35.3734050">
<time>2008-04-10T06:23:22.531Z</time>
</trkpt>
<trkpt lat="32.9148650" lon="35.3725820">
<time>2008-04-10T06:23:23.905Z</time>
</trkpt>
<trkpt lat="32.9145570" lon="35.3728560">
<time>2008-04-10T06:23:57.575Z</time>
</trkpt>
<trkpt lat="32.9128620" lon="35.3734000">
<time>2008-04-10T06:23:58.983Z</time>
</trkpt>
<trkpt lat="32.9110910" lon="35.3733970">
<time>2008-04-10T06:24:00.063Z</time>
</trkpt>
<trkpt lat="32.9103980" lon="35.3734870">
<time>2008-04-10T06:24:01.074Z</time>
</trkpt>
<trkpt lat="32.9100140" lon="35.3729390">
<time>2008-04-10T06:24:01.826Z</time>
</trkpt>
<trkpt lat="32.9090130" lon="35.3724810">
<time>2008-04-10T06:24:02.673Z</time>
</trkpt>
<trkpt lat="32.9079350" lon="35.3723870">
<time>2008-04-10T06:24:03.718Z</time>
</trkpt>
<trkpt lat="32.9070890" lon="35.3720210">
<time>2008-04-10T06:24:04.668Z</time>
</trkpt>
<trkpt lat="32.9053180" lon="35.3719260">
<time>2008-04-10T06:24:06.483Z</time>
</trkpt>
<trkpt lat="32.9040860" lon="35.3715590">
<time>2008-04-10T06:24:08.159Z</time>
</trkpt>
<trkpt lat="32.9030080" lon="35.3713740">
<time>2008-04-10T06:24:10.423Z</time>
</trkpt>
<trkpt lat="32.9017770" lon="35.3710980">
<time>2008-04-10T06:24:11.347Z</time>
</trkpt>
<trkpt lat="32.9003910" lon="35.3708220">
<time>2008-04-10T06:24:15.831Z</time>
</trkpt>
<trkpt lat="32.8993900" lon="35.3706380">
<time>2008-04-10T06:24:16.704Z</time>
</trkpt>
<trkpt lat="32.8983890" lon="35.3706360">
<time>2008-04-10T06:24:17.689Z</time>
</trkpt>
<trkpt lat="32.8968490" lon="35.3708160">
<time>2008-04-10T06:24:22.605Z</time>
</trkpt>
<trkpt lat="32.8960780" lon="35.3715450">
<time>2008-04-10T06:24:23.435Z</time>
</trkpt>
<trkpt lat="32.8953070" lon="35.3724560">
<time>2008-04-10T06:24:24.238Z</time>
</trkpt>
<trkpt lat="32.8946130" lon="35.3731850">
<time>2008-04-10T06:24:25.327Z</time>
</trkpt>
<trkpt lat="32.8934570" lon="35.3735480">
<time>2008-04-10T06:24:26.580Z</time>
</trkpt>
<trkpt lat="32.8922250" lon="35.3737280">
<time>2008-04-10T06:24:27.608Z</time>
</trkpt>
<trkpt lat="32.8911470" lon="35.3736350">
<time>2008-04-10T06:24:28.878Z</time>
</trkpt>
<trkpt lat="32.8899150" lon="35.3739980">
<time>2008-04-10T06:24:43.091Z</time>
</trkpt>
<trkpt lat="32.8888360" lon="35.3746350">
<time>2008-04-10T06:24:43.877Z</time>
</trkpt>
<trkpt lat="32.8874480" lon="35.3759100">
<time>2008-04-10T06:24:44.983Z</time>
</trkpt>
<trkpt lat="32.8859070" lon="35.3769110">
<time>2008-04-10T06:24:46.028Z</time>
</trkpt>
<trkpt lat="32.8846730" lon="35.3780950">
<time>2008-04-10T06:24:47.799Z</time>
</trkpt>
<trkpt lat="32.8833630" lon="35.3793700">
<time>2008-04-10T06:24:48.871Z</time>
</trkpt>
<trkpt lat="32.8824370" lon="35.3804630">
<time>2008-04-10T06:24:53.986Z</time>
</trkpt>
<trkpt lat="32.8809720" lon="35.3819210">
<time>2008-04-10T06:24:55.359Z</time>
</trkpt>
<trkpt lat="32.8791220" lon="35.3831950">
<time>2008-04-10T06:24:56.595Z</time>
</trkpt>
<trkpt lat="32.8781970" lon="35.3837410">
<time>2008-04-10T06:24:57.908Z</time>
</trkpt>
<trkpt lat="32.8765010" lon="35.3851970">
<time>2008-04-10T06:25:02.297Z</time>
</trkpt>
<trkpt lat="32.8752680" lon="35.3861070">
<time>2008-04-10T06:25:03.343Z</time>
</trkpt>
<trkpt lat="32.8744970" lon="35.3872010">
<time>2008-04-10T06:25:04.457Z</time>
</trkpt>
<trkpt lat="32.8736480" lon="35.3882940">
<time>2008-04-10T06:25:05.503Z</time>
</trkpt>
<trkpt lat="32.8731070" lon="35.3899360">
<time>2008-04-10T06:25:06.591Z</time>
</trkpt>
<trkpt lat="32.8723350" lon="35.3908470">
<time>2008-04-10T06:25:08.138Z</time>
</trkpt>
<trkpt lat="32.8711020" lon="35.3917570">
<time>2008-04-10T06:25:09.235Z</time>
</trkpt>
<trkpt lat="32.8694070" lon="35.3927570">
<time>2008-04-10T06:25:10.410Z</time>
</trkpt>
<trkpt lat="32.8677110" lon="35.3937570">
<time>2008-04-10T06:25:11.905Z</time>
</trkpt>
<trkpt lat="32.8653220" lon="35.3952120">
<time>2008-04-10T06:25:13.590Z</time>
</trkpt>
<trkpt lat="32.8640890" lon="35.3960310">
<time>2008-04-10T06:25:14.998Z</time>
</trkpt>
<trkpt lat="32.8636250" lon="35.3968510">
<time>2008-04-10T06:25:15.767Z</time>
</trkpt>
<trkpt lat="32.8630080" lon="35.3980360">
<time>2008-04-10T06:25:17.124Z</time>
</trkpt>
<trkpt lat="32.8622360" lon="35.3994030">
<time>2008-04-10T06:25:21.513Z</time>
</trkpt>
<trkpt lat="32.8620030" lon="35.4003150">
<time>2008-04-10T06:25:22.593Z</time>
</trkpt>
<trkpt lat="32.8619250" lon="35.4012270">
<time>2008-04-10T06:25:25.375Z</time>
</trkpt>
<trkpt lat="32.8614620" lon="35.4018640">
<time>2008-04-10T06:25:48.841Z</time>
</trkpt>
<trkpt lat="32.8606140" lon="35.4026840">
<time>2008-04-10T06:25:49.800Z</time>
</trkpt>
<trkpt lat="32.8592260" lon="35.4035930">
<time>2008-04-10T06:25:51.156Z</time>
</trkpt>
<trkpt lat="32.8586090" lon="35.4041390">
<time>2008-04-10T06:25:56.781Z</time>
</trkpt>
<trkpt lat="32.8570680" lon="35.4049570">
<time>2008-04-10T06:25:57.904Z</time>
</trkpt>
<trkpt lat="32.8550650" lon="35.4054090">
<time>2008-04-10T06:25:59.123Z</time>
</trkpt>
<trkpt lat="32.8535250" lon="35.4054050">
<time>2008-04-10T06:26:00.514Z</time>
</trkpt>
<trkpt lat="32.8527550" lon="35.4055860">
<time>2008-04-10T06:26:01.308Z</time>
</trkpt>
<trkpt lat="32.8524470" lon="35.4057680">
<time>2008-04-10T06:26:03.935Z</time>
</trkpt>
<trkpt lat="32.8519840" lon="35.4062230">
<time>2008-04-10T06:26:05.136Z</time>
</trkpt>
<trkpt lat="32.8512920" lon="35.4057660">
<time>2008-04-10T06:26:06.285Z</time>
</trkpt>
<trkpt lat="32.8504450" lon="35.4057640">
<time>2008-04-10T06:26:07.261Z</time>
</trkpt>
<trkpt lat="32.8499830" lon="35.4056710">
<time>2008-04-10T06:26:08.160Z</time>
</trkpt>
<trkpt lat="32.8499070" lon="35.4051240">
<time>2008-04-10T06:26:08.799Z</time>
</trkpt>
<trkpt lat="32.8499850" lon="35.4044860">
<time>2008-04-10T06:26:09.767Z</time>
</trkpt>
<trkpt lat="32.8489850" lon="35.4033890">
<time>2008-04-10T06:26:11.581Z</time>
</trkpt>
<trkpt lat="32.8467560" lon="35.4010120">
<time>2008-04-10T06:26:13.845Z</time>
</trkpt>
<trkpt lat="32.8462940" lon="35.4011020">
<time>2008-04-10T06:26:20.299Z</time>
</trkpt>
<trkpt lat="32.8456780" lon="35.4010100">
<time>2008-04-10T06:26:21.111Z</time>
</trkpt>
<trkpt lat="32.8447540" lon="35.4006430">
<time>2008-04-10T06:26:23.202Z</time>
</trkpt>
<trkpt lat="32.8443700" lon="35.4001860">
<time>2008-04-10T06:26:30.754Z</time>
</trkpt>
<trkpt lat="32.8437550" lon="35.3995460">
<time>2008-04-10T06:26:32.456Z</time>
</trkpt>
<trkpt lat="32.8431400" lon="35.3989980">
<time>2008-04-10T06:26:33.233Z</time>
</trkpt>
<trkpt lat="32.8423700" lon="35.3984490">
<time>2008-04-10T06:26:34.218Z</time>
</trkpt>
<trkpt lat="32.8414470" lon="35.3982640">
<time>2008-04-10T06:26:35.722Z</time>
</trkpt>
<trkpt lat="32.8402150" lon="35.3982620">
<time>2008-04-10T06:26:37.121Z</time>
</trkpt>
<trkpt lat="32.8394450" lon="35.3981690">
<time>2008-04-10T06:26:37.933Z</time>
</trkpt>
<trkpt lat="32.8386750" lon="35.3980760">
<time>2008-04-10T06:26:38.737Z</time>
</trkpt>
<trkpt lat="32.8375970" lon="35.3977090">
<time>2008-04-10T06:26:39.782Z</time>
</trkpt>
<trkpt lat="32.8368280" lon="35.3972510">
<time>2008-04-10T06:26:40.577Z</time>
</trkpt>
<trkpt lat="32.8360590" lon="35.3967940">
<time>2008-04-10T06:26:41.484Z</time>
</trkpt>
<trkpt lat="32.8354430" lon="35.3966100">
<time>2008-04-10T06:26:42.513Z</time>
</trkpt>
<trkpt lat="32.8346730" lon="35.3965170">
<time>2008-04-10T06:27:04.752Z</time>
</trkpt>
<trkpt lat="32.8345200" lon="35.3958790">
<time>2008-04-10T06:27:09.988Z</time>
</trkpt>
<trkpt lat="32.8341370" lon="35.3946010">
<time>2008-04-10T06:27:10.999Z</time>
</trkpt>
<trkpt lat="32.8339840" lon="35.3939620">
<time>2008-04-10T06:27:11.906Z</time>
</trkpt>
<trkpt lat="32.8332910" lon="35.3935050">
<time>2008-04-10T06:27:12.735Z</time>
</trkpt>
<trkpt lat="32.8325230" lon="35.3926820">
<time>2008-04-10T06:27:13.703Z</time>
</trkpt>
<trkpt lat="32.8312930" lon="35.3911290">
<time>2008-04-10T06:27:17.090Z</time>
</trkpt>
<trkpt lat="32.8302160" lon="35.3903970">
<time>2008-04-10T06:27:17.997Z</time>
</trkpt>
<trkpt lat="32.8291390" lon="35.3893920">
<time>2008-04-10T06:27:18.844Z</time>
</trkpt>
<trkpt lat="32.8282160" lon="35.3887520">
<time>2008-04-10T06:27:19.639Z</time>
</trkpt>
<trkpt lat="32.8272160" lon="35.3877460">
<time>2008-04-10T06:27:20.952Z</time>
</trkpt>
<trkpt lat="32.8265250" lon="35.3865600">
<time>2008-04-10T06:27:22.058Z</time>
</trkpt>
<trkpt lat="32.8253720" lon="35.3849160">
<time>2008-04-10T06:27:25.358Z</time>
</trkpt>
<trkpt lat="32.8247580" lon="35.3840020">
<time>2008-04-10T06:27:26.248Z</time>
</trkpt>
<trkpt lat="32.8242200" lon="35.3829980">
<time>2008-04-10T06:27:27.216Z</time>
</trkpt>
<trkpt lat="32.8232970" lon="35.3818110">
<time>2008-04-10T06:27:28.624Z</time>
</trkpt>
<trkpt lat="32.8220670" lon="35.3803490">
<time>2008-04-10T06:27:30.689Z</time>
</trkpt>
<trkpt lat="32.8214520" lon="35.3796190">
<time>2008-04-10T06:27:31.596Z</time>
</trkpt>
<trkpt lat="32.8209910" lon="35.3788880">
<time>2008-04-10T06:27:32.504Z</time>
</trkpt>
<trkpt lat="32.8205310" lon="35.3777930">
<time>2008-04-10T06:27:33.324Z</time>
</trkpt>
<trkpt lat="32.8196090" lon="35.3764230">
<time>2008-04-10T06:27:34.966Z</time>
</trkpt>
<trkpt lat="32.8186860" lon="35.3750540">
<time>2008-04-10T06:27:36.158Z</time>
</trkpt>
<trkpt lat="32.8170710" lon="35.3735010">
<time>2008-04-10T06:27:37.705Z</time>
</trkpt>
<trkpt lat="32.8160720" lon="35.3724960">
<time>2008-04-10T06:27:38.768Z</time>
</trkpt>
<trkpt lat="32.8151490" lon="35.3715820">
<time>2008-04-10T06:27:40.012Z</time>
</trkpt>
<trkpt lat="32.8142250" lon="35.3710330">
<time>2008-04-10T06:27:54.769Z</time>
</trkpt>
<trkpt lat="32.8134560" lon="35.3705760">
<time>2008-04-10T06:27:55.642Z</time>
</trkpt>
<trkpt lat="32.8128410" lon="35.3699370">
<time>2008-04-10T06:27:56.609Z</time>
</trkpt>
<trkpt lat="32.8122260" lon="35.3690240">
<time>2008-04-10T06:28:02.217Z</time>
</trkpt>
<trkpt lat="32.8115340" lon="35.3681110">
<time>2008-04-10T06:28:03.124Z</time>
</trkpt>
<trkpt lat="32.8106880" lon="35.3671970">
<time>2008-04-10T06:28:04.126Z</time>
</trkpt>
<trkpt lat="32.8102270" lon="35.3667410">
<time>2008-04-10T06:28:05.292Z</time>
</trkpt>
<trkpt lat="32.8096880" lon="35.3661930">
<time>2008-04-10T06:28:13.984Z</time>
</trkpt>
<trkpt lat="32.8097660" lon="35.3652810">
<time>2008-04-10T06:28:14.987Z</time>
</trkpt>
<trkpt lat="32.8094600" lon="35.3640950">
<time>2008-04-10T06:28:15.954Z</time>
</trkpt>
<trkpt lat="32.8089220" lon="35.3630000">
<time>2008-04-10T06:28:17.138Z</time>
</trkpt>
<trkpt lat="32.8085380" lon="35.3620870">
<time>2008-04-10T06:28:17.950Z</time>
</trkpt>
<trkpt lat="32.8082310" lon="35.3611750">
<time>2008-04-10T06:28:18.875Z</time>
</trkpt>
<trkpt lat="32.8081560" lon="35.3600810">
<time>2008-04-10T06:28:22.106Z</time>
</trkpt>
<trkpt lat="32.8080790" lon="35.3594420">
<time>2008-04-10T06:28:22.754Z</time>
</trkpt>
<trkpt lat="32.8077720" lon="35.3586210">
<time>2008-04-10T06:28:23.592Z</time>
</trkpt>
<trkpt lat="32.8075430" lon="35.3573440">
<time>2008-04-10T06:28:24.456Z</time>
</trkpt>
<trkpt lat="32.8073130" lon="35.3558850">
<time>2008-04-10T06:28:25.329Z</time>
</trkpt>
<trkpt lat="32.8070840" lon="35.3547900">
<time>2008-04-10T06:28:26.201Z</time>
</trkpt>
<trkpt lat="32.8066220" lon="35.3540600">
<time>2008-04-10T06:28:35.221Z</time>
</trkpt>
<trkpt lat="32.8060850" lon="35.3526000">
<time>2008-04-10T06:28:35.999Z</time>
</trkpt>
<trkpt lat="32.8051630" lon="35.3511400">
<time>2008-04-10T06:28:36.924Z</time>
</trkpt>
<trkpt lat="32.8042400" lon="35.3494970">
<time>2008-04-10T06:28:38.315Z</time>
</trkpt>
<trkpt lat="32.8033180" lon="35.3480370">
<time>2008-04-10T06:28:39.403Z</time>
</trkpt>
<trkpt lat="32.8023180" lon="35.3467590">
<time>2008-04-10T06:28:40.907Z</time>
</trkpt>
<trkpt lat="32.8015490" lon="35.3458460">
<time>2008-04-10T06:28:41.952Z</time>
</trkpt>
<trkpt lat="32.8005490" lon="35.3447510">
<time>2008-04-10T06:28:43.188Z</time>
</trkpt>
<trkpt lat="32.7997800" lon="35.3438380">
<time>2008-04-10T06:28:44.596Z</time>
</trkpt>
<trkpt lat="32.7991650" lon="35.3427430">
<time>2008-04-10T06:28:45.719Z</time>
</trkpt>
<trkpt lat="32.7985510" lon="35.3414660">
<time>2008-04-10T06:28:46.877Z</time>
</trkpt>
<trkpt lat="32.7980130" lon="35.3403710">
<time>2008-04-10T06:28:48.484Z</time>
</trkpt>
<trkpt lat="32.7976290" lon="35.3392760">
<time>2008-04-10T06:28:49.763Z</time>
</trkpt>
<trkpt lat="32.7968610" lon="35.3374520">
<time>2008-04-10T06:29:03.699Z</time>
</trkpt>
<trkpt lat="32.7960920" lon="35.3358090">
<time>2008-04-10T06:29:04.753Z</time>
</trkpt>
<trkpt lat="32.7953250" lon="35.3336200">
<time>2008-04-10T06:29:05.937Z</time>
</trkpt>
<trkpt lat="32.7944020" lon="35.3317040">
<time>2008-04-10T06:29:07.423Z</time>
</trkpt>
<trkpt lat="32.7937110" lon="35.3301540">
<time>2008-04-10T06:29:12.373Z</time>
</trkpt>
<trkpt lat="32.7934040" lon="35.3285120">
<time>2008-04-10T06:29:13.220Z</time>
</trkpt>
<trkpt lat="32.7934830" lon="35.3268710">
<time>2008-04-10T06:29:14.266Z</time>
</trkpt>
<trkpt lat="32.7935610" lon="35.3254130">
<time>2008-04-10T06:29:16.011Z</time>
</trkpt>
<trkpt lat="32.7933310" lon="35.3241360">
<time>2008-04-10T06:29:21.644Z</time>
</trkpt>
<trkpt lat="32.7925630" lon="35.3217650">
<time>2008-04-10T06:29:22.785Z</time>
</trkpt>
<trkpt lat="32.7917950" lon="35.3195760">
<time>2008-04-10T06:29:24.167Z</time>
</trkpt>
<trkpt lat="32.7913350" lon="35.3176610">
<time>2008-04-10T06:29:25.152Z</time>
</trkpt>
<trkpt lat="32.7911040" lon="35.3168400">
<time>2008-04-10T06:29:27.372Z</time>
</trkpt>
<trkpt lat="32.7909510" lon="35.3157460">
<time>2008-04-10T06:29:51.012Z</time>
</trkpt>
<trkpt lat="32.7905680" lon="35.3136490">
<time>2008-04-10T06:29:52.282Z</time>
</trkpt>
<trkpt lat="32.7902620" lon="35.3118250">
<time>2008-04-10T06:29:53.172Z</time>
</trkpt>
<trkpt lat="32.7901090" lon="35.3100020">
<time>2008-04-10T06:29:54.355Z</time>
</trkpt>
<trkpt lat="32.7901100" lon="35.3084520">
<time>2008-04-10T06:29:55.124Z</time>
</trkpt>
<trkpt lat="32.7898030" lon="35.3067190">
<time>2008-04-10T06:29:56.230Z</time>
</trkpt>
<trkpt lat="32.7896510" lon="35.3052610">
<time>2008-04-10T06:29:57.060Z</time>
</trkpt>
<trkpt lat="32.7898060" lon="35.3036200">
<time>2008-04-10T06:29:59.919Z</time>
</trkpt>
<trkpt lat="32.7898070" lon="35.3021610">
<time>2008-04-10T06:30:00.827Z</time>
</trkpt>
<trkpt lat="32.7895000" lon="35.3003380">
<time>2008-04-10T06:30:01.889Z</time>
</trkpt>
<trkpt lat="32.7891940" lon="35.2973290">
<time>2008-04-10T06:30:03.341Z</time>
</trkpt>
<trkpt lat="32.7895030" lon="35.2961440">
<time>2008-04-10T06:30:04.058Z</time>
</trkpt>
<trkpt lat="32.7899660" lon="35.2945040">
<time>2008-04-10T06:30:05.034Z</time>
</trkpt>
<trkpt lat="32.7899670" lon="35.2926800">
<time>2008-04-10T06:30:05.967Z</time>
</trkpt>
<trkpt lat="32.7899680" lon="35.2914040">
<time>2008-04-10T06:30:06.624Z</time>
</trkpt>
<trkpt lat="32.7899690" lon="35.2906750">
<time>2008-04-10T06:30:07.626Z</time>
</trkpt>
<trkpt lat="32.7902770" lon="35.2901280">
<time>2008-04-10T06:30:17.683Z</time>
</trkpt>
<trkpt lat="32.7905850" lon="35.2893990">
<time>2008-04-10T06:30:18.590Z</time>
</trkpt>
<trkpt lat="32.7904320" lon="35.2883050">
<time>2008-04-10T06:30:19.394Z</time>
</trkpt>
<trkpt lat="32.7901250" lon="35.2870280">
<time>2008-04-10T06:30:20.344Z</time>
</trkpt>
<trkpt lat="32.7899710" lon="35.2862990">
<time>2008-04-10T06:30:23.230Z</time>
</trkpt>
<trkpt lat="32.7892790" lon="35.2854780">
<time>2008-04-10T06:30:23.999Z</time>
</trkpt>
<trkpt lat="32.7878160" lon="35.2842910">
<time>2008-04-10T06:30:25.096Z</time>
</trkpt>
<trkpt lat="32.7861230" lon="35.2831960">
<time>2008-04-10T06:30:26.565Z</time>
</trkpt>
<trkpt lat="32.7848910" lon="35.2822840">
<time>2008-04-10T06:30:32.060Z</time>
</trkpt>
<trkpt lat="32.7833520" lon="35.2810970">
<time>2008-04-10T06:30:33.330Z</time>
</trkpt>
<trkpt lat="32.7822740" lon="35.2802760">
<time>2008-04-10T06:30:34.324Z</time>
</trkpt>
<trkpt lat="32.7807350" lon="35.2791810">
<time>2008-04-10T06:30:35.611Z</time>
</trkpt>
<trkpt lat="32.7795030" lon="35.2784510">
<time>2008-04-10T06:30:36.812Z</time>
</trkpt>
<trkpt lat="32.7788880" lon="35.2779040">
<time>2008-04-10T06:30:42.938Z</time>
</trkpt>
<trkpt lat="32.7784250" lon="35.2780860">
<time>2008-04-10T06:30:43.716Z</time>
</trkpt>
<trkpt lat="32.7777320" lon="35.2784500">
<time>2008-04-10T06:30:46.359Z</time>
</trkpt>
<trkpt lat="32.7768850" lon="35.2789960">
<time>2008-04-10T06:30:47.621Z</time>
</trkpt>
<trkpt lat="32.7754980" lon="35.2797240">
<time>2008-04-10T06:30:53.591Z</time>
</trkpt>
<trkpt lat="32.7744200" lon="35.2800880">
<time>2008-04-10T06:30:54.611Z</time>
</trkpt>
<trkpt lat="32.7731880" lon="35.2808160">
<time>2008-04-10T06:30:59.691Z</time>
</trkpt>
<trkpt lat="32.7732650" lon="35.2802690">
<time>2008-04-10T06:31:00.909Z</time>
</trkpt>
<trkpt lat="32.7733420" lon="35.2800870">
<time>2008-04-10T06:31:01.644Z</time>
</trkpt>
<trkpt lat="32.7722640" lon="35.2797220">
<time>2008-04-10T06:31:02.844Z</time>
</trkpt>
<trkpt lat="32.7714940" lon="35.2793560">
<time>2008-04-10T06:31:03.622Z</time>
</trkpt>
<trkpt lat="32.7705710" lon="35.2786270">
<time>2008-04-10T06:31:04.858Z</time>
</trkpt>
<trkpt lat="32.7699550" lon="35.2780790">
<time>2008-04-10T06:31:05.670Z</time>
</trkpt>
<trkpt lat="32.7691850" lon="35.2779880">
<time>2008-04-10T06:31:06.732Z</time>
</trkpt>
<trkpt lat="32.7679530" lon="35.2782600">
<time>2008-04-10T06:31:08.124Z</time>
</trkpt>
<trkpt lat="32.7665670" lon="35.2785320">
<time>2008-04-10T06:31:09.437Z</time>
</trkpt>
<trkpt lat="32.7656430" lon="35.2784410">
<time>2008-04-10T06:31:10.422Z</time>
</trkpt>
<trkpt lat="32.7645650" lon="35.2784400">
<time>2008-04-10T06:31:12.184Z</time>
</trkpt>
<trkpt lat="32.7634100" lon="35.2779830">
<time>2008-04-10T06:31:13.377Z</time>
</trkpt>
<trkpt lat="32.7625630" lon="35.2775270">
<time>2008-04-10T06:31:14.457Z</time>
</trkpt>
<trkpt lat="32.7614850" lon="35.2769790">
<time>2008-04-10T06:31:15.917Z</time>
</trkpt>
<trkpt lat="32.7602530" lon="35.2769790">
<time>2008-04-10T06:31:21.265Z</time>
</trkpt>
<trkpt lat="32.7592520" lon="35.2771600">
<time>2008-04-10T06:31:22.699Z</time>
</trkpt>
<trkpt lat="32.7579430" lon="35.2773410">
<time>2008-04-10T06:31:24.168Z</time>
</trkpt>
<trkpt lat="32.7571730" lon="35.2775230">
<time>2008-04-10T06:31:25.058Z</time>
</trkpt>
<trkpt lat="32.7560950" lon="35.2768840">
<time>2008-04-10T06:31:26.579Z</time>
</trkpt>
<trkpt lat="32.7559420" lon="35.2757910">
<time>2008-04-10T06:36:58.579Z</time>
</trkpt>
<trkpt lat="32.7556340" lon="35.2747880">
<time>2008-04-10T06:36:59.331Z</time>
</trkpt>
<trkpt lat="32.7553270" lon="35.2738770">
<time>2008-04-10T06:37:49.814Z</time>
</trkpt>
<trkpt lat="32.7553270" lon="35.2729650">
<time>2008-04-10T06:37:50.454Z</time>
</trkpt>
<trkpt lat="32.7559440" lon="35.2717810">
<time>2008-04-10T06:37:51.188Z</time>
</trkpt>
<trkpt lat="32.7564060" lon="35.2710520">
<time>2008-04-10T06:37:52.605Z</time>
</trkpt>
<trkpt lat="32.7560980" lon="35.2700500">
<time>2008-04-10T06:37:53.296Z</time>
</trkpt>
<trkpt lat="32.7556370" lon="35.2687740">
<time>2008-04-10T06:37:53.996Z</time>
</trkpt>
<trkpt lat="32.7547900" lon="35.2676790">
<time>2008-04-10T06:37:55.076Z</time>
</trkpt>
<trkpt lat="32.7543290" lon="35.2666770">
<time>2008-04-10T06:38:13.436Z</time>
</trkpt>
<trkpt lat="32.7540210" lon="35.2654010">
<time>2008-04-10T06:38:15.311Z</time>
</trkpt>
<trkpt lat="32.7535600" lon="35.2642160">
<time>2008-04-10T06:38:16.140Z</time>
</trkpt>
<trkpt lat="32.7537910" lon="35.2633050">
<time>2008-04-10T06:39:30.393Z</time>
</trkpt>
<trkpt lat="32.7542540" lon="35.2622110">
<time>2008-04-10T06:39:31.300Z</time>
</trkpt>
<trkpt lat="32.7540230" lon="35.2610270">
<time>2008-04-10T06:39:32.155Z</time>
</trkpt>
<trkpt lat="32.7534070" lon="35.2600240">
<time>2008-04-10T06:39:32.950Z</time>
</trkpt>
<trkpt lat="32.7531000" lon="35.2592040">
<time>2008-04-10T06:39:33.659Z</time>
</trkpt>
<trkpt lat="32.7529460" lon="35.2580190">
<time>2008-04-10T06:39:34.453Z</time>
</trkpt>
<trkpt lat="32.7527930" lon="35.2569250">
<time>2008-04-10T06:39:34.998Z</time>
</trkpt>
<trkpt lat="32.7521770" lon="35.2565610">
<time>2008-04-10T06:39:35.628Z</time>
</trkpt>
<trkpt lat="32.7514070" lon="35.2561050">
<time>2008-04-10T06:39:36.216Z</time>
</trkpt>
<trkpt lat="32.7505600" lon="35.2558310">
<time>2008-04-10T06:39:36.769Z</time>
</trkpt>
<trkpt lat="32.7501750" lon="35.2542810">
<time>2008-04-10T06:39:37.702Z</time>
</trkpt>
<trkpt lat="32.7498680" lon="35.2530970">
<time>2008-04-10T06:39:38.376Z</time>
</trkpt>
<trkpt lat="32.7498680" lon="35.2514560">
<time>2008-04-10T06:39:39.110Z</time>
</trkpt>
<trkpt lat="32.7504850" lon="35.2494520">
<time>2008-04-10T06:39:40.173Z</time>
</trkpt>
<trkpt lat="32.7511010" lon="35.2480850">
<time>2008-04-10T06:39:41.236Z</time>
</trkpt>
<trkpt lat="32.7515640" lon="35.2470830">
<time>2008-04-10T06:39:42.186Z</time>
</trkpt>
<trkpt lat="32.7514100" lon="35.2462630">
<time>2008-04-10T06:39:43.128Z</time>
</trkpt>
<trkpt lat="32.7512560" lon="35.2456250">
<time>2008-04-10T06:39:51.310Z</time>
</trkpt>
<trkpt lat="32.7509480" lon="35.2450780">
<time>2008-04-10T06:39:52.468Z</time>
</trkpt>
<trkpt lat="32.7506400" lon="35.2447140">
<time>2008-04-10T06:40:23.779Z</time>
</trkpt>
<trkpt lat="32.7500240" lon="35.2439840">
<time>2008-04-10T06:40:24.686Z</time>
</trkpt>
<trkpt lat="32.7494080" lon="35.2437110">
<time>2008-04-10T06:40:52.360Z</time>
</trkpt>
<trkpt lat="32.7485620" lon="35.2432550">
<time>2008-04-10T06:40:52.982Z</time>
</trkpt>
<trkpt lat="32.7472530" lon="35.2423430">
<time>2008-04-10T06:40:54.607Z</time>
</trkpt>
<trkpt lat="32.7464830" lon="35.2417050">
<time>2008-04-10T06:40:58.624Z</time>
</trkpt>
<trkpt lat="32.7457130" lon="35.2417050">
<time>2008-04-10T06:40:59.514Z</time>
</trkpt>
<trkpt lat="32.7455590" lon="35.2425250">
<time>2008-04-10T06:41:00.905Z</time>
</trkpt>
<trkpt lat="32.7458660" lon="35.2438010">
<time>2008-04-10T06:41:01.622Z</time>
</trkpt>
<trkpt lat="32.7460970" lon="35.2454410">
<time>2008-04-10T06:41:02.564Z</time>
</trkpt>
<trkpt lat="32.7454810" lon="35.2463520">
<time>2008-04-10T06:41:03.938Z</time>
</trkpt>
<trkpt lat="32.7442480" lon="35.2467160">
<time>2008-04-10T06:41:04.560Z</time>
</trkpt>
<trkpt lat="32.7433240" lon="35.2468980">
<time>2008-04-10T06:41:05.623Z</time>
</trkpt>
<trkpt lat="32.7426310" lon="35.2475350">
<time>2008-04-10T06:41:06.737Z</time>
</trkpt>
<trkpt lat="32.7415530" lon="35.2485370">
<time>2008-04-10T06:41:08.707Z</time>
</trkpt>
<trkpt lat="32.7409360" lon="35.2494480">
<time>2008-04-10T06:41:09.234Z</time>
</trkpt>
<trkpt lat="32.7400890" lon="35.2499940">
<time>2008-04-10T06:41:10.332Z</time>
</trkpt>
<trkpt lat="32.7393960" lon="35.2499030">
<time>2008-04-10T06:41:13.908Z</time>
</trkpt>
<trkpt lat="32.7384720" lon="35.2498110">
<time>2008-04-10T06:41:14.565Z</time>
</trkpt>
<trkpt lat="32.7377020" lon="35.2491730">
<time>2008-04-10T06:41:15.498Z</time>
</trkpt>
<trkpt lat="32.7369330" lon="35.2482620">
<time>2008-04-10T06:41:17.408Z</time>
</trkpt>
</trkseg>
</trk>
<trk>
 <name>day03</name>
 <desc>11/4/2008 2:40:25 PM</desc>
<trkseg>
<trkpt lat="32.7313120" lon="35.2463460">
<time>2008-04-11T11:40:25.573Z</time>
</trkpt>
<trkpt lat="32.7313120" lon="35.2455270">
<time>2008-04-11T11:40:27.198Z</time>
</trkpt>
<trkpt lat="32.7310810" lon="35.2445240">
<time>2008-04-11T11:40:28.364Z</time>
</trkpt>
<trkpt lat="32.7308510" lon="35.2430670">
<time>2008-04-11T11:40:29.824Z</time>
</trkpt>
<trkpt lat="32.7309280" lon="35.2421560">
<time>2008-04-11T11:40:30.602Z</time>
</trkpt>
<trkpt lat="32.7312360" lon="35.2417000">
<time>2008-04-11T11:40:31.354Z</time>
</trkpt>
<trkpt lat="32.7316980" lon="35.2423380">
<time>2008-04-11T11:40:32.148Z</time>
</trkpt>
<trkpt lat="32.7320060" lon="35.2414270">
<time>2008-04-11T11:40:32.961Z</time>
</trkpt>
<trkpt lat="32.7320830" lon="35.2403340">
<time>2008-04-11T11:40:33.773Z</time>
</trkpt>
<trkpt lat="32.7318530" lon="35.2388760">
<time>2008-04-11T11:40:35.069Z</time>
</trkpt>
<trkpt lat="32.7327770" lon="35.2388760">
<time>2008-04-11T11:40:36.132Z</time>
</trkpt>
<trkpt lat="32.7335470" lon="35.2379660">
<time>2008-04-11T11:40:37.367Z</time>
</trkpt>
<trkpt lat="32.7338550" lon="35.2365080">
<time>2008-04-11T11:40:38.335Z</time>
</trkpt>
<trkpt lat="32.7344720" lon="35.2352330">
<time>2008-04-11T11:40:39.475Z</time>
</trkpt>
<trkpt lat="32.7351650" lon="35.2343220">
<time>2008-04-11T11:40:40.849Z</time>
</trkpt>
<trkpt lat="32.7357040" lon="35.2332280">
<time>2008-04-11T11:40:41.868Z</time>
</trkpt>
<trkpt lat="32.7358580" lon="35.2322260">
<time>2008-04-11T11:40:42.698Z</time>
</trkpt>
<trkpt lat="32.7352420" lon="35.2317710">
<time>2008-04-11T11:40:43.769Z</time>
</trkpt>
<trkpt lat="32.7349340" lon="35.2315880">
<time>2008-04-11T11:40:44.651Z</time>
</trkpt>
<trkpt lat="32.7357810" lon="35.2306770">
<time>2008-04-11T11:40:46.318Z</time>
</trkpt>
<trkpt lat="32.7370910" lon="35.2301310">
<time>2008-04-11T11:40:47.916Z</time>
</trkpt>
<trkpt lat="32.7381690" lon="35.2297670">
<time>2008-04-11T11:40:48.789Z</time>
</trkpt>
<trkpt lat="32.7390930" lon="35.2288560">
<time>2008-04-11T11:40:50.128Z</time>
</trkpt>
<trkpt lat="32.7400940" lon="35.2284010">
<time>2008-04-11T11:40:51.053Z</time>
</trkpt>
<trkpt lat="32.7409410" lon="35.2277630">
<time>2008-04-11T11:40:51.848Z</time>
</trkpt>
<trkpt lat="32.7417110" lon="35.2265790">
<time>2008-04-11T11:40:53.412Z</time>
</trkpt>
<trkpt lat="32.7421730" lon="35.2251210">
<time>2008-04-11T11:40:54.474Z</time>
</trkpt>
<trkpt lat="32.7424820" lon="35.2239360">
<time>2008-04-11T11:40:55.511Z</time>
</trkpt>
<trkpt lat="32.7425590" lon="35.2231160">
<time>2008-04-11T11:41:13.871Z</time>
</trkpt>
<trkpt lat="32.7426360" lon="35.2222960">
<time>2008-04-11T11:41:14.519Z</time>
</trkpt>
<trkpt lat="32.7430980" lon="35.2212030">
<time>2008-04-11T11:41:15.945Z</time>
</trkpt>
<trkpt lat="32.7424820" lon="35.2204740">
<time>2008-04-11T11:41:31.885Z</time>
</trkpt>
<trkpt lat="32.7421740" lon="35.2199270">
<time>2008-04-11T11:41:32.525Z</time>
</trkpt>
<trkpt lat="32.7415580" lon="35.2197450">
<time>2008-04-11T11:41:33.130Z</time>
</trkpt>
<trkpt lat="32.7407880" lon="35.2192890">
<time>2008-04-11T11:41:33.726Z</time>
</trkpt>
<trkpt lat="32.7401720" lon="35.2189250">
<time>2008-04-11T11:41:34.322Z</time>
</trkpt>
<trkpt lat="32.7394020" lon="35.2185600">
<time>2008-04-11T11:41:34.961Z</time>
</trkpt>
<trkpt lat="32.7387860" lon="35.2181050">
<time>2008-04-11T11:41:35.506Z</time>
</trkpt>
<trkpt lat="32.7384010" lon="35.2170110">
<time>2008-04-11T11:41:36.119Z</time>
</trkpt>
<trkpt lat="32.7378620" lon="35.2161000">
<time>2008-04-11T11:41:36.802Z</time>
</trkpt>
<trkpt lat="32.7377080" lon="35.2157360">
<time>2008-04-11T11:41:37.441Z</time>
</trkpt>
<trkpt lat="32.7354750" lon="35.2135490">
<time>2008-04-11T11:41:38.979Z</time>
</trkpt>
<trkpt lat="32.7344740" lon="35.2124560">
<time>2008-04-11T11:41:39.964Z</time>
</trkpt>
<trkpt lat="32.7335500" lon="35.2115450">
<time>2008-04-11T11:41:48.042Z</time>
</trkpt>
<trkpt lat="32.7321640" lon="35.2100870">
<time>2008-04-11T11:41:51.550Z</time>
</trkpt>
<trkpt lat="32.7306930" lon="35.2090810">
<time>2008-04-11T11:42:44.539Z</time>
</trkpt>
<trkpt lat="32.7299250" lon="35.2081710">
<time>2008-04-11T11:42:45.386Z</time>
</trkpt>
<trkpt lat="32.7290030" lon="35.2073530">
<time>2008-04-11T11:42:46.051Z</time>
</trkpt>
<trkpt lat="32.7279270" lon="35.2068080">
<time>2008-04-11T11:42:46.932Z</time>
</trkpt>
<trkpt lat="32.7270050" lon="35.2061720">
<time>2008-04-11T11:42:47.822Z</time>
</trkpt>
<trkpt lat="32.7253920" lon="35.2049910">
<time>2008-04-11T11:42:48.505Z</time>
</trkpt>
<trkpt lat="32.7240850" lon="35.2041730">
<time>2008-04-11T11:42:49.386Z</time>
</trkpt>
<trkpt lat="32.7229330" lon="35.2032640">
<time>2008-04-11T11:42:49.965Z</time>
</trkpt>
<trkpt lat="32.7220110" lon="35.2023550">
<time>2008-04-11T11:42:53.369Z</time>
</trkpt>
<trkpt lat="32.7207040" lon="35.2019930">
<time>2008-04-11T11:42:54.691Z</time>
</trkpt>
<trkpt lat="32.7202440" lon="35.2007190">
<time>2008-04-11T11:42:55.590Z</time>
</trkpt>
<trkpt lat="32.7191680" lon="35.1996280">
<time>2008-04-11T11:42:56.678Z</time>
</trkpt>
<trkpt lat="32.7187850" lon="35.1980800">
<time>2008-04-11T11:42:57.413Z</time>
</trkpt>
<trkpt lat="32.7182480" lon="35.1973530">
<time>2008-04-11T11:42:59.746Z</time>
</trkpt>
<trkpt lat="32.7174030" lon="35.1963520">
<time>2008-04-11T11:43:00.402Z</time>
</trkpt>
<trkpt lat="32.7165580" lon="35.1956250">
<time>2008-04-11T11:43:01.024Z</time>
</trkpt>
<trkpt lat="32.7157120" lon="35.1952620">
<time>2008-04-11T11:43:01.698Z</time>
</trkpt>
<trkpt lat="32.7148670" lon="35.1949000">
<time>2008-04-11T11:43:02.303Z</time>
</trkpt>
<trkpt lat="32.7137910" lon="35.1938090">
<time>2008-04-11T11:43:03.418Z</time>
</trkpt>
<trkpt lat="32.7133300" lon="35.1932630">
<time>2008-04-11T11:43:30.115Z</time>
</trkpt>
<trkpt lat="32.7127160" lon="35.1927180">
<time>2008-04-11T11:43:31.005Z</time>
</trkpt>
<trkpt lat="32.7122550" lon="35.1921720">
<time>2008-04-11T11:43:31.679Z</time>
</trkpt>
<trkpt lat="32.7114870" lon="35.1911720">
<time>2008-04-11T11:43:32.491Z</time>
</trkpt>
<trkpt lat="32.7107180" lon="35.1901720">
<time>2008-04-11T11:43:33.260Z</time>
</trkpt>
<trkpt lat="32.7101810" lon="35.1892620">
<time>2008-04-11T11:43:33.917Z</time>
</trkpt>
<trkpt lat="32.7092590" lon="35.1883530">
<time>2008-04-11T11:43:34.496Z</time>
</trkpt>
<trkpt lat="32.7084140" lon="35.1879910">
<time>2008-04-11T11:43:35.291Z</time>
</trkpt>
<trkpt lat="32.7074910" lon="35.1877190">
<time>2008-04-11T11:43:36.414Z</time>
</trkpt>
<trkpt lat="32.7068760" lon="35.1873560">
<time>2008-04-11T11:43:37.027Z</time>
</trkpt>
<trkpt lat="32.7064150" lon="35.1867190">
<time>2008-04-11T11:43:37.675Z</time>
</trkpt>
<trkpt lat="32.7064160" lon="35.1858090">
<time>2008-04-11T11:43:38.211Z</time>
</trkpt>
<trkpt lat="32.7062630" lon="35.1850810">
<time>2008-04-11T11:43:38.755Z</time>
</trkpt>
<trkpt lat="32.7058020" lon="35.1844440">
<time>2008-04-11T11:43:39.351Z</time>
</trkpt>
<trkpt lat="32.7051870" lon="35.1841720">
<time>2008-04-11T11:43:45.840Z</time>
</trkpt>
<trkpt lat="32.7044180" lon="35.1838090">
<time>2008-04-11T11:43:47.196Z</time>
</trkpt>
<trkpt lat="32.7036500" lon="35.1836290">
<time>2008-04-11T11:43:49.711Z</time>
</trkpt>
<trkpt lat="32.7031110" lon="35.1836300">
<time>2008-04-11T11:43:50.445Z</time>
</trkpt>
<trkpt lat="32.7024960" lon="35.1836310">
<time>2008-04-11T11:43:56.925Z</time>
</trkpt>
<trkpt lat="32.7022650" lon="35.1840860">
<time>2008-04-11T11:43:57.979Z</time>
</trkpt>
<trkpt lat="32.7018040" lon="35.1838140">
<time>2008-04-11T11:43:58.696Z</time>
</trkpt>
<trkpt lat="32.7011890" lon="35.1834510">
<time>2008-04-11T11:43:59.223Z</time>
</trkpt>
<trkpt lat="32.7006510" lon="35.1834520">
<time>2008-04-11T11:43:59.897Z</time>
</trkpt>
<trkpt lat="32.6985720" lon="35.1867330">
<time>2008-04-11T11:44:02.334Z</time>
</trkpt>
<trkpt lat="32.6959590" lon="35.1856450">
<time>2008-04-11T11:44:09.540Z</time>
</trkpt>
<trkpt lat="32.6953440" lon="35.1854640">
<time>2008-04-11T11:44:10.663Z</time>
</trkpt>
<trkpt lat="32.6919610" lon="35.1840130">
<time>2008-04-11T11:44:12.227Z</time>
</trkpt>
<trkpt lat="32.6911930" lon="35.1836510">
<time>2008-04-11T11:44:16.011Z</time>
</trkpt>
<trkpt lat="32.6905010" lon="35.1838340">
<time>2008-04-11T11:44:17.160Z</time>
</trkpt>
<trkpt lat="32.6898080" lon="35.1839260">
<time>2008-04-11T11:44:18.162Z</time>
</trkpt>
<trkpt lat="32.6893470" lon="35.1836540">
<time>2008-04-11T11:44:18.897Z</time>
</trkpt>
<trkpt lat="32.6881950" lon="35.1824720">
<time>2008-04-11T11:44:24.150Z</time>
</trkpt>
<trkpt lat="32.6871960" lon="35.1812000">
<time>2008-04-11T11:44:25.567Z</time>
</trkpt>
<trkpt lat="32.6864280" lon="35.1802000">
<time>2008-04-11T11:44:26.949Z</time>
</trkpt>
<trkpt lat="32.6860440" lon="35.1800190">
<time>2008-04-11T11:45:35.715Z</time>
</trkpt>
<trkpt lat="32.6857360" lon="35.1797460">
<time>2008-04-11T11:45:36.691Z</time>
</trkpt>
<trkpt lat="32.6856600" lon="35.1792000">
<time>2008-04-11T11:45:41.305Z</time>
</trkpt>
<trkpt lat="32.6855070" lon="35.1785630">
<time>2008-04-11T11:45:42.368Z</time>
</trkpt>
<trkpt lat="32.6848920" lon="35.1775630">
<time>2008-04-11T11:45:43.698Z</time>
</trkpt>
<trkpt lat="32.6842780" lon="35.1762900">
<time>2008-04-11T11:45:44.916Z</time>
</trkpt>
<trkpt lat="32.6836640" lon="35.1751080">
<time>2008-04-11T11:45:47.975Z</time>
</trkpt>
<trkpt lat="32.6825110" lon="35.1736530">
<time>2008-04-11T11:45:49.522Z</time>
</trkpt>
<trkpt lat="32.6815130" lon="35.1723810">
<time>2008-04-11T11:45:51.353Z</time>
</trkpt>
<trkpt lat="32.6773640" lon="35.1670190">
<time>2008-04-11T11:46:01.324Z</time>
</trkpt>
<trkpt lat="32.6747520" lon="35.1638380">
<time>2008-04-11T11:46:03.415Z</time>
</trkpt>
<trkpt lat="32.6732150" lon="35.1618390">
<time>2008-04-11T11:46:05.151Z</time>
</trkpt>
<trkpt lat="32.6722160" lon="35.1604760">
<time>2008-04-11T11:46:06.698Z</time>
</trkpt>
<trkpt lat="32.6712940" lon="35.1594770">
<time>2008-04-11T11:46:07.925Z</time>
</trkpt>
<trkpt lat="32.6699880" lon="35.1584780">
<time>2008-04-11T11:46:09.618Z</time>
</trkpt>
<trkpt lat="32.6672200" lon="35.1569370">
<time>2008-04-11T11:46:16.090Z</time>
</trkpt>
<trkpt lat="32.6646070" lon="35.1553950">
<time>2008-04-11T11:46:18.975Z</time>
</trkpt>
<trkpt lat="32.6640020" lon="35.1550120">
<time>2008-04-11T11:47:00.447Z</time>
</trkpt>
<trkpt lat="32.6585330" lon="35.1517380">
<time>2008-04-11T11:47:02.426Z</time>
</trkpt>
<trkpt lat="32.6546820" lon="35.1497380">
<time>2008-04-11T11:47:05.148Z</time>
</trkpt>
<trkpt lat="32.6502910" lon="35.1471920">
<time>2008-04-11T11:47:07.619Z</time>
</trkpt>
<trkpt lat="32.6449760" lon="35.1441020">
<time>2008-04-11T11:47:09.364Z</time>
</trkpt>
<trkpt lat="32.6432050" lon="35.1431930">
<time>2008-04-11T11:47:11.291Z</time>
</trkpt>
<trkpt lat="32.6401230" lon="35.1410110">
<time>2008-04-11T11:47:13.027Z</time>
</trkpt>
<trkpt lat="32.6346530" lon="35.1368290">
<time>2008-04-11T11:47:16.120Z</time>
</trkpt>
<trkpt lat="32.6330360" lon="35.1355560">
<time>2008-04-11T11:47:29.348Z</time>
</trkpt>
<trkpt lat="32.6322660" lon="35.1362850">
<time>2008-04-11T11:48:03.727Z</time>
</trkpt>
<trkpt lat="32.6319580" lon="35.1362850">
<time>2008-04-11T11:48:04.833Z</time>
</trkpt>
<trkpt lat="32.6314960" lon="35.1357400">
<time>2008-04-11T11:48:06.008Z</time>
</trkpt>
<trkpt lat="32.6311100" lon="35.1355580">
<time>2008-04-11T11:48:07.010Z</time>
</trkpt>
<trkpt lat="32.6307250" lon="35.1357400">
<time>2008-04-11T11:48:07.960Z</time>
</trkpt>
<trkpt lat="32.6302630" lon="35.1353770">
<time>2008-04-11T11:48:08.729Z</time>
</trkpt>
<trkpt lat="32.6284140" lon="35.1328300">
<time>2008-04-11T11:48:10.293Z</time>
</trkpt>
<trkpt lat="32.6277970" lon="35.1321030">
<time>2008-04-11T11:48:12.989Z</time>
</trkpt>
<trkpt lat="32.6274890" lon="35.1322850">
<time>2008-04-11T11:48:14.475Z</time>
</trkpt>
<trkpt lat="32.6271810" lon="35.1321030">
<time>2008-04-11T11:48:15.900Z</time>
</trkpt>
<trkpt lat="32.6258710" lon="35.1301940">
<time>2008-04-11T11:48:17.525Z</time>
</trkpt>
<trkpt lat="32.6244060" lon="35.1279200">
<time>2008-04-11T11:48:19.270Z</time>
</trkpt>
<trkpt lat="32.6237890" lon="35.1258280">
<time>2008-04-11T11:48:20.566Z</time>
</trkpt>
<trkpt lat="32.6233250" lon="35.1240080">
<time>2008-04-11T11:48:22.164Z</time>
</trkpt>
<trkpt lat="32.6227080" lon="35.1219160">
<time>2008-04-11T11:48:23.426Z</time>
</trkpt>
<trkpt lat="32.6220910" lon="35.1210070">
<time>2008-04-11T11:48:24.350Z</time>
</trkpt>
<trkpt lat="32.6213980" lon="35.1204610">
<time>2008-04-11T11:48:35.885Z</time>
</trkpt>
<trkpt lat="32.6207040" lon="35.1199160">
<time>2008-04-11T11:48:36.697Z</time>
</trkpt>
<trkpt lat="32.6197790" lon="35.1186430">
<time>2008-04-11T11:48:37.941Z</time>
</trkpt>
<trkpt lat="32.6188550" lon="35.1178250">
<time>2008-04-11T11:48:39.099Z</time>
</trkpt>
<trkpt lat="32.6177770" lon="35.1180990">
<time>2008-04-11T11:48:40.369Z</time>
</trkpt>
<trkpt lat="32.6163910" lon="35.1188290">
<time>2008-04-11T11:48:49.147Z</time>
</trkpt>
<trkpt lat="32.6152360" lon="35.1187390">
<time>2008-04-11T11:48:51.160Z</time>
</trkpt>
<trkpt lat="32.6142350" lon="35.1188310">
<time>2008-04-11T11:48:52.180Z</time>
</trkpt>
<trkpt lat="32.6136960" lon="35.1193770">
<time>2008-04-11T11:49:18.255Z</time>
</trkpt>
<trkpt lat="32.6126950" lon="35.1193780">
<time>2008-04-11T11:49:18.972Z</time>
</trkpt>
<trkpt lat="32.6117710" lon="35.1185610">
<time>2008-04-11T11:49:19.802Z</time>
</trkpt>
<trkpt lat="32.6108460" lon="35.1172880">
<time>2008-04-11T11:49:20.510Z</time>
</trkpt>
<trkpt lat="32.6095360" lon="35.1169250">
<time>2008-04-11T11:49:21.193Z</time>
</trkpt>
<trkpt lat="32.6076110" lon="35.1167450">
<time>2008-04-11T11:49:22.541Z</time>
</trkpt>
<trkpt lat="32.6063790" lon="35.1163830">
<time>2008-04-11T11:49:23.301Z</time>
</trkpt>
<trkpt lat="32.6049150" lon="35.1157470">
<time>2008-04-11T11:49:24.632Z</time>
</trkpt>
<trkpt lat="32.6032980" lon="35.1157490">
<time>2008-04-11T11:49:25.573Z</time>
</trkpt>
<trkpt lat="32.6016040" lon="35.1157510">
<time>2008-04-11T11:49:30.619Z</time>
</trkpt>
<trkpt lat="32.6013730" lon="35.1163880">
<time>2008-04-11T11:49:31.380Z</time>
</trkpt>
<trkpt lat="32.6006800" lon="35.1164800">
<time>2008-04-11T11:49:32.771Z</time>
</trkpt>
<trkpt lat="32.5997570" lon="35.1172080">
<time>2008-04-11T11:49:33.678Z</time>
</trkpt>
<trkpt lat="32.5989870" lon="35.1175730">
<time>2008-04-11T11:49:34.464Z</time>
</trkpt>
<trkpt lat="32.5980630" lon="35.1177560">
<time>2008-04-11T11:49:35.371Z</time>
</trkpt>
<trkpt lat="32.5972160" lon="35.1180300">
<time>2008-04-11T11:49:45.290Z</time>
</trkpt>
<trkpt lat="32.5964460" lon="35.1182130">
<time>2008-04-11T11:49:46.551Z</time>
</trkpt>
<trkpt lat="32.5958300" lon="35.1174860">
<time>2008-04-11T11:49:47.148Z</time>
</trkpt>
<trkpt lat="32.5952900" lon="35.1161220">
<time>2008-04-11T11:49:47.821Z</time>
</trkpt>
<trkpt lat="32.5946730" lon="35.1149400">
<time>2008-04-11T11:49:48.599Z</time>
</trkpt>
<trkpt lat="32.5945180" lon="35.1136660">
<time>2008-04-11T11:49:49.644Z</time>
</trkpt>
<trkpt lat="32.5941320" lon="35.1126660">
<time>2008-04-11T11:49:50.552Z</time>
</trkpt>
<trkpt lat="32.5935150" lon="35.1122120">
<time>2008-04-11T11:49:53.774Z</time>
</trkpt>
<trkpt lat="32.5928990" lon="35.1115760">
<time>2008-04-11T11:49:54.457Z</time>
</trkpt>
<trkpt lat="32.5925130" lon="35.1108490">
<time>2008-04-11T11:49:55.788Z</time>
</trkpt>
<trkpt lat="32.5915900" lon="35.1114860">
<time>2008-04-11T11:49:57.602Z</time>
</trkpt>
<trkpt lat="32.5909740" lon="35.1116690">
<time>2008-04-11T11:49:58.198Z</time>
</trkpt>
<trkpt lat="32.5902040" lon="35.1116700">
<time>2008-04-11T11:49:58.958Z</time>
</trkpt>
<trkpt lat="32.5895880" lon="35.1115800">
<time>2008-04-11T11:50:10.337Z</time>
</trkpt>
<trkpt lat="32.5879710" lon="35.1116720">
<time>2008-04-11T11:50:11.193Z</time>
</trkpt>
<trkpt lat="32.5865080" lon="35.1120380">
<time>2008-04-11T11:50:12.368Z</time>
</trkpt>
<trkpt lat="32.5855070" lon="35.1121300">
<time>2008-04-11T11:50:13.318Z</time>
</trkpt>
<trkpt lat="32.5855830" lon="35.1111290">
<time>2008-04-11T11:50:16.040Z</time>
</trkpt>
<trkpt lat="32.5860440" lon="35.1101280">
<time>2008-04-11T11:50:16.947Z</time>
</trkpt>
<trkpt lat="32.5866590" lon="35.1090360">
<time>2008-04-11T11:50:17.992Z</time>
</trkpt>
<trkpt lat="32.5871210" lon="35.1083080">
<time>2008-04-11T11:51:14.869Z</time>
</trkpt>
<trkpt lat="32.5868120" lon="35.1073990">
<time>2008-04-11T11:51:15.664Z</time>
</trkpt>
<trkpt lat="32.5863490" lon="35.1058530">
<time>2008-04-11T11:51:16.632Z</time>
</trkpt>
<trkpt lat="32.5860390" lon="35.1041250">
<time>2008-04-11T11:51:17.868Z</time>
</trkpt>
<trkpt lat="32.5849610" lon="35.1041260">
<time>2008-04-11T11:51:20.805Z</time>
</trkpt>
<trkpt lat="32.5841910" lon="35.1036730">
<time>2008-04-11T11:51:22.274Z</time>
</trkpt>
<trkpt lat="32.5832660" lon="35.1034920">
<time>2008-04-11T11:51:34.802Z</time>
</trkpt>
<trkpt lat="32.5822650" lon="35.1029470">
<time>2008-04-11T11:51:35.787Z</time>
</trkpt>
<trkpt lat="32.5814940" lon="35.1020390">
<time>2008-04-11T11:51:36.850Z</time>
</trkpt>
<trkpt lat="32.5804910" lon="35.1002210">
<time>2008-04-11T11:51:56.851Z</time>
</trkpt>
<trkpt lat="32.5800270" lon="35.0981300">
<time>2008-04-11T11:51:58.026Z</time>
</trkpt>
<trkpt lat="32.5796410" lon="35.0965840">
<time>2008-04-11T11:52:02.364Z</time>
</trkpt>
<trkpt lat="32.5794080" lon="35.0945830">
<time>2008-04-11T11:52:03.824Z</time>
</trkpt>
<trkpt lat="32.5794080" lon="35.0940380">
<time>2008-04-11T11:52:04.601Z</time>
</trkpt>
<trkpt lat="32.5784830" lon="35.0933110">
<time>2008-04-11T11:52:10.053Z</time>
</trkpt>
<trkpt lat="32.5778660" lon="35.0925840">
<time>2008-04-11T11:52:11.271Z</time>
</trkpt>
<trkpt lat="32.5774030" lon="35.0912210">
<time>2008-04-11T11:52:11.911Z</time>
</trkpt>
<trkpt lat="32.5772480" lon="35.0900390">
<time>2008-04-11T11:52:12.464Z</time>
</trkpt>
<trkpt lat="32.5770930" lon="35.0889480">
<time>2008-04-11T11:52:13.068Z</time>
</trkpt>
<trkpt lat="32.5767830" lon="35.0874930">
<time>2008-04-11T11:52:13.604Z</time>
</trkpt>
<trkpt lat="32.5760890" lon="35.0860390">
<time>2008-04-11T11:52:14.900Z</time>
</trkpt>
<trkpt lat="32.5753170" lon="35.0849480">
<time>2008-04-11T11:52:15.635Z</time>
</trkpt>
<trkpt lat="32.5750850" lon="35.0836750">
<time>2008-04-11T11:52:16.291Z</time>
</trkpt>
<trkpt lat="32.5749300" lon="35.0824020">
<time>2008-04-11T11:52:17.164Z</time>
</trkpt>
<trkpt lat="32.5746210" lon="35.0816750">
<time>2008-04-11T11:52:17.803Z</time>
</trkpt>
<trkpt lat="32.5742350" lon="35.0811300">
<time>2008-04-11T11:52:26.193Z</time>
</trkpt>
<trkpt lat="32.5739270" lon="35.0809490">
<time>2008-04-11T11:52:41.917Z</time>
</trkpt>
<trkpt lat="32.5737730" lon="35.0804940">
<time>2008-04-11T11:52:42.505Z</time>
</trkpt>
<trkpt lat="32.5740800" lon="35.0797660">
<time>2008-04-11T11:52:47.447Z</time>
</trkpt>
<trkpt lat="32.5742340" lon="35.0793110">
<time>2008-04-11T11:52:48.994Z</time>
</trkpt>
<trkpt lat="32.5741550" lon="35.0781290">
<time>2008-04-11T11:52:50.074Z</time>
</trkpt>
<trkpt lat="32.5736150" lon="35.0774020">
<time>2008-04-11T11:52:50.851Z</time>
</trkpt>
<trkpt lat="32.5731530" lon="35.0767660">
<time>2008-04-11T11:52:51.568Z</time>
</trkpt>
<trkpt lat="32.5723820" lon="35.0762220">
<time>2008-04-11T11:52:52.838Z</time>
</trkpt>
<trkpt lat="32.5720750" lon="35.0765860">
<time>2008-04-11T11:52:55.854Z</time>
</trkpt>
<trkpt lat="32.5715360" lon="35.0769510">
<time>2008-04-11T11:52:56.510Z</time>
</trkpt>
<trkpt lat="32.5709970" lon="35.0771330">
<time>2008-04-11T11:52:57.167Z</time>
</trkpt>
<trkpt lat="32.5703810" lon="35.0767710">
<time>2008-04-11T11:52:57.867Z</time>
</trkpt>
<trkpt lat="32.5699190" lon="35.0767710">
<time>2008-04-11T11:52:59.223Z</time>
</trkpt>
<trkpt lat="32.5693030" lon="35.0770450">
<time>2008-04-11T11:52:59.992Z</time>
</trkpt>
<trkpt lat="32.5683790" lon="35.0776830">
<time>2008-04-11T11:53:03.604Z</time>
</trkpt>
<trkpt lat="32.5676100" lon="35.0780480">
<time>2008-04-11T11:53:04.978Z</time>
</trkpt>
<trkpt lat="32.5668400" lon="35.0782310">
<time>2008-04-11T11:53:06.490Z</time>
</trkpt>
<trkpt lat="32.5660700" lon="35.0787780">
<time>2008-04-11T11:53:07.397Z</time>
</trkpt>
<trkpt lat="32.5654550" lon="35.0793240">
<time>2008-04-11T11:53:09.756Z</time>
</trkpt>
<trkpt lat="32.5648390" lon="35.0798710">
<time>2008-04-11T11:53:10.879Z</time>
</trkpt>
<trkpt lat="32.5638390" lon="35.0800540">
<time>2008-04-11T11:53:12.019Z</time>
</trkpt>
<trkpt lat="32.5628380" lon="35.0804190">
<time>2008-04-11T11:53:13.661Z</time>
</trkpt>
<trkpt lat="32.5616060" lon="35.0804210">
<time>2008-04-11T11:53:15.121Z</time>
</trkpt>
<trkpt lat="32.5607590" lon="35.0803310">
<time>2008-04-11T11:53:16.089Z</time>
</trkpt>
<trkpt lat="32.5596030" lon="35.0802420">
<time>2008-04-11T11:53:19.458Z</time>
</trkpt>
<trkpt lat="32.5585250" lon="35.0802440">
<time>2008-04-11T11:53:20.599Z</time>
</trkpt>
<trkpt lat="32.5577550" lon="35.0800630">
<time>2008-04-11T11:53:21.886Z</time>
</trkpt>
<trkpt lat="32.5571380" lon="35.0793360">
<time>2008-04-11T11:53:26.724Z</time>
</trkpt>
<trkpt lat="32.5566750" lon="35.0786100">
<time>2008-04-11T11:53:27.614Z</time>
</trkpt>
<trkpt lat="32.5559050" lon="35.0783380">
<time>2008-04-11T11:53:32.522Z</time>
</trkpt>
<trkpt lat="32.5549810" lon="35.0778850">
<time>2008-04-11T11:53:33.222Z</time>
</trkpt>
<trkpt lat="32.5539020" lon="35.0773410">
<time>2008-04-11T11:53:34.181Z</time>
</trkpt>
<trkpt lat="32.5528230" lon="35.0767970">
<time>2008-04-11T11:53:35.053Z</time>
</trkpt>
<trkpt lat="32.5508200" lon="35.0756180">
<time>2008-04-11T11:53:36.730Z</time>
</trkpt>
<trkpt lat="32.5495870" lon="35.0746200">
<time>2008-04-11T11:53:37.715Z</time>
</trkpt>
<trkpt lat="32.5488160" lon="35.0738930">
<time>2008-04-11T11:53:38.743Z</time>
</trkpt>
<trkpt lat="32.5481220" lon="35.0731670">
<time>2008-04-11T11:53:39.615Z</time>
</trkpt>
<trkpt lat="32.5474280" lon="35.0720770">
<time>2008-04-11T11:53:48.480Z</time>
</trkpt>
<trkpt lat="32.5468100" lon="35.0704420">
<time>2008-04-11T11:53:49.465Z</time>
</trkpt>
<trkpt lat="32.5459610" lon="35.0689880">
<time>2008-04-11T11:53:50.631Z</time>
</trkpt>
<trkpt lat="32.5451130" lon="35.0679900">
<time>2008-04-11T11:53:51.677Z</time>
</trkpt>
<trkpt lat="32.5448040" lon="35.0669900">
<time>2008-04-11T11:54:00.334Z</time>
</trkpt>
<trkpt lat="32.5444950" lon="35.0661720">
<time>2008-04-11T11:54:01.198Z</time>
</trkpt>
<trkpt lat="32.5439550" lon="35.0651730">
<time>2008-04-11T11:54:02.261Z</time>
</trkpt>
<trkpt lat="32.5429520" lon="35.0639930">
<time>2008-04-11T11:54:03.557Z</time>
</trkpt>
<trkpt lat="32.5420270" lon="35.0629940">
<time>2008-04-11T11:54:06.866Z</time>
</trkpt>
<trkpt lat="32.5412560" lon="35.0619960">
<time>2008-04-11T11:54:07.894Z</time>
</trkpt>
<trkpt lat="32.5406390" lon="35.0611780">
<time>2008-04-11T11:54:08.853Z</time>
</trkpt>
<trkpt lat="32.5400980" lon="35.0597250">
<time>2008-04-11T11:54:09.916Z</time>
</trkpt>
<trkpt lat="32.5392490" lon="35.0580900">
<time>2008-04-11T11:54:11.350Z</time>
</trkpt>
<trkpt lat="32.5385540" lon="35.0570000">
<time>2008-04-11T11:54:13.977Z</time>
</trkpt>
<trkpt lat="32.5377830" lon="35.0557290">
<time>2008-04-11T11:54:14.832Z</time>
</trkpt>
<trkpt lat="32.5370110" lon="35.0548210">
<time>2008-04-11T11:54:15.895Z</time>
</trkpt>
<trkpt lat="32.5362410" lon="35.0544590">
<time>2008-04-11T11:54:17.415Z</time>
</trkpt>
<trkpt lat="32.5357790" lon="35.0542780">
<time>2008-04-11T11:54:18.755Z</time>
</trkpt>
<trkpt lat="32.5357020" lon="35.0541870">
<time>2008-04-11T11:54:29.598Z</time>
</trkpt>
<trkpt lat="32.5356230" lon="35.0531870">
<time>2008-04-11T11:54:30.349Z</time>
</trkpt>
<trkpt lat="32.5353140" lon="35.0520060">
<time>2008-04-11T11:54:31.101Z</time>
</trkpt>
<trkpt lat="32.5350040" lon="35.0506430">
<time>2008-04-11T11:54:32.207Z</time>
</trkpt>
<trkpt lat="32.5347720" lon="35.0497340">
<time>2008-04-11T11:55:05.989Z</time>
</trkpt>
<trkpt lat="32.5340780" lon="35.0489170">
<time>2008-04-11T11:55:06.758Z</time>
</trkpt>
<trkpt lat="32.5336920" lon="35.0484630">
<time>2008-04-11T11:55:07.726Z</time>
</trkpt>
<trkpt lat="32.5339220" lon="35.0477360">
<time>2008-04-11T11:55:08.711Z</time>
</trkpt>
<trkpt lat="32.5343060" lon="35.0471900">
<time>2008-04-11T11:55:09.618Z</time>
</trkpt>
<trkpt lat="32.5339970" lon="35.0464630">
<time>2008-04-11T11:55:10.932Z</time>
</trkpt>
<trkpt lat="32.5332260" lon="35.0457370">
<time>2008-04-11T11:55:11.744Z</time>
</trkpt>
<trkpt lat="32.5326870" lon="35.0451020">
<time>2008-04-11T11:55:12.478Z</time>
</trkpt>
<trkpt lat="32.5326080" lon="35.0441930">
<time>2008-04-11T11:55:13.083Z</time>
</trkpt>
<trkpt lat="32.5322220" lon="35.0435570">
<time>2008-04-11T11:55:13.878Z</time>
</trkpt>
<trkpt lat="32.5319910" lon="35.0431940">
<time>2008-04-11T11:55:16.755Z</time>
</trkpt>
<trkpt lat="32.5322980" lon="35.0422850">
<time>2008-04-11T11:55:17.679Z</time>
</trkpt>
<trkpt lat="32.5318350" lon="35.0413760">
<time>2008-04-11T11:55:18.777Z</time>
</trkpt>
<trkpt lat="32.5309080" lon="35.0396510">
<time>2008-04-11T11:55:21.464Z</time>
</trkpt>
<trkpt lat="32.5302900" lon="35.0381070">
<time>2008-04-11T11:55:22.837Z</time>
</trkpt>
<trkpt lat="32.5298250" lon="35.0359260">
<time>2008-04-11T11:55:24.738Z</time>
</trkpt>
<trkpt lat="32.5295150" lon="35.0347450">
<time>2008-04-11T11:55:25.740Z</time>
</trkpt>
<trkpt lat="32.5290500" lon="35.0328370">
<time>2008-04-11T11:55:27.598Z</time>
</trkpt>
<trkpt lat="32.5287400" lon="35.0310200">
<time>2008-04-11T11:55:32.290Z</time>
</trkpt>
<trkpt lat="32.5285840" lon="35.0301110">
<time>2008-04-11T11:55:33.024Z</time>
</trkpt>
<trkpt lat="32.5281210" lon="35.0292030">
<time>2008-04-11T11:55:34.363Z</time>
</trkpt>
<trkpt lat="32.5271970" lon="35.0292050">
<time>2008-04-11T11:56:05.960Z</time>
</trkpt>
<trkpt lat="32.5262730" lon="35.0293890">
<time>2008-04-11T11:56:06.729Z</time>
</trkpt>
<trkpt lat="32.5250410" lon="35.0295730">
<time>2008-04-11T11:56:07.800Z</time>
</trkpt>
<trkpt lat="32.5248860" lon="35.0287550">
<time>2008-04-11T11:56:12.785Z</time>
</trkpt>
<trkpt lat="32.5245760" lon="35.0272110">
<time>2008-04-11T11:56:13.788Z</time>
</trkpt>
<trkpt lat="32.5243430" lon="35.0259390">
<time>2008-04-11T11:56:14.729Z</time>
</trkpt>
<trkpt lat="32.5239570" lon="35.0250300">
<time>2008-04-11T11:56:15.973Z</time>
</trkpt>
<trkpt lat="32.5227240" lon="35.0244880">
<time>2008-04-11T11:56:17.710Z</time>
</trkpt>
<trkpt lat="32.5214920" lon="35.0244900">
<time>2008-04-11T11:56:19.006Z</time>
</trkpt>
<trkpt lat="32.5200290" lon="35.0246750">
<time>2008-04-11T11:56:20.380Z</time>
</trkpt>
<trkpt lat="32.5177960" lon="35.0247700">
<time>2008-04-11T11:56:22.246Z</time>
</trkpt>
<trkpt lat="32.5150240" lon="35.0248670">
<time>2008-04-11T11:56:24.043Z</time>
</trkpt>
<trkpt lat="32.5110200" lon="35.0251480">
<time>2008-04-11T11:56:29.132Z</time>
</trkpt>
<trkpt lat="32.5060920" lon="35.0255220">
<time>2008-04-11T11:56:36.398Z</time>
</trkpt>
<trkpt lat="32.5042440" lon="35.0254350">
<time>2008-04-11T11:56:37.824Z</time>
</trkpt>
<trkpt lat="32.5003930" lon="35.0253520">
<time>2008-04-11T11:56:39.371Z</time>
</trkpt>
<trkpt lat="32.4976210" lon="35.0251760">
<time>2008-04-11T11:56:40.865Z</time>
</trkpt>
<trkpt lat="32.4938470" lon="35.0249110">
<time>2008-04-11T11:56:42.472Z</time>
</trkpt>
<trkpt lat="32.4887640" lon="35.0247400">
<time>2008-04-11T11:56:44.503Z</time>
</trkpt>
<trkpt lat="32.4860690" lon="35.0246550">
<time>2008-04-11T11:56:45.989Z</time>
</trkpt>
<trkpt lat="32.4840670" lon="35.0245680">
<time>2008-04-11T11:56:53.367Z</time>
</trkpt>
<trkpt lat="32.4839900" lon="35.0245680">
<time>2008-04-11T11:56:55.726Z</time>
</trkpt>
<trkpt lat="32.4833730" lon="35.0244780">
<time>2008-04-11T11:57:10.820Z</time>
</trkpt>
<trkpt lat="32.4823720" lon="35.0244800">
<time>2008-04-11T11:57:12.151Z</time>
</trkpt>
<trkpt lat="32.4819860" lon="35.0238450">
<time>2008-04-11T11:57:20.324Z</time>
</trkpt>
<trkpt lat="32.4817540" lon="35.0229370">
<time>2008-04-11T11:57:21.491Z</time>
</trkpt>
<trkpt lat="32.4822920" lon="35.0222090">
<time>2008-04-11T11:57:25.197Z</time>
</trkpt>
<trkpt lat="32.4825220" lon="35.0216640">
<time>2008-04-11T11:57:25.957Z</time>
</trkpt>
<trkpt lat="32.4824440" lon="35.0207550">
<time>2008-04-11T11:57:26.761Z</time>
</trkpt>
<trkpt lat="32.4814420" lon="35.0202120">
<time>2008-04-11T11:57:27.789Z</time>
</trkpt>
<trkpt lat="32.4809020" lon="35.0194870">
<time>2008-04-11T11:57:28.558Z</time>
</trkpt>
<trkpt lat="32.4807460" lon="35.0185790">
<time>2008-04-11T11:57:29.223Z</time>
</trkpt>
<trkpt lat="32.4810530" lon="35.0176690">
<time>2008-04-11T11:57:29.958Z</time>
</trkpt>
<trkpt lat="32.4807410" lon="35.0153080">
<time>2008-04-11T11:57:33.958Z</time>
</trkpt>
<trkpt lat="32.4805850" lon="35.0137640">
<time>2008-04-11T11:57:53.364Z</time>
</trkpt>
<trkpt lat="32.4803510" lon="35.0118560">
<time>2008-04-11T11:57:54.210Z</time>
</trkpt>
<trkpt lat="32.4801170" lon="35.0101310">
<time>2008-04-11T11:57:54.850Z</time>
</trkpt>
<trkpt lat="32.4801140" lon="35.0085860">
<time>2008-04-11T11:57:55.558Z</time>
</trkpt>
<trkpt lat="32.4798800" lon="35.0066790">
<time>2008-04-11T11:57:56.664Z</time>
</trkpt>
<trkpt lat="32.4793370" lon="35.0040460">
<time>2008-04-11T11:57:57.519Z</time>
</trkpt>
<trkpt lat="32.4790250" lon="35.0015030">
<time>2008-04-11T11:57:58.504Z</time>
</trkpt>
<trkpt lat="32.4787920" lon="35.0003220">
<time>2008-04-11T11:58:09.840Z</time>
</trkpt>
<trkpt lat="32.4784040" lon="34.9989600">
<time>2008-04-11T11:58:10.963Z</time>
</trkpt>
<trkpt lat="32.4740920" lon="34.9987890">
<time>2008-04-11T11:58:12.492Z</time>
</trkpt>
<trkpt lat="32.4720890" lon="34.9987930">
<time>2008-04-11T11:58:54.198Z</time>
</trkpt>
<trkpt lat="32.4722440" lon="34.9991560">
<time>2008-04-11T11:58:55.364Z</time>
</trkpt>
<trkpt lat="32.4690100" lon="34.9994370">
<time>2008-04-11T11:58:57.118Z</time>
</trkpt>
<trkpt lat="32.4677780" lon="34.9995300">
<time>2008-04-11T11:59:27.894Z</time>
</trkpt>
<trkpt lat="32.4663150" lon="34.9995340">
<time>2008-04-11T11:59:28.870Z</time>
</trkpt>
<trkpt lat="32.4646990" lon="34.9998100">
<time>2008-04-11T11:59:30.572Z</time>
</trkpt>
<trkpt lat="32.4646970" lon="34.9988110">
<time>2008-04-11T11:59:31.566Z</time>
</trkpt>
<trkpt lat="32.4634630" lon="34.9979050">
<time>2008-04-11T11:59:32.879Z</time>
</trkpt>
<trkpt lat="32.4630000" lon="34.9973620">
<time>2008-04-11T11:59:35.022Z</time>
</trkpt>
<trkpt lat="32.4623830" lon="34.9968180">
<time>2008-04-11T11:59:48.371Z</time>
</trkpt>
<trkpt lat="32.4616110" lon="34.9958210">
<time>2008-04-11T11:59:49.900Z</time>
</trkpt>
<trkpt lat="32.4609950" lon="34.9956410">
<time>2008-04-11T11:59:56.976Z</time>
</trkpt>
<trkpt lat="32.4606100" lon="34.9958230">
<time>2008-04-11T11:59:58.730Z</time>
</trkpt>
<trkpt lat="32.4594540" lon="34.9951900">
<time>2008-04-11T11:59:59.741Z</time>
</trkpt>
<trkpt lat="32.4592230" lon="34.9953720">
<time>2008-04-11T12:00:00.613Z</time>
</trkpt>
<trkpt lat="32.4574520" lon="34.9949220">
<time>2008-04-11T12:00:01.633Z</time>
</trkpt>
<trkpt lat="32.4562190" lon="34.9943800">
<time>2008-04-11T12:00:02.946Z</time>
</trkpt>
<trkpt lat="32.4552930" lon="34.9936560">
<time>2008-04-11T12:00:03.931Z</time>
</trkpt>
<trkpt lat="32.4546760" lon="34.9931130">
<time>2008-04-11T12:00:10.878Z</time>
</trkpt>
<trkpt lat="32.4531330" lon="34.9913000">
<time>2008-04-11T12:00:12.303Z</time>
</trkpt>
<trkpt lat="32.4522060" lon="34.9898490">
<time>2008-04-11T12:00:13.556Z</time>
</trkpt>
<trkpt lat="32.4515110" lon="34.9885790">
<time>2008-04-11T12:00:31.026Z</time>
</trkpt>
<trkpt lat="32.4486530" lon="34.9839540">
<time>2008-04-11T12:00:32.478Z</time>
</trkpt>
<trkpt lat="32.4460380" lon="34.9856870">
<time>2008-04-11T12:00:35.052Z</time>
</trkpt>
<trkpt lat="32.4436440" lon="34.9816970">
<time>2008-04-11T12:00:39.191Z</time>
</trkpt>
<trkpt lat="32.4427940" lon="34.9802460">
<time>2008-04-11T12:00:40.427Z</time>
</trkpt>
<trkpt lat="32.4417130" lon="34.9786140">
<time>2008-04-11T12:00:41.507Z</time>
</trkpt>
<trkpt lat="32.4408630" lon="34.9769820">
<time>2008-04-11T12:00:42.725Z</time>
</trkpt>
<trkpt lat="32.4402440" lon="34.9757120">
<time>2008-04-11T12:00:49.006Z</time>
</trkpt>
<trkpt lat="32.4397790" lon="34.9738970">
<time>2008-04-11T12:00:50.276Z</time>
</trkpt>
<trkpt lat="32.4392400" lon="34.9738980">
<time>2008-04-11T12:01:04.074Z</time>
</trkpt>
<trkpt lat="32.4386240" lon="34.9739000">
<time>2008-04-11T12:01:04.722Z</time>
</trkpt>
<trkpt lat="32.4377770" lon="34.9739020">
<time>2008-04-11T12:01:05.785Z</time>
</trkpt>
<trkpt lat="32.4366210" lon="34.9735420">
<time>2008-04-11T12:01:06.666Z</time>
</trkpt>
<trkpt lat="32.4363120" lon="34.9731800">
<time>2008-04-11T12:01:07.254Z</time>
</trkpt>
<trkpt lat="32.4366150" lon="34.9706360">
<time>2008-04-11T12:01:08.550Z</time>
</trkpt>
<trkpt lat="32.4355370" lon="34.9702760">
<time>2008-04-11T12:01:09.863Z</time>
</trkpt>
<trkpt lat="32.4360730" lon="34.9690030">
<time>2008-04-11T12:01:10.848Z</time>
</trkpt>
<trkpt lat="32.4373760" lon="34.9657310">
<time>2008-04-11T12:01:12.274Z</time>
</trkpt>
<trkpt lat="32.4381420" lon="34.9634580">
<time>2008-04-11T12:01:17.181Z</time>
</trkpt>
<trkpt lat="32.4391360" lon="34.9602770">
<time>2008-04-11T12:01:19.039Z</time>
</trkpt>
<trkpt lat="32.4395940" lon="34.9582780">
<time>2008-04-11T12:01:20.214Z</time>
</trkpt>
<trkpt lat="32.4387460" lon="34.9577360">
<time>2008-04-11T12:01:21.708Z</time>
</trkpt>
<trkpt lat="32.4387470" lon="34.9580990">
<time>2008-04-11T12:01:22.348Z</time>
</trkpt>
<trkpt lat="32.4365880" lon="34.9568340">
<time>2008-04-11T12:01:23.730Z</time>
</trkpt>
<trkpt lat="32.4359750" lon="34.9581070">
<time>2008-04-11T12:01:55.042Z</time>
</trkpt>
<trkpt lat="32.4350550" lon="34.9604700">
<time>2008-04-11T12:01:56.554Z</time>
</trkpt>
<trkpt lat="32.4343670" lon="34.9627420">
<time>2008-04-11T12:01:58.895Z</time>
</trkpt>
<trkpt lat="32.4336770" lon="34.9644690">
<time>2008-04-11T12:02:00.010Z</time>
</trkpt>
<trkpt lat="32.4322940" lon="34.9659260">
<time>2008-04-11T12:02:01.003Z</time>
</trkpt>
<trkpt lat="32.4306800" lon="34.9676560">
<time>2008-04-11T12:02:06.697Z</time>
</trkpt>
<trkpt lat="32.4296810" lon="34.9686570">
<time>2008-04-12T06:34:21.202Z</time>
</trkpt>
<trkpt lat="32.4285280" lon="34.9696590">
<time>2008-04-12T06:34:23.750Z</time>
</trkpt>
<trkpt lat="32.4272210" lon="34.9708430">
<time>2008-04-12T06:34:26.809Z</time>
</trkpt>
<trkpt lat="32.4260680" lon="34.9718450">
<time>2008-04-12T06:34:28.200Z</time>
</trkpt>
<trkpt lat="32.4244530" lon="34.9732110">
<time>2008-04-12T06:34:29.876Z</time>
</trkpt>
<trkpt lat="32.4221470" lon="34.9755780">
<time>2008-04-12T06:34:31.293Z</time>
</trkpt>
<trkpt lat="32.4209940" lon="34.9763980">
<time>2008-04-12T06:34:32.779Z</time>
</trkpt>
<trkpt lat="32.4195320" lon="34.9771280">
<time>2008-04-12T06:34:34.594Z</time>
</trkpt>
<trkpt lat="32.4171460" lon="34.9779510">
<time>2008-04-12T06:34:36.762Z</time>
</trkpt>
<trkpt lat="32.4150680" lon="34.9782290">
<time>2008-04-12T06:34:38.784Z</time>
</trkpt>
<trkpt lat="32.4121420" lon="34.9786900">
<time>2008-04-12T06:34:40.331Z</time>
</trkpt>
<trkpt lat="32.4102180" lon="34.9792400">
<time>2008-04-12T06:34:59.580Z</time>
</trkpt>
<trkpt lat="32.4078320" lon="34.9796090">
<time>2008-04-12T06:35:00.825Z</time>
</trkpt>
<trkpt lat="32.4049060" lon="34.9801610">
<time>2008-04-12T06:35:02.285Z</time>
</trkpt>
<trkpt lat="32.4035210" lon="34.9806190">
<time>2008-04-12T06:35:03.373Z</time>
</trkpt>
<trkpt lat="32.4025980" lon="34.9810750">
<time>2008-04-12T06:35:04.160Z</time>
</trkpt>
<trkpt lat="32.4016750" lon="34.9818030">
<time>2008-04-12T06:35:05.533Z</time>
</trkpt>
<trkpt lat="32.4007530" lon="34.9828950">
<time>2008-04-12T06:35:06.518Z</time>
</trkpt>
<trkpt lat="32.3999840" lon="34.9836230">
<time>2008-04-12T06:35:08.281Z</time>
</trkpt>
<trkpt lat="32.3993700" lon="34.9848950">
<time>2008-04-12T06:35:09.715Z</time>
</trkpt>
<trkpt lat="32.3987530" lon="34.9843520">
<time>2008-04-12T06:35:11.158Z</time>
</trkpt>
<trkpt lat="32.3982140" lon="34.9840810">
<time>2008-04-12T06:35:11.910Z</time>
</trkpt>
<trkpt lat="32.3973660" lon="34.9839930">
<time>2008-04-12T06:35:13.128Z</time>
</trkpt>
<trkpt lat="32.3965200" lon="34.9845390">
<time>2008-04-12T06:35:14.389Z</time>
</trkpt>
<trkpt lat="32.3961370" lon="34.9852670">
<time>2008-04-12T06:35:15.893Z</time>
</trkpt>
<trkpt lat="32.3955200" lon="34.9849050">
<time>2008-04-12T06:35:24.749Z</time>
</trkpt>
<trkpt lat="32.3946730" lon="34.9847260">
<time>2008-04-12T06:35:25.578Z</time>
</trkpt>
<trkpt lat="32.3937480" lon="34.9847280">
<time>2008-04-12T06:35:30.175Z</time>
</trkpt>
<trkpt lat="32.3931330" lon="34.9849110">
<time>2008-04-12T06:36:06.515Z</time>
</trkpt>
<trkpt lat="32.3919780" lon="34.9850950">
<time>2008-04-12T06:36:07.439Z</time>
</trkpt>
<trkpt lat="32.3909770" lon="34.9852790">
<time>2008-04-12T06:36:10.593Z</time>
</trkpt>
<trkpt lat="32.3902080" lon="34.9856440">
<time>2008-04-12T06:36:11.500Z</time>
</trkpt>
<trkpt lat="32.3892080" lon="34.9861910">
<time>2008-04-12T06:36:12.485Z</time>
</trkpt>
<trkpt lat="32.3886690" lon="34.9865560">
<time>2008-04-12T06:36:13.332Z</time>
</trkpt>
<trkpt lat="32.3877460" lon="34.9872840">
<time>2008-04-12T06:36:14.498Z</time>
</trkpt>
<trkpt lat="32.3869780" lon="34.9883750">
<time>2008-04-12T06:36:15.578Z</time>
</trkpt>
<trkpt lat="32.3865180" lon="34.9891020">
<time>2008-04-12T06:36:16.468Z</time>
</trkpt>
<trkpt lat="32.3860580" lon="34.9902830">
<time>2008-04-12T06:36:17.548Z</time>
</trkpt>
<trkpt lat="32.3852900" lon="34.9916460">
<time>2008-04-12T06:36:18.628Z</time>
</trkpt>
<trkpt lat="32.3846770" lon="34.9931910">
<time>2008-04-12T06:36:20.174Z</time>
</trkpt>
<trkpt lat="32.3837520" lon="34.9927390">
<time>2008-04-12T06:36:21.652Z</time>
</trkpt>
<trkpt lat="32.3828260" lon="34.9921060">
<time>2008-04-12T06:36:22.421Z</time>
</trkpt>
<trkpt lat="32.3820550" lon="34.9914730">
<time>2008-04-12T06:36:26.957Z</time>
</trkpt>
<trkpt lat="32.3813610" lon="34.9907490">
<time>2008-04-12T06:36:28.607Z</time>
</trkpt>
<trkpt lat="32.3810560" lon="34.9927460">
<time>2008-04-12T06:36:30.059Z</time>
</trkpt>
<trkpt lat="32.3708040" lon="34.9869630">
<time>2008-04-12T06:36:33.342Z</time>
</trkpt>
<trkpt lat="32.3341280" lon="34.9757160">
<time>2008-04-12T06:36:47.295Z</time>
</trkpt>
<trkpt lat="32.3296590" lon="34.9744580">
<time>2008-04-12T06:36:50.095Z</time>
</trkpt>
<trkpt lat="32.3189480" lon="34.9711300">
<time>2008-04-12T06:36:58.812Z</time>
</trkpt>
<trkpt lat="32.3145580" lon="34.9705070">
<time>2008-04-12T06:37:00.437Z</time>
</trkpt>
<trkpt lat="32.3133260" lon="34.9709640">
<time>2008-04-12T06:37:02.139Z</time>
</trkpt>
<trkpt lat="32.3134790" lon="34.9702380">
<time>2008-04-12T06:37:57.953Z</time>
</trkpt>
<trkpt lat="32.3128630" lon="34.9702400">
<time>2008-04-12T06:37:58.956Z</time>
</trkpt>
<trkpt lat="32.3120160" lon="34.9705140">
<time>2008-04-12T06:37:59.966Z</time>
</trkpt>
<trkpt lat="32.3085500" lon="34.9702510">
<time>2008-04-12T06:38:01.643Z</time>
</trkpt>
<trkpt lat="32.3085540" lon="34.9721550">
<time>2008-04-12T06:38:02.826Z</time>
</trkpt>
<trkpt lat="32.3043270" lon="34.9766090">
<time>2008-04-12T06:38:05.548Z</time>
</trkpt>
<trkpt lat="32.3040980" lon="34.9776980">
<time>2008-04-12T06:38:07.440Z</time>
</trkpt>
<trkpt lat="32.3043320" lon="34.9795110">
<time>2008-04-12T06:38:08.485Z</time>
</trkpt>
<trkpt lat="32.3043380" lon="34.9825940">
<time>2008-04-12T06:38:09.419Z</time>
</trkpt>
<trkpt lat="32.3039560" lon="34.9842270">
<time>2008-04-12T06:38:16.875Z</time>
</trkpt>
<trkpt lat="32.3036510" lon="34.9862230">
<time>2008-04-12T06:38:19.044Z</time>
</trkpt>
<trkpt lat="32.3033460" lon="34.9877650">
<time>2008-04-12T06:38:38.717Z</time>
</trkpt>
<trkpt lat="32.3029650" lon="34.9898510">
<time>2008-04-12T06:38:40.065Z</time>
</trkpt>
<trkpt lat="32.3025060" lon="34.9916660">
<time>2008-04-12T06:38:41.266Z</time>
</trkpt>
<trkpt lat="32.3023550" lon="34.9935700">
<time>2008-04-12T06:38:42.268Z</time>
</trkpt>
<trkpt lat="32.3022060" lon="34.9962000">
<time>2008-04-12T06:38:43.486Z</time>
</trkpt>
<trkpt lat="32.3023610" lon="34.9967440">
<time>2008-04-12T06:38:51.780Z</time>
</trkpt>
<trkpt lat="32.3031310" lon="34.9967420">
<time>2008-04-12T06:38:52.653Z</time>
</trkpt>
<trkpt lat="32.3026700" lon="34.9976500">
<time>2008-04-12T06:38:55.452Z</time>
</trkpt>
<trkpt lat="32.3021320" lon="34.9981040">
<time>2008-04-12T06:39:12.136Z</time>
</trkpt>
<trkpt lat="32.3015950" lon="34.9991030">
<time>2008-04-12T06:39:13.061Z</time>
</trkpt>
<trkpt lat="32.3009800" lon="35.0001020">
<time>2008-04-12T06:39:14.201Z</time>
</trkpt>
<trkpt lat="32.3005970" lon="35.0011910">
<time>2008-04-12T06:39:15.143Z</time>
</trkpt>
<trkpt lat="32.3003670" lon="35.0016450">
<time>2008-04-12T06:39:16.284Z</time>
</trkpt>
<trkpt lat="32.2988250" lon="35.0006510">
<time>2008-04-12T06:39:19.593Z</time>
</trkpt>
<trkpt lat="32.2972820" lon="34.9992940">
<time>2008-04-12T06:39:20.716Z</time>
</trkpt>
<trkpt lat="32.2949760" lon="35.0013850">
<time>2008-04-12T06:42:09.878Z</time>
</trkpt>
<trkpt lat="32.2943580" lon="35.0004800">
<time>2008-04-12T06:44:37.933Z</time>
</trkpt>
<trkpt lat="32.2934310" lon="34.9990310">
<time>2008-04-12T06:44:39.048Z</time>
</trkpt>
<trkpt lat="32.2925070" lon="34.9988520">
<time>2008-04-12T06:44:40.612Z</time>
</trkpt>
<trkpt lat="32.2924310" lon="34.9995780">
<time>2008-04-12T06:44:42.158Z</time>
</trkpt>
<trkpt lat="32.2917400" lon="35.0009390">
<time>2008-04-12T06:44:43.549Z</time>
</trkpt>
</trkseg>
</trk>
<trk>
 <name>day04</name>
 <desc>12/4/2008 9:45:08 AM</desc>
<trkseg>
<trkpt lat="32.2916640" lon="35.0010300">
<time>2008-04-12T06:45:08.122Z</time>
</trkpt>
<trkpt lat="32.2908180" lon="35.0021200">
<time>2008-04-12T06:45:10.800Z</time>
</trkpt>
<trkpt lat="32.2892810" lon="35.0036650">
<time>2008-04-12T06:45:28.434Z</time>
</trkpt>
<trkpt lat="32.2884320" lon="35.0026690">
<time>2008-04-12T06:45:30.707Z</time>
</trkpt>
<trkpt lat="32.2869670" lon="35.0015850">
<time>2008-04-12T06:45:32.003Z</time>
</trkpt>
<trkpt lat="32.2828050" lon="34.9997820">
<time>2008-04-12T06:45:34.655Z</time>
</trkpt>
<trkpt lat="32.2797230" lon="34.9983380">
<time>2008-04-12T06:45:45.109Z</time>
</trkpt>
<trkpt lat="32.2784900" lon="34.9978880">
<time>2008-04-12T06:45:47.218Z</time>
</trkpt>
<trkpt lat="32.2764860" lon="34.9971670">
<time>2008-04-12T06:46:22.996Z</time>
</trkpt>
<trkpt lat="32.2740200" lon="34.9960860">
<time>2008-04-12T06:46:32.206Z</time>
</trkpt>
<trkpt lat="32.2681630" lon="34.9936520">
<time>2008-04-12T06:46:33.597Z</time>
</trkpt>
<trkpt lat="32.2648500" lon="34.9923010">
<time>2008-04-12T06:46:35.325Z</time>
</trkpt>
<trkpt lat="32.2646900" lon="34.9892190">
<time>2008-04-12T06:46:36.267Z</time>
</trkpt>
<trkpt lat="32.2647640" lon="34.9874070">
<time>2008-04-12T06:46:37.044Z</time>
</trkpt>
<trkpt lat="32.2657600" lon="34.9848660">
<time>2008-04-12T06:46:38.064Z</time>
</trkpt>
<trkpt lat="32.2668340" lon="34.9821440">
<time>2008-04-12T06:46:39.014Z</time>
</trkpt>
<trkpt lat="32.2675990" lon="34.9794230">
<time>2008-04-12T06:46:39.783Z</time>
</trkpt>
<trkpt lat="32.2678260" lon="34.9773380">
<time>2008-04-12T06:46:40.656Z</time>
</trkpt>
<trkpt lat="32.2675130" lon="34.9745290">
<time>2008-04-12T06:46:41.529Z</time>
</trkpt>
<trkpt lat="32.2668130" lon="34.9712680">
<time>2008-04-12T06:46:42.954Z</time>
</trkpt>
<trkpt lat="32.2665790" lon="34.9696370">
<time>2008-04-12T06:46:43.784Z</time>
</trkpt>
<trkpt lat="32.2664990" lon="34.9678250">
<time>2008-04-12T06:46:44.544Z</time>
</trkpt>
<trkpt lat="32.2658770" lon="34.9651070">
<time>2008-04-12T06:46:45.918Z</time>
</trkpt>
<trkpt lat="32.2654900" lon="34.9636580">
<time>2008-04-12T06:46:53.754Z</time>
</trkpt>
<trkpt lat="32.2647130" lon="34.9602160">
<time>2008-04-12T06:46:54.903Z</time>
</trkpt>
<trkpt lat="32.2643260" lon="34.9593110">
<time>2008-04-12T06:46:55.940Z</time>
</trkpt>
<trkpt lat="32.2637840" lon="34.9580440">
<time>2008-04-12T06:46:56.718Z</time>
</trkpt>
<trkpt lat="32.2630100" lon="34.9562330">
<time>2008-04-12T06:46:57.720Z</time>
</trkpt>
<trkpt lat="32.2589250" lon="34.9543410">
<time>2008-04-12T06:47:06.170Z</time>
</trkpt>
<trkpt lat="32.2554570" lon="34.9528100">
<time>2008-04-12T06:47:07.371Z</time>
</trkpt>
<trkpt lat="32.2519110" lon="34.9512800">
<time>2008-04-12T06:47:08.624Z</time>
</trkpt>
<trkpt lat="32.2506000" lon="34.9506490">
<time>2008-04-12T06:47:21.497Z</time>
</trkpt>
<trkpt lat="32.2489820" lon="34.9499290">
<time>2008-04-12T06:47:30.155Z</time>
</trkpt>
<trkpt lat="32.2492870" lon="34.9486600">
<time>2008-04-12T06:47:31.217Z</time>
</trkpt>
<trkpt lat="32.2495150" lon="34.9472090">
<time>2008-04-12T06:47:32.004Z</time>
</trkpt>
<trkpt lat="32.2494360" lon="34.9459400">
<time>2008-04-12T06:47:32.859Z</time>
</trkpt>
<trkpt lat="32.2489700" lon="34.9441290">
<time>2008-04-12T06:47:33.636Z</time>
</trkpt>
<trkpt lat="32.2481980" lon="34.9433160">
<time>2008-04-12T06:47:34.405Z</time>
</trkpt>
<trkpt lat="32.2468090" lon="34.9419610">
<time>2008-04-12T06:47:35.468Z</time>
</trkpt>
<trkpt lat="32.2463450" lon="34.9413280">
<time>2008-04-12T06:47:46.769Z</time>
</trkpt>
<trkpt lat="32.2458820" lon="34.9405140">
<time>2008-04-12T06:47:47.547Z</time>
</trkpt>
<trkpt lat="32.2458800" lon="34.9399700">
<time>2008-04-12T06:47:48.324Z</time>
</trkpt>
<trkpt lat="32.2449560" lon="34.9399730">
<time>2008-04-12T06:47:49.154Z</time>
</trkpt>
<trkpt lat="32.2447190" lon="34.9368930">
<time>2008-04-12T06:47:50.968Z</time>
</trkpt>
<trkpt lat="32.2446370" lon="34.9348990">
<time>2008-04-12T06:47:51.780Z</time>
</trkpt>
<trkpt lat="32.2447870" lon="34.9331770">
<time>2008-04-12T06:47:52.636Z</time>
</trkpt>
<trkpt lat="32.2450930" lon="34.9319080">
<time>2008-04-12T06:47:58.874Z</time>
</trkpt>
<trkpt lat="32.2437060" lon="34.9316400">
<time>2008-04-12T06:47:59.954Z</time>
</trkpt>
<trkpt lat="32.2426280" lon="34.9315530">
<time>2008-04-12T06:48:04.110Z</time>
</trkpt>
<trkpt lat="32.2418570" lon="34.9312830">
<time>2008-04-12T06:48:04.965Z</time>
</trkpt>
<trkpt lat="32.2420090" lon="34.9303770">
<time>2008-04-12T06:48:09.657Z</time>
</trkpt>
<trkpt lat="32.2413920" lon="34.9301980">
<time>2008-04-12T06:48:10.434Z</time>
</trkpt>
<trkpt lat="32.2410810" lon="34.9288390">
<time>2008-04-12T06:48:11.238Z</time>
</trkpt>
<trkpt lat="32.2412320" lon="34.9274800">
<time>2008-04-12T06:48:11.972Z</time>
</trkpt>
<trkpt lat="32.2416920" lon="34.9264820">
<time>2008-04-12T06:48:12.672Z</time>
</trkpt>
<trkpt lat="32.2419980" lon="34.9254840">
<time>2008-04-12T06:48:17.217Z</time>
</trkpt>
<trkpt lat="32.2403010" lon="34.9244020">
<time>2008-04-12T06:48:22.081Z</time>
</trkpt>
<trkpt lat="32.2387590" lon="34.9234100">
<time>2008-04-12T06:48:23.247Z</time>
</trkpt>
<trkpt lat="32.2379880" lon="34.9229590">
<time>2008-04-12T06:48:37.529Z</time>
</trkpt>
<trkpt lat="32.2372160" lon="34.9224180">
<time>2008-04-12T06:48:38.609Z</time>
</trkpt>
<trkpt lat="32.2369080" lon="34.9222380">
<time>2008-04-12T06:48:56.278Z</time>
</trkpt>
<trkpt lat="32.2353680" lon="34.9222430">
<time>2008-04-12T06:48:57.496Z</time>
</trkpt>
<trkpt lat="32.2347500" lon="34.9215200">
<time>2008-04-12T06:48:58.559Z</time>
</trkpt>
<trkpt lat="32.2343640" lon="34.9209780">
<time>2008-04-12T06:48:59.172Z</time>
</trkpt>
<trkpt lat="32.2337470" lon="34.9207980">
<time>2008-04-12T06:49:00.106Z</time>
</trkpt>
<trkpt lat="32.2339710" lon="34.9178980">
<time>2008-04-12T06:49:03.441Z</time>
</trkpt>
<trkpt lat="32.2325080" lon="34.9177220">
<time>2008-04-12T06:49:11.035Z</time>
</trkpt>
<trkpt lat="32.2301200" lon="34.9175480">
<time>2008-04-12T06:49:12.435Z</time>
</trkpt>
<trkpt lat="32.2285800" lon="34.9173720">
<time>2008-04-12T06:49:13.636Z</time>
</trkpt>
<trkpt lat="32.2275780" lon="34.9173750">
<time>2008-04-12T06:49:14.733Z</time>
</trkpt>
<trkpt lat="32.2270390" lon="34.9171960">
<time>2008-04-12T06:49:15.528Z</time>
</trkpt>
<trkpt lat="32.2250350" lon="34.9164780">
<time>2008-04-12T06:49:20.280Z</time>
</trkpt>
<trkpt lat="32.2238020" lon="34.9159380">
<time>2008-04-12T06:49:21.170Z</time>
</trkpt>
<trkpt lat="32.2227220" lon="34.9153070">
<time>2008-04-12T06:49:22.846Z</time>
</trkpt>
<trkpt lat="32.2221850" lon="34.9163060">
<time>2008-04-12T06:49:26.751Z</time>
</trkpt>
<trkpt lat="32.2207280" lon="34.9187560">
<time>2008-04-12T06:49:27.875Z</time>
</trkpt>
<trkpt lat="32.2193460" lon="34.9206630">
<time>2008-04-12T06:49:29.499Z</time>
</trkpt>
<trkpt lat="32.2176580" lon="34.9232050">
<time>2008-04-12T06:49:31.140Z</time>
</trkpt>
<trkpt lat="32.2162760" lon="34.9250210">
<time>2008-04-12T06:49:32.246Z</time>
</trkpt>
<trkpt lat="32.2158150" lon="34.9257470">
<time>2008-04-12T06:49:33.577Z</time>
</trkpt>
<trkpt lat="32.2151990" lon="34.9257490">
<time>2008-04-12T06:49:34.450Z</time>
</trkpt>
<trkpt lat="32.2144290" lon="34.9255700">
<time>2008-04-12T06:49:35.435Z</time>
</trkpt>
<trkpt lat="32.2138120" lon="34.9252100">
<time>2008-04-12T06:52:01.425Z</time>
</trkpt>
<trkpt lat="32.2132720" lon="34.9250300">
<time>2008-04-12T06:52:03.222Z</time>
</trkpt>
<trkpt lat="32.2129640" lon="34.9247600">
<time>2008-04-12T06:52:33.799Z</time>
</trkpt>
<trkpt lat="32.2115770" lon="34.9246730">
<time>2008-04-12T06:52:35.406Z</time>
</trkpt>
<trkpt lat="32.2118840" lon="34.9239480">
<time>2008-04-12T06:52:52.375Z</time>
</trkpt>
<trkpt lat="32.2123440" lon="34.9230410">
<time>2008-04-12T06:52:53.342Z</time>
</trkpt>
<trkpt lat="32.2106460" lon="34.9214150">
<time>2008-04-12T06:52:54.500Z</time>
</trkpt>
<trkpt lat="32.2097980" lon="34.9211460">
<time>2008-04-12T06:52:57.075Z</time>
</trkpt>
<trkpt lat="32.2081030" lon="34.9209710">
<time>2008-04-12T06:52:58.440Z</time>
</trkpt>
<trkpt lat="32.2066410" lon="34.9212470">
<time>2008-04-12T06:52:59.658Z</time>
</trkpt>
<trkpt lat="32.2055620" lon="34.9210690">
<time>2008-04-12T06:53:00.859Z</time>
</trkpt>
<trkpt lat="32.2053320" lon="34.9212510">
<time>2008-04-12T06:53:06.968Z</time>
</trkpt>
<trkpt lat="32.2060270" lon="34.9223360">
<time>2008-04-12T06:53:08.125Z</time>
</trkpt>
<trkpt lat="32.2052570" lon="34.9221570">
<time>2008-04-12T06:53:09.266Z</time>
</trkpt>
<trkpt lat="32.2047980" lon="34.9237890">
<time>2008-04-12T06:53:12.826Z</time>
</trkpt>
<trkpt lat="32.2044930" lon="34.9250580">
<time>2008-04-12T06:53:13.629Z</time>
</trkpt>
<trkpt lat="32.2041880" lon="34.9261460">
<time>2008-04-12T06:53:14.441Z</time>
</trkpt>
<trkpt lat="32.2042660" lon="34.9266890">
<time>2008-04-12T06:53:15.107Z</time>
</trkpt>
<trkpt lat="32.2048050" lon="34.9267780">
<time>2008-04-12T06:53:15.841Z</time>
</trkpt>
<trkpt lat="32.2054220" lon="34.9270480">
<time>2008-04-12T06:53:16.843Z</time>
</trkpt>
<trkpt lat="32.2055780" lon="34.9281340">
<time>2008-04-12T06:53:19.375Z</time>
</trkpt>
<trkpt lat="32.2058110" lon="34.9288580">
<time>2008-04-12T06:53:20.170Z</time>
</trkpt>
<trkpt lat="32.2058890" lon="34.9292200">
<time>2008-04-12T06:53:21.284Z</time>
</trkpt>
<trkpt lat="32.2057370" lon="34.9303080">
<time>2008-04-12T06:53:22.356Z</time>
</trkpt>
<trkpt lat="32.2052780" lon="34.9317580">
<time>2008-04-12T06:53:23.824Z</time>
</trkpt>
<trkpt lat="32.2039040" lon="34.9370160">
<time>2008-04-12T06:53:31.341Z</time>
</trkpt>
<trkpt lat="32.2001270" lon="34.9356680">
<time>2008-04-12T06:53:40.888Z</time>
</trkpt>
<trkpt lat="32.1961970" lon="34.9342310">
<time>2008-04-12T06:53:42.374Z</time>
</trkpt>
<trkpt lat="32.1934220" lon="34.9332440">
<time>2008-04-12T06:53:46.971Z</time>
</trkpt>
<trkpt lat="32.1921890" lon="34.9327940">
<time>2008-04-12T06:53:48.034Z</time>
</trkpt>
<trkpt lat="32.1895680" lon="34.9318060">
<time>2008-04-12T06:53:49.235Z</time>
</trkpt>
<trkpt lat="32.1869480" lon="34.9307280">
<time>2008-04-12T06:53:50.470Z</time>
</trkpt>
<trkpt lat="32.1864850" lon="34.9305480">
<time>2008-04-12T06:54:01.279Z</time>
</trkpt>
<trkpt lat="32.1844830" lon="34.9304640">
<time>2008-04-12T06:54:02.454Z</time>
</trkpt>
<trkpt lat="32.1830960" lon="34.9303770">
<time>2008-04-12T06:54:03.309Z</time>
</trkpt>
<trkpt lat="32.1785540" lon="34.9309350">
<time>2008-04-12T06:54:04.717Z</time>
</trkpt>
<trkpt lat="32.1752430" lon="34.9309450">
<time>2008-04-12T06:54:06.299Z</time>
</trkpt>
<trkpt lat="32.1712380" lon="34.9311380">
<time>2008-04-12T06:54:07.845Z</time>
</trkpt>
<trkpt lat="32.1684660" lon="34.9313280">
<time>2008-04-12T06:54:09.590Z</time>
</trkpt>
<trkpt lat="32.1653870" lon="34.9318800">
<time>2008-04-12T06:54:11.042Z</time>
</trkpt>
<trkpt lat="32.1620000" lon="34.9323430">
<time>2008-04-12T06:54:15.250Z</time>
</trkpt>
<trkpt lat="32.1595360" lon="34.9326230">
<time>2008-04-12T06:54:20.987Z</time>
</trkpt>
<trkpt lat="32.1563030" lon="34.9329940">
<time>2008-04-12T06:54:22.205Z</time>
</trkpt>
<trkpt lat="32.1530690" lon="34.9333660">
<time>2008-04-12T06:54:24.097Z</time>
</trkpt>
<trkpt lat="32.1516060" lon="34.9335520">
<time>2008-04-12T06:54:43.373Z</time>
</trkpt>
<trkpt lat="32.1492200" lon="34.9339210">
<time>2008-04-12T06:54:44.643Z</time>
</trkpt>
<trkpt lat="32.1466010" lon="34.9339290">
<time>2008-04-12T06:54:46.060Z</time>
</trkpt>
<trkpt lat="32.1451380" lon="34.9340240">
<time>2008-04-12T06:54:47.451Z</time>
</trkpt>
<trkpt lat="32.1433680" lon="34.9346630">
<time>2008-04-12T06:55:27.800Z</time>
</trkpt>
<trkpt lat="32.1429040" lon="34.9337590">
<time>2008-04-12T06:56:22.050Z</time>
</trkpt>
<trkpt lat="32.1382820" lon="34.9328680">
<time>2008-04-12T06:56:23.683Z</time>
</trkpt>
<trkpt lat="32.1379750" lon="34.9333220">
<time>2008-04-12T06:56:27.502Z</time>
</trkpt>
<trkpt lat="32.1376640" lon="34.9323270">
<time>2008-04-12T06:56:30.535Z</time>
</trkpt>
<trkpt lat="32.1365860" lon="34.9322400">
<time>2008-04-12T06:56:31.917Z</time>
</trkpt>
<trkpt lat="32.1357380" lon="34.9317900">
<time>2008-04-12T06:56:32.738Z</time>
</trkpt>
<trkpt lat="32.1354270" lon="34.9303430">
<time>2008-04-12T06:56:33.611Z</time>
</trkpt>
<trkpt lat="32.1344240" lon="34.9296220">
<time>2008-04-12T06:56:34.673Z</time>
</trkpt>
<trkpt lat="32.1328060" lon="34.9294460">
<time>2008-04-12T06:56:35.701Z</time>
</trkpt>
<trkpt lat="32.1323450" lon="34.9296280">
<time>2008-04-12T06:56:37.766Z</time>
</trkpt>
<trkpt lat="32.1319590" lon="34.9292670">
<time>2008-04-12T06:56:40.298Z</time>
</trkpt>
<trkpt lat="32.1311870" lon="34.9285460">
<time>2008-04-12T06:56:40.894Z</time>
</trkpt>
<trkpt lat="32.1300300" lon="34.9278250">
<time>2008-04-12T06:56:41.965Z</time>
</trkpt>
<trkpt lat="32.1287200" lon="34.9273770">
<time>2008-04-12T06:56:42.907Z</time>
</trkpt>
<trkpt lat="32.1281030" lon="34.9271070">
<time>2008-04-12T06:56:43.503Z</time>
</trkpt>
<trkpt lat="32.1273290" lon="34.9253000">
<time>2008-04-12T06:56:45.404Z</time>
</trkpt>
<trkpt lat="32.1259430" lon="34.9253950">
<time>2008-04-12T06:56:47.936Z</time>
</trkpt>
<trkpt lat="32.1244040" lon="34.9255800">
<time>2008-04-12T06:56:48.860Z</time>
</trkpt>
<trkpt lat="32.1237870" lon="34.9254920">
<time>2008-04-12T06:56:49.638Z</time>
</trkpt>
<trkpt lat="32.1230160" lon="34.9251320">
<time>2008-04-12T06:56:54.597Z</time>
</trkpt>
<trkpt lat="32.1224760" lon="34.9247720">
<time>2008-04-12T06:57:29.183Z</time>
</trkpt>
<trkpt lat="32.1213970" lon="34.9243230">
<time>2008-04-12T06:57:34.160Z</time>
</trkpt>
<trkpt lat="32.1212410" lon="34.9235090">
<time>2008-04-12T06:57:36.518Z</time>
</trkpt>
<trkpt lat="32.1216230" lon="34.9218790">
<time>2008-04-12T06:57:37.702Z</time>
</trkpt>
<trkpt lat="32.1218490" lon="34.9197970">
<time>2008-04-12T06:57:38.704Z</time>
</trkpt>
<trkpt lat="32.1224600" lon="34.9175330">
<time>2008-04-12T06:58:33.542Z</time>
</trkpt>
<trkpt lat="32.1227630" lon="34.9155410">
<time>2008-04-12T06:58:34.450Z</time>
</trkpt>
<trkpt lat="32.1229160" lon="34.9148160">
<time>2008-04-12T06:58:35.046Z</time>
</trkpt>
<trkpt lat="32.1229130" lon="34.9139110">
<time>2008-04-12T06:58:35.858Z</time>
</trkpt>
<trkpt lat="32.1225270" lon="34.9133700">
<time>2008-04-12T06:58:36.722Z</time>
</trkpt>
<trkpt lat="32.1224480" lon="34.9126460">
<time>2008-04-12T06:58:37.344Z</time>
</trkpt>
<trkpt lat="32.1216780" lon="34.9125580">
<time>2008-04-12T06:58:37.871Z</time>
</trkpt>
<trkpt lat="32.1213680" lon="34.9115640">
<time>2008-04-12T06:58:38.640Z</time>
</trkpt>
<trkpt lat="32.1212120" lon="34.9110210">
<time>2008-04-12T06:58:39.798Z</time>
</trkpt>
<trkpt lat="32.1210580" lon="34.9107500">
<time>2008-04-12T06:58:40.748Z</time>
</trkpt>
<trkpt lat="32.1196720" lon="34.9108450">
<time>2008-04-12T06:58:41.811Z</time>
</trkpt>
<trkpt lat="32.1191330" lon="34.9110280">
<time>2008-04-12T06:58:44.558Z</time>
</trkpt>
<trkpt lat="32.1190570" lon="34.9113900">
<time>2008-04-12T06:58:45.388Z</time>
</trkpt>
<trkpt lat="32.1190580" lon="34.9120240">
<time>2008-04-12T06:58:45.924Z</time>
</trkpt>
<trkpt lat="32.1185970" lon="34.9124780">
<time>2008-04-12T06:58:46.658Z</time>
</trkpt>
<trkpt lat="32.1181370" lon="34.9131120">
<time>2008-04-12T06:58:47.487Z</time>
</trkpt>
<trkpt lat="32.1181380" lon="34.9136550">
<time>2008-04-12T06:58:48.109Z</time>
</trkpt>
<trkpt lat="32.1184470" lon="34.9141970">
<time>2008-04-12T06:58:49.017Z</time>
</trkpt>
<trkpt lat="32.1182170" lon="34.9143790">
<time>2008-04-12T06:58:49.924Z</time>
</trkpt>
<trkpt lat="32.1178310" lon="34.9139280">
<time>2008-04-12T06:58:50.434Z</time>
</trkpt>
<trkpt lat="32.1175230" lon="34.9140190">
<time>2008-04-12T06:58:51.496Z</time>
</trkpt>
<trkpt lat="32.1169840" lon="34.9141120">
<time>2008-04-12T06:58:52.058Z</time>
</trkpt>
<trkpt lat="32.1168280" lon="34.9132980">
<time>2008-04-12T06:58:52.654Z</time>
</trkpt>
<trkpt lat="32.1164420" lon="34.9126660">
<time>2008-04-12T06:58:53.207Z</time>
</trkpt>
<trkpt lat="32.1160560" lon="34.9126670">
<time>2008-04-12T06:58:54.235Z</time>
</trkpt>
<trkpt lat="32.1155180" lon="34.9129400">
<time>2008-04-12T06:58:54.814Z</time>
</trkpt>
<trkpt lat="32.1153640" lon="34.9131220">
<time>2008-04-12T06:58:57.467Z</time>
</trkpt>
<trkpt lat="32.1153650" lon="34.9133930">
<time>2008-04-12T06:58:59.091Z</time>
</trkpt>
<trkpt lat="32.1152120" lon="34.9137550">
<time>2008-04-12T06:58:59.886Z</time>
</trkpt>
<trkpt lat="32.1149030" lon="34.9132140">
<time>2008-04-12T06:59:00.361Z</time>
</trkpt>
<trkpt lat="32.1145940" lon="34.9129430">
<time>2008-04-12T06:59:00.793Z</time>
</trkpt>
<trkpt lat="32.1141320" lon="34.9129450">
<time>2008-04-12T06:59:01.251Z</time>
</trkpt>
<trkpt lat="32.1139780" lon="34.9129450">
<time>2008-04-12T06:59:01.605Z</time>
</trkpt>
<trkpt lat="32.1139790" lon="34.9134880">
<time>2008-04-12T06:59:02.642Z</time>
</trkpt>
<trkpt lat="32.1141340" lon="34.9137590">
<time>2008-04-12T06:59:03.048Z</time>
</trkpt>
<trkpt lat="32.1144420" lon="34.9139390">
<time>2008-04-12T06:59:03.515Z</time>
</trkpt>
<trkpt lat="32.1145970" lon="34.9142100">
<time>2008-04-12T06:59:03.921Z</time>
</trkpt>
<trkpt lat="32.1141350" lon="34.9143920">
<time>2008-04-12T06:59:04.361Z</time>
</trkpt>
<trkpt lat="32.1139810" lon="34.9144830">
<time>2008-04-12T06:59:04.785Z</time>
</trkpt>
<trkpt lat="32.1139820" lon="34.9147550">
<time>2008-04-12T06:59:05.122Z</time>
</trkpt>
<trkpt lat="32.1139830" lon="34.9152070">
<time>2008-04-12T06:59:05.597Z</time>
</trkpt>
<trkpt lat="32.1139840" lon="34.9155690">
<time>2008-04-12T06:59:05.925Z</time>
</trkpt>
<trkpt lat="32.1139850" lon="34.9161120">
<time>2008-04-12T06:59:06.331Z</time>
</trkpt>
<trkpt lat="32.1137540" lon="34.9161130">
<time>2008-04-12T06:59:06.703Z</time>
</trkpt>
<trkpt lat="32.1130620" lon="34.9164770">
<time>2008-04-12T06:59:08.267Z</time>
</trkpt>
<trkpt lat="32.1124470" lon="34.9167500">
<time>2008-04-12T06:59:09.874Z</time>
</trkpt>
<trkpt lat="32.1119860" lon="34.9173850">
<time>2008-04-12T06:59:10.824Z</time>
</trkpt>
<trkpt lat="32.1111390" lon="34.9175690">
<time>2008-04-12T06:59:11.628Z</time>
</trkpt>
<trkpt lat="32.1106790" lon="34.9184750">
<time>2008-04-12T06:59:12.699Z</time>
</trkpt>
<trkpt lat="32.1103730" lon="34.9190190">
<time>2008-04-12T06:59:13.528Z</time>
</trkpt>
<trkpt lat="32.1102970" lon="34.9197430">
<time>2008-04-12T06:59:29.841Z</time>
</trkpt>
<trkpt lat="32.1103000" lon="34.9211000">
<time>2008-04-12T07:00:52.983Z</time>
</trkpt>
<trkpt lat="32.1103030" lon="34.9224580">
<time>2008-04-12T07:00:56.690Z</time>
</trkpt>
<trkpt lat="32.1098460" lon="34.9245400">
<time>2008-04-12T07:00:57.528Z</time>
</trkpt>
<trkpt lat="32.1093900" lon="34.9273460">
<time>2008-04-12T07:00:58.591Z</time>
</trkpt>
<trkpt lat="32.1086290" lon="34.9311490">
<time>2008-04-12T07:00:59.766Z</time>
</trkpt>
<trkpt lat="32.1081710" lon="34.9331410">
<time>2008-04-12T07:01:02.531Z</time>
</trkpt>
<trkpt lat="32.1078650" lon="34.9340470">
<time>2008-04-12T07:01:03.516Z</time>
</trkpt>
<trkpt lat="32.1068650" lon="34.9344120">
<time>2008-04-12T07:01:04.362Z</time>
</trkpt>
<trkpt lat="32.1060950" lon="34.9345950">
<time>2008-04-12T07:01:07.455Z</time>
</trkpt>
<trkpt lat="32.1050930" lon="34.9344170">
<time>2008-04-12T07:02:44.267Z</time>
</trkpt>
<trkpt lat="32.1039370" lon="34.9339680">
<time>2008-04-12T07:02:45.312Z</time>
</trkpt>
<trkpt lat="32.1030130" lon="34.9337000">
<time>2008-04-12T07:02:52.060Z</time>
</trkpt>
<trkpt lat="32.1020090" lon="34.9327070">
<time>2008-04-12T07:02:52.889Z</time>
</trkpt>
<trkpt lat="32.1016980" lon="34.9311700">
<time>2008-04-12T07:02:53.658Z</time>
</trkpt>
<trkpt lat="32.1020030" lon="34.9300840">
<time>2008-04-12T07:02:54.453Z</time>
</trkpt>
<trkpt lat="32.1023090" lon="34.9291780">
<time>2008-04-12T07:02:55.248Z</time>
</trkpt>
<trkpt lat="32.1004600" lon="34.9286410">
<time>2008-04-12T07:02:56.311Z</time>
</trkpt>
<trkpt lat="32.0986880" lon="34.9282840">
<time>2008-04-12T07:02:58.013Z</time>
</trkpt>
<trkpt lat="32.0952970" lon="34.9273900">
<time>2008-04-12T07:02:59.628Z</time>
</trkpt>
<trkpt lat="32.0933710" lon="34.9269440">
<time>2008-04-12T07:03:00.812Z</time>
</trkpt>
<trkpt lat="32.0885940" lon="34.9259640">
<time>2008-04-12T07:03:08.761Z</time>
</trkpt>
<trkpt lat="32.0878260" lon="34.9268710">
<time>2008-04-12T07:03:10.394Z</time>
</trkpt>
<trkpt lat="32.0857530" lon="34.9294100">
<time>2008-04-12T07:03:11.716Z</time>
</trkpt>
<trkpt lat="32.0853700" lon="34.9306770">
<time>2008-04-12T07:03:12.830Z</time>
</trkpt>
<trkpt lat="32.0850650" lon="34.9321260">
<time>2008-04-12T07:03:16.079Z</time>
</trkpt>
<trkpt lat="32.0844510" lon="34.9326700">
<time>2008-04-12T07:03:17.168Z</time>
</trkpt>
<trkpt lat="32.0842980" lon="34.9333940">
<time>2008-04-12T07:03:19.544Z</time>
</trkpt>
<trkpt lat="32.0818330" lon="34.9328590">
<time>2008-04-12T07:03:28.140Z</time>
</trkpt>
<trkpt lat="32.0792130" lon="34.9323240">
<time>2008-04-12T07:03:29.514Z</time>
</trkpt>
<trkpt lat="32.0769010" lon="34.9316980">
<time>2008-04-12T07:03:30.560Z</time>
</trkpt>
<trkpt lat="32.0750530" lon="34.9317940">
<time>2008-04-12T07:03:31.847Z</time>
</trkpt>
<trkpt lat="32.0728980" lon="34.9321630">
<time>2008-04-12T07:03:33.644Z</time>
</trkpt>
<trkpt lat="32.0706660" lon="34.9327120">
<time>2008-04-12T07:03:38.033Z</time>
</trkpt>
<trkpt lat="32.0687420" lon="34.9332610">
<time>2008-04-12T07:03:38.906Z</time>
</trkpt>
<trkpt lat="32.0667400" lon="34.9338090">
<time>2008-04-12T07:03:40.280Z</time>
</trkpt>
<trkpt lat="32.0646620" lon="34.9339970">
<time>2008-04-12T07:03:41.636Z</time>
</trkpt>
<trkpt lat="32.0615820" lon="34.9343680">
<time>2008-04-12T07:03:42.941Z</time>
</trkpt>
<trkpt lat="32.0581170" lon="34.9347400">
<time>2008-04-12T07:05:05.626Z</time>
</trkpt>
<trkpt lat="32.0582660" lon="34.9322070">
<time>2008-04-12T07:05:07.967Z</time>
</trkpt>
<trkpt lat="32.0582630" lon="34.9310320">
<time>2008-04-12T07:05:08.831Z</time>
</trkpt>
<trkpt lat="32.0586440" lon="34.9293120">
<time>2008-04-12T07:05:09.626Z</time>
</trkpt>
<trkpt lat="32.0588710" lon="34.9275030">
<time>2008-04-12T07:05:11.846Z</time>
</trkpt>
<trkpt lat="32.0590180" lon="34.9243380">
<time>2008-04-12T07:05:13.220Z</time>
</trkpt>
<trkpt lat="32.0577850" lon="34.9240700">
<time>2008-04-12T07:05:15.657Z</time>
</trkpt>
<trkpt lat="32.0562440" lon="34.9237130">
<time>2008-04-12T07:05:16.339Z</time>
</trkpt>
<trkpt lat="32.0548570" lon="34.9231750">
<time>2008-04-12T07:05:17.238Z</time>
</trkpt>
<trkpt lat="32.0531620" lon="34.9229990">
<time>2008-04-12T07:05:18.292Z</time>
</trkpt>
<trkpt lat="32.0508520" lon="34.9230070">
<time>2008-04-12T07:05:20.892Z</time>
</trkpt>
<trkpt lat="32.0494640" lon="34.9224690">
<time>2008-04-12T07:05:25.143Z</time>
</trkpt>
<trkpt lat="32.0486940" lon="34.9222000">
<time>2008-04-12T07:05:25.826Z</time>
</trkpt>
<trkpt lat="32.0465380" lon="34.9222970">
<time>2008-04-12T07:05:26.923Z</time>
</trkpt>
<trkpt lat="32.0443040" lon="34.9223040">
<time>2008-04-12T07:05:28.003Z</time>
</trkpt>
<trkpt lat="32.0425320" lon="34.9220380">
<time>2008-04-12T07:05:30.578Z</time>
</trkpt>
<trkpt lat="32.0407610" lon="34.9221340">
<time>2008-04-12T07:05:40.609Z</time>
</trkpt>
<trkpt lat="32.0383740" lon="34.9223230">
<time>2008-04-12T07:05:41.628Z</time>
</trkpt>
<trkpt lat="32.0362180" lon="34.9221490">
<time>2008-04-12T07:05:44.091Z</time>
</trkpt>
<trkpt lat="32.0354480" lon="34.9221510">
<time>2008-04-12T07:05:45.707Z</time>
</trkpt>
<trkpt lat="32.0346770" lon="34.9217920">
<time>2008-04-12T07:05:46.467Z</time>
</trkpt>
<trkpt lat="32.0336760" lon="34.9219760">
<time>2008-04-12T07:05:47.340Z</time>
</trkpt>
<trkpt lat="32.0329050" lon="34.9216170">
<time>2008-04-12T07:05:54.252Z</time>
</trkpt>
<trkpt lat="32.0325960" lon="34.9214370">
<time>2008-04-12T07:06:08.905Z</time>
</trkpt>
<trkpt lat="32.0315940" lon="34.9210780">
<time>2008-04-12T07:06:09.873Z</time>
</trkpt>
<trkpt lat="32.0290520" lon="34.9204540">
<time>2008-04-12T07:06:12.387Z</time>
</trkpt>
<trkpt lat="32.0262770" lon="34.9196490">
<time>2008-04-12T07:06:16.517Z</time>
</trkpt>
<trkpt lat="32.0186470" lon="34.9168710">
<time>2008-04-12T07:06:41.314Z</time>
</trkpt>
<trkpt lat="32.0166430" lon="34.9164250">
<time>2008-04-12T07:06:44.519Z</time>
</trkpt>
<trkpt lat="32.0137140" lon="34.9153500">
<time>2008-04-12T07:06:45.660Z</time>
</trkpt>
<trkpt lat="32.0124810" lon="34.9149930">
<time>2008-04-12T07:06:46.627Z</time>
</trkpt>
<trkpt lat="32.0113260" lon="34.9147250">
<time>2008-04-12T07:06:49.435Z</time>
</trkpt>
<trkpt lat="32.0104020" lon="34.9149990">
<time>2008-04-12T07:06:50.420Z</time>
</trkpt>
<trkpt lat="32.0100950" lon="34.9155430">
<time>2008-04-12T07:06:56.425Z</time>
</trkpt>
<trkpt lat="32.0091720" lon="34.9160880">
<time>2008-04-12T07:06:57.626Z</time>
</trkpt>
<trkpt lat="32.0082490" lon="34.9166330">
<time>2008-04-12T07:07:00.909Z</time>
</trkpt>
<trkpt lat="32.0072470" lon="34.9159130">
<time>2008-04-12T07:07:03.674Z</time>
</trkpt>
<trkpt lat="32.0049340" lon="34.9148360">
<time>2008-04-12T07:07:06.292Z</time>
</trkpt>
<trkpt lat="32.0036230" lon="34.9141170">
<time>2008-04-12T07:07:08.106Z</time>
</trkpt>
<trkpt lat="32.0022440" lon="34.9173750">
<time>2008-04-12T07:07:14.517Z</time>
</trkpt>
<trkpt lat="31.9999310" lon="34.9162080">
<time>2008-04-12T07:07:18.595Z</time>
</trkpt>
<trkpt lat="31.9977720" lon="34.9150400">
<time>2008-04-12T07:07:20.202Z</time>
</trkpt>
<trkpt lat="31.9966170" lon="34.9152240">
<time>2008-04-12T07:07:23.814Z</time>
</trkpt>
<trkpt lat="31.9951550" lon="34.9155910">
<time>2008-04-12T07:07:24.894Z</time>
</trkpt>
<trkpt lat="31.9950000" lon="34.9150490">
<time>2008-04-12T07:07:28.592Z</time>
</trkpt>
<trkpt lat="31.9936140" lon="34.9152340">
<time>2008-04-12T07:07:29.456Z</time>
</trkpt>
<trkpt lat="31.9928450" lon="34.9159590">
<time>2008-04-12T07:07:30.233Z</time>
</trkpt>
<trkpt lat="31.9920810" lon="34.9184920">
<time>2008-04-12T07:09:10.751Z</time>
</trkpt>
<trkpt lat="31.9917780" lon="34.9204810">
<time>2008-04-12T07:09:11.667Z</time>
</trkpt>
<trkpt lat="31.9913200" lon="34.9222900">
<time>2008-04-12T07:09:12.548Z</time>
</trkpt>
<trkpt lat="31.9907080" lon="34.9241900">
<time>2008-04-12T07:09:14.077Z</time>
</trkpt>
<trkpt lat="31.9887050" lon="34.9237440">
<time>2008-04-12T07:09:15.140Z</time>
</trkpt>
<trkpt lat="31.9877800" lon="34.9235660">
<time>2008-04-12T07:09:15.918Z</time>
</trkpt>
<trkpt lat="31.9873170" lon="34.9232060">
<time>2008-04-12T07:09:16.453Z</time>
</trkpt>
<trkpt lat="31.9857770" lon="34.9230300">
<time>2008-04-12T07:09:17.361Z</time>
</trkpt>
<trkpt lat="31.9850060" lon="34.9226710">
<time>2008-04-12T07:09:18.346Z</time>
</trkpt>
<trkpt lat="31.9845440" lon="34.9226730">
<time>2008-04-12T07:09:19.763Z</time>
</trkpt>
<trkpt lat="31.9847760" lon="34.9233040">
<time>2008-04-12T07:09:28.981Z</time>
</trkpt>
<trkpt lat="31.9853190" lon="34.9250200">
<time>2008-04-12T07:09:30.001Z</time>
</trkpt>
<trkpt lat="31.9853220" lon="34.9262850">
<time>2008-04-12T07:09:30.761Z</time>
</trkpt>
<trkpt lat="31.9853240" lon="34.9271880">
<time>2008-04-12T07:09:31.643Z</time>
</trkpt>
<trkpt lat="31.9849420" lon="34.9286350">
<time>2008-04-12T07:09:32.688Z</time>
</trkpt>
<trkpt lat="31.9847150" lon="34.9302620">
<time>2008-04-12T07:09:34.675Z</time>
</trkpt>
<trkpt lat="31.9844890" lon="34.9325220">
<time>2008-04-12T07:09:39.902Z</time>
</trkpt>
<trkpt lat="31.9839550" lon="34.9347820">
<time>2008-04-12T07:09:40.827Z</time>
</trkpt>
<trkpt lat="31.9835750" lon="34.9373140">
<time>2008-04-12T07:09:41.613Z</time>
</trkpt>
<trkpt lat="31.9832700" lon="34.9385790">
<time>2008-04-12T07:09:42.546Z</time>
</trkpt>
<trkpt lat="31.9824230" lon="34.9385820">
<time>2008-04-12T07:09:44.127Z</time>
</trkpt>
<trkpt lat="31.9820380" lon="34.9389450">
<time>2008-04-12T07:09:45.112Z</time>
</trkpt>
<trkpt lat="31.9810370" lon="34.9389480">
<time>2008-04-12T07:09:46.184Z</time>
</trkpt>
<trkpt lat="31.9808840" lon="34.9394000">
<time>2008-04-12T07:09:47.108Z</time>
</trkpt>
<trkpt lat="31.9805780" lon="34.9405750">
<time>2008-04-12T07:09:48.266Z</time>
</trkpt>
<trkpt lat="31.9803480" lon="34.9409370">
<time>2008-04-12T07:09:49.717Z</time>
</trkpt>
<trkpt lat="31.9793490" lon="34.9417530">
<time>2008-04-12T07:09:50.953Z</time>
</trkpt>
<trkpt lat="31.9788880" lon="34.9422970">
<time>2008-04-12T07:09:51.748Z</time>
</trkpt>
<trkpt lat="31.9783500" lon="34.9429310">
<time>2008-04-12T07:09:56.612Z</time>
</trkpt>
<trkpt lat="31.9778150" lon="34.9447400">
<time>2008-04-12T07:09:57.606Z</time>
</trkpt>
<trkpt lat="31.9773560" lon="34.9464580">
<time>2008-04-12T07:09:58.703Z</time>
</trkpt>
<trkpt lat="31.9770510" lon="34.9479040">
<time>2008-04-12T07:09:59.671Z</time>
</trkpt>
<trkpt lat="31.9767450" lon="34.9487180">
<time>2008-04-12T07:10:00.751Z</time>
</trkpt>
<trkpt lat="31.9762070" lon="34.9494420">
<time>2008-04-12T07:10:16.596Z</time>
</trkpt>
<trkpt lat="31.9758240" lon="34.9504370">
<time>2008-04-12T07:10:17.512Z</time>
</trkpt>
<trkpt lat="31.9749000" lon="34.9500790">
<time>2008-04-12T07:10:20.217Z</time>
</trkpt>
<trkpt lat="31.9747470" lon="34.9507110">
<time>2008-04-12T07:10:21.685Z</time>
</trkpt>
<trkpt lat="31.9745940" lon="34.9512540">
<time>2008-04-12T07:10:22.480Z</time>
</trkpt>
<trkpt lat="31.9741330" lon="34.9516170">
<time>2008-04-12T07:10:23.362Z</time>
</trkpt>
<trkpt lat="31.9738250" lon="34.9517980">
<time>2008-04-12T07:10:24.113Z</time>
</trkpt>
<trkpt lat="31.9736720" lon="34.9523410">
<time>2008-04-12T07:10:24.934Z</time>
</trkpt>
<trkpt lat="31.9731330" lon="34.9526130">
<time>2008-04-12T07:10:25.738Z</time>
</trkpt>
<trkpt lat="31.9725940" lon="34.9525250">
<time>2008-04-12T07:10:26.766Z</time>
</trkpt>
<trkpt lat="31.9719780" lon="34.9523460">
<time>2008-04-12T07:10:27.440Z</time>
</trkpt>
<trkpt lat="31.9711310" lon="34.9523480">
<time>2008-04-12T07:10:28.934Z</time>
</trkpt>
<trkpt lat="31.9704380" lon="34.9527110">
<time>2008-04-12T07:10:29.954Z</time>
</trkpt>
<trkpt lat="31.9685930" lon="34.9540720">
<time>2008-04-12T07:10:38.499Z</time>
</trkpt>
<trkpt lat="31.9672850" lon="34.9550690">
<time>2008-04-12T07:10:39.933Z</time>
</trkpt>
<trkpt lat="31.9669010" lon="34.9554310">
<time>2008-04-12T07:11:05.093Z</time>
</trkpt>
<trkpt lat="31.9668260" lon="34.9561540">
<time>2008-04-12T07:11:06.372Z</time>
</trkpt>
<trkpt lat="31.9652090" lon="34.9563400">
<time>2008-04-12T07:11:07.261Z</time>
</trkpt>
<trkpt lat="31.9649010" lon="34.9564310">
<time>2008-04-12T07:11:08.082Z</time>
</trkpt>
<trkpt lat="31.9644370" lon="34.9556190">
<time>2008-04-12T07:11:08.782Z</time>
</trkpt>
<trkpt lat="31.9639730" lon="34.9547170">
<time>2008-04-12T07:11:09.378Z</time>
</trkpt>
<trkpt lat="31.9636640" lon="34.9541760">
<time>2008-04-12T07:11:10.234Z</time>
</trkpt>
<trkpt lat="31.9628170" lon="34.9541780">
<time>2008-04-12T07:11:15.685Z</time>
</trkpt>
<trkpt lat="31.9604320" lon="34.9552690">
<time>2008-04-12T07:11:16.593Z</time>
</trkpt>
<trkpt lat="31.9582780" lon="34.9565390">
<time>2008-04-12T07:11:17.828Z</time>
</trkpt>
<trkpt lat="31.9568160" lon="34.9574470">
<time>2008-04-12T07:11:20.550Z</time>
</trkpt>
<trkpt lat="31.9550480" lon="34.9586260">
<time>2008-04-12T07:11:21.327Z</time>
</trkpt>
<trkpt lat="31.9539700" lon="34.9590810">
<time>2008-04-12T07:11:22.252Z</time>
</trkpt>
<trkpt lat="31.9530450" lon="34.9583600">
<time>2008-04-12T07:11:23.418Z</time>
</trkpt>
<trkpt lat="31.9521190" lon="34.9576400">
<time>2008-04-12T07:11:24.187Z</time>
</trkpt>
<trkpt lat="31.9524250" lon="34.9565560">
<time>2008-04-12T07:11:26.857Z</time>
</trkpt>
<trkpt lat="31.9525780" lon="34.9558330">
<time>2008-04-12T07:11:27.652Z</time>
</trkpt>
<trkpt lat="31.9525000" lon="34.9553810">
<time>2008-04-12T07:11:28.188Z</time>
</trkpt>
<trkpt lat="31.9510360" lon="34.9552950">
<time>2008-04-12T07:11:29.950Z</time>
</trkpt>
<trkpt lat="31.9489570" lon="34.9554810">
<time>2008-04-12T07:11:33.216Z</time>
</trkpt>
<trkpt lat="31.9470320" lon="34.9554870">
<time>2008-04-12T07:11:34.106Z</time>
</trkpt>
<trkpt lat="31.9458770" lon="34.9554900">
<time>2008-04-12T07:11:34.987Z</time>
</trkpt>
<trkpt lat="31.9454900" lon="34.9547680">
<time>2008-04-12T07:11:38.184Z</time>
</trkpt>
<trkpt lat="31.9452580" lon="34.9540470">
<time>2008-04-12T07:11:38.936Z</time>
</trkpt>
<trkpt lat="31.9446410" lon="34.9538680">
<time>2008-04-12T07:11:39.592Z</time>
</trkpt>
<trkpt lat="31.9437940" lon="34.9538700">
<time>2008-04-12T07:11:42.815Z</time>
</trkpt>
<trkpt lat="31.9431010" lon="34.9538720">
<time>2008-04-12T07:11:45.001Z</time>
</trkpt>
<trkpt lat="31.9427920" lon="34.9535110">
<time>2008-04-12T07:11:46.746Z</time>
</trkpt>
<trkpt lat="31.9425610" lon="34.9533320">
<time>2008-04-12T07:11:56.846Z</time>
</trkpt>
<trkpt lat="31.9412510" lon="34.9531550">
<time>2008-04-12T07:11:58.047Z</time>
</trkpt>
<trkpt lat="31.9394020" lon="34.9529790">
<time>2008-04-12T07:11:59.343Z</time>
</trkpt>
<trkpt lat="31.9384780" lon="34.9529820">
<time>2008-04-12T07:12:00.251Z</time>
</trkpt>
<trkpt lat="31.9371680" lon="34.9526240">
<time>2008-04-12T07:12:04.035Z</time>
</trkpt>
<trkpt lat="31.9358590" lon="34.9524470">
<time>2008-04-12T07:12:04.769Z</time>
</trkpt>
<trkpt lat="31.9346260" lon="34.9523600">
<time>2008-04-12T07:12:05.564Z</time>
</trkpt>
<trkpt lat="31.9333940" lon="34.9520930">
<time>2008-04-12T07:12:06.860Z</time>
</trkpt>
<trkpt lat="31.9321620" lon="34.9521870">
<time>2008-04-12T07:12:07.923Z</time>
</trkpt>
<trkpt lat="31.9315450" lon="34.9520980">
<time>2008-04-12T07:12:08.562Z</time>
</trkpt>
<trkpt lat="31.9314670" lon="34.9515560">
<time>2008-04-12T07:12:11.422Z</time>
</trkpt>
<trkpt lat="31.9305420" lon="34.9511080">
<time>2008-04-12T07:12:11.984Z</time>
</trkpt>
<trkpt lat="31.9291560" lon="34.9510210">
<time>2008-04-12T07:12:12.753Z</time>
</trkpt>
<trkpt lat="31.9275380" lon="34.9506650">
<time>2008-04-12T07:12:13.815Z</time>
</trkpt>
<trkpt lat="31.9259970" lon="34.9506690">
<time>2008-04-12T07:12:14.558Z</time>
</trkpt>
<trkpt lat="31.9249190" lon="34.9504910">
<time>2008-04-12T07:12:15.656Z</time>
</trkpt>
<trkpt lat="31.9244570" lon="34.9506730">
<time>2008-04-12T07:12:18.343Z</time>
</trkpt>
<trkpt lat="31.9239960" lon="34.9510360">
<time>2008-04-12T07:12:18.982Z</time>
</trkpt>
<trkpt lat="31.9229160" lon="34.9504070">
<time>2008-04-12T07:12:19.768Z</time>
</trkpt>
<trkpt lat="31.9216820" lon="34.9495980">
<time>2008-04-12T07:12:21.064Z</time>
</trkpt>
<trkpt lat="31.9206040" lon="34.9494200">
<time>2008-04-12T07:12:22.637Z</time>
</trkpt>
<trkpt lat="31.9196800" lon="34.9495130">
<time>2008-04-12T07:12:25.108Z</time>
</trkpt>
<trkpt lat="31.9182950" lon="34.9503290">
<time>2008-04-12T07:12:26.516Z</time>
</trkpt>
<trkpt lat="31.9170650" lon="34.9510550">
<time>2008-04-12T07:12:27.579Z</time>
</trkpt>
<trkpt lat="31.9162190" lon="34.9515990">
<time>2008-04-12T07:12:28.374Z</time>
</trkpt>
<trkpt lat="31.9154490" lon="34.9520530">
<time>2008-04-12T07:12:36.167Z</time>
</trkpt>
<trkpt lat="31.9142960" lon="34.9528690">
<time>2008-04-12T07:12:36.746Z</time>
</trkpt>
<trkpt lat="31.9130670" lon="34.9544070">
<time>2008-04-12T07:12:37.956Z</time>
</trkpt>
<trkpt lat="31.9119890" lon="34.9546810">
<time>2008-04-12T07:12:38.716Z</time>
</trkpt>
<trkpt lat="31.9107560" lon="34.9543230">
<time>2008-04-12T07:12:39.312Z</time>
</trkpt>
<trkpt lat="31.9094450" lon="34.9534240">
<time>2008-04-12T07:12:40.219Z</time>
</trkpt>
<trkpt lat="31.9084420" lon="34.9525240">
<time>2008-04-12T07:12:41.204Z</time>
</trkpt>
<trkpt lat="31.9071310" lon="34.9516250">
<time>2008-04-12T07:12:41.887Z</time>
</trkpt>
<trkpt lat="31.9056660" lon="34.9505460">
<time>2008-04-12T07:12:42.811Z</time>
</trkpt>
<trkpt lat="31.9044330" lon="34.9503690">
<time>2008-04-12T07:12:43.701Z</time>
</trkpt>
<trkpt lat="31.9035090" lon="34.9503710">
<time>2008-04-12T07:12:44.669Z</time>
</trkpt>
<trkpt lat="31.9029690" lon="34.9498310">
<time>2008-04-12T07:12:45.325Z</time>
</trkpt>
<trkpt lat="31.9019670" lon="34.9497440">
<time>2008-04-12T07:12:49.049Z</time>
</trkpt>
<trkpt lat="31.9016610" lon="34.9503770">
<time>2008-04-12T07:12:49.533Z</time>
</trkpt>
<trkpt lat="31.9017390" lon="34.9510990">
<time>2008-04-12T07:12:50.777Z</time>
</trkpt>
<trkpt lat="31.9005830" lon="34.9506500">
<time>2008-04-12T07:12:51.529Z</time>
</trkpt>
<trkpt lat="31.8998110" lon="34.9498400">
<time>2008-04-12T07:12:52.626Z</time>
</trkpt>
<trkpt lat="31.8990390" lon="34.9487590">
<time>2008-04-12T07:12:53.378Z</time>
</trkpt>
<trkpt lat="31.8984200" lon="34.9476770">
<time>2008-04-12T07:12:54.190Z</time>
</trkpt>
<trkpt lat="31.8975710" lon="34.9466870">
<time>2008-04-12T07:12:55.391Z</time>
</trkpt>
<trkpt lat="31.8965680" lon="34.9458770">
<time>2008-04-12T07:12:56.471Z</time>
</trkpt>
<trkpt lat="31.8962580" lon="34.9449760">
<time>2008-04-12T07:12:59.754Z</time>
</trkpt>
<trkpt lat="31.8957960" lon="34.9447060">
<time>2008-04-12T07:13:00.342Z</time>
</trkpt>
<trkpt lat="31.8948710" lon="34.9446180">
<time>2008-04-12T07:13:00.903Z</time>
</trkpt>
<trkpt lat="31.8944110" lon="34.9452520">
<time>2008-04-12T07:13:01.966Z</time>
</trkpt>
<trkpt lat="31.8942590" lon="34.9464260">
<time>2008-04-12T07:13:02.675Z</time>
</trkpt>
<trkpt lat="31.8945690" lon="34.9473270">
<time>2008-04-12T07:13:03.357Z</time>
</trkpt>
<trkpt lat="31.8948020" lon="34.9480490">
<time>2008-04-12T07:13:04.066Z</time>
</trkpt>
<trkpt lat="31.8942660" lon="34.9496750">
<time>2008-04-12T07:13:05.457Z</time>
</trkpt>
<trkpt lat="31.8936540" lon="34.9516630">
<time>2008-04-12T07:13:06.701Z</time>
</trkpt>
<trkpt lat="31.8931930" lon="34.9523860">
<time>2008-04-12T07:13:07.625Z</time>
</trkpt>
<trkpt lat="31.8933490" lon="34.9532890">
<time>2008-04-12T07:13:10.952Z</time>
</trkpt>
<trkpt lat="31.8935830" lon="34.9545520">
<time>2008-04-12T07:13:11.686Z</time>
</trkpt>
<trkpt lat="31.8931990" lon="34.9550940">
<time>2008-04-12T07:13:12.438Z</time>
</trkpt>
<trkpt lat="31.8922750" lon="34.9555480">
<time>2008-04-12T07:13:13.578Z</time>
</trkpt>
<trkpt lat="31.8912760" lon="34.9561830">
<time>2008-04-12T07:13:14.295Z</time>
</trkpt>
<trkpt lat="31.8908920" lon="34.9569060">
<time>2008-04-12T07:13:15.125Z</time>
</trkpt>
<trkpt lat="31.8903530" lon="34.9569080">
<time>2008-04-12T07:13:21.449Z</time>
</trkpt>
<trkpt lat="31.8895820" lon="34.9564590">
<time>2008-04-12T07:13:22.080Z</time>
</trkpt>
<trkpt lat="31.8885800" lon="34.9563710">
<time>2008-04-12T07:13:22.737Z</time>
</trkpt>
<trkpt lat="31.8873490" lon="34.9569160">
<time>2008-04-12T07:13:24.076Z</time>
</trkpt>
<trkpt lat="31.8867340" lon="34.9573690">
<time>2008-04-12T07:13:24.983Z</time>
</trkpt>
<trkpt lat="31.8855040" lon="34.9585460">
<time>2008-04-12T07:13:27.653Z</time>
</trkpt>
<trkpt lat="31.8850420" lon="34.9585470">
<time>2008-04-12T07:13:29.294Z</time>
</trkpt>
<trkpt lat="31.8843480" lon="34.9580070">
<time>2008-04-12T07:13:30.297Z</time>
</trkpt>
<trkpt lat="31.8837320" lon="34.9581900">
<time>2008-04-12T07:13:31.014Z</time>
</trkpt>
<trkpt lat="31.8833480" lon="34.9585520">
<time>2008-04-12T07:13:31.800Z</time>
</trkpt>
<trkpt lat="31.8828880" lon="34.9595460">
<time>2008-04-12T07:13:32.655Z</time>
</trkpt>
<trkpt lat="31.8822740" lon="34.9606310">
<time>2008-04-12T07:13:33.606Z</time>
</trkpt>
<trkpt lat="31.8815050" lon="34.9610840">
<time>2008-04-12T07:13:34.660Z</time>
</trkpt>
<trkpt lat="31.8805810" lon="34.9616280">
<time>2008-04-12T07:13:35.783Z</time>
</trkpt>
<trkpt lat="31.8800430" lon="34.9619900">
<time>2008-04-12T07:13:36.483Z</time>
</trkpt>
<trkpt lat="31.8796590" lon="34.9627140">
<time>2008-04-12T07:13:37.451Z</time>
</trkpt>
<trkpt lat="31.8779650" lon="34.9627180">
<time>2008-04-12T07:13:38.738Z</time>
</trkpt>
<trkpt lat="31.8770410" lon="34.9628110">
<time>2008-04-12T07:13:40.094Z</time>
</trkpt>
<trkpt lat="31.8768080" lon="34.9615480">
<time>2008-04-12T07:14:00.252Z</time>
</trkpt>
<trkpt lat="31.8764190" lon="34.9596540">
<time>2008-04-12T07:14:01.185Z</time>
</trkpt>
<trkpt lat="31.8754890" lon="34.9566780">
<time>2008-04-12T07:14:02.481Z</time>
</trkpt>
<trkpt lat="31.8747910" lon="34.9543330">
<time>2008-04-12T07:14:03.457Z</time>
</trkpt>
<trkpt lat="31.8736300" lon="34.9515390">
<time>2008-04-12T07:14:04.831Z</time>
</trkpt>
<trkpt lat="31.8728560" lon="34.9499160">
<time>2008-04-12T07:14:05.919Z</time>
</trkpt>
<trkpt lat="31.8725460" lon="34.9487440">
<time>2008-04-12T07:14:09.358Z</time>
</trkpt>
<trkpt lat="31.8721580" lon="34.9475720">
<time>2008-04-12T07:14:10.222Z</time>
</trkpt>
<trkpt lat="31.8708450" lon="34.9455900">
<time>2008-04-12T07:14:11.484Z</time>
</trkpt>
<trkpt lat="31.8699240" lon="34.9469470">
<time>2008-04-12T07:14:15.544Z</time>
</trkpt>
<trkpt lat="31.8692330" lon="34.9483020">
<time>2008-04-12T07:14:17.627Z</time>
</trkpt>
<trkpt lat="31.8686190" lon="34.9492070">
<time>2008-04-12T07:14:18.499Z</time>
</trkpt>
<trkpt lat="31.8666890" lon="34.9466850">
<time>2008-04-12T07:14:19.778Z</time>
</trkpt>
<trkpt lat="31.8659160" lon="34.9454240">
<time>2008-04-12T07:14:28.141Z</time>
</trkpt>
<trkpt lat="31.8651420" lon="34.9437120">
<time>2008-04-12T07:14:29.014Z</time>
</trkpt>
<trkpt lat="31.8645200" lon="34.9410960">
<time>2008-04-12T07:14:30.405Z</time>
</trkpt>
<trkpt lat="31.8641300" lon="34.9383900">
<time>2008-04-12T07:14:31.425Z</time>
</trkpt>
<trkpt lat="31.8640500" lon="34.9371270">
<time>2008-04-12T07:14:33.956Z</time>
</trkpt>
<trkpt lat="31.8642010" lon="34.9358630">
<time>2008-04-12T07:14:34.699Z</time>
</trkpt>
<trkpt lat="31.8640440" lon="34.9346010">
<time>2008-04-12T07:14:35.468Z</time>
</trkpt>
<trkpt lat="31.8635800" lon="34.9337000">
<time>2008-04-12T07:14:36.082Z</time>
</trkpt>
<trkpt lat="31.8625000" lon="34.9328000">
<time>2008-04-12T07:14:42.717Z</time>
</trkpt>
<trkpt lat="31.8609560" lon="34.9310000">
<time>2008-04-12T07:14:45.594Z</time>
</trkpt>
<trkpt lat="31.8598750" lon="34.9299210">
<time>2008-04-12T07:14:47.011Z</time>
</trkpt>
<trkpt lat="31.8587950" lon="34.9290220">
<time>2008-04-12T07:14:48.558Z</time>
</trkpt>
<trkpt lat="31.8583320" lon="34.9284820">
<time>2008-04-12T07:19:18.765Z</time>
</trkpt>
<trkpt lat="31.8570180" lon="34.9265010">
<time>2008-04-12T07:19:19.612Z</time>
</trkpt>
<trkpt lat="31.8566270" lon="34.9238850">
<time>2008-04-12T07:19:20.251Z</time>
</trkpt>
<trkpt lat="31.8564640" lon="34.9200960">
<time>2008-04-12T07:19:21.530Z</time>
</trkpt>
<trkpt lat="31.8554630" lon="34.9200090">
<time>2008-04-12T07:19:33.799Z</time>
</trkpt>
<trkpt lat="31.8548440" lon="34.9188380">
<time>2008-04-12T07:19:34.378Z</time>
</trkpt>
<trkpt lat="31.8538410" lon="34.9177580">
<time>2008-04-12T07:19:34.939Z</time>
</trkpt>
<trkpt lat="31.8528370" lon="34.9168590">
<time>2008-04-12T07:19:35.622Z</time>
</trkpt>
<trkpt lat="31.8526060" lon="34.9165890">
<time>2008-04-12T07:19:36.987Z</time>
</trkpt>
<trkpt lat="31.8519880" lon="34.9160500">
<time>2008-04-12T07:20:02.077Z</time>
</trkpt>
<trkpt lat="31.8513700" lon="34.9153300">
<time>2008-04-12T07:20:02.855Z</time>
</trkpt>
<trkpt lat="31.8501360" lon="34.9143410">
<time>2008-04-12T07:20:03.762Z</time>
</trkpt>
<trkpt lat="31.8499810" lon="34.9138000">
<time>2008-04-12T07:20:04.341Z</time>
</trkpt>
<trkpt lat="31.8499010" lon="34.9126280">
<time>2008-04-12T07:20:04.808Z</time>
</trkpt>
<trkpt lat="31.8499000" lon="34.9120860">
<time>2008-04-12T07:20:05.438Z</time>
</trkpt>
<trkpt lat="31.8491280" lon="34.9115470">
<time>2008-04-12T07:20:06.294Z</time>
</trkpt>
<trkpt lat="31.8481270" lon="34.9115510">
<time>2008-04-12T07:20:06.924Z</time>
</trkpt>
<trkpt lat="31.8473560" lon="34.9111920">
<time>2008-04-12T07:20:07.780Z</time>
</trkpt>
<trkpt lat="31.8466600" lon="34.9101120">
<time>2008-04-12T07:20:08.592Z</time>
</trkpt>
<trkpt lat="31.8460420" lon="34.9090310">
<time>2008-04-12T07:20:09.249Z</time>
</trkpt>
<trkpt lat="31.8450380" lon="34.9079520">
<time>2008-04-12T07:20:10.389Z</time>
</trkpt>
<trkpt lat="31.8444960" lon="34.9069610">
<time>2008-04-12T07:20:11.063Z</time>
</trkpt>
<trkpt lat="31.8431060" lon="34.9050710">
<time>2008-04-12T07:20:12.610Z</time>
</trkpt>
<trkpt lat="31.8424890" lon="34.9048930">
<time>2008-04-12T07:20:16.342Z</time>
</trkpt>
<trkpt lat="31.8420250" lon="34.9039020">
<time>2008-04-12T07:20:16.964Z</time>
</trkpt>
<trkpt lat="31.8420220" lon="34.9029090">
<time>2008-04-12T07:20:17.768Z</time>
</trkpt>
<trkpt lat="31.8410960" lon="34.9022810">
<time>2008-04-12T07:20:22.140Z</time>
</trkpt>
<trkpt lat="31.8401710" lon="34.9016530">
<time>2008-04-12T07:20:22.736Z</time>
</trkpt>
<trkpt lat="31.8377810" lon="34.9007580">
<time>2008-04-12T07:20:24.325Z</time>
</trkpt>
<trkpt lat="31.8366250" lon="34.9002210">
<time>2008-04-12T07:20:24.922Z</time>
</trkpt>
<trkpt lat="31.8355450" lon="34.8995930">
<time>2008-04-12T07:20:25.518Z</time>
</trkpt>
<trkpt lat="31.8346190" lon="34.8989650">
<time>2008-04-12T07:20:26.356Z</time>
</trkpt>
<trkpt lat="31.8335400" lon="34.8986080">
<time>2008-04-12T07:20:34.503Z</time>
</trkpt>
<trkpt lat="31.8316920" lon="34.8986140">
<time>2008-04-12T07:20:35.341Z</time>
</trkpt>
<trkpt lat="31.8300730" lon="34.8981680">
<time>2008-04-12T07:20:36.188Z</time>
</trkpt>
<trkpt lat="31.8289160" lon="34.8973600">
<time>2008-04-12T07:20:36.732Z</time>
</trkpt>
<trkpt lat="31.8276060" lon="34.8968240">
<time>2008-04-12T07:20:37.657Z</time>
</trkpt>
<trkpt lat="31.8266040" lon="34.8967370">
<time>2008-04-12T07:20:40.309Z</time>
</trkpt>
<trkpt lat="31.8256800" lon="34.8968300">
<time>2008-04-12T07:20:41.528Z</time>
</trkpt>
<trkpt lat="31.8245240" lon="34.8965630">
<time>2008-04-12T07:20:58.574Z</time>
</trkpt>
<trkpt lat="31.8230600" lon="34.8959370">
<time>2008-04-12T07:21:00.285Z</time>
</trkpt>
<trkpt lat="31.8219810" lon="34.8957600">
<time>2008-04-12T07:21:00.933Z</time>
</trkpt>
<trkpt lat="31.8210570" lon="34.8957630">
<time>2008-04-12T07:21:01.417Z</time>
</trkpt>
<trkpt lat="31.8200540" lon="34.8951350">
<time>2008-04-12T07:21:02.514Z</time>
</trkpt>
<trkpt lat="31.8195930" lon="34.8955880">
<time>2008-04-12T07:21:05.124Z</time>
</trkpt>
<trkpt lat="31.8184380" lon="34.8955020">
<time>2008-04-12T07:21:06.013Z</time>
</trkpt>
<trkpt lat="31.8169750" lon="34.8955970">
<time>2008-04-12T07:21:07.016Z</time>
</trkpt>
<trkpt lat="31.8161280" lon="34.8957800">
<time>2008-04-12T07:21:08.035Z</time>
</trkpt>
<trkpt lat="31.8153590" lon="34.8965040">
<time>2008-04-12T07:21:08.752Z</time>
</trkpt>
<trkpt lat="31.8148990" lon="34.8972270">
<time>2008-04-12T07:21:09.608Z</time>
</trkpt>
<trkpt lat="31.8142850" lon="34.8981310">
<time>2008-04-12T07:21:11.984Z</time>
</trkpt>
<trkpt lat="31.8132100" lon="34.8992170">
<time>2008-04-12T07:21:12.735Z</time>
</trkpt>
<trkpt lat="31.8119810" lon="34.9006650">
<time>2008-04-12T07:21:13.738Z</time>
</trkpt>
<trkpt lat="31.8112120" lon="34.9010280">
<time>2008-04-12T07:21:16.813Z</time>
</trkpt>
<trkpt lat="31.8109020" lon="34.9001270">
<time>2008-04-12T07:22:04.169Z</time>
</trkpt>
<trkpt lat="31.8102770" lon="34.8965220">
<time>2008-04-12T07:22:16.144Z</time>
</trkpt>
<trkpt lat="31.8102710" lon="34.8944470">
<time>2008-04-12T07:22:16.956Z</time>
</trkpt>
<trkpt lat="31.8104230" lon="34.8933650">
<time>2008-04-12T07:22:18.892Z</time>
</trkpt>
<trkpt lat="31.8105720" lon="34.8916500">
<time>2008-04-12T07:22:23.765Z</time>
</trkpt>
<trkpt lat="31.8107940" lon="34.8878620">
<time>2008-04-12T07:22:24.750Z</time>
</trkpt>
<trkpt lat="31.8105520" lon="34.8838040">
<time>2008-04-12T07:22:25.657Z</time>
</trkpt>
<trkpt lat="31.8102390" lon="34.8816410">
<time>2008-04-12T07:22:26.357Z</time>
</trkpt>
<trkpt lat="31.8099290" lon="34.8811010">
<time>2008-04-12T07:22:50.704Z</time>
</trkpt>
<trkpt lat="31.8094630" lon="34.8792990">
<time>2008-04-12T07:22:51.732Z</time>
</trkpt>
<trkpt lat="31.8091520" lon="34.8782180">
<time>2008-04-12T07:22:52.501Z</time>
</trkpt>
<trkpt lat="31.8088390" lon="34.8765950">
<time>2008-04-12T07:22:53.219Z</time>
</trkpt>
<trkpt lat="31.8088350" lon="34.8750620">
<time>2008-04-12T07:22:55.059Z</time>
</trkpt>
<trkpt lat="31.8086730" lon="34.8720870">
<time>2008-04-12T07:22:56.156Z</time>
</trkpt>
<trkpt lat="31.8092100" lon="34.8711830">
<time>2008-04-12T07:22:57.219Z</time>
</trkpt>
<trkpt lat="31.8101240" lon="34.8673920">
<time>2008-04-12T07:22:58.325Z</time>
</trkpt>
<trkpt lat="31.8103480" lon="34.8646850">
<time>2008-04-12T07:22:59.388Z</time>
</trkpt>
<trkpt lat="31.8101840" lon="34.8612590">
<time>2008-04-12T07:23:00.372Z</time>
</trkpt>
<trkpt lat="31.8099460" lon="34.8585540">
<time>2008-04-12T07:23:01.591Z</time>
</trkpt>
<trkpt lat="31.8095520" lon="34.8553990">
<time>2008-04-12T07:23:02.904Z</time>
</trkpt>
<trkpt lat="31.8092380" lon="34.8535060">
<time>2008-04-12T07:23:03.794Z</time>
</trkpt>
<trkpt lat="31.8086160" lon="34.8511640">
<time>2008-04-12T07:23:05.090Z</time>
</trkpt>
<trkpt lat="31.8076860" lon="34.8491830">
<time>2008-04-12T07:23:06.109Z</time>
</trkpt>
<trkpt lat="31.8065220" lon="34.8463020">
<time>2008-04-12T07:23:08.200Z</time>
</trkpt>
<trkpt lat="31.8060590" lon="34.8458530">
<time>2008-04-12T07:23:09.453Z</time>
</trkpt>
<trkpt lat="31.8048170" lon="34.8423400">
<time>2008-04-12T07:23:10.732Z</time>
</trkpt>
<trkpt lat="31.8036560" lon="34.8403610">
<time>2008-04-12T07:23:11.674Z</time>
</trkpt>
<trkpt lat="31.8028830" lon="34.8394620">
<time>2008-04-12T07:23:12.780Z</time>
</trkpt>
<trkpt lat="31.8014930" lon="34.8382050">
<time>2008-04-12T07:23:14.637Z</time>
</trkpt>
<trkpt lat="31.8010300" lon="34.8378470">
<time>2008-04-12T07:23:36.419Z</time>
</trkpt>
<trkpt lat="31.7993300" lon="34.8360500">
<time>2008-04-12T07:23:37.905Z</time>
</trkpt>
<trkpt lat="31.7984860" lon="34.8369550">
<time>2008-04-12T07:23:39.641Z</time>
</trkpt>
<trkpt lat="31.7973330" lon="34.8378620">
<time>2008-04-12T07:23:40.393Z</time>
</trkpt>
<trkpt lat="31.7960270" lon="34.8387690">
<time>2008-04-12T07:23:41.136Z</time>
</trkpt>
<trkpt lat="31.7934850" lon="34.8388690">
<time>2008-04-12T07:23:42.285Z</time>
</trkpt>
<trkpt lat="31.7913270" lon="34.8383370">
<time>2008-04-12T07:23:43.408Z</time>
</trkpt>
<trkpt lat="31.7888600" lon="34.8374450">
<time>2008-04-12T07:23:44.575Z</time>
</trkpt>
<trkpt lat="31.7871640" lon="34.8368200">
<time>2008-04-12T07:23:45.793Z</time>
</trkpt>
<trkpt lat="31.7850820" lon="34.8359270">
<time>2008-04-12T07:23:47.080Z</time>
</trkpt>
<trkpt lat="31.7836170" lon="34.8353920">
<time>2008-04-12T07:23:48.160Z</time>
</trkpt>
<trkpt lat="31.7828460" lon="34.8350350">
<time>2008-04-12T07:23:56.956Z</time>
</trkpt>
<trkpt lat="31.7815350" lon="34.8342290">
<time>2008-04-12T07:23:57.673Z</time>
</trkpt>
<trkpt lat="31.7808400" lon="34.8336900">
<time>2008-04-12T07:23:58.330Z</time>
</trkpt>
<trkpt lat="31.7809140" lon="34.8327890">
<time>2008-04-12T07:23:59.064Z</time>
</trkpt>
<trkpt lat="31.7792940" lon="34.8318030">
<time>2008-04-12T07:23:59.997Z</time>
</trkpt>
<trkpt lat="31.7782140" lon="34.8312670">
<time>2008-04-12T07:24:00.827Z</time>
</trkpt>
<trkpt lat="31.7785180" lon="34.8300030">
<time>2008-04-12T07:24:01.691Z</time>
</trkpt>
<trkpt lat="31.7789770" lon="34.8288300">
<time>2008-04-12T07:24:02.425Z</time>
</trkpt>
<trkpt lat="31.7798220" lon="34.8281950">
<time>2008-04-12T07:24:03.185Z</time>
</trkpt>
<trkpt lat="31.7802060" lon="34.8279230">
<time>2008-04-12T07:24:04.058Z</time>
</trkpt>
<trkpt lat="31.7810500" lon="34.8267470">
<time>2008-04-12T07:24:06.097Z</time>
</trkpt>
<trkpt lat="31.7814320" lon="34.8257540">
<time>2008-04-12T07:24:06.892Z</time>
</trkpt>
<trkpt lat="31.7812000" lon="34.8253040">
<time>2008-04-12T07:24:07.644Z</time>
</trkpt>
<trkpt lat="31.7807350" lon="34.8245850">
<time>2008-04-12T07:24:08.611Z</time>
</trkpt>
<trkpt lat="31.7801950" lon="34.8242260">
<time>2008-04-12T07:24:09.423Z</time>
</trkpt>
<trkpt lat="31.7778040" lon="34.8231550">
<time>2008-04-12T07:24:11.748Z</time>
</trkpt>
<trkpt lat="31.7763400" lon="34.8226200">
<time>2008-04-12T07:24:12.845Z</time>
</trkpt>
<trkpt lat="31.7749510" lon="34.8218140">
<time>2008-04-12T07:24:13.908Z</time>
</trkpt>
<trkpt lat="31.7741800" lon="34.8215470">
<time>2008-04-12T07:24:16.940Z</time>
</trkpt>
<trkpt lat="31.7728680" lon="34.8206510">
<time>2008-04-12T07:24:21.061Z</time>
</trkpt>
<trkpt lat="31.7717870" lon="34.8196640">
<time>2008-04-12T07:24:21.917Z</time>
</trkpt>
<trkpt lat="31.7709360" lon="34.8185860">
<time>2008-04-12T07:24:22.746Z</time>
</trkpt>
<trkpt lat="31.7705480" lon="34.8175960">
<time>2008-04-12T07:24:23.360Z</time>
</trkpt>
<trkpt lat="31.7704690" lon="34.8169650">
<time>2008-04-12T07:24:24.561Z</time>
</trkpt>
<trkpt lat="31.7704650" lon="34.8157930">
<time>2008-04-12T07:24:25.217Z</time>
</trkpt>
<trkpt lat="31.7708490" lon="34.8154310">
<time>2008-04-12T07:24:25.857Z</time>
</trkpt>
</trkseg>
</trk>
<trk>
 <name>day05</name>
 <desc>12/4/2008 10:47:10 PM</desc>
<trkseg>
<trkpt lat="31.7706180" lon="34.8154320">
<time>2008-04-12T19:47:10.985Z</time>
</trkpt>
<trkpt lat="31.7702370" lon="34.8166950">
<time>2008-04-12T19:47:11.720Z</time>
</trkpt>
<trkpt lat="31.7705500" lon="34.8181370">
<time>2008-04-12T19:47:12.437Z</time>
</trkpt>
<trkpt lat="31.7710150" lon="34.8192160">
<time>2008-04-12T19:47:13.093Z</time>
</trkpt>
<trkpt lat="31.7709410" lon="34.8201180">
<time>2008-04-12T19:47:16.480Z</time>
</trkpt>
<trkpt lat="31.7700980" lon="34.8214740">
<time>2008-04-12T19:47:17.154Z</time>
</trkpt>
<trkpt lat="31.7693310" lon="34.8225590">
<time>2008-04-12T19:47:18.079Z</time>
</trkpt>
<trkpt lat="31.7674810" lon="34.8219360">
<time>2008-04-12T19:47:21.941Z</time>
</trkpt>
<trkpt lat="31.7645500" lon="34.8206860">
<time>2008-04-12T19:47:23.081Z</time>
</trkpt>
<trkpt lat="31.7620830" lon="34.8197050">
<time>2008-04-12T19:47:25.699Z</time>
</trkpt>
<trkpt lat="31.7608480" lon="34.8188990">
<time>2008-04-12T19:47:32.326Z</time>
</trkpt>
<trkpt lat="31.7579950" lon="34.8177390">
<time>2008-04-12T19:47:33.294Z</time>
</trkpt>
<trkpt lat="31.7569150" lon="34.8170230">
<time>2008-04-12T19:47:34.261Z</time>
</trkpt>
<trkpt lat="31.7550650" lon="34.8164900">
<time>2008-04-12T19:47:35.264Z</time>
</trkpt>
<trkpt lat="31.7542140" lon="34.8155020">
<time>2008-04-12T19:47:38.296Z</time>
</trkpt>
<trkpt lat="31.7499730" lon="34.8138070">
<time>2008-04-12T19:47:39.782Z</time>
</trkpt>
<trkpt lat="31.7437240" lon="34.8103190">
<time>2008-04-12T19:47:41.657Z</time>
</trkpt>
<trkpt lat="31.7417170" lon="34.8088860">
<time>2008-04-12T19:47:43.394Z</time>
</trkpt>
<trkpt lat="31.7397120" lon="34.8079030">
<time>2008-04-12T19:47:44.439Z</time>
</trkpt>
<trkpt lat="31.7371660" lon="34.8066530">
<time>2008-04-12T19:47:45.658Z</time>
</trkpt>
<trkpt lat="31.7350830" lon="34.8055810">
<time>2008-04-12T19:47:46.660Z</time>
</trkpt>
<trkpt lat="31.7341580" lon="34.8051340">
<time>2008-04-12T19:47:47.636Z</time>
</trkpt>
<trkpt lat="31.7318530" lon="34.8070360">
<time>2008-04-12T19:47:50.297Z</time>
</trkpt>
<trkpt lat="31.7286260" lon="34.8093030">
<time>2008-04-12T19:47:51.498Z</time>
</trkpt>
<trkpt lat="31.7278580" lon="34.8099370">
<time>2008-04-12T19:47:52.457Z</time>
</trkpt>
<trkpt lat="31.7270910" lon="34.8111120">
<time>2008-04-12T19:47:53.200Z</time>
</trkpt>
<trkpt lat="31.7254770" lon="34.8122000">
<time>2008-04-12T19:47:54.263Z</time>
</trkpt>
<trkpt lat="31.7239370" lon="34.8122970">
<time>2008-04-12T19:47:55.343Z</time>
</trkpt>
<trkpt lat="31.7227810" lon="34.8120320">
<time>2008-04-12T19:47:56.095Z</time>
</trkpt>
<trkpt lat="31.7211650" lon="34.8124890">
<time>2008-04-12T19:47:57.391Z</time>
</trkpt>
<trkpt lat="31.7197040" lon="34.8131260">
<time>2008-04-12T19:47:59.153Z</time>
</trkpt>
<trkpt lat="31.7180120" lon="34.8139440">
<time>2008-04-12T19:48:00.829Z</time>
</trkpt>
<trkpt lat="31.7160890" lon="34.8144930">
<time>2008-04-12T19:48:21.185Z</time>
</trkpt>
<trkpt lat="31.7150870" lon="34.8144970">
<time>2008-04-12T19:48:23.172Z</time>
</trkpt>
<trkpt lat="31.7141600" lon="34.8136000">
<time>2008-04-12T19:48:23.855Z</time>
</trkpt>
<trkpt lat="31.7130790" lon="34.8127040">
<time>2008-04-12T19:48:24.564Z</time>
</trkpt>
<trkpt lat="31.7120770" lon="34.8121680">
<time>2008-04-12T19:50:36.012Z</time>
</trkpt>
<trkpt lat="31.7122270" lon="34.8110860">
<time>2008-04-12T19:50:36.816Z</time>
</trkpt>
<trkpt lat="31.7113780" lon="34.8103690">
<time>2008-04-12T19:50:37.404Z</time>
</trkpt>
<trkpt lat="31.7102190" lon="34.8092930">
<time>2008-04-12T19:50:37.956Z</time>
</trkpt>
<trkpt lat="31.7102130" lon="34.8074910">
<time>2008-04-12T19:50:38.769Z</time>
</trkpt>
<trkpt lat="31.7102090" lon="34.8062300">
<time>2008-04-12T19:50:39.503Z</time>
</trkpt>
<trkpt lat="31.7078210" lon="34.8059700">
<time>2008-04-12T19:50:40.548Z</time>
</trkpt>
<trkpt lat="31.7034500" lon="34.8118440">
<time>2008-04-12T19:50:42.017Z</time>
</trkpt>
<trkpt lat="31.7001330" lon="34.8100570">
<time>2008-04-12T19:50:43.408Z</time>
</trkpt>
<trkpt lat="31.6982830" lon="34.8096140">
<time>2008-04-12T19:50:46.199Z</time>
</trkpt>
<trkpt lat="31.6968950" lon="34.8092600">
<time>2008-04-12T19:50:52.843Z</time>
</trkpt>
<trkpt lat="31.6954380" lon="34.8111580">
<time>2008-04-12T19:50:53.768Z</time>
</trkpt>
<trkpt lat="31.6922120" lon="34.8138740">
<time>2008-04-12T19:50:56.800Z</time>
</trkpt>
<trkpt lat="31.6906680" lon="34.8126200">
<time>2008-04-12T19:50:57.733Z</time>
</trkpt>
<trkpt lat="31.6892790" lon="34.8117250">
<time>2008-04-12T19:50:58.425Z</time>
</trkpt>
<trkpt lat="31.6882750" lon="34.8110990">
<time>2008-04-12T19:50:59.081Z</time>
</trkpt>
<trkpt lat="31.6865090" lon="34.8127280">
<time>2008-04-12T19:51:00.498Z</time>
</trkpt>
<trkpt lat="31.6860450" lon="34.8120990">
<time>2008-04-12T19:51:01.967Z</time>
</trkpt>
<trkpt lat="31.6849630" lon="34.8110230">
<time>2008-04-12T19:51:02.606Z</time>
</trkpt>
<trkpt lat="31.6844220" lon="34.8103950">
<time>2008-04-12T19:51:03.246Z</time>
</trkpt>
<trkpt lat="31.6838800" lon="34.8093160">
<time>2008-04-12T19:51:03.894Z</time>
</trkpt>
<trkpt lat="31.6832600" lon="34.8082380">
<time>2008-04-12T19:51:04.594Z</time>
</trkpt>
<trkpt lat="31.6822570" lon="34.8077020">
<time>2008-04-12T19:51:05.138Z</time>
</trkpt>
<trkpt lat="31.6806370" lon="34.8068090">
<time>2008-04-12T19:51:06.175Z</time>
</trkpt>
<trkpt lat="31.6793240" lon="34.8055530">
<time>2008-04-12T19:51:06.840Z</time>
</trkpt>
<trkpt lat="31.6781640" lon="34.8039370">
<time>2008-04-12T19:51:07.609Z</time>
</trkpt>
<trkpt lat="31.6770040" lon="34.8025920">
<time>2008-04-12T19:51:09.423Z</time>
</trkpt>
<trkpt lat="31.6754610" lon="34.8016080">
<time>2008-04-12T19:52:48.636Z</time>
</trkpt>
<trkpt lat="31.6745330" lon="34.8007110">
<time>2008-04-12T19:52:49.405Z</time>
</trkpt>
<trkpt lat="31.6740690" lon="34.7999930">
<time>2008-04-12T19:52:50.045Z</time>
</trkpt>
<trkpt lat="31.6739880" lon="34.7988230">
<time>2008-04-12T19:52:50.589Z</time>
</trkpt>
<trkpt lat="31.6735250" lon="34.7983740">
<time>2008-04-12T19:52:51.168Z</time>
</trkpt>
<trkpt lat="31.6727550" lon="34.7983780">
<time>2008-04-12T19:52:52.265Z</time>
</trkpt>
<trkpt lat="31.6723700" lon="34.7983790">
<time>2008-04-12T19:52:53.613Z</time>
</trkpt>
<trkpt lat="31.6718290" lon="34.7978420">
<time>2008-04-12T19:52:54.987Z</time>
</trkpt>
<trkpt lat="31.6706700" lon="34.7967660">
<time>2008-04-12T19:53:01.752Z</time>
</trkpt>
<trkpt lat="31.6702100" lon="34.7973980">
<time>2008-04-12T19:53:04.111Z</time>
</trkpt>
<trkpt lat="31.6695180" lon="34.7978520">
<time>2008-04-12T19:53:04.716Z</time>
</trkpt>
<trkpt lat="31.6684400" lon="34.7979470">
<time>2008-04-12T19:53:05.467Z</time>
</trkpt>
<trkpt lat="31.6676710" lon="34.7982200">
<time>2008-04-12T19:53:06.063Z</time>
</trkpt>
<trkpt lat="31.6672110" lon="34.7987620">
<time>2008-04-12T19:53:06.996Z</time>
</trkpt>
<trkpt lat="31.6658180" lon="34.7967880">
<time>2008-04-12T19:53:08.284Z</time>
</trkpt>
<trkpt lat="31.6648930" lon="34.7964320">
<time>2008-04-12T19:53:10.046Z</time>
</trkpt>
<trkpt lat="31.6639680" lon="34.7962560">
<time>2008-04-12T19:53:11.014Z</time>
</trkpt>
<trkpt lat="31.6628910" lon="34.7966210">
<time>2008-04-12T19:53:11.939Z</time>
</trkpt>
<trkpt lat="31.6620460" lon="34.7972550">
<time>2008-04-12T19:53:12.578Z</time>
</trkpt>
<trkpt lat="31.6604300" lon="34.7976220">
<time>2008-04-12T19:53:13.779Z</time>
</trkpt>
<trkpt lat="31.6591970" lon="34.7974470">
<time>2008-04-12T19:53:14.608Z</time>
</trkpt>
<trkpt lat="31.6582720" lon="34.7973610">
<time>2008-04-12T19:53:24.717Z</time>
</trkpt>
<trkpt lat="31.6577330" lon="34.7971840">
<time>2008-04-12T19:53:25.356Z</time>
</trkpt>
<trkpt lat="31.6567320" lon="34.7973680">
<time>2008-04-12T19:53:25.996Z</time>
</trkpt>
<trkpt lat="31.6530370" lon="34.7980150">
<time>2008-04-12T19:54:03.269Z</time>
</trkpt>
<trkpt lat="31.6508830" lon="34.7985650">
<time>2008-04-12T19:54:05.144Z</time>
</trkpt>
<trkpt lat="31.6487270" lon="34.7987540">
<time>2008-04-12T19:54:06.846Z</time>
</trkpt>
<trkpt lat="31.6464160" lon="34.7985840">
<time>2008-04-12T19:54:07.874Z</time>
</trkpt>
<trkpt lat="31.6451070" lon="34.7985900">
<time>2008-04-12T19:54:09.481Z</time>
</trkpt>
<trkpt lat="31.6437210" lon="34.7989560">
<time>2008-04-12T19:54:11.002Z</time>
</trkpt>
<trkpt lat="31.6427990" lon="34.7995910">
<time>2008-04-12T19:54:21.266Z</time>
</trkpt>
<trkpt lat="31.6419510" lon="34.7992340">
<time>2008-04-12T19:54:22.329Z</time>
</trkpt>
<trkpt lat="31.6414910" lon="34.7997770">
<time>2008-04-12T19:54:23.003Z</time>
</trkpt>
<trkpt lat="31.6411840" lon="34.8002280">
<time>2008-04-12T19:54:24.065Z</time>
</trkpt>
<trkpt lat="31.6399520" lon="34.8004130">
<time>2008-04-12T19:54:24.955Z</time>
</trkpt>
<trkpt lat="31.6387960" lon="34.7999680">
<time>2008-04-12T19:54:26.122Z</time>
</trkpt>
<trkpt lat="31.6365600" lon="34.7994380">
<time>2008-04-12T19:54:34.027Z</time>
</trkpt>
<trkpt lat="31.6334000" lon="34.7987320">
<time>2008-04-12T19:54:35.185Z</time>
</trkpt>
<trkpt lat="31.6319370" lon="34.7985580">
<time>2008-04-12T19:54:35.997Z</time>
</trkpt>
<trkpt lat="31.6304720" lon="34.7982950">
<time>2008-04-12T19:54:37.060Z</time>
</trkpt>
<trkpt lat="31.6305520" lon="34.7991050">
<time>2008-04-12T19:55:54.984Z</time>
</trkpt>
<trkpt lat="31.6308670" lon="34.8013540">
<time>2008-04-12T19:55:56.012Z</time>
</trkpt>
<trkpt lat="31.6310270" lon="34.8031530">
<time>2008-04-12T19:55:57.170Z</time>
</trkpt>
<trkpt lat="31.6304890" lon="34.8033360">
<time>2008-04-12T19:55:59.218Z</time>
</trkpt>
<trkpt lat="31.6284100" lon="34.8036150">
<time>2008-04-12T19:56:00.652Z</time>
</trkpt>
<trkpt lat="31.6266410" lon="34.8042530">
<time>2008-04-12T19:56:01.438Z</time>
</trkpt>
<trkpt lat="31.6249490" lon="34.8050700">
<time>2008-04-12T19:56:02.596Z</time>
</trkpt>
<trkpt lat="31.6239500" lon="34.8057040">
<time>2008-04-12T19:56:03.356Z</time>
</trkpt>
<trkpt lat="31.6231040" lon="34.8059780">
<time>2008-04-12T19:56:04.341Z</time>
</trkpt>
<trkpt lat="31.6216410" lon="34.8063440">
<time>2008-04-12T19:56:05.637Z</time>
</trkpt>
<trkpt lat="31.6211750" lon="34.8049960">
<time>2008-04-12T19:56:47.204Z</time>
</trkpt>
<trkpt lat="31.6200880" lon="34.8022110">
<time>2008-04-12T19:56:48.111Z</time>
</trkpt>
<trkpt lat="31.6190010" lon="34.7996060">
<time>2008-04-12T19:56:49.044Z</time>
</trkpt>
<trkpt lat="31.6185350" lon="34.7984380">
<time>2008-04-12T19:56:49.684Z</time>
</trkpt>
<trkpt lat="31.6179170" lon="34.7979000">
<time>2008-04-12T19:56:50.254Z</time>
</trkpt>
<trkpt lat="31.6169940" lon="34.7980850">
<time>2008-04-12T19:56:50.798Z</time>
</trkpt>
<trkpt lat="31.6148380" lon="34.7982740">
<time>2008-04-12T19:56:51.714Z</time>
</trkpt>
<trkpt lat="31.6136830" lon="34.7984590">
<time>2008-04-12T19:56:52.518Z</time>
</trkpt>
<trkpt lat="31.6128360" lon="34.7982830">
<time>2008-04-12T19:56:53.425Z</time>
</trkpt>
<trkpt lat="31.6117560" lon="34.7979280">
<time>2008-04-12T19:56:54.168Z</time>
</trkpt>
<trkpt lat="31.6109850" lon="34.7974810">
<time>2008-04-12T19:56:54.876Z</time>
</trkpt>
<trkpt lat="31.6094530" lon="34.8000980">
<time>2008-04-12T19:56:56.363Z</time>
</trkpt>
<trkpt lat="31.6082260" lon="34.8017230">
<time>2008-04-12T19:56:57.607Z</time>
</trkpt>
<trkpt lat="31.6069980" lon="34.8031680">
<time>2008-04-12T19:57:00.156Z</time>
</trkpt>
<trkpt lat="31.6057700" lon="34.8044340">
<time>2008-04-12T19:57:00.968Z</time>
</trkpt>
<trkpt lat="31.6046180" lon="34.8053380">
<time>2008-04-12T19:57:01.719Z</time>
</trkpt>
<trkpt lat="31.6035410" lon="34.8058830">
<time>2008-04-12T19:57:02.843Z</time>
</trkpt>
<trkpt lat="31.6030010" lon="34.8057050">
<time>2008-04-12T19:57:27.562Z</time>
</trkpt>
<trkpt lat="31.6020770" lon="34.8055290">
<time>2008-04-12T19:57:28.261Z</time>
</trkpt>
<trkpt lat="31.6013050" lon="34.8051730">
<time>2008-04-12T19:57:29.281Z</time>
</trkpt>
<trkpt lat="31.6013030" lon="34.8044530">
<time>2008-04-12T19:57:33.143Z</time>
</trkpt>
<trkpt lat="31.6010710" lon="34.8040940">
<time>2008-04-12T19:57:33.938Z</time>
</trkpt>
<trkpt lat="31.6005320" lon="34.8042760">
<time>2008-04-12T19:57:34.672Z</time>
</trkpt>
<trkpt lat="31.5993780" lon="34.8046410">
<time>2008-04-12T19:57:35.735Z</time>
</trkpt>
<trkpt lat="31.5988410" lon="34.8051840">
<time>2008-04-12T19:57:36.487Z</time>
</trkpt>
<trkpt lat="31.5985340" lon="34.8056350">
<time>2008-04-12T19:57:37.247Z</time>
</trkpt>
<trkpt lat="31.5983820" lon="34.8063550">
<time>2008-04-12T19:57:39.580Z</time>
</trkpt>
<trkpt lat="31.5979990" lon="34.8069870">
<time>2008-04-12T19:57:40.236Z</time>
</trkpt>
<trkpt lat="31.5970000" lon="34.8077110">
<time>2008-04-12T19:57:41.109Z</time>
</trkpt>
<trkpt lat="31.5963860" lon="34.8081640">
<time>2008-04-12T19:58:05.094Z</time>
</trkpt>
<trkpt lat="31.5955390" lon="34.8082570">
<time>2008-04-12T19:58:25.113Z</time>
</trkpt>
<trkpt lat="31.5947670" lon="34.8079010">
<time>2008-04-12T19:58:25.674Z</time>
</trkpt>
<trkpt lat="31.5940730" lon="34.8075440">
<time>2008-04-12T19:58:26.391Z</time>
</trkpt>
<trkpt lat="31.5931520" lon="34.8086270">
<time>2008-04-12T19:58:27.324Z</time>
</trkpt>
<trkpt lat="31.5920740" lon="34.8087220">
<time>2008-04-12T19:58:28.128Z</time>
</trkpt>
<trkpt lat="31.5916130" lon="34.8088140">
<time>2008-04-12T19:58:29.277Z</time>
</trkpt>
<trkpt lat="31.5906900" lon="34.8092680">
<time>2008-04-12T19:58:30.081Z</time>
</trkpt>
<trkpt lat="31.5897680" lon="34.8099020">
<time>2008-04-12T19:58:30.815Z</time>
</trkpt>
<trkpt lat="31.5889990" lon="34.8102650">
<time>2008-04-12T19:58:34.340Z</time>
</trkpt>
<trkpt lat="31.5884600" lon="34.8104470">
<time>2008-04-12T19:58:38.263Z</time>
</trkpt>
<trkpt lat="31.5873050" lon="34.8106320">
<time>2008-04-12T19:58:38.937Z</time>
</trkpt>
<trkpt lat="31.5859960" lon="34.8106380">
<time>2008-04-12T19:58:40.388Z</time>
</trkpt>
<trkpt lat="31.5863030" lon="34.8101860">
<time>2008-04-12T19:58:56.562Z</time>
</trkpt>
<trkpt lat="31.5856860" lon="34.8099190">
<time>2008-04-12T19:58:57.253Z</time>
</trkpt>
<trkpt lat="31.5848390" lon="34.8100130">
<time>2008-04-12T19:58:57.936Z</time>
</trkpt>
<trkpt lat="31.5841480" lon="34.8106460">
<time>2008-04-12T19:58:58.809Z</time>
</trkpt>
<trkpt lat="31.5836100" lon="34.8110980">
<time>2008-04-12T19:58:59.422Z</time>
</trkpt>
<trkpt lat="31.5823780" lon="34.8110130">
<time>2008-04-12T19:59:02.377Z</time>
</trkpt>
<trkpt lat="31.5817630" lon="34.8113760">
<time>2008-04-12T19:59:03.863Z</time>
</trkpt>
<trkpt lat="31.5813010" lon="34.8116470">
<time>2008-04-12T19:59:14.456Z</time>
</trkpt>
<trkpt lat="31.5799940" lon="34.8121930">
<time>2008-04-12T19:59:15.363Z</time>
</trkpt>
<trkpt lat="31.5781480" lon="34.8130100">
<time>2008-04-12T19:59:16.737Z</time>
</trkpt>
<trkpt lat="31.5772260" lon="34.8137340">
<time>2008-04-12T19:59:22.690Z</time>
</trkpt>
<trkpt lat="31.5764570" lon="34.8142770">
<time>2008-04-12T19:59:23.519Z</time>
</trkpt>
<trkpt lat="31.5751450" lon="34.8133830">
<time>2008-04-12T19:59:24.392Z</time>
</trkpt>
<trkpt lat="31.5740650" lon="34.8128480">
<time>2008-04-12T19:59:25.282Z</time>
</trkpt>
<trkpt lat="31.5733700" lon="34.8121310">
<time>2008-04-12T19:59:28.513Z</time>
</trkpt>
<trkpt lat="31.5726780" lon="34.8125840">
<time>2008-04-12T19:59:29.515Z</time>
</trkpt>
<trkpt lat="31.5721400" lon="34.8129460">
<time>2008-04-12T19:59:30.129Z</time>
</trkpt>
<trkpt lat="31.5719110" lon="34.8135770">
<time>2008-04-12T19:59:30.794Z</time>
</trkpt>
<trkpt lat="31.5712190" lon="34.8139390">
<time>2008-04-12T19:59:32.064Z</time>
</trkpt>
<trkpt lat="31.5701410" lon="34.8138540">
<time>2008-04-12T19:59:33.248Z</time>
</trkpt>
<trkpt lat="31.5693730" lon="34.8146670">
<time>2008-04-12T19:59:36.280Z</time>
</trkpt>
<trkpt lat="31.5682960" lon="34.8151210">
<time>2008-04-12T19:59:37.170Z</time>
</trkpt>
<trkpt lat="31.5676800" lon="34.8152140">
<time>2008-04-12T19:59:38.527Z</time>
</trkpt>
<trkpt lat="31.5669080" lon="34.8144970">
<time>2008-04-12T19:59:39.261Z</time>
</trkpt>
<trkpt lat="31.5661360" lon="34.8137810">
<time>2008-04-12T19:59:40.652Z</time>
</trkpt>
<trkpt lat="31.5653640" lon="34.8134250">
<time>2008-04-12T19:59:41.559Z</time>
</trkpt>
<trkpt lat="31.5645920" lon="34.8128880">
<time>2008-04-12T19:59:42.233Z</time>
</trkpt>
<trkpt lat="31.5641280" lon="34.8122600">
<time>2008-04-12T19:59:43.175Z</time>
</trkpt>
<trkpt lat="31.5636640" lon="34.8114530">
<time>2008-04-12T19:59:43.909Z</time>
</trkpt>
<trkpt lat="31.5628900" lon="34.8101970">
<time>2008-04-12T19:59:47.953Z</time>
</trkpt>
<trkpt lat="31.5624240" lon="34.8091200">
<time>2008-04-12T19:59:48.843Z</time>
</trkpt>
<trkpt lat="31.5619590" lon="34.8082220">
<time>2008-04-12T19:59:49.672Z</time>
</trkpt>
<trkpt lat="31.5611900" lon="34.8085850">
<time>2008-04-12T19:59:50.839Z</time>
</trkpt>
<trkpt lat="31.5607280" lon="34.8085870">
<time>2008-04-12T19:59:51.469Z</time>
</trkpt>
<trkpt lat="31.5605770" lon="34.8094870">
<time>2008-04-12T20:00:16.733Z</time>
</trkpt>
<trkpt lat="31.5600410" lon="34.8103890">
<time>2008-04-12T20:00:17.562Z</time>
</trkpt>
<trkpt lat="31.5595040" lon="34.8112010">
<time>2008-04-12T20:00:18.202Z</time>
</trkpt>
<trkpt lat="31.5586570" lon="34.8111150">
<time>2008-04-12T20:00:18.858Z</time>
</trkpt>
<trkpt lat="31.5578860" lon="34.8109380">
<time>2008-04-12T20:00:19.670Z</time>
</trkpt>
<trkpt lat="31.5572740" lon="34.8122000">
<time>2008-04-12T20:00:20.733Z</time>
</trkpt>
<trkpt lat="31.5568920" lon="34.8132810">
<time>2008-04-12T20:00:21.502Z</time>
</trkpt>
<trkpt lat="31.5562810" lon="34.8150820">
<time>2008-04-12T20:00:22.513Z</time>
</trkpt>
<trkpt lat="31.5557470" lon="34.8165240">
<time>2008-04-12T20:00:23.904Z</time>
</trkpt>
<trkpt lat="31.5549790" lon="34.8172460">
<time>2008-04-12T20:00:25.001Z</time>
</trkpt>
<trkpt lat="31.5539790" lon="34.8176100">
<time>2008-04-12T20:00:26.064Z</time>
</trkpt>
<trkpt lat="31.5530560" lon="34.8180640">
<time>2008-04-12T20:00:27.032Z</time>
</trkpt>
<trkpt lat="31.5524410" lon="34.8186060">
<time>2008-04-12T20:00:27.939Z</time>
</trkpt>
<trkpt lat="31.5515950" lon="34.8189690">
<time>2008-04-12T20:00:29.062Z</time>
</trkpt>
<trkpt lat="31.5510570" lon="34.8190620">
<time>2008-04-12T20:00:44.312Z</time>
</trkpt>
<trkpt lat="31.5505970" lon="34.8197830">
<time>2008-04-12T20:00:45.452Z</time>
</trkpt>
<trkpt lat="31.5495960" lon="34.8199670">
<time>2008-04-12T20:00:46.282Z</time>
</trkpt>
<trkpt lat="31.5489040" lon="34.8205100">
<time>2008-04-12T20:00:46.956Z</time>
</trkpt>
<trkpt lat="31.5482910" lon="34.8212320">
<time>2008-04-12T20:00:47.517Z</time>
</trkpt>
<trkpt lat="31.5478310" lon="34.8222230">
<time>2008-04-12T20:00:48.079Z</time>
</trkpt>
<trkpt lat="31.5472930" lon="34.8224950">
<time>2008-04-12T20:00:48.830Z</time>
</trkpt>
<trkpt lat="31.5465230" lon="34.8224980">
<time>2008-04-12T20:00:49.746Z</time>
</trkpt>
<trkpt lat="31.5458290" lon="34.8223210">
<time>2008-04-12T20:00:50.628Z</time>
</trkpt>
<trkpt lat="31.5452120" lon="34.8219640">
<time>2008-04-12T20:00:53.565Z</time>
</trkpt>
<trkpt lat="31.5442870" lon="34.8215180">
<time>2008-04-12T20:00:54.282Z</time>
</trkpt>
<trkpt lat="31.5435160" lon="34.8212510">
<time>2008-04-12T20:00:58.205Z</time>
</trkpt>
<trkpt lat="31.5425930" lon="34.8217050">
<time>2008-04-12T20:00:58.861Z</time>
</trkpt>
<trkpt lat="31.5418250" lon="34.8225180">
<time>2008-04-12T20:00:59.907Z</time>
</trkpt>
<trkpt lat="31.5411340" lon="34.8230600">
<time>2008-04-12T20:01:00.641Z</time>
</trkpt>
<trkpt lat="31.5406730" lon="34.8236010">
<time>2008-04-12T20:01:02.266Z</time>
</trkpt>
<trkpt lat="31.5398260" lon="34.8236050">
<time>2008-04-12T20:01:03.112Z</time>
</trkpt>
<trkpt lat="31.5388240" lon="34.8232490">
<time>2008-04-12T20:01:06.542Z</time>
</trkpt>
<trkpt lat="31.5376670" lon="34.8228940">
<time>2008-04-12T20:01:07.121Z</time>
</trkpt>
<trkpt lat="31.5364330" lon="34.8221800">
<time>2008-04-12T20:01:08.141Z</time>
</trkpt>
<trkpt lat="31.5361220" lon="34.8214620">
<time>2008-04-12T20:01:08.763Z</time>
</trkpt>
<trkpt lat="31.5359670" lon="34.8210130">
<time>2008-04-12T20:01:09.264Z</time>
</trkpt>
<trkpt lat="31.5349630" lon="34.8202080">
<time>2008-04-12T20:01:10.284Z</time>
</trkpt>
<trkpt lat="31.5344230" lon="34.8196710">
<time>2008-04-12T20:01:11.096Z</time>
</trkpt>
<trkpt lat="31.5333410" lon="34.8184160">
<time>2008-04-12T20:01:29.482Z</time>
</trkpt>
<trkpt lat="31.5324910" lon="34.8175210">
<time>2008-04-12T20:01:30.441Z</time>
</trkpt>
<trkpt lat="31.5314860" lon="34.8165360">
<time>2008-04-12T20:01:39.582Z</time>
</trkpt>
<trkpt lat="31.5300970" lon="34.8156430">
<time>2008-04-12T20:01:40.299Z</time>
</trkpt>
<trkpt lat="31.5290160" lon="34.8148380">
<time>2008-04-12T20:01:40.999Z</time>
</trkpt>
<trkpt lat="31.5276280" lon="34.8141240">
<time>2008-04-12T20:01:41.733Z</time>
</trkpt>
<trkpt lat="31.5261630" lon="34.8135910">
<time>2008-04-12T20:01:42.701Z</time>
</trkpt>
<trkpt lat="31.5251610" lon="34.8135060">
<time>2008-04-12T20:01:43.185Z</time>
</trkpt>
<trkpt lat="31.5236200" lon="34.8132420">
<time>2008-04-12T20:01:44.092Z</time>
</trkpt>
<trkpt lat="31.5228500" lon="34.8131560">
<time>2008-04-12T20:01:44.558Z</time>
</trkpt>
<trkpt lat="31.5221560" lon="34.8128890">
<time>2008-04-12T20:01:45.422Z</time>
</trkpt>
<trkpt lat="31.5215380" lon="34.8123520">
<time>2008-04-12T20:01:45.967Z</time>
</trkpt>
<trkpt lat="31.5209970" lon="34.8118150">
<time>2008-04-12T20:01:47.029Z</time>
</trkpt>
<trkpt lat="31.5203780" lon="34.8109180">
<time>2008-04-12T20:01:47.660Z</time>
</trkpt>
<trkpt lat="31.5199160" lon="34.8107410">
<time>2008-04-12T20:01:48.127Z</time>
</trkpt>
<trkpt lat="31.5192210" lon="34.8103840">
<time>2008-04-12T20:01:49.233Z</time>
</trkpt>
<trkpt lat="31.5185280" lon="34.8102070">
<time>2008-04-12T20:01:56.940Z</time>
</trkpt>
<trkpt lat="31.5186790" lon="34.8093070">
<time>2008-04-12T20:01:57.527Z</time>
</trkpt>
<trkpt lat="31.5189850" lon="34.8085870">
<time>2008-04-12T20:01:58.175Z</time>
</trkpt>
<trkpt lat="31.5191350" lon="34.8074170">
<time>2008-04-12T20:01:58.814Z</time>
</trkpt>
<trkpt lat="31.5195930" lon="34.8062470">
<time>2008-04-12T20:02:20.190Z</time>
</trkpt>
<trkpt lat="31.5197450" lon="34.8056170">
<time>2008-04-12T20:02:20.717Z</time>
</trkpt>
<trkpt lat="31.5202830" lon="34.8051650">
<time>2008-04-12T20:02:21.175Z</time>
</trkpt>
<trkpt lat="31.5207450" lon="34.8050730">
<time>2008-04-12T20:02:21.719Z</time>
</trkpt>
<trkpt lat="31.5205120" lon="34.8043550">
<time>2008-04-12T20:02:22.376Z</time>
</trkpt>
<trkpt lat="31.5205090" lon="34.8036350">
<time>2008-04-12T20:02:22.955Z</time>
</trkpt>
<trkpt lat="31.5205070" lon="34.8030060">
<time>2008-04-12T20:02:23.499Z</time>
</trkpt>
<trkpt lat="31.5194280" lon="34.8027410">
<time>2008-04-12T20:02:26.955Z</time>
</trkpt>
<trkpt lat="31.5186590" lon="34.8029240">
<time>2008-04-12T20:02:27.534Z</time>
</trkpt>
<trkpt lat="31.5181190" lon="34.8028370">
<time>2008-04-12T20:02:27.983Z</time>
</trkpt>
<trkpt lat="31.5176550" lon="34.8022990">
<time>2008-04-12T20:02:28.363Z</time>
</trkpt>
<trkpt lat="31.5171160" lon="34.8022120">
<time>2008-04-12T20:02:28.735Z</time>
</trkpt>
<trkpt lat="31.5161910" lon="34.8021260">
<time>2008-04-12T20:02:29.754Z</time>
</trkpt>
<trkpt lat="31.5153430" lon="34.8017700">
<time>2008-04-12T20:02:30.264Z</time>
</trkpt>
<trkpt lat="31.5141860" lon="34.8012360">
<time>2008-04-12T20:02:31.577Z</time>
</trkpt>
<trkpt lat="31.5132610" lon="34.8008800">
<time>2008-04-12T20:02:32.234Z</time>
</trkpt>
<trkpt lat="31.5124910" lon="34.8010630">
<time>2008-04-12T20:02:33.167Z</time>
</trkpt>
<trkpt lat="31.5120300" lon="34.8012450">
<time>2008-04-12T20:02:35.768Z</time>
</trkpt>
<trkpt lat="31.5114880" lon="34.8004380">
<time>2008-04-12T20:02:36.312Z</time>
</trkpt>
<trkpt lat="31.5107930" lon="34.7999920">
<time>2008-04-12T20:02:36.856Z</time>
</trkpt>
<trkpt lat="31.5101770" lon="34.7998150">
<time>2008-04-12T20:02:37.452Z</time>
</trkpt>
<trkpt lat="31.5098680" lon="34.7997260">
<time>2008-04-12T20:02:37.919Z</time>
</trkpt>
<trkpt lat="31.5097120" lon="34.7989180">
<time>2008-04-12T20:02:41.340Z</time>
</trkpt>
<trkpt lat="31.5092470" lon="34.7980210">
<time>2008-04-12T20:02:48.451Z</time>
</trkpt>
<trkpt lat="31.5087800" lon="34.7965850">
<time>2008-04-12T20:02:49.186Z</time>
</trkpt>
<trkpt lat="31.5084690" lon="34.7956870">
<time>2008-04-12T20:02:49.687Z</time>
</trkpt>
<trkpt lat="31.5080050" lon="34.7951500">
<time>2008-04-12T20:02:50.266Z</time>
</trkpt>
<trkpt lat="31.5073870" lon="34.7944330">
<time>2008-04-12T20:02:50.810Z</time>
</trkpt>
<trkpt lat="31.5067690" lon="34.7939860">
<time>2008-04-12T20:02:51.372Z</time>
</trkpt>
<trkpt lat="31.5061510" lon="34.7935400">
<time>2008-04-12T20:02:53.886Z</time>
</trkpt>
<trkpt lat="31.5058410" lon="34.7928220">
<time>2008-04-12T20:02:54.439Z</time>
</trkpt>
<trkpt lat="31.5059920" lon="34.7918320">
<time>2008-04-12T20:02:55.035Z</time>
</trkpt>
<trkpt lat="31.5062190" lon="34.7906630">
<time>2008-04-12T20:02:55.545Z</time>
</trkpt>
<trkpt lat="31.5062940" lon="34.7899430">
<time>2008-04-12T20:02:56.003Z</time>
</trkpt>
<trkpt lat="31.5061370" lon="34.7892250">
<time>2008-04-12T20:02:56.625Z</time>
</trkpt>
<trkpt lat="31.5059050" lon="34.7890460">
<time>2008-04-12T20:03:08.142Z</time>
</trkpt>
<trkpt lat="31.5058280" lon="34.7887770">
<time>2008-04-12T20:03:18.449Z</time>
</trkpt>
<trkpt lat="31.5054390" lon="34.7878800">
<time>2008-04-12T20:03:19.218Z</time>
</trkpt>
<trkpt lat="31.5052840" lon="34.7873410">
<time>2008-04-12T20:03:19.840Z</time>
</trkpt>
<trkpt lat="31.5048990" lon="34.7873430">
<time>2008-04-12T20:03:20.359Z</time>
</trkpt>
<trkpt lat="31.5045870" lon="34.7861760">
<time>2008-04-12T20:03:21.033Z</time>
</trkpt>
<trkpt lat="31.5042730" lon="34.7844690">
<time>2008-04-12T20:03:21.828Z</time>
</trkpt>
<trkpt lat="31.5039610" lon="34.7833920">
<time>2008-04-12T20:04:03.861Z</time>
</trkpt>
<trkpt lat="31.5033430" lon="34.7827650">
<time>2008-04-12T20:04:04.535Z</time>
</trkpt>
<trkpt lat="31.5028790" lon="34.7821380">
<time>2008-04-12T20:04:05.079Z</time>
</trkpt>
<trkpt lat="31.5027200" lon="34.7807010">
<time>2008-04-12T20:04:05.658Z</time>
</trkpt>
<trkpt lat="31.5021770" lon="34.7797140">
<time>2008-04-12T20:04:06.125Z</time>
</trkpt>
<trkpt lat="31.5019440" lon="34.7789960">
<time>2008-04-12T20:04:06.626Z</time>
</trkpt>
<trkpt lat="31.5019410" lon="34.7780080">
<time>2008-04-12T20:04:07.015Z</time>
</trkpt>
<trkpt lat="31.5019370" lon="34.7769290">
<time>2008-04-12T20:04:07.455Z</time>
</trkpt>
<trkpt lat="31.5017800" lon="34.7762100">
<time>2008-04-12T20:04:07.844Z</time>
</trkpt>
<trkpt lat="31.5015480" lon="34.7758520">
<time>2008-04-12T20:04:08.311Z</time>
</trkpt>
<trkpt lat="31.4990120" lon="34.7774820">
<time>2008-04-12T20:04:09.814Z</time>
</trkpt>
<trkpt lat="31.4987070" lon="34.7782020">
<time>2008-04-12T20:04:52.297Z</time>
</trkpt>
<trkpt lat="31.4982470" lon="34.7789230">
<time>2008-04-12T20:04:52.876Z</time>
</trkpt>
<trkpt lat="31.4974770" lon="34.7791070">
<time>2008-04-12T20:04:53.403Z</time>
</trkpt>
<trkpt lat="31.4965530" lon="34.7791110">
<time>2008-04-12T20:04:53.964Z</time>
</trkpt>
<trkpt lat="31.4962470" lon="34.7795620">
<time>2008-04-12T20:04:54.500Z</time>
</trkpt>
<trkpt lat="31.4959400" lon="34.7801030">
<time>2008-04-12T20:04:55.027Z</time>
</trkpt>
<trkpt lat="31.4959410" lon="34.7802820">
<time>2008-04-12T20:04:56.081Z</time>
</trkpt>
<trkpt lat="31.4939350" lon="34.7793030">
<time>2008-04-12T20:04:57.420Z</time>
</trkpt>
<trkpt lat="31.4924680" lon="34.7782310">
<time>2008-04-12T20:04:58.544Z</time>
</trkpt>
<trkpt lat="31.4913130" lon="34.7783260">
<time>2008-04-12T20:05:01.542Z</time>
</trkpt>
<trkpt lat="31.4907740" lon="34.7783290">
<time>2008-04-12T20:05:11.486Z</time>
</trkpt>
<trkpt lat="31.4897730" lon="34.7782430">
<time>2008-04-12T20:05:12.316Z</time>
</trkpt>
<trkpt lat="31.4884610" lon="34.7777100">
<time>2008-04-12T20:05:13.284Z</time>
</trkpt>
<trkpt lat="31.4875350" lon="34.7771750">
<time>2008-04-12T20:05:13.983Z</time>
</trkpt>
<trkpt lat="31.4854530" lon="34.7762860">
<time>2008-04-12T20:05:15.107Z</time>
</trkpt>
<trkpt lat="31.4838330" lon="34.7756650">
<time>2008-04-12T20:05:16.014Z</time>
</trkpt>
<trkpt lat="31.4818280" lon="34.7748650">
<time>2008-04-12T20:05:17.560Z</time>
</trkpt>
<trkpt lat="31.4804410" lon="34.7745120">
<time>2008-04-12T20:05:18.563Z</time>
</trkpt>
<trkpt lat="31.4789000" lon="34.7743390">
<time>2008-04-12T20:05:20.377Z</time>
</trkpt>
<trkpt lat="31.4784380" lon="34.7745210">
<time>2008-04-12T20:05:24.559Z</time>
</trkpt>
<trkpt lat="31.4770520" lon="34.7746180">
<time>2008-04-12T20:05:25.293Z</time>
</trkpt>
<trkpt lat="31.4758990" lon="34.7750720">
<time>2008-04-12T20:05:26.641Z</time>
</trkpt>
<trkpt lat="31.4752070" lon="34.7754350">
<time>2008-04-12T20:06:12.217Z</time>
</trkpt>
<trkpt lat="31.4741290" lon="34.7756200">
<time>2008-04-12T20:06:13.064Z</time>
</trkpt>
<trkpt lat="31.4732820" lon="34.7757140">
<time>2008-04-12T20:06:13.703Z</time>
</trkpt>
<trkpt lat="31.4724330" lon="34.7752680">
<time>2008-04-12T20:06:14.360Z</time>
</trkpt>
<trkpt lat="31.4715070" lon="34.7745540">
<time>2008-04-12T20:06:15.016Z</time>
</trkpt>
<trkpt lat="31.4707350" lon="34.7740180">
<time>2008-04-12T20:06:15.578Z</time>
</trkpt>
<trkpt lat="31.4704260" lon="34.7738400">
<time>2008-04-12T20:06:16.105Z</time>
</trkpt>
<trkpt lat="31.4702710" lon="34.7736610">
<time>2008-04-12T20:06:16.641Z</time>
</trkpt>
<trkpt lat="31.4685900" lon="34.7774430">
<time>2008-04-12T20:06:22.360Z</time>
</trkpt>
<trkpt lat="31.4681290" lon="34.7778040">
<time>2008-04-12T20:06:23.285Z</time>
</trkpt>
<trkpt lat="31.4679750" lon="34.7778950">
<time>2008-04-12T20:06:23.777Z</time>
</trkpt>
<trkpt lat="31.4667430" lon="34.7778110">
<time>2008-04-12T20:06:47.356Z</time>
</trkpt>
<trkpt lat="31.4656640" lon="34.7777260">
<time>2008-04-12T20:06:48.012Z</time>
</trkpt>
<trkpt lat="31.4647400" lon="34.7778200">
<time>2008-04-12T20:06:48.574Z</time>
</trkpt>
<trkpt lat="31.4636630" lon="34.7780040">
<time>2008-04-12T20:06:49.222Z</time>
</trkpt>
<trkpt lat="31.4616620" lon="34.7785530">
<time>2008-04-12T20:06:52.237Z</time>
</trkpt>
<trkpt lat="31.4604320" lon="34.7791870">
<time>2008-04-12T20:06:52.920Z</time>
</trkpt>
<trkpt lat="31.4590510" lon="34.7807210">
<time>2008-04-12T20:06:53.810Z</time>
</trkpt>
<trkpt lat="31.4577440" lon="34.7814460">
<time>2008-04-12T20:06:54.657Z</time>
</trkpt>
<trkpt lat="31.4562830" lon="34.7823510">
<time>2008-04-12T20:06:55.832Z</time>
</trkpt>
<trkpt lat="31.4553600" lon="34.7825350">
<time>2008-04-12T20:06:56.359Z</time>
</trkpt>
<trkpt lat="31.4532050" lon="34.7830840">
<time>2008-04-12T20:06:57.361Z</time>
</trkpt>
<trkpt lat="31.4519740" lon="34.7832690">
<time>2008-04-12T20:06:57.923Z</time>
</trkpt>
<trkpt lat="31.4496650" lon="34.7837290">
<time>2008-04-12T20:08:30.284Z</time>
</trkpt>
<trkpt lat="31.4476630" lon="34.7840970">
<time>2008-04-12T20:08:31.044Z</time>
</trkpt>
<trkpt lat="31.4452010" lon="34.7847370">
<time>2008-04-12T20:08:31.917Z</time>
</trkpt>
<trkpt lat="31.4432000" lon="34.7852860">
<time>2008-04-12T20:08:32.574Z</time>
</trkpt>
<trkpt lat="31.4415070" lon="34.7857420">
<time>2008-04-12T20:08:33.714Z</time>
</trkpt>
<trkpt lat="31.4395080" lon="34.7867400">
<time>2008-04-12T20:08:34.699Z</time>
</trkpt>
<trkpt lat="31.4371230" lon="34.7874690">
<time>2008-04-12T20:08:35.641Z</time>
</trkpt>
<trkpt lat="31.4353550" lon="34.7883750">
<time>2008-04-12T20:08:36.609Z</time>
</trkpt>
<trkpt lat="31.4334310" lon="34.7890130">
<time>2008-04-12T20:08:40.609Z</time>
</trkpt>
<trkpt lat="31.4322770" lon="34.7893770">
<time>2008-04-12T20:08:42.017Z</time>
</trkpt>
<trkpt lat="31.4302750" lon="34.7893860">
<time>2008-04-12T20:09:29.330Z</time>
</trkpt>
<trkpt lat="31.4287380" lon="34.7905610">
<time>2008-04-12T20:09:30.686Z</time>
</trkpt>
<trkpt lat="31.4278930" lon="34.7911930">
<time>2008-04-12T20:09:31.481Z</time>
</trkpt>
<trkpt lat="31.4268170" lon="34.7920060">
<time>2008-04-12T20:09:32.639Z</time>
</trkpt>
<trkpt lat="31.4254330" lon="34.7926410">
<time>2008-04-12T20:09:33.373Z</time>
</trkpt>
<trkpt lat="31.4247420" lon="34.7932730">
<time>2008-04-12T20:09:34.324Z</time>
</trkpt>
<trkpt lat="31.4242060" lon="34.7941740">
<time>2008-04-12T20:09:35.093Z</time>
</trkpt>
<trkpt lat="31.4242850" lon="34.7948020">
<time>2008-04-12T20:09:35.689Z</time>
</trkpt>
<trkpt lat="31.4244430" lon="34.7960590">
<time>2008-04-12T20:09:36.372Z</time>
</trkpt>
<trkpt lat="31.4242910" lon="34.7967780">
<time>2008-04-12T20:09:36.950Z</time>
</trkpt>
<trkpt lat="31.4237530" lon="34.7971390">
<time>2008-04-12T20:09:37.503Z</time>
</trkpt>
<trkpt lat="31.4232170" lon="34.7978600">
<time>2008-04-12T20:09:38.436Z</time>
</trkpt>
<trkpt lat="31.4227570" lon="34.7987610">
<time>2008-04-12T20:09:38.972Z</time>
</trkpt>
<trkpt lat="31.4226070" lon="34.7998390">
<time>2008-04-12T20:09:39.715Z</time>
</trkpt>
<trkpt lat="31.4227630" lon="34.8005570">
<time>2008-04-12T20:09:43.577Z</time>
</trkpt>
<trkpt lat="31.4226110" lon="34.8010960">
<time>2008-04-12T20:09:44.156Z</time>
</trkpt>
<trkpt lat="31.4223050" lon="34.8017260">
<time>2008-04-12T20:09:44.839Z</time>
</trkpt>
<trkpt lat="31.4224600" lon="34.8021750">
<time>2008-04-12T20:09:45.340Z</time>
</trkpt>
<trkpt lat="31.4227700" lon="34.8027120">
<time>2008-04-12T20:09:45.910Z</time>
</trkpt>
<trkpt lat="31.4230810" lon="34.8036990">
<time>2008-04-12T20:09:46.472Z</time>
</trkpt>
<trkpt lat="31.4233920" lon="34.8046860">
<time>2008-04-12T20:09:47.439Z</time>
</trkpt>
<trkpt lat="31.4233950" lon="34.8054040">
<time>2008-04-12T20:09:55.466Z</time>
</trkpt>
<trkpt lat="31.4237050" lon="34.8062110">
<time>2008-04-12T20:09:56.183Z</time>
</trkpt>
<trkpt lat="31.4235540" lon="34.8070200">
<time>2008-04-12T20:09:56.892Z</time>
</trkpt>
<trkpt lat="31.4236320" lon="34.8074690">
<time>2008-04-12T20:09:57.626Z</time>
</trkpt>
<trkpt lat="31.4241720" lon="34.8077360">
<time>2008-04-12T20:09:58.205Z</time>
</trkpt>
<trkpt lat="31.4245590" lon="34.8082730">
<time>2008-04-12T20:09:58.784Z</time>
</trkpt>
<trkpt lat="31.4244840" lon="34.8089920">
<time>2008-04-12T20:10:01.825Z</time>
</trkpt>
<trkpt lat="31.4240240" lon="34.8096230">
<time>2008-04-12T20:10:02.654Z</time>
</trkpt>
<trkpt lat="31.4234090" lon="34.8100740">
<time>2008-04-12T20:10:03.579Z</time>
</trkpt>
<trkpt lat="31.4229490" lon="34.8107050">
<time>2008-04-12T20:10:09.964Z</time>
</trkpt>
<trkpt lat="31.4227990" lon="34.8117830">
<time>2008-04-12T20:10:10.612Z</time>
</trkpt>
<trkpt lat="31.4225700" lon="34.8124130">
<time>2008-04-12T20:10:11.277Z</time>
</trkpt>
<trkpt lat="31.4225730" lon="34.8134910">
<time>2008-04-12T20:10:11.925Z</time>
</trkpt>
<trkpt lat="31.4228080" lon="34.8146580">
<time>2008-04-12T20:10:12.660Z</time>
</trkpt>
<trkpt lat="31.4225020" lon="34.8155570">
<time>2008-04-12T20:10:13.627Z</time>
</trkpt>
<trkpt lat="31.4217340" lon="34.8161890">
<time>2008-04-12T20:10:14.327Z</time>
</trkpt>
<trkpt lat="31.4214290" lon="34.8170880">
<time>2008-04-12T20:10:15.312Z</time>
</trkpt>
<trkpt lat="31.4215860" lon="34.8180760">
<time>2008-04-12T20:10:16.418Z</time>
</trkpt>
<trkpt lat="31.4211260" lon="34.8188860">
<time>2008-04-12T20:10:17.265Z</time>
</trkpt>
<trkpt lat="31.4209740" lon="34.8196050">
<time>2008-04-12T20:10:17.887Z</time>
</trkpt>
<trkpt lat="31.4212850" lon="34.8203220">
<time>2008-04-12T20:10:18.543Z</time>
</trkpt>
<trkpt lat="31.4209020" lon="34.8212220">
<time>2008-04-12T20:10:19.511Z</time>
</trkpt>
<trkpt lat="31.4208280" lon="34.8220310">
<time>2008-04-12T20:10:20.124Z</time>
</trkpt>
<trkpt lat="31.4202120" lon="34.8223030">
<time>2008-04-12T20:10:27.987Z</time>
</trkpt>
<trkpt lat="31.4198280" lon="34.8225740">
<time>2008-04-12T20:10:28.488Z</time>
</trkpt>
<trkpt lat="31.4191360" lon="34.8229360">
<time>2008-04-12T20:10:29.404Z</time>
</trkpt>
<trkpt lat="31.4186750" lon="34.8232070">
<time>2008-04-12T20:10:30.251Z</time>
</trkpt>
<trkpt lat="31.4179070" lon="34.8239290">
<time>2008-04-12T20:10:43.029Z</time>
</trkpt>
<trkpt lat="31.4179080" lon="34.8244670">
<time>2008-04-12T20:10:43.859Z</time>
</trkpt>
<trkpt lat="31.4180660" lon="34.8256340">
<time>2008-04-12T20:10:44.636Z</time>
</trkpt>
<trkpt lat="31.4174530" lon="34.8265350">
<time>2008-04-12T20:10:45.172Z</time>
</trkpt>
<trkpt lat="31.4168390" lon="34.8273460">
<time>2008-04-12T20:10:46.157Z</time>
</trkpt>
<trkpt lat="31.4156860" lon="34.8282490">
<time>2008-04-12T20:10:47.237Z</time>
</trkpt>
<trkpt lat="31.4148410" lon="34.8288810">
<time>2008-04-12T20:10:48.075Z</time>
</trkpt>
<trkpt lat="31.4144570" lon="34.8291520">
<time>2008-04-12T20:11:11.204Z</time>
</trkpt>
<trkpt lat="31.4136110" lon="34.8295140">
<time>2008-04-12T20:11:12.016Z</time>
</trkpt>
<trkpt lat="31.4125340" lon="34.8299680">
<time>2008-04-12T20:11:13.062Z</time>
</trkpt>
<trkpt lat="31.4120720" lon="34.8302390">
<time>2008-04-12T20:11:13.606Z</time>
</trkpt>
<trkpt lat="31.4114590" lon="34.8312290">
<time>2008-04-12T20:11:14.315Z</time>
</trkpt>
<trkpt lat="31.4109990" lon="34.8320390">
<time>2008-04-12T20:11:15.014Z</time>
</trkpt>
<trkpt lat="31.4116190" lon="34.8332940">
<time>2008-04-12T20:11:15.611Z</time>
</trkpt>
<trkpt lat="31.4120830" lon="34.8339210">
<time>2008-04-12T20:11:16.466Z</time>
</trkpt>
<trkpt lat="31.4120870" lon="34.8352680">
<time>2008-04-12T20:11:17.157Z</time>
</trkpt>
<trkpt lat="31.4119370" lon="34.8365260">
<time>2008-04-12T20:11:18.159Z</time>
</trkpt>
<trkpt lat="31.4116320" lon="34.8377840">
<time>2008-04-12T20:11:18.704Z</time>
</trkpt>
<trkpt lat="31.4113280" lon="34.8391330">
<time>2008-04-12T20:11:19.231Z</time>
</trkpt>
<trkpt lat="31.4113310" lon="34.8399410">
<time>2008-04-12T20:11:19.844Z</time>
</trkpt>
<trkpt lat="31.4108710" lon="34.8408410">
<time>2008-04-12T20:11:39.457Z</time>
</trkpt>
<trkpt lat="31.4101800" lon="34.8415620">
<time>2008-04-12T20:11:39.967Z</time>
</trkpt>
<trkpt lat="31.4096440" lon="34.8424620">
<time>2008-04-12T20:11:40.952Z</time>
</trkpt>
<trkpt lat="31.4087220" lon="34.8435430">
<time>2008-04-12T20:11:41.513Z</time>
</trkpt>
<trkpt lat="31.4079540" lon="34.8442650">
<time>2008-04-12T20:11:42.420Z</time>
</trkpt>
<trkpt lat="31.4071860" lon="34.8448060">
<time>2008-04-12T20:11:42.956Z</time>
</trkpt>
<trkpt lat="31.4064150" lon="34.8448090">
<time>2008-04-12T20:11:43.812Z</time>
</trkpt>
<trkpt lat="31.4061090" lon="34.8455290">
<time>2008-04-12T20:11:44.434Z</time>
</trkpt>
<trkpt lat="31.4053400" lon="34.8458910">
<time>2008-04-12T20:11:50.300Z</time>
</trkpt>
<trkpt lat="31.4050350" lon="34.8468800">
<time>2008-04-12T20:11:50.767Z</time>
</trkpt>
<trkpt lat="31.4047290" lon="34.8476890">
<time>2008-04-12T20:11:51.562Z</time>
</trkpt>
<trkpt lat="31.4051950" lon="34.8490350">
<time>2008-04-12T20:11:52.175Z</time>
</trkpt>
<trkpt lat="31.4057370" lon="34.8501100">
<time>2008-04-12T20:11:52.763Z</time>
</trkpt>
<trkpt lat="31.4058170" lon="34.8509180">
<time>2008-04-12T20:11:53.246Z</time>
</trkpt>
<trkpt lat="31.4057440" lon="34.8524450">
<time>2008-04-12T20:11:54.076Z</time>
</trkpt>
<trkpt lat="31.4058250" lon="34.8537920">
<time>2008-04-12T20:11:54.672Z</time>
</trkpt>
<trkpt lat="31.4059830" lon="34.8552280">
<time>2008-04-12T20:11:58.111Z</time>
</trkpt>
<trkpt lat="31.4060630" lon="34.8562150">
<time>2008-04-12T20:11:58.612Z</time>
</trkpt>
<trkpt lat="31.4060660" lon="34.8573830">
<time>2008-04-12T20:11:59.217Z</time>
</trkpt>
<trkpt lat="31.4058380" lon="34.8584610">
<time>2008-04-12T20:12:02.483Z</time>
</trkpt>
<trkpt lat="31.4055330" lon="34.8597190">
<time>2008-04-12T20:12:05.481Z</time>
</trkpt>
<trkpt lat="31.4049210" lon="34.8610690">
<time>2008-04-12T20:12:06.206Z</time>
</trkpt>
<trkpt lat="31.4039990" lon="34.8620600">
<time>2008-04-12T20:12:19.391Z</time>
</trkpt>
<trkpt lat="31.4032310" lon="34.8629610">
<time>2008-04-12T20:12:19.935Z</time>
</trkpt>
<trkpt lat="31.4029250" lon="34.8636800">
<time>2008-04-12T20:12:20.436Z</time>
</trkpt>
<trkpt lat="31.4024650" lon="34.8644000">
<time>2008-04-12T20:12:21.015Z</time>
</trkpt>
<trkpt lat="31.4022360" lon="34.8650300">
<time>2008-04-12T20:12:21.689Z</time>
</trkpt>
<trkpt lat="31.4021600" lon="34.8656580">
<time>2008-04-12T20:12:22.190Z</time>
</trkpt>
<trkpt lat="31.4016240" lon="34.8667380">
<time>2008-04-12T20:12:23.357Z</time>
</trkpt>
<trkpt lat="31.4014710" lon="34.8671870">
<time>2008-04-12T20:12:30.329Z</time>
</trkpt>
<trkpt lat="31.4009330" lon="34.8676380">
<time>2008-04-12T20:12:37.017Z</time>
</trkpt>
<trkpt lat="31.3999340" lon="34.8684500">
<time>2008-04-12T20:12:37.578Z</time>
</trkpt>
<trkpt lat="31.3993200" lon="34.8691710">
<time>2008-04-12T20:12:40.153Z</time>
</trkpt>
<trkpt lat="31.3983980" lon="34.8698030">
<time>2008-04-12T20:12:40.879Z</time>
</trkpt>
<trkpt lat="31.3977840" lon="34.8708820">
<time>2008-04-12T20:12:41.544Z</time>
</trkpt>
<trkpt lat="31.3970930" lon="34.8716030">
<time>2008-04-12T20:12:42.157Z</time>
</trkpt>
<trkpt lat="31.3964020" lon="34.8723240">
<time>2008-04-12T20:12:42.754Z</time>
</trkpt>
<trkpt lat="31.3959440" lon="34.8741210">
<time>2008-04-12T20:12:43.488Z</time>
</trkpt>
<trkpt lat="31.3951760" lon="34.8748430">
<time>2008-04-12T20:12:44.110Z</time>
</trkpt>
<trkpt lat="31.3940250" lon="34.8762830">
<time>2008-04-12T20:12:45.423Z</time>
</trkpt>
<trkpt lat="31.3934100" lon="34.8768240">
<time>2008-04-12T20:12:46.391Z</time>
</trkpt>
<trkpt lat="31.3929510" lon="34.8780830">
<time>2008-04-12T20:12:47.160Z</time>
</trkpt>
<trkpt lat="31.3928750" lon="34.8786220">
<time>2008-04-12T20:12:50.625Z</time>
</trkpt>
<trkpt lat="31.3928770" lon="34.8791610">
<time>2008-04-12T20:12:53.389Z</time>
</trkpt>
<trkpt lat="31.3931870" lon="34.8797880">
<time>2008-04-12T20:12:54.089Z</time>
</trkpt>
<trkpt lat="31.3934960" lon="34.8805050">
<time>2008-04-12T20:12:54.841Z</time>
</trkpt>
<trkpt lat="31.3930350" lon="34.8805970">
<time>2008-04-12T20:12:55.558Z</time>
</trkpt>
<trkpt lat="31.3922650" lon="34.8806890">
<time>2008-04-12T20:12:56.707Z</time>
</trkpt>
<trkpt lat="31.3916490" lon="34.8809610">
<time>2008-04-12T20:12:58.185Z</time>
</trkpt>
<trkpt lat="31.3907260" lon="34.8813230">
<time>2008-04-12T20:12:58.859Z</time>
</trkpt>
<trkpt lat="31.3884180" lon="34.8824080">
<time>2008-04-12T20:13:07.576Z</time>
</trkpt>
<trkpt lat="31.3867260" lon="34.8832220">
<time>2008-04-12T20:13:08.388Z</time>
</trkpt>
<trkpt lat="31.3852640" lon="34.8840350">
<time>2008-04-12T20:13:09.028Z</time>
</trkpt>
<trkpt lat="31.3838040" lon="34.8850280">
<time>2008-04-12T20:13:10.548Z</time>
</trkpt>
<trkpt lat="31.3822660" lon="34.8860210">
<time>2008-04-12T20:13:11.637Z</time>
</trkpt>
<trkpt lat="31.3811880" lon="34.8863840">
<time>2008-04-12T20:13:12.285Z</time>
</trkpt>
<trkpt lat="31.3791110" lon="34.8871090">
<time>2008-04-12T20:13:13.512Z</time>
</trkpt>
<trkpt lat="31.3762630" lon="34.8878370">
<time>2008-04-12T20:13:14.532Z</time>
</trkpt>
<trkpt lat="31.3751850" lon="34.8882000">
<time>2008-04-12T20:13:15.456Z</time>
</trkpt>
<trkpt lat="31.3747230" lon="34.8882010">
<time>2008-04-12T20:13:16.018Z</time>
</trkpt>
<trkpt lat="31.3741830" lon="34.8875750">
<time>2008-04-12T20:13:17.253Z</time>
</trkpt>
<trkpt lat="31.3737200" lon="34.8872170">
<time>2008-04-12T20:13:17.875Z</time>
</trkpt>
<trkpt lat="31.3727960" lon="34.8873100">
<time>2008-04-12T20:13:22.299Z</time>
</trkpt>
<trkpt lat="31.3726430" lon="34.8880290">
<time>2008-04-12T20:13:23.154Z</time>
</trkpt>
<trkpt lat="31.3724140" lon="34.8886580">
<time>2008-04-12T20:13:24.113Z</time>
</trkpt>
<trkpt lat="31.3707980" lon="34.8892920">
<time>2008-04-12T20:14:04.574Z</time>
</trkpt>
<trkpt lat="31.3699510" lon="34.8894750">
<time>2008-04-12T20:14:05.205Z</time>
</trkpt>
<trkpt lat="31.3688750" lon="34.8901960">
<time>2008-04-12T20:14:06.518Z</time>
</trkpt>
<trkpt lat="31.3686440" lon="34.8904660">
<time>2008-04-12T20:14:07.356Z</time>
</trkpt>
<trkpt lat="31.3684160" lon="34.8916340">
<time>2008-04-12T20:14:33.769Z</time>
</trkpt>
<trkpt lat="31.3681100" lon="34.8923530">
<time>2008-04-12T20:14:34.719Z</time>
</trkpt>
<trkpt lat="31.3681110" lon="34.8928920">
<time>2008-04-12T20:14:49.217Z</time>
</trkpt>
<trkpt lat="31.3679620" lon="34.8948670">
<time>2008-04-12T20:15:13.720Z</time>
</trkpt>
<trkpt lat="31.3661150" lon="34.8953220">
<time>2008-04-12T20:15:14.844Z</time>
</trkpt>
<trkpt lat="31.3645020" lon="34.8970330">
<time>2008-04-12T20:15:18.965Z</time>
</trkpt>
<trkpt lat="31.3635800" lon="34.8979340">
<time>2008-04-12T20:15:19.941Z</time>
</trkpt>
<trkpt lat="31.3628110" lon="34.8983850">
<time>2008-04-12T20:15:27.363Z</time>
</trkpt>
<trkpt lat="31.3618100" lon="34.8987470">
<time>2008-04-12T20:15:28.261Z</time>
</trkpt>
<trkpt lat="31.3611930" lon="34.8983900">
<time>2008-04-12T20:15:28.763Z</time>
</trkpt>
<trkpt lat="31.3607300" lon="34.8980330">
<time>2008-04-12T20:15:29.471Z</time>
</trkpt>
<trkpt lat="31.3598850" lon="34.8989330">
<time>2008-04-12T20:15:32.391Z</time>
</trkpt>
<trkpt lat="31.3593490" lon="34.9001920">
<time>2008-04-12T20:15:33.402Z</time>
</trkpt>
<trkpt lat="31.3585060" lon="34.9018100">
<time>2008-04-12T20:15:34.292Z</time>
</trkpt>
<trkpt lat="31.3578150" lon="34.9026200">
<time>2008-04-12T20:15:35.018Z</time>
</trkpt>
<trkpt lat="31.3570460" lon="34.9033400">
<time>2008-04-12T20:15:36.141Z</time>
</trkpt>
<trkpt lat="31.3556610" lon="34.9038840">
<time>2008-04-12T20:15:38.794Z</time>
</trkpt>
<trkpt lat="31.3550450" lon="34.9041550">
<time>2008-04-12T20:15:39.347Z</time>
</trkpt>
<trkpt lat="31.3545070" lon="34.9045160">
<time>2008-04-12T20:15:39.839Z</time>
</trkpt>
<trkpt lat="31.3533520" lon="34.9046990">
<time>2008-04-12T20:15:41.126Z</time>
</trkpt>
<trkpt lat="31.3523520" lon="34.9051510">
<time>2008-04-12T20:15:41.748Z</time>
</trkpt>
<trkpt lat="31.3513530" lon="34.9062310">
<time>2008-04-12T20:15:42.967Z</time>
</trkpt>
<trkpt lat="31.3502770" lon="34.9069520">
<time>2008-04-12T20:15:47.105Z</time>
</trkpt>
<trkpt lat="31.3500470" lon="34.9075810">
<time>2008-04-12T20:15:47.779Z</time>
</trkpt>
<trkpt lat="31.3499720" lon="34.9084790">
<time>2008-04-12T20:15:52.609Z</time>
</trkpt>
<trkpt lat="31.3499770" lon="34.9103640">
<time>2008-04-12T20:15:53.654Z</time>
</trkpt>
<trkpt lat="31.3495180" lon="34.9116220">
<time>2008-04-12T20:15:54.562Z</time>
</trkpt>
<trkpt lat="31.3485970" lon="34.9131500">
<time>2008-04-12T20:15:55.668Z</time>
</trkpt>
<trkpt lat="31.3478290" lon="34.9140500">
<time>2008-04-12T20:15:56.298Z</time>
</trkpt>
<trkpt lat="31.3466770" lon="34.9153100">
<time>2008-04-12T20:15:57.637Z</time>
</trkpt>
<trkpt lat="31.3447550" lon="34.9171110">
<time>2008-04-12T20:15:59.201Z</time>
</trkpt>
<trkpt lat="31.3438340" lon="34.9183700">
<time>2008-04-12T20:16:07.919Z</time>
</trkpt>
<trkpt lat="31.3435280" lon="34.9192690">
<time>2008-04-12T20:16:08.558Z</time>
</trkpt>
<trkpt lat="31.3432230" lon="34.9208850">
<time>2008-04-12T20:19:15.347Z</time>
</trkpt>
<trkpt lat="31.3413760" lon="34.9214290">
<time>2008-04-12T20:19:16.141Z</time>
</trkpt>
<trkpt lat="31.3401450" lon="34.9219710">
<time>2008-04-12T20:19:16.703Z</time>
</trkpt>
<trkpt lat="31.3388370" lon="34.9225140">
<time>2008-04-12T20:19:17.558Z</time>
</trkpt>
<trkpt lat="31.3376820" lon="34.9225170">
<time>2008-04-12T20:19:18.327Z</time>
</trkpt>
<trkpt lat="31.3373740" lon="34.9225180">
<time>2008-04-12T20:19:18.785Z</time>
</trkpt>
<trkpt lat="31.3372940" lon="34.9214420">
<time>2008-04-12T20:19:19.373Z</time>
</trkpt>
<trkpt lat="31.3367540" lon="34.9209050">
<time>2008-04-12T20:19:19.891Z</time>
</trkpt>
<trkpt lat="31.3361360" lon="34.9201890">
<time>2008-04-12T20:19:20.824Z</time>
</trkpt>
<trkpt lat="31.3349040" lon="34.9203720">
<time>2008-04-12T20:19:28.263Z</time>
</trkpt>
<trkpt lat="31.3340560" lon="34.9198360">
<time>2008-04-12T20:19:28.894Z</time>
</trkpt>
<trkpt lat="31.3336690" lon="34.9191200">
<time>2008-04-12T20:19:29.888Z</time>
</trkpt>
<trkpt lat="31.3331300" lon="34.9191210">
<time>2008-04-12T20:19:30.778Z</time>
</trkpt>
<trkpt lat="31.3330510" lon="34.9185830">
<time>2008-04-12T20:19:31.642Z</time>
</trkpt>
</trkseg>
</trk>
<trk>
 <name>day06</name>
 <desc>14/4/2008 11:41:31 PM</desc>
<trkseg>
<trkpt lat="31.3330510" lon="34.9184930">
<time>2008-04-14T20:41:31.125Z</time>
</trkpt>
<trkpt lat="31.3288090" lon="34.9156350">
<time>2008-04-14T20:41:39.031Z</time>
</trkpt>
<trkpt lat="31.3292670" lon="34.9141980">
<time>2008-04-14T20:41:40.612Z</time>
</trkpt>
<trkpt lat="31.3284160" lon="34.9123170">
<time>2008-04-14T20:41:41.968Z</time>
</trkpt>
<trkpt lat="31.3274150" lon="34.9124100">
<time>2008-04-14T20:42:22.136Z</time>
</trkpt>
<trkpt lat="31.3262580" lon="34.9116060">
<time>2008-04-14T20:42:22.956Z</time>
</trkpt>
<trkpt lat="31.3250240" lon="34.9109820">
<time>2008-04-14T20:42:23.388Z</time>
</trkpt>
<trkpt lat="31.3244070" lon="34.9107140">
<time>2008-04-14T20:42:23.795Z</time>
</trkpt>
<trkpt lat="31.3234050" lon="34.9105380">
<time>2008-04-14T20:42:24.391Z</time>
</trkpt>
<trkpt lat="31.3229420" lon="34.9101810">
<time>2008-04-14T20:42:24.892Z</time>
</trkpt>
<trkpt lat="31.3227880" lon="34.9100020">
<time>2008-04-14T20:42:32.892Z</time>
</trkpt>
<trkpt lat="31.3219390" lon="34.9091070">
<time>2008-04-14T20:42:33.748Z</time>
</trkpt>
<trkpt lat="31.3208590" lon="34.9083930">
<time>2008-04-14T20:42:34.379Z</time>
</trkpt>
<trkpt lat="31.3199330" lon="34.9079480">
<time>2008-04-14T20:42:34.871Z</time>
</trkpt>
<trkpt lat="31.3194690" lon="34.9072310">
<time>2008-04-14T20:42:35.191Z</time>
</trkpt>
<trkpt lat="31.3189280" lon="34.9062460">
<time>2008-04-14T20:42:35.562Z</time>
</trkpt>
<trkpt lat="31.3186190" lon="34.9057990">
<time>2008-04-14T20:42:35.873Z</time>
</trkpt>
<trkpt lat="31.3185410" lon="34.9056190">
<time>2008-04-14T20:42:39.450Z</time>
</trkpt>
<trkpt lat="31.3179220" lon="34.9044550">
<time>2008-04-14T20:42:39.986Z</time>
</trkpt>
<trkpt lat="31.3172270" lon="34.9036500">
<time>2008-04-14T20:42:40.409Z</time>
</trkpt>
<trkpt lat="31.3166870" lon="34.9030240">
<time>2008-04-14T20:42:42.362Z</time>
</trkpt>
<trkpt lat="31.3155290" lon="34.9022200">
<time>2008-04-14T20:42:42.794Z</time>
</trkpt>
<trkpt lat="31.3152210" lon="34.9019520">
<time>2008-04-14T20:42:45.550Z</time>
</trkpt>
<trkpt lat="31.3144500" lon="34.9019540">
<time>2008-04-14T20:42:46.077Z</time>
</trkpt>
<trkpt lat="31.3137570" lon="34.9016880">
<time>2008-04-14T20:42:46.345Z</time>
</trkpt>
<trkpt lat="31.3132930" lon="34.9011510">
<time>2008-04-14T20:42:46.596Z</time>
</trkpt>
<trkpt lat="31.3132150" lon="34.9005230">
<time>2008-04-14T20:42:46.855Z</time>
</trkpt>
<trkpt lat="31.3129050" lon="34.8998060">
<time>2008-04-14T20:42:47.123Z</time>
</trkpt>
<trkpt lat="31.3124400" lon="34.8987310">
<time>2008-04-14T20:42:47.408Z</time>
</trkpt>
<trkpt lat="31.3120540" lon="34.8981940">
<time>2008-04-14T20:42:47.684Z</time>
</trkpt>
<trkpt lat="31.3117440" lon="34.8975680">
<time>2008-04-14T20:42:48.012Z</time>
</trkpt>
<trkpt lat="31.3113580" lon="34.8970310">
<time>2008-04-14T20:43:00.964Z</time>
</trkpt>
<trkpt lat="31.3108150" lon="34.8957760">
<time>2008-04-14T20:43:08.144Z</time>
</trkpt>
<trkpt lat="31.3093500" lon="34.8949740">
<time>2008-04-14T20:43:09.656Z</time>
</trkpt>
<trkpt lat="31.3077310" lon="34.8943510">
<time>2008-04-14T20:43:19.799Z</time>
</trkpt>
<trkpt lat="31.3066500" lon="34.8931890">
<time>2008-04-14T20:43:20.533Z</time>
</trkpt>
<trkpt lat="31.3058000" lon="34.8922950">
<time>2008-04-14T20:43:21.017Z</time>
</trkpt>
<trkpt lat="31.3054910" lon="34.8916680">
<time>2008-04-14T20:43:21.544Z</time>
</trkpt>
<trkpt lat="31.3046420" lon="34.8909530">
<time>2008-04-14T20:43:22.080Z</time>
</trkpt>
<trkpt lat="31.3037170" lon="34.8905970">
<time>2008-04-14T20:43:30.660Z</time>
</trkpt>
<trkpt lat="31.3029430" lon="34.8893440">
<time>2008-04-14T20:43:33.096Z</time>
</trkpt>
<trkpt lat="31.3019380" lon="34.8875540">
<time>2008-04-14T20:43:33.934Z</time>
</trkpt>
<trkpt lat="31.3007010" lon="34.8857640">
<time>2008-04-14T20:43:34.591Z</time>
</trkpt>
<trkpt lat="31.3000800" lon="34.8839720">
<time>2008-04-14T20:43:35.109Z</time>
</trkpt>
<trkpt lat="31.2989210" lon="34.8827200">
<time>2008-04-14T20:43:35.844Z</time>
</trkpt>
<trkpt lat="31.2950790" lon="34.8861420">
<time>2008-04-14T20:43:53.581Z</time>
</trkpt>
<trkpt lat="31.2936190" lon="34.8874030">
<time>2008-04-14T20:43:58.878Z</time>
</trkpt>
<trkpt lat="31.2925410" lon="34.8876760">
<time>2008-04-14T20:43:59.655Z</time>
</trkpt>
<trkpt lat="31.2901570" lon="34.8890290">
<time>2008-04-14T20:44:00.891Z</time>
</trkpt>
<trkpt lat="31.2880780" lon="34.8891260">
<time>2008-04-14T20:44:03.863Z</time>
</trkpt>
<trkpt lat="31.2859990" lon="34.8894920">
<time>2008-04-14T20:44:05.263Z</time>
</trkpt>
<trkpt lat="31.2829200" lon="34.8900400">
<time>2008-04-14T20:44:06.749Z</time>
</trkpt>
<trkpt lat="31.2802260" lon="34.8909460">
<time>2008-04-14T20:44:10.386Z</time>
</trkpt>
<trkpt lat="31.2780710" lon="34.8915810">
<time>2008-04-14T20:44:11.466Z</time>
</trkpt>
<trkpt lat="31.2767630" lon="34.8922130">
<time>2008-04-14T20:44:12.278Z</time>
</trkpt>
<trkpt lat="31.2749940" lon="34.8929370">
<time>2008-04-14T20:44:15.311Z</time>
</trkpt>
<trkpt lat="31.2733020" lon="34.8941080">
<time>2008-04-14T20:44:16.486Z</time>
</trkpt>
<trkpt lat="31.2721490" lon="34.8949190">
<time>2008-04-14T20:44:20.374Z</time>
</trkpt>
<trkpt lat="31.2713800" lon="34.8954600">
<time>2008-04-14T20:45:40.908Z</time>
</trkpt>
<trkpt lat="31.2699180" lon="34.8960030">
<time>2008-04-14T20:45:54.360Z</time>
</trkpt>
<trkpt lat="31.2684580" lon="34.8974420">
<time>2008-04-14T20:45:55.656Z</time>
</trkpt>
<trkpt lat="31.2669960" lon="34.8978060">
<time>2008-04-14T20:46:30.605Z</time>
</trkpt>
<trkpt lat="31.2645320" lon="34.8984420">
<time>2008-04-14T20:46:31.356Z</time>
</trkpt>
<trkpt lat="31.2623770" lon="34.8989870">
<time>2008-04-14T20:46:32.169Z</time>
</trkpt>
<trkpt lat="31.2592220" lon="34.8999830">
<time>2008-04-14T20:46:33.404Z</time>
</trkpt>
<trkpt lat="31.2559900" lon="34.9011590">
<time>2008-04-14T20:46:36.316Z</time>
</trkpt>
<trkpt lat="31.2532210" lon="34.9027820">
<time>2008-04-14T20:46:37.404Z</time>
</trkpt>
<trkpt lat="31.2507610" lon="34.9049420">
<time>2008-04-14T20:46:39.971Z</time>
</trkpt>
<trkpt lat="31.2496860" lon="34.9060210">
<time>2008-04-14T20:46:41.889Z</time>
</trkpt>
<trkpt lat="31.2465340" lon="34.9086310">
<time>2008-04-14T20:48:04.971Z</time>
</trkpt>
<trkpt lat="31.2438440" lon="34.9110600">
<time>2008-04-14T20:48:06.517Z</time>
</trkpt>
<trkpt lat="31.2413850" lon="34.9133990">
<time>2008-04-14T20:48:07.718Z</time>
</trkpt>
<trkpt lat="31.2384640" lon="34.9161870">
<time>2008-04-14T20:48:08.816Z</time>
</trkpt>
<trkpt lat="31.2359270" lon="34.9182560">
<time>2008-04-14T20:48:09.628Z</time>
</trkpt>
<trkpt lat="31.2335450" lon="34.9208630">
<time>2008-04-14T20:48:10.855Z</time>
</trkpt>
<trkpt lat="31.2320870" lon="34.9228400">
<time>2008-04-14T20:48:11.969Z</time>
</trkpt>
<trkpt lat="31.2294730" lon="34.9253570">
<time>2008-04-14T20:48:13.231Z</time>
</trkpt>
<trkpt lat="31.2274760" lon="34.9278730">
<time>2008-04-14T20:48:14.311Z</time>
</trkpt>
<trkpt lat="31.2260940" lon="34.9296700">
<time>2008-04-14T20:48:15.408Z</time>
</trkpt>
<trkpt lat="31.2251000" lon="34.9330780">
<time>2008-04-14T20:48:16.488Z</time>
</trkpt>
<trkpt lat="31.2227160" lon="34.9348780">
<time>2008-04-14T20:48:17.940Z</time>
</trkpt>
<trkpt lat="31.2212550" lon="34.9357780">
<time>2008-04-14T20:48:21.793Z</time>
</trkpt>
<trkpt lat="31.2201790" lon="34.9368570">
<time>2008-04-14T20:48:31.643Z</time>
</trkpt>
<trkpt lat="31.2182560" lon="34.9381170">
<time>2008-04-14T20:48:32.532Z</time>
</trkpt>
<trkpt lat="31.2170260" lon="34.9392860">
<time>2008-04-14T20:48:33.457Z</time>
</trkpt>
<trkpt lat="31.2157210" lon="34.9412610">
<time>2008-04-14T20:48:36.688Z</time>
</trkpt>
<trkpt lat="31.2151840" lon="34.9421590">
<time>2008-04-14T20:48:46.763Z</time>
</trkpt>
<trkpt lat="31.2143390" lon="34.9434160">
<time>2008-04-14T20:48:47.532Z</time>
</trkpt>
<trkpt lat="31.2130330" lon="34.9449430">
<time>2008-04-14T20:48:48.188Z</time>
</trkpt>
<trkpt lat="31.2117270" lon="34.9465600">
<time>2008-04-14T20:48:49.113Z</time>
</trkpt>
<trkpt lat="31.2104190" lon="34.9473700">
<time>2008-04-14T20:48:49.856Z</time>
</trkpt>
<trkpt lat="31.2082640" lon="34.9481830">
<time>2008-04-14T20:48:50.564Z</time>
</trkpt>
<trkpt lat="31.2058800" lon="34.9498020">
<time>2008-04-14T20:48:52.128Z</time>
</trkpt>
<trkpt lat="31.2013400" lon="34.9521450">
<time>2008-04-14T20:48:53.355Z</time>
</trkpt>
<trkpt lat="31.1976480" lon="34.9543050">
<time>2008-04-14T20:48:54.487Z</time>
</trkpt>
<trkpt lat="31.1951100" lon="34.9563730">
<time>2008-04-14T20:48:55.826Z</time>
</trkpt>
<trkpt lat="31.1928020" lon="34.9579020">
<time>2008-04-14T20:48:58.236Z</time>
</trkpt>
<trkpt lat="31.1908800" lon="34.9595200">
<time>2008-04-14T20:49:09.218Z</time>
</trkpt>
<trkpt lat="31.1885730" lon="34.9613180">
<time>2008-04-14T20:49:10.142Z</time>
</trkpt>
<trkpt lat="31.1865740" lon="34.9631150">
<time>2008-04-14T20:49:11.283Z</time>
</trkpt>
<trkpt lat="31.1851890" lon="34.9637460">
<time>2008-04-14T20:49:12.389Z</time>
</trkpt>
<trkpt lat="31.1844970" lon="34.9643750">
<time>2008-04-14T20:49:13.201Z</time>
</trkpt>
<trkpt lat="31.1839590" lon="34.9650930">
<time>2008-04-14T20:49:13.935Z</time>
</trkpt>
<trkpt lat="31.1825750" lon="34.9663510">
<time>2008-04-14T20:49:18.420Z</time>
</trkpt>
<trkpt lat="31.1816510" lon="34.9665320">
<time>2008-04-14T20:49:28.580Z</time>
</trkpt>
<trkpt lat="31.1809590" lon="34.9673400">
<time>2008-04-14T20:49:29.660Z</time>
</trkpt>
<trkpt lat="31.1803440" lon="34.9680590">
<time>2008-04-14T20:49:30.464Z</time>
</trkpt>
<trkpt lat="31.1793440" lon="34.9684190">
<time>2008-04-14T20:49:31.457Z</time>
</trkpt>
<trkpt lat="31.1788070" lon="34.9694960">
<time>2008-04-14T20:49:32.667Z</time>
</trkpt>
<trkpt lat="31.1778080" lon="34.9708420">
<time>2008-04-14T20:49:33.764Z</time>
</trkpt>
<trkpt lat="31.1766550" lon="34.9722780">
<time>2008-04-14T20:49:34.810Z</time>
</trkpt>
<trkpt lat="31.1743480" lon="34.9739860">
<time>2008-04-14T20:49:37.644Z</time>
</trkpt>
<trkpt lat="31.1732710" lon="34.9746160">
<time>2008-04-14T20:49:38.611Z</time>
</trkpt>
<trkpt lat="31.1728080" lon="34.9746170">
<time>2008-04-14T20:49:39.268Z</time>
</trkpt>
<trkpt lat="31.1721940" lon="34.9755140">
<time>2008-04-14T20:49:40.763Z</time>
</trkpt>
<trkpt lat="31.1711940" lon="34.9760540">
<time>2008-04-14T20:49:41.903Z</time>
</trkpt>
<trkpt lat="31.1705000" lon="34.9760560">
<time>2008-04-14T20:49:42.577Z</time>
</trkpt>
<trkpt lat="31.1695770" lon="34.9767750">
<time>2008-04-14T20:49:43.519Z</time>
</trkpt>
<trkpt lat="31.1683470" lon="34.9776740">
<time>2008-04-14T20:49:44.763Z</time>
</trkpt>
<trkpt lat="31.1671150" lon="34.9782140">
<time>2008-04-14T20:49:50.111Z</time>
</trkpt>
<trkpt lat="31.1660380" lon="34.9784860">
<time>2008-04-14T20:49:50.984Z</time>
</trkpt>
<trkpt lat="31.1651140" lon="34.9786670">
<time>2008-04-14T20:49:52.159Z</time>
</trkpt>
<trkpt lat="31.1643440" lon="34.9788480">
<time>2008-04-14T20:50:53.874Z</time>
</trkpt>
<trkpt lat="31.1628050" lon="34.9797480">
<time>2008-04-14T20:50:54.972Z</time>
</trkpt>
<trkpt lat="31.1614200" lon="34.9807360">
<time>2008-04-14T20:50:55.827Z</time>
</trkpt>
<trkpt lat="31.1599580" lon="34.9813670">
<time>2008-04-14T20:50:56.561Z</time>
</trkpt>
<trkpt lat="31.1589570" lon="34.9815480">
<time>2008-04-14T20:50:57.218Z</time>
</trkpt>
<trkpt lat="31.1571870" lon="34.9821790">
<time>2008-04-14T20:50:58.358Z</time>
</trkpt>
<trkpt lat="31.1559540" lon="34.9822720">
<time>2008-04-14T20:50:58.955Z</time>
</trkpt>
<trkpt lat="31.1544910" lon="34.9825440">
<time>2008-04-14T20:50:59.689Z</time>
</trkpt>
<trkpt lat="31.1530290" lon="34.9829960">
<time>2008-04-14T20:51:09.279Z</time>
</trkpt>
<trkpt lat="31.1517970" lon="34.9833570">
<time>2008-04-14T20:51:10.221Z</time>
</trkpt>
<trkpt lat="31.1496420" lon="34.9840780">
<time>2008-04-14T20:51:12.355Z</time>
</trkpt>
<trkpt lat="31.1484110" lon="34.9849770">
<time>2008-04-14T20:51:13.738Z</time>
</trkpt>
<trkpt lat="31.1475650" lon="34.9855160">
<time>2008-04-14T20:51:14.558Z</time>
</trkpt>
<trkpt lat="31.1464110" lon="34.9865940">
<time>2008-04-14T20:51:15.673Z</time>
</trkpt>
<trkpt lat="31.1455660" lon="34.9875810">
<time>2008-04-14T20:51:16.356Z</time>
</trkpt>
<trkpt lat="31.1437210" lon="34.9896450">
<time>2008-04-14T20:51:18.092Z</time>
</trkpt>
<trkpt lat="31.1353410" lon="34.9987980">
<time>2008-04-14T20:51:20.814Z</time>
</trkpt>
<trkpt lat="31.1341110" lon="35.0001440">
<time>2008-04-14T20:51:23.933Z</time>
</trkpt>
<trkpt lat="31.1312670" lon="35.0040000">
<time>2008-04-14T20:51:35.528Z</time>
</trkpt>
<trkpt lat="31.1305000" lon="35.0057030">
<time>2008-04-14T20:52:10.468Z</time>
</trkpt>
<trkpt lat="31.1295780" lon="35.0073170">
<time>2008-04-14T20:52:11.436Z</time>
</trkpt>
<trkpt lat="31.1280400" lon="35.0089320">
<time>2008-04-14T20:52:20.110Z</time>
</trkpt>
<trkpt lat="31.1263480" lon="35.0104570">
<time>2008-04-14T20:52:21.657Z</time>
</trkpt>
<trkpt lat="31.1268870" lon="35.0108140">
<time>2008-04-14T20:52:22.685Z</time>
</trkpt>
<trkpt lat="31.1271200" lon="35.0114410">
<time>2008-04-14T20:52:23.316Z</time>
</trkpt>
<trkpt lat="31.1255040" lon="35.0126980">
<time>2008-04-14T20:52:27.808Z</time>
</trkpt>
<trkpt lat="31.1235800" lon="35.0135070">
<time>2008-04-14T20:52:28.560Z</time>
</trkpt>
<trkpt lat="31.1221940" lon="35.0142260">
<time>2008-04-14T20:52:29.234Z</time>
</trkpt>
<trkpt lat="31.1201150" lon="35.0144100">
<time>2008-04-14T20:53:16.253Z</time>
</trkpt>
<trkpt lat="31.1193480" lon="35.0166500">
<time>2008-04-14T20:53:17.471Z</time>
</trkpt>
<trkpt lat="31.1182750" lon="35.0198750">
<time>2008-04-14T20:53:18.249Z</time>
</trkpt>
<trkpt lat="31.1172000" lon="35.0225630">
<time>2008-04-14T20:53:19.277Z</time>
</trkpt>
<trkpt lat="31.1165090" lon="35.0235490">
<time>2008-04-14T20:53:20.374Z</time>
</trkpt>
<trkpt lat="31.1156620" lon="35.0240880">
<time>2008-04-14T20:53:21.687Z</time>
</trkpt>
<trkpt lat="31.1152790" lon="35.0253420">
<time>2008-04-14T20:53:24.167Z</time>
</trkpt>
<trkpt lat="31.1145880" lon="35.0266860">
<time>2008-04-14T20:53:24.876Z</time>
</trkpt>
<trkpt lat="31.1138960" lon="35.0280300">
<time>2008-04-14T20:53:25.472Z</time>
</trkpt>
<trkpt lat="31.1132820" lon="35.0290160">
<time>2008-04-14T20:53:26.215Z</time>
</trkpt>
<trkpt lat="31.1125130" lon="35.0300920">
<time>2008-04-14T20:53:27.468Z</time>
</trkpt>
<trkpt lat="31.1122060" lon="35.0309880">
<time>2008-04-14T20:53:28.236Z</time>
</trkpt>
<trkpt lat="31.1109750" lon="35.0317960">
<time>2008-04-14T20:53:29.204Z</time>
</trkpt>
<trkpt lat="31.1102050" lon="35.0323340">
<time>2008-04-14T20:53:29.861Z</time>
</trkpt>
<trkpt lat="31.1095120" lon="35.0326040">
<time>2008-04-14T20:53:30.751Z</time>
</trkpt>
<trkpt lat="31.1087440" lon="35.0337690">
<time>2008-04-14T20:53:31.580Z</time>
</trkpt>
<trkpt lat="31.1079750" lon="35.0348450">
<time>2008-04-14T20:53:32.487Z</time>
</trkpt>
<trkpt lat="31.1072830" lon="35.0355620">
<time>2008-04-14T20:53:33.265Z</time>
</trkpt>
<trkpt lat="31.1064360" lon="35.0360120">
<time>2008-04-14T20:53:34.362Z</time>
</trkpt>
<trkpt lat="31.1055130" lon="35.0364610">
<time>2008-04-14T20:53:35.589Z</time>
</trkpt>
<trkpt lat="31.1047430" lon="35.0369990">
<time>2008-04-14T20:53:36.436Z</time>
</trkpt>
<trkpt lat="31.1038220" lon="35.0390600">
<time>2008-04-14T20:53:37.542Z</time>
</trkpt>
<trkpt lat="31.1034390" lon="35.0407610">
<time>2008-04-14T20:53:38.622Z</time>
</trkpt>
<trkpt lat="31.1032090" lon="35.0421940">
<time>2008-04-14T20:53:39.546Z</time>
</trkpt>
<trkpt lat="31.1025170" lon="35.0430900">
<time>2008-04-14T20:53:40.358Z</time>
</trkpt>
<trkpt lat="31.1022110" lon="35.0440760">
<time>2008-04-14T20:53:41.559Z</time>
</trkpt>
<trkpt lat="31.1019820" lon="35.0455980">
<time>2008-04-14T20:53:42.873Z</time>
</trkpt>
<trkpt lat="31.1012880" lon="35.0450620">
<time>2008-04-14T20:53:46.035Z</time>
</trkpt>
<trkpt lat="31.0999010" lon="35.0445270">
<time>2008-04-14T20:53:46.856Z</time>
</trkpt>
<trkpt lat="31.0985140" lon="35.0442610">
<time>2008-04-14T20:53:47.892Z</time>
</trkpt>
<trkpt lat="31.0975120" lon="35.0437260">
<time>2008-04-14T20:53:48.800Z</time>
</trkpt>
<trkpt lat="31.0968170" lon="35.0429210">
<time>2008-04-14T20:53:49.595Z</time>
</trkpt>
<trkpt lat="31.0961240" lon="35.0429230">
<time>2008-04-14T20:53:50.312Z</time>
</trkpt>
<trkpt lat="31.0951220" lon="35.0422980">
<time>2008-04-14T20:53:51.219Z</time>
</trkpt>
<trkpt lat="31.0947360" lon="35.0416720">
<time>2008-04-14T20:53:51.763Z</time>
</trkpt>
<trkpt lat="31.0941190" lon="35.0410470">
<time>2008-04-14T20:53:52.342Z</time>
</trkpt>
<trkpt lat="31.0935030" lon="35.0406900">
<time>2008-04-14T20:53:52.886Z</time>
</trkpt>
<trkpt lat="31.0933470" lon="35.0398840">
<time>2008-04-14T20:53:57.310Z</time>
</trkpt>
<trkpt lat="31.0931920" lon="35.0389900">
<time>2008-04-14T20:53:57.863Z</time>
</trkpt>
<trkpt lat="31.0924980" lon="35.0385430">
<time>2008-04-14T20:53:58.356Z</time>
</trkpt>
<trkpt lat="31.0918820" lon="35.0384550">
<time>2008-04-14T20:53:59.202Z</time>
</trkpt>
<trkpt lat="31.0906510" lon="35.0394420">
<time>2008-04-14T20:55:20.513Z</time>
</trkpt>
<trkpt lat="31.0896500" lon="35.0398910">
<time>2008-04-14T20:55:21.092Z</time>
</trkpt>
<trkpt lat="31.0884190" lon="35.0404300">
<time>2008-04-14T20:55:21.783Z</time>
</trkpt>
<trkpt lat="31.0880350" lon="35.0414160">
<time>2008-04-14T20:55:22.423Z</time>
</trkpt>
<trkpt lat="31.0874970" lon="35.0426690">
<time>2008-04-14T20:55:23.062Z</time>
</trkpt>
<trkpt lat="31.0868820" lon="35.0434760">
<time>2008-04-14T20:55:23.641Z</time>
</trkpt>
<trkpt lat="31.0862670" lon="35.0440140">
<time>2008-04-14T20:55:24.237Z</time>
</trkpt>
<trkpt lat="31.0847270" lon="35.0444640">
<time>2008-04-14T20:55:25.188Z</time>
</trkpt>
<trkpt lat="31.0834950" lon="35.0446450">
<time>2008-04-14T20:55:25.792Z</time>
</trkpt>
<trkpt lat="31.0822610" lon="35.0439320">
<time>2008-04-14T20:55:26.311Z</time>
</trkpt>
<trkpt lat="31.0812590" lon="35.0433960">
<time>2008-04-14T20:55:27.062Z</time>
</trkpt>
<trkpt lat="31.0803340" lon="35.0428610">
<time>2008-04-14T20:55:31.642Z</time>
</trkpt>
<trkpt lat="31.0794110" lon="35.0434000">
<time>2008-04-14T20:55:32.264Z</time>
</trkpt>
<trkpt lat="31.0787950" lon="35.0437590">
<time>2008-04-14T20:55:32.808Z</time>
</trkpt>
<trkpt lat="31.0784880" lon="35.0443860">
<time>2008-04-14T20:55:33.767Z</time>
</trkpt>
<trkpt lat="31.0774870" lon="35.0447450">
<time>2008-04-14T20:55:34.467Z</time>
</trkpt>
<trkpt lat="31.0767170" lon="35.0447470">
<time>2008-04-14T20:55:35.028Z</time>
</trkpt>
<trkpt lat="31.0723260" lon="35.0448440">
<time>2008-04-14T20:55:36.653Z</time>
</trkpt>
<trkpt lat="31.0710940" lon="35.0445780">
<time>2008-04-14T20:56:31.154Z</time>
</trkpt>
<trkpt lat="31.0709390" lon="35.0437730">
<time>2008-04-14T20:56:31.733Z</time>
</trkpt>
<trkpt lat="31.0704760" lon="35.0435940">
<time>2008-04-14T20:56:32.683Z</time>
</trkpt>
<trkpt lat="31.0685510" lon="35.0435980">
<time>2008-04-14T20:56:33.236Z</time>
</trkpt>
<trkpt lat="31.0671640" lon="35.0431530">
<time>2008-04-14T20:56:33.953Z</time>
</trkpt>
<trkpt lat="31.0657760" lon="35.0420820">
<time>2008-04-14T20:56:35.016Z</time>
</trkpt>
<trkpt lat="31.0651630" lon="35.0450350">
<time>2008-04-14T20:56:38.748Z</time>
</trkpt>
<trkpt lat="31.0646280" lon="35.0477210">
<time>2008-04-14T20:56:46.792Z</time>
</trkpt>
<trkpt lat="31.0646280" lon="35.0482580">
<time>2008-04-14T20:56:47.924Z</time>
</trkpt>
<trkpt lat="31.0652460" lon="35.0494200">
<time>2008-04-14T20:56:48.581Z</time>
</trkpt>
<trkpt lat="31.0659410" lon="35.0504030">
<time>2008-04-14T20:56:49.324Z</time>
</trkpt>
<trkpt lat="31.0660190" lon="35.0514760">
<time>2008-04-14T20:56:53.514Z</time>
</trkpt>
<trkpt lat="31.0660990" lon="35.0539820">
<time>2008-04-14T20:56:54.404Z</time>
</trkpt>
<trkpt lat="31.0662560" lon="35.0562180">
<time>2008-04-14T20:56:55.985Z</time>
</trkpt>
<trkpt lat="31.0654080" lon="35.0557720">
<time>2008-04-14T20:56:57.394Z</time>
</trkpt>
<trkpt lat="31.0643290" lon="35.0552370">
<time>2008-04-14T20:56:57.903Z</time>
</trkpt>
<trkpt lat="31.0634040" lon="35.0547910">
<time>2008-04-14T20:56:58.465Z</time>
</trkpt>
<trkpt lat="31.0627110" lon="35.0546140">
<time>2008-04-14T20:56:59.450Z</time>
</trkpt>
<trkpt lat="31.0620940" lon="35.0538990">
<time>2008-04-14T20:56:59.934Z</time>
</trkpt>
<trkpt lat="31.0614780" lon="35.0539000">
<time>2008-04-14T20:57:00.279Z</time>
</trkpt>
<trkpt lat="31.0603980" lon="35.0531860">
<time>2008-04-14T20:57:01.187Z</time>
</trkpt>
<trkpt lat="31.0595500" lon="35.0524710">
<time>2008-04-14T20:57:01.636Z</time>
</trkpt>
<trkpt lat="31.0586260" lon="35.0522050">
<time>2008-04-14T20:57:04.919Z</time>
</trkpt>
<trkpt lat="31.0573930" lon="35.0522070">
<time>2008-04-14T20:57:05.420Z</time>
</trkpt>
<trkpt lat="31.0559300" lon="35.0522990">
<time>2008-04-14T20:57:06.388Z</time>
</trkpt>
<trkpt lat="31.0547750" lon="35.0526580">
<time>2008-04-14T20:57:07.157Z</time>
</trkpt>
<trkpt lat="31.0540040" lon="35.0523020">
<time>2008-04-14T20:57:09.904Z</time>
</trkpt>
<trkpt lat="31.0529250" lon="35.0517670">
<time>2008-04-14T20:57:10.423Z</time>
</trkpt>
<trkpt lat="31.0520770" lon="35.0509630">
<time>2008-04-14T20:57:10.984Z</time>
</trkpt>
<trkpt lat="31.0515370" lon="35.0503380">
<time>2008-04-14T20:57:12.108Z</time>
</trkpt>
<trkpt lat="31.0512280" lon="35.0494440">
<time>2008-04-14T20:57:21.059Z</time>
</trkpt>
<trkpt lat="31.0503020" lon="35.0483720">
<time>2008-04-14T20:57:21.732Z</time>
</trkpt>
<trkpt lat="31.0496080" lon="35.0474780">
<time>2008-04-14T20:57:22.484Z</time>
</trkpt>
<trkpt lat="31.0485310" lon="35.0487320">
<time>2008-04-14T20:57:30.718Z</time>
</trkpt>
<trkpt lat="31.0472230" lon="35.0501660">
<time>2008-04-14T20:57:31.824Z</time>
</trkpt>
<trkpt lat="31.0450680" lon="35.0515120">
<time>2008-04-14T20:57:33.206Z</time>
</trkpt>
<trkpt lat="31.0435290" lon="35.0524090">
<time>2008-04-14T20:57:34.235Z</time>
</trkpt>
<trkpt lat="31.0419900" lon="35.0533060">
<time>2008-04-14T20:57:40.706Z</time>
</trkpt>
<trkpt lat="31.0411430" lon="35.0534860">
<time>2008-04-14T20:57:42.754Z</time>
</trkpt>
<trkpt lat="31.0403740" lon="35.0549190">
<time>2008-04-14T20:58:13.123Z</time>
</trkpt>
<trkpt lat="31.0396830" lon="35.0565300">
<time>2008-04-14T20:58:14.549Z</time>
</trkpt>
<trkpt lat="31.0387600" lon="35.0577840">
<time>2008-04-14T20:58:15.283Z</time>
</trkpt>
<trkpt lat="31.0382990" lon="35.0586790">
<time>2008-04-14T20:58:16.061Z</time>
</trkpt>
<trkpt lat="31.0375300" lon="35.0594850">
<time>2008-04-14T20:58:17.910Z</time>
</trkpt>
<trkpt lat="31.0372220" lon="35.0602020">
<time>2008-04-14T20:58:18.627Z</time>
</trkpt>
<trkpt lat="31.0372240" lon="35.0616330">
<time>2008-04-14T20:58:19.327Z</time>
</trkpt>
<trkpt lat="31.0372250" lon="35.0627960">
<time>2008-04-14T20:58:19.923Z</time>
</trkpt>
<trkpt lat="31.0346070" lon="35.0627100">
<time>2008-04-14T20:58:21.409Z</time>
</trkpt>
<trkpt lat="31.0344540" lon="35.0642310">
<time>2008-04-14T20:58:25.643Z</time>
</trkpt>
<trkpt lat="31.0341490" lon="35.0666470">
<time>2008-04-14T20:58:26.325Z</time>
</trkpt>
<trkpt lat="31.0339970" lon="35.0687040">
<time>2008-04-14T20:58:27.440Z</time>
</trkpt>
<trkpt lat="31.0337670" lon="35.0697780">
<time>2008-04-14T20:58:41.298Z</time>
</trkpt>
<trkpt lat="31.0336920" lon="35.0716570">
<time>2008-04-14T20:58:42.154Z</time>
</trkpt>
<trkpt lat="31.0336940" lon="35.0729980">
<time>2008-04-14T20:58:43.311Z</time>
</trkpt>
<trkpt lat="31.0339270" lon="35.0752340">
<time>2008-04-14T20:58:58.267Z</time>
</trkpt>
<trkpt lat="31.0324650" lon="35.0768460">
<time>2008-04-14T20:59:05.110Z</time>
</trkpt>
</trkseg>
</trk>
<trk>
 <name>day07</name>
 <desc>14/4/2008 11:59:31 PM</desc>
<trkseg>
<trkpt lat="31.0322350" lon="35.0771150">
<time>2008-04-14T20:59:31.298Z</time>
</trkpt>
<trkpt lat="31.0329310" lon="35.0802450">
<time>2008-04-14T20:59:38.486Z</time>
</trkpt>
<trkpt lat="31.0320860" lon="35.0827500">
<time>2008-04-14T20:59:39.575Z</time>
</trkpt>
<trkpt lat="31.0311650" lon="35.0852560">
<time>2008-04-14T20:59:40.543Z</time>
</trkpt>
<trkpt lat="31.0299330" lon="35.0859730">
<time>2008-04-14T20:59:41.735Z</time>
</trkpt>
<trkpt lat="31.0287780" lon="35.0861540">
<time>2008-04-14T20:59:50.220Z</time>
</trkpt>
<trkpt lat="31.0288550" lon="35.0867800">
<time>2008-04-14T20:59:51.032Z</time>
</trkpt>
<trkpt lat="31.0290100" lon="35.0874060">
<time>2008-04-14T20:59:51.732Z</time>
</trkpt>
<trkpt lat="31.0286250" lon="35.0878530">
<time>2008-04-14T20:59:52.535Z</time>
</trkpt>
<trkpt lat="31.0276240" lon="35.0875860">
<time>2008-04-14T20:59:53.762Z</time>
</trkpt>
<trkpt lat="31.0253120" lon="35.0862480">
<time>2008-04-14T20:59:55.879Z</time>
</trkpt>
<trkpt lat="31.0221520" lon="35.0841050">
<time>2008-04-14T21:00:30.594Z</time>
</trkpt>
<trkpt lat="31.0152920" lon="35.0798220">
<time>2008-04-14T21:00:32.720Z</time>
</trkpt>
<trkpt lat="31.0120550" lon="35.0777690">
<time>2008-04-14T21:00:34.266Z</time>
</trkpt>
<trkpt lat="31.0064280" lon="35.0739320">
<time>2008-04-14T21:00:37.143Z</time>
</trkpt>
<trkpt lat="31.0032680" lon="35.0717010">
<time>2008-04-14T21:00:42.785Z</time>
</trkpt>
<trkpt lat="30.9982570" lon="35.0682210">
<time>2008-04-14T21:00:45.127Z</time>
</trkpt>
<trkpt lat="30.9938630" lon="35.0649200">
<time>2008-04-14T21:00:53.654Z</time>
</trkpt>
<trkpt lat="30.9920900" lon="35.0635810">
<time>2008-04-14T21:00:55.547Z</time>
</trkpt>
<trkpt lat="30.9922420" lon="35.0621500">
<time>2008-04-14T21:01:13.388Z</time>
</trkpt>
<trkpt lat="30.9922410" lon="35.0609880">
<time>2008-04-14T21:01:14.019Z</time>
</trkpt>
<trkpt lat="30.9920090" lon="35.0600940">
<time>2008-04-14T21:01:14.658Z</time>
</trkpt>
<trkpt lat="30.9905450" lon="35.0594710">
<time>2008-04-14T21:01:15.419Z</time>
</trkpt>
<trkpt lat="30.9893890" lon="35.0590260">
<time>2008-04-14T21:01:15.972Z</time>
</trkpt>
<trkpt lat="30.9884630" lon="35.0580440">
<time>2008-04-14T21:01:16.421Z</time>
</trkpt>
<trkpt lat="30.9876150" lon="35.0569720">
<time>2008-04-14T21:01:16.965Z</time>
</trkpt>
<trkpt lat="30.9866120" lon="35.0559010">
<time>2008-04-14T21:01:17.466Z</time>
</trkpt>
<trkpt lat="30.9856100" lon="35.0552770">
<time>2008-04-14T21:01:18.028Z</time>
</trkpt>
<trkpt lat="30.9843010" lon="35.0557260">
<time>2008-04-14T21:01:19.030Z</time>
</trkpt>
<trkpt lat="30.9831470" lon="35.0563540">
<time>2008-04-14T21:01:19.721Z</time>
</trkpt>
<trkpt lat="30.9828390" lon="35.0568010">
<time>2008-04-14T21:01:22.011Z</time>
</trkpt>
<trkpt lat="30.9809910" lon="35.0570720">
<time>2008-04-14T21:01:23.532Z</time>
</trkpt>
<trkpt lat="30.9795270" lon="35.0570750">
<time>2008-04-14T21:01:24.266Z</time>
</trkpt>
<trkpt lat="30.9782950" lon="35.0570770">
<time>2008-04-14T21:01:24.793Z</time>
</trkpt>
<trkpt lat="30.9777540" lon="35.0558260">
<time>2008-04-14T21:01:25.605Z</time>
</trkpt>
<trkpt lat="30.9769040" lon="35.0536820">
<time>2008-04-14T21:01:27.238Z</time>
</trkpt>
<trkpt lat="30.9761320" lon="35.0521630">
<time>2008-04-14T21:01:28.344Z</time>
</trkpt>
<trkpt lat="30.9749760" lon="35.0516290">
<time>2008-04-14T21:01:29.891Z</time>
</trkpt>
<trkpt lat="30.9734360" lon="35.0520790">
<time>2008-04-14T21:01:33.580Z</time>
</trkpt>
<trkpt lat="30.9724350" lon="35.0524380">
<time>2008-04-14T21:01:34.357Z</time>
</trkpt>
<trkpt lat="30.9716660" lon="35.0535120">
<time>2008-04-14T21:01:34.988Z</time>
</trkpt>
<trkpt lat="30.9705900" lon="35.0548540">
<time>2008-04-14T21:01:35.921Z</time>
</trkpt>
<trkpt lat="30.9697430" lon="35.0553920">
<time>2008-04-14T21:01:36.863Z</time>
</trkpt>
<trkpt lat="30.9687420" lon="35.0552150">
<time>2008-04-14T21:01:37.641Z</time>
</trkpt>
<trkpt lat="30.9683580" lon="35.0562880">
<time>2008-04-14T21:01:47.577Z</time>
</trkpt>
<trkpt lat="30.9670480" lon="35.0556650">
<time>2008-04-14T21:01:48.156Z</time>
</trkpt>
<trkpt lat="30.9654300" lon="35.0556670">
<time>2008-04-14T21:01:48.778Z</time>
</trkpt>
<trkpt lat="30.9639660" lon="35.0555800">
<time>2008-04-14T21:01:50.108Z</time>
</trkpt>
<trkpt lat="30.9629660" lon="35.0561180">
<time>2008-04-14T21:01:50.722Z</time>
</trkpt>
<trkpt lat="30.9608160" lon="35.0618420">
<time>2008-04-14T21:01:52.605Z</time>
</trkpt>
<trkpt lat="30.9582040" lon="35.0682810">
<time>2008-04-14T21:02:01.470Z</time>
</trkpt>
<trkpt lat="30.9548250" lon="35.0769560">
<time>2008-04-14T21:02:03.016Z</time>
</trkpt>
<trkpt lat="30.9532880" lon="35.0806220">
<time>2008-04-14T21:02:04.356Z</time>
</trkpt>
<trkpt lat="30.9509820" lon="35.0855410">
<time>2008-04-14T21:02:11.172Z</time>
</trkpt>
<trkpt lat="30.9503670" lon="35.0867030">
<time>2008-04-14T21:02:21.549Z</time>
</trkpt>
<trkpt lat="30.9502910" lon="35.0883120">
<time>2008-04-14T21:02:23.035Z</time>
</trkpt>
<trkpt lat="30.9502920" lon="35.0890270">
<time>2008-04-14T21:02:23.761Z</time>
</trkpt>
<trkpt lat="30.9496000" lon="35.0901900">
<time>2008-04-14T21:02:27.329Z</time>
</trkpt>
<trkpt lat="30.9494470" lon="35.0917090">
<time>2008-04-14T21:02:28.046Z</time>
</trkpt>
<trkpt lat="30.9485240" lon="35.0928720">
<time>2008-04-14T21:02:28.703Z</time>
</trkpt>
<trkpt lat="30.9482940" lon="35.0942130">
<time>2008-04-14T21:02:31.736Z</time>
</trkpt>
<trkpt lat="30.9476030" lon="35.0965380">
<time>2008-04-14T21:02:32.548Z</time>
</trkpt>
<trkpt lat="30.9469880" lon="35.0977000">
<time>2008-04-14T21:02:33.325Z</time>
</trkpt>
<trkpt lat="30.9466040" lon="35.0986840">
<time>2008-04-14T21:02:34.613Z</time>
</trkpt>
<trkpt lat="30.9465270" lon="35.0994880">
<time>2008-04-14T21:02:35.295Z</time>
</trkpt>
<trkpt lat="30.9459890" lon="35.1005610">
<time>2008-04-14T21:02:35.840Z</time>
</trkpt>
<trkpt lat="30.9456820" lon="35.1011870">
<time>2008-04-14T21:02:36.721Z</time>
</trkpt>
<trkpt lat="30.9432940" lon="35.1014580">
<time>2008-04-14T21:02:56.532Z</time>
</trkpt>
<trkpt lat="30.9409840" lon="35.1021750">
<time>2008-04-14T21:02:57.846Z</time>
</trkpt>
<trkpt lat="30.9384430" lon="35.1034290">
<time>2008-04-14T21:02:59.047Z</time>
</trkpt>
<trkpt lat="30.9359020" lon="35.1047730">
<time>2008-04-14T21:03:00.075Z</time>
</trkpt>
<trkpt lat="30.9342080" lon="35.1051320">
<time>2008-04-14T21:03:01.172Z</time>
</trkpt>
<trkpt lat="30.9322820" lon="35.1050450">
<time>2008-04-14T21:03:02.174Z</time>
</trkpt>
<trkpt lat="30.9290470" lon="35.1049590">
<time>2008-04-14T21:03:03.246Z</time>
</trkpt>
<trkpt lat="30.9272760" lon="35.1048720">
<time>2008-04-14T21:03:10.331Z</time>
</trkpt>
<trkpt lat="30.9261200" lon="35.1051410">
<time>2008-04-14T21:03:11.843Z</time>
</trkpt>
<trkpt lat="30.9248880" lon="35.1055890">
<time>2008-04-14T21:03:13.640Z</time>
</trkpt>
<trkpt lat="30.9242720" lon="35.1059470">
<time>2008-04-14T21:03:25.874Z</time>
</trkpt>
<trkpt lat="30.9234260" lon="35.1071090">
<time>2008-04-14T21:03:27.576Z</time>
</trkpt>
<trkpt lat="30.9222720" lon="35.1088080">
<time>2008-04-14T21:03:28.639Z</time>
</trkpt>
<trkpt lat="30.9209630" lon="35.1088990">
<time>2008-04-14T21:03:41.201Z</time>
</trkpt>
<trkpt lat="30.9201160" lon="35.1096150">
<time>2008-04-14T21:03:42.402Z</time>
</trkpt>
<trkpt lat="30.9194990" lon="35.1090790">
<time>2008-04-14T21:03:45.504Z</time>
</trkpt>
<trkpt lat="30.9190370" lon="35.1087220">
<time>2008-04-14T21:03:46.066Z</time>
</trkpt>
<trkpt lat="30.9184980" lon="35.1090800">
<time>2008-04-14T21:03:46.688Z</time>
</trkpt>
<trkpt lat="30.9184990" lon="35.1099740">
<time>2008-04-14T21:03:47.215Z</time>
</trkpt>
<trkpt lat="30.9178830" lon="35.1101530">
<time>2008-04-14T21:03:47.828Z</time>
</trkpt>
<trkpt lat="30.9173440" lon="35.1105110">
<time>2008-04-14T21:03:48.252Z</time>
</trkpt>
<trkpt lat="30.9169590" lon="35.1112260">
<time>2008-04-14T21:03:48.917Z</time>
</trkpt>
<trkpt lat="30.9165750" lon="35.1122090">
<time>2008-04-14T21:03:49.668Z</time>
</trkpt>
<trkpt lat="30.9158050" lon="35.1127460">
<time>2008-04-14T21:03:50.792Z</time>
</trkpt>
<trkpt lat="30.9148040" lon="35.1130150">
<time>2008-04-14T21:03:51.716Z</time>
</trkpt>
<trkpt lat="30.9141110" lon="35.1137310">
<time>2008-04-14T21:03:56.684Z</time>
</trkpt>
<trkpt lat="30.9131110" lon="35.1153400">
<time>2008-04-14T21:03:57.470Z</time>
</trkpt>
<trkpt lat="30.9125730" lon="35.1165020">
<time>2008-04-14T21:03:58.127Z</time>
</trkpt>
<trkpt lat="30.9120350" lon="35.1181100">
<time>2008-04-14T21:03:58.827Z</time>
</trkpt>
<trkpt lat="30.9115730" lon="35.1193610">
<time>2008-04-14T21:03:59.440Z</time>
</trkpt>
<trkpt lat="30.9101110" lon="35.1202560">
<time>2008-04-14T21:04:00.408Z</time>
</trkpt>
<trkpt lat="30.9090330" lon="35.1210610">
<time>2008-04-14T21:04:01.030Z</time>
</trkpt>
<trkpt lat="30.9086480" lon="35.1220440">
<time>2008-04-14T21:04:01.764Z</time>
</trkpt>
<trkpt lat="30.9081090" lon="35.1221340">
<time>2008-04-14T21:04:03.000Z</time>
</trkpt>
<trkpt lat="30.9071080" lon="35.1221350">
<time>2008-04-14T21:04:03.579Z</time>
</trkpt>
<trkpt lat="30.9059520" lon="35.1216890">
<time>2008-04-14T21:04:06.465Z</time>
</trkpt>
<trkpt lat="30.9050280" lon="35.1222260">
<time>2008-04-14T21:04:07.061Z</time>
</trkpt>
<trkpt lat="30.9044900" lon="35.1232090">
<time>2008-04-14T21:04:07.657Z</time>
</trkpt>
<trkpt lat="30.9041050" lon="35.1241920">
<time>2008-04-14T21:04:08.435Z</time>
</trkpt>
<trkpt lat="30.9034130" lon="35.1256220">
<time>2008-04-14T21:04:09.420Z</time>
</trkpt>
<trkpt lat="30.9027980" lon="35.1273200">
<time>2008-04-14T21:04:10.862Z</time>
</trkpt>
<trkpt lat="30.9021820" lon="35.1283920">
<time>2008-04-14T21:04:15.200Z</time>
</trkpt>
<trkpt lat="30.9020290" lon="35.1293750">
<time>2008-04-14T21:04:15.917Z</time>
</trkpt>
<trkpt lat="30.9020290" lon="35.1298220">
<time>2008-04-14T21:04:17.152Z</time>
</trkpt>
<trkpt lat="30.9009510" lon="35.1304480">
<time>2008-04-14T21:04:21.688Z</time>
</trkpt>
<trkpt lat="30.9001050" lon="35.1314310">
<time>2008-04-14T21:04:22.310Z</time>
</trkpt>
<trkpt lat="30.8987180" lon="35.1317890">
<time>2008-04-14T21:05:33.340Z</time>
</trkpt>
<trkpt lat="30.8973320" lon="35.1320590">
<time>2008-04-14T21:05:33.988Z</time>
</trkpt>
<trkpt lat="30.8953300" lon="35.1328640">
<time>2008-04-14T21:05:35.595Z</time>
</trkpt>
<trkpt lat="30.8934820" lon="35.1335800">
<time>2008-04-14T21:05:36.407Z</time>
</trkpt>
<trkpt lat="30.8918640" lon="35.1340280">
<time>2008-04-14T21:05:37.988Z</time>
</trkpt>
<trkpt lat="30.8910950" lon="35.1351010">
<time>2008-04-14T21:05:38.688Z</time>
</trkpt>
<trkpt lat="30.8905560" lon="35.1362620">
<time>2008-04-14T21:05:39.440Z</time>
</trkpt>
<trkpt lat="30.8903260" lon="35.1377810">
<time>2008-04-14T21:05:40.105Z</time>
</trkpt>
<trkpt lat="30.8899410" lon="35.1384950">
<time>2008-04-14T21:05:40.813Z</time>
</trkpt>
<trkpt lat="30.8890170" lon="35.1389430">
<time>2008-04-14T21:05:41.721Z</time>
</trkpt>
<trkpt lat="30.8879390" lon="35.1392110">
<time>2008-04-14T21:05:42.420Z</time>
</trkpt>
<trkpt lat="30.8871690" lon="35.1401940">
<time>2008-04-14T21:05:44.002Z</time>
</trkpt>
<trkpt lat="30.8857070" lon="35.1417140">
<time>2008-04-14T21:05:47.233Z</time>
</trkpt>
<trkpt lat="30.8840900" lon="35.1426970">
<time>2008-04-14T21:05:48.451Z</time>
</trkpt>
<trkpt lat="30.8824730" lon="35.1439490">
<time>2008-04-14T21:05:49.669Z</time>
</trkpt>
<trkpt lat="30.8800090" lon="35.1454690">
<time>2008-04-14T21:05:51.060Z</time>
</trkpt>
<trkpt lat="30.8780070" lon="35.1462740">
<time>2008-04-14T21:05:57.204Z</time>
</trkpt>
<trkpt lat="30.8761580" lon="35.1467220">
<time>2008-04-14T21:05:58.733Z</time>
</trkpt>
<trkpt lat="30.8739250" lon="35.1471700">
<time>2008-04-14T21:06:00.063Z</time>
</trkpt>
<trkpt lat="30.8728460" lon="35.1476170">
<time>2008-04-14T21:06:00.996Z</time>
</trkpt>
<trkpt lat="30.8710760" lon="35.1490470">
<time>2008-04-14T21:06:02.172Z</time>
</trkpt>
<trkpt lat="30.8696130" lon="35.1503870">
<time>2008-04-14T21:06:03.113Z</time>
</trkpt>
<trkpt lat="30.8690740" lon="35.1510130">
<time>2008-04-14T21:06:03.856Z</time>
</trkpt>
<trkpt lat="30.8672260" lon="35.1528890">
<time>2008-04-14T21:06:05.472Z</time>
</trkpt>
<trkpt lat="30.8658400" lon="35.1544970">
<time>2008-04-14T21:06:10.691Z</time>
</trkpt>
<trkpt lat="30.8650710" lon="35.1559260">
<time>2008-04-14T21:06:11.589Z</time>
</trkpt>
<trkpt lat="30.8639160" lon="35.1581590">
<time>2008-04-14T21:06:12.315Z</time>
</trkpt>
<trkpt lat="30.8633010" lon="35.1597670">
<time>2008-04-14T21:06:13.127Z</time>
</trkpt>
<trkpt lat="30.8623000" lon="35.1612850">
<time>2008-04-14T21:06:13.922Z</time>
</trkpt>
<trkpt lat="30.8608370" lon="35.1634290">
<time>2008-04-14T21:06:17.309Z</time>
</trkpt>
<trkpt lat="30.8599130" lon="35.1649470">
<time>2008-04-14T21:06:25.482Z</time>
</trkpt>
<trkpt lat="30.8587590" lon="35.1665550">
<time>2008-04-14T21:06:26.580Z</time>
</trkpt>
<trkpt lat="30.8576810" lon="35.1678950">
<time>2008-04-14T21:06:27.737Z</time>
</trkpt>
<trkpt lat="30.8564490" lon="35.1693240">
<time>2008-04-14T21:06:28.860Z</time>
</trkpt>
<trkpt lat="30.8559100" lon="35.1701280">
<time>2008-04-14T21:06:29.595Z</time>
</trkpt>
<trkpt lat="30.8557560" lon="35.1717350">
<time>2008-04-14T21:06:30.355Z</time>
</trkpt>
<trkpt lat="30.8557570" lon="35.1736990">
<time>2008-04-14T21:06:31.357Z</time>
</trkpt>
<trkpt lat="30.8555260" lon="35.1748600">
<time>2008-04-14T21:06:31.936Z</time>
</trkpt>
<trkpt lat="30.8549870" lon="35.1760210">
<time>2008-04-14T21:06:33.042Z</time>
</trkpt>
<trkpt lat="30.8542940" lon="35.1773600">
<time>2008-04-14T21:06:34.200Z</time>
</trkpt>
<trkpt lat="30.8519850" lon="35.1810210">
<time>2008-04-14T21:06:35.669Z</time>
</trkpt>
<trkpt lat="30.8506760" lon="35.1834320">
<time>2008-04-14T21:06:36.628Z</time>
</trkpt>
<trkpt lat="30.8492130" lon="35.1864680">
<time>2008-04-14T21:06:37.829Z</time>
</trkpt>
<trkpt lat="30.8479040" lon="35.1889680">
<time>2008-04-14T21:06:39.064Z</time>
</trkpt>
<trkpt lat="30.8467490" lon="35.1912900">
<time>2008-04-14T21:06:40.628Z</time>
</trkpt>
<trkpt lat="30.8446700" lon="35.1956640">
<time>2008-04-14T21:06:45.285Z</time>
</trkpt>
<trkpt lat="30.8432070" lon="35.1988780">
<time>2008-04-14T21:06:46.184Z</time>
</trkpt>
<trkpt lat="30.8423590" lon="35.2003960">
<time>2008-04-14T21:06:46.970Z</time>
</trkpt>
<trkpt lat="30.8417430" lon="35.2014670">
<time>2008-04-14T21:06:47.860Z</time>
</trkpt>
<trkpt lat="30.8403570" lon="35.2016460">
<time>2008-04-14T21:06:49.199Z</time>
</trkpt>
<trkpt lat="30.8391240" lon="35.2020030">
<time>2008-04-14T21:06:50.737Z</time>
</trkpt>
<trkpt lat="30.8382000" lon="35.2024500">
<time>2008-04-14T21:06:51.670Z</time>
</trkpt>
<trkpt lat="30.8375070" lon="35.2033430">
<time>2008-04-14T21:06:53.035Z</time>
</trkpt>
<trkpt lat="30.8368140" lon="35.2060210">
<time>2008-04-14T21:06:54.409Z</time>
</trkpt>
<trkpt lat="30.8355820" lon="35.2101270">
<time>2008-04-14T21:06:57.295Z</time>
</trkpt>
<trkpt lat="30.8350420" lon="35.2118230">
<time>2008-04-14T21:07:59.045Z</time>
</trkpt>
<trkpt lat="30.8336560" lon="35.2170890">
<time>2008-04-14T21:07:59.969Z</time>
</trkpt>
<trkpt lat="30.8321920" lon="35.2203030">
<time>2008-04-14T21:08:01.421Z</time>
</trkpt>
<trkpt lat="30.8307280" lon="35.2226230">
<time>2008-04-14T21:08:02.967Z</time>
</trkpt>
<trkpt lat="30.8296500" lon="35.2249440">
<time>2008-04-14T21:08:04.030Z</time>
</trkpt>
<trkpt lat="30.8284940" lon="35.2261930">
<time>2008-04-14T21:08:05.361Z</time>
</trkpt>
<trkpt lat="30.8272620" lon="35.2267290">
<time>2008-04-14T21:08:06.294Z</time>
</trkpt>
<trkpt lat="30.8257210" lon="35.2277100">
<time>2008-04-14T21:08:07.512Z</time>
</trkpt>
<trkpt lat="30.8247970" lon="35.2288700">
<time>2008-04-14T21:08:08.497Z</time>
</trkpt>
<trkpt lat="30.8228710" lon="35.2314580">
<time>2008-04-14T21:08:09.888Z</time>
</trkpt>
<trkpt lat="30.8209450" lon="35.2344030">
<time>2008-04-14T21:08:11.340Z</time>
</trkpt>
<trkpt lat="30.8191720" lon="35.2376160">
<time>2008-04-14T21:08:12.627Z</time>
</trkpt>
<trkpt lat="30.8176310" lon="35.2400250">
<time>2008-04-14T21:08:14.502Z</time>
</trkpt>
<trkpt lat="30.8160900" lon="35.2426130">
<time>2008-04-14T21:08:20.766Z</time>
</trkpt>
<trkpt lat="30.8143950" lon="35.2454680">
<time>2008-04-14T21:08:22.062Z</time>
</trkpt>
<trkpt lat="30.8133160" lon="35.2471630">
<time>2008-04-14T21:08:23.375Z</time>
</trkpt>
<trkpt lat="30.8116980" lon="35.2494830">
<time>2008-04-14T21:08:29.985Z</time>
</trkpt>
<trkpt lat="30.8100030" lon="35.2496610">
<time>2008-04-14T21:10:30.720Z</time>
</trkpt>
<trkpt lat="30.8082320" lon="35.2496600">
<time>2008-04-14T21:10:31.454Z</time>
</trkpt>
<trkpt lat="30.8069990" lon="35.2495700">
<time>2008-04-14T21:10:32.154Z</time>
</trkpt>
<trkpt lat="30.8059210" lon="35.2492130">
<time>2008-04-14T21:10:33.044Z</time>
</trkpt>
<trkpt lat="30.8046120" lon="35.2487660">
<time>2008-04-14T21:10:35.800Z</time>
</trkpt>
<trkpt lat="30.8035330" lon="35.2484980">
<time>2008-04-14T21:10:37.001Z</time>
</trkpt>
<trkpt lat="30.8028400" lon="35.2477840">
<time>2008-04-14T21:10:40.716Z</time>
</trkpt>
<trkpt lat="30.7990660" lon="35.2488540">
<time>2008-04-14T21:10:51.128Z</time>
</trkpt>
</trkseg>
</trk>
<trk>
 <name>day08</name>
 <desc>19/4/2008 10:44:43 AM</desc>
<trkseg>
<trkpt lat="30.7992970" lon="35.2487640">
<time>2008-04-19T07:44:42.999Z</time>
</trkpt>
<trkpt lat="30.7989120" lon="35.2476940">
<time>2008-04-19T07:44:43.708Z</time>
</trkpt>
<trkpt lat="30.7986040" lon="35.2464440">
<time>2008-04-19T07:44:47.190Z</time>
</trkpt>
<trkpt lat="30.7981420" lon="35.2458190">
<time>2008-04-19T07:44:48.503Z</time>
</trkpt>
<trkpt lat="30.7975260" lon="35.2451950">
<time>2008-04-19T07:44:49.298Z</time>
</trkpt>
<trkpt lat="30.7984510" lon="35.2433210">
<time>2008-04-19T07:44:50.654Z</time>
</trkpt>
<trkpt lat="30.7980660" lon="35.2426960">
<time>2008-04-19T07:44:51.406Z</time>
</trkpt>
<trkpt lat="30.7966030" lon="35.2411790">
<time>2008-04-19T07:44:53.125Z</time>
</trkpt>
<trkpt lat="30.7949850" lon="35.2397510">
<time>2008-04-19T07:44:54.974Z</time>
</trkpt>
<trkpt lat="30.7934450" lon="35.2389470">
<time>2008-04-19T07:44:58.404Z</time>
</trkpt>
<trkpt lat="30.7921360" lon="35.2384120">
<time>2008-04-19T07:44:59.251Z</time>
</trkpt>
<trkpt lat="30.7905180" lon="35.2378760">
<time>2008-04-19T07:45:00.469Z</time>
</trkpt>
<trkpt lat="30.7888240" lon="35.2375190">
<time>2008-04-19T07:45:01.333Z</time>
</trkpt>
<trkpt lat="30.7871290" lon="35.2375180">
<time>2008-04-19T07:45:12.678Z</time>
</trkpt>
<trkpt lat="30.7861280" lon="35.2376070">
<time>2008-04-19T07:45:13.360Z</time>
</trkpt>
<trkpt lat="30.7850490" lon="35.2366250">
<time>2008-04-19T07:45:14.423Z</time>
</trkpt>
<trkpt lat="30.7829700" lon="35.2357330">
<time>2008-04-19T07:45:15.581Z</time>
</trkpt>
<trkpt lat="30.7812760" lon="35.2345730">
<time>2008-04-19T07:45:16.548Z</time>
</trkpt>
<trkpt lat="30.7781950" lon="35.2320740">
<time>2008-04-19T07:45:17.672Z</time>
</trkpt>
<trkpt lat="30.7744980" lon="35.2288620">
<time>2008-04-19T07:45:18.864Z</time>
</trkpt>
<trkpt lat="30.7711860" lon="35.2258280">
<time>2008-04-19T07:45:20.661Z</time>
</trkpt>
<trkpt lat="30.7707240" lon="35.2253820">
<time>2008-04-19T07:45:22.441Z</time>
</trkpt>
<trkpt lat="30.7705700" lon="35.2247580">
<time>2008-04-19T07:45:24.437Z</time>
</trkpt>
<trkpt lat="30.7694920" lon="35.2236870">
<time>2008-04-19T07:45:38.045Z</time>
</trkpt>
<trkpt lat="30.7679510" lon="35.2227060">
<time>2008-04-19T07:45:38.736Z</time>
</trkpt>
<trkpt lat="30.7664110" lon="35.2214570">
<time>2008-04-19T07:45:39.393Z</time>
</trkpt>
<trkpt lat="30.7656410" lon="35.2209210">
<time>2008-04-19T07:45:40.144Z</time>
</trkpt>
<trkpt lat="30.7656410" lon="35.2187810">
<time>2008-04-19T07:45:41.000Z</time>
</trkpt>
<trkpt lat="30.7649480" lon="35.2166400">
<time>2008-04-19T07:45:41.630Z</time>
</trkpt>
<trkpt lat="30.7647160" lon="35.2160150">
<time>2008-04-19T07:45:45.225Z</time>
</trkpt>
<trkpt lat="30.7624830" lon="35.2136960">
<time>2008-04-19T07:46:00.811Z</time>
</trkpt>
<trkpt lat="30.7607880" lon="35.2120010">
<time>2008-04-19T07:46:01.485Z</time>
</trkpt>
<trkpt lat="30.7586310" lon="35.2102180">
<time>2008-04-19T07:46:03.783Z</time>
</trkpt>
<trkpt lat="30.7583230" lon="35.2100390">
<time>2008-04-19T07:46:11.404Z</time>
</trkpt>
<trkpt lat="30.7552420" lon="35.2093260">
<time>2008-04-19T07:46:12.078Z</time>
</trkpt>
<trkpt lat="30.7504660" lon="35.2073640">
<time>2008-04-19T07:46:13.443Z</time>
</trkpt>
<trkpt lat="30.7481550" lon="35.2061150">
<time>2008-04-19T07:46:14.834Z</time>
</trkpt>
<trkpt lat="30.7463070" lon="35.2044210">
<time>2008-04-19T07:46:15.672Z</time>
</trkpt>
<trkpt lat="30.7439960" lon="35.2020130">
<time>2008-04-19T07:46:16.596Z</time>
</trkpt>
<trkpt lat="30.7424550" lon="35.1997840">
<time>2008-04-19T07:46:17.409Z</time>
</trkpt>
<trkpt lat="30.7402210" lon="35.1968410">
<time>2008-04-19T07:46:18.990Z</time>
</trkpt>
<trkpt lat="30.7379100" lon="35.1939880">
<time>2008-04-19T07:46:20.519Z</time>
</trkpt>
<trkpt lat="30.7352130" lon="35.1906890">
<time>2008-04-19T07:46:21.858Z</time>
</trkpt>
<trkpt lat="30.7336720" lon="35.1888170">
<time>2008-04-19T07:46:22.817Z</time>
</trkpt>
<trkpt lat="30.7324400" lon="35.1876580">
<time>2008-04-19T07:46:24.001Z</time>
</trkpt>
<trkpt lat="30.7313610" lon="35.1874800">
<time>2008-04-19T07:46:24.718Z</time>
</trkpt>
<trkpt lat="30.7302060" lon="35.1878370">
<time>2008-04-19T07:46:25.859Z</time>
</trkpt>
<trkpt lat="30.7260470" lon="35.1895320">
<time>2008-04-19T07:46:27.595Z</time>
</trkpt>
<trkpt lat="30.7222720" lon="35.1914060">
<time>2008-04-19T07:46:29.332Z</time>
</trkpt>
<trkpt lat="30.7204240" lon="35.1918520">
<time>2008-04-19T07:46:30.896Z</time>
</trkpt>
<trkpt lat="30.7187290" lon="35.1921200">
<time>2008-04-19T07:46:31.941Z</time>
</trkpt>
<trkpt lat="30.7176510" lon="35.1924760">
<time>2008-04-19T07:46:33.453Z</time>
</trkpt>
<trkpt lat="30.7163420" lon="35.1930120">
<time>2008-04-19T07:46:34.723Z</time>
</trkpt>
<trkpt lat="30.7148010" lon="35.1933680">
<time>2008-04-19T07:46:35.786Z</time>
</trkpt>
<trkpt lat="30.7136460" lon="35.1927450">
<time>2008-04-19T07:46:36.624Z</time>
</trkpt>
<trkpt lat="30.7128750" lon="35.1914970">
<time>2008-04-19T07:46:37.393Z</time>
</trkpt>
<trkpt lat="30.7115650" lon="35.1891790">
<time>2008-04-19T07:46:40.780Z</time>
</trkpt>
<trkpt lat="30.7105640" lon="35.1875750">
<time>2008-04-19T07:46:45.394Z</time>
</trkpt>
<trkpt lat="30.7088690" lon="35.1859700">
<time>2008-04-19T07:46:49.584Z</time>
</trkpt>
<trkpt lat="30.7074050" lon="35.1846340">
<time>2008-04-19T07:46:50.379Z</time>
</trkpt>
<trkpt lat="30.7066340" lon="35.1837420">
<time>2008-04-19T07:46:51.036Z</time>
</trkpt>
<trkpt lat="30.7060950" lon="35.1827620">
<time>2008-04-19T07:46:51.770Z</time>
</trkpt>
<trkpt lat="30.7050930" lon="35.1816930">
<time>2008-04-19T07:46:52.409Z</time>
</trkpt>
<trkpt lat="30.7038610" lon="35.1813360">
<time>2008-04-19T07:46:53.299Z</time>
</trkpt>
<trkpt lat="30.7023200" lon="35.1824960">
<time>2008-04-19T07:46:56.185Z</time>
</trkpt>
<trkpt lat="30.7012420" lon="35.1833870">
<time>2008-04-19T07:46:56.928Z</time>
</trkpt>
<trkpt lat="30.6999330" lon="35.1841900">
<time>2008-04-19T07:46:57.922Z</time>
</trkpt>
<trkpt lat="30.6976220" lon="35.1844580">
<time>2008-04-19T07:46:59.295Z</time>
</trkpt>
<trkpt lat="30.6959270" lon="35.1843690">
<time>2008-04-19T07:47:00.488Z</time>
</trkpt>
<trkpt lat="30.6949260" lon="35.1841020">
<time>2008-04-19T07:47:01.905Z</time>
</trkpt>
<trkpt lat="30.6936940" lon="35.1843700">
<time>2008-04-19T07:47:03.270Z</time>
</trkpt>
<trkpt lat="30.6921530" lon="35.1847270">
<time>2008-04-19T07:47:04.842Z</time>
</trkpt>
<trkpt lat="30.6910750" lon="35.1844600">
<time>2008-04-19T07:47:05.957Z</time>
</trkpt>
<trkpt lat="30.6893800" lon="35.1842820">
<time>2008-04-19T07:47:07.529Z</time>
</trkpt>
<trkpt lat="30.6870690" lon="35.1844610">
<time>2008-04-19T07:47:08.782Z</time>
</trkpt>
<trkpt lat="30.6853740" lon="35.1839270">
<time>2008-04-19T07:47:09.828Z</time>
</trkpt>
<trkpt lat="30.6839110" lon="35.1833920">
<time>2008-04-19T07:47:10.942Z</time>
</trkpt>
<trkpt lat="30.6818310" lon="35.1828580">
<time>2008-04-19T07:47:12.454Z</time>
</trkpt>
<trkpt lat="30.6803670" lon="35.1826810">
<time>2008-04-19T07:47:14.234Z</time>
</trkpt>
<trkpt lat="30.6796740" lon="35.1825920">
<time>2008-04-19T07:47:33.346Z</time>
</trkpt>
<trkpt lat="30.6778250" lon="35.1821470">
<time>2008-04-19T07:47:34.218Z</time>
</trkpt>
<trkpt lat="30.6761300" lon="35.1812560">
<time>2008-04-19T07:47:35.298Z</time>
</trkpt>
<trkpt lat="30.6746670" lon="35.1798310">
<time>2008-04-19T07:47:36.093Z</time>
</trkpt>
<trkpt lat="30.6738960" lon="35.1792960">
<time>2008-04-19T07:47:37.484Z</time>
</trkpt>
<trkpt lat="30.6731260" lon="35.1786730">
<time>2008-04-19T07:47:38.158Z</time>
</trkpt>
<trkpt lat="30.6719700" lon="35.1783170">
<time>2008-04-19T07:47:39.100Z</time>
</trkpt>
<trkpt lat="30.6710460" lon="35.1773370">
<time>2008-04-19T07:47:39.739Z</time>
</trkpt>
<trkpt lat="30.6698130" lon="35.1762680">
<time>2008-04-19T07:47:42.504Z</time>
</trkpt>
<trkpt lat="30.6686570" lon="35.1760010">
<time>2008-04-19T07:47:43.705Z</time>
</trkpt>
<trkpt lat="30.6674250" lon="35.1760900">
<time>2008-04-19T07:47:44.845Z</time>
</trkpt>
<trkpt lat="30.6663470" lon="35.1773380">
<time>2008-04-19T07:47:46.046Z</time>
</trkpt>
<trkpt lat="30.6652690" lon="35.1782300">
<time>2008-04-19T07:47:47.584Z</time>
</trkpt>
<trkpt lat="30.6637280" lon="35.1786760">
<time>2008-04-19T07:47:49.312Z</time>
</trkpt>
<trkpt lat="30.6620340" lon="35.1789440">
<time>2008-04-19T07:47:50.410Z</time>
</trkpt>
<trkpt lat="30.6608780" lon="35.1784100">
<time>2008-04-19T07:47:51.239Z</time>
</trkpt>
<trkpt lat="30.6597220" lon="35.1778750">
<time>2008-04-19T07:47:52.017Z</time>
</trkpt>
<trkpt lat="30.6581050" lon="35.1782320">
<time>2008-04-19T07:47:53.097Z</time>
</trkpt>
<trkpt lat="30.6569500" lon="35.1789450">
<time>2008-04-19T07:47:54.626Z</time>
</trkpt>
<trkpt lat="30.6553320" lon="35.1791240">
<time>2008-04-19T07:47:55.654Z</time>
</trkpt>
<trkpt lat="30.6530980" lon="35.1790360">
<time>2008-04-19T07:47:56.959Z</time>
</trkpt>
<trkpt lat="30.6513270" lon="35.1791260">
<time>2008-04-19T07:47:58.047Z</time>
</trkpt>
<trkpt lat="30.6505560" lon="35.1791260">
<time>2008-04-19T07:48:05.988Z</time>
</trkpt>
<trkpt lat="30.6494780" lon="35.1801950">
<time>2008-04-19T07:48:06.877Z</time>
</trkpt>
<trkpt lat="30.6483230" lon="35.1812650">
<time>2008-04-19T07:48:07.880Z</time>
</trkpt>
<trkpt lat="30.6465510" lon="35.1819780">
<time>2008-04-19T07:48:09.452Z</time>
</trkpt>
<trkpt lat="30.6448570" lon="35.1819790">
<time>2008-04-19T07:48:10.748Z</time>
</trkpt>
<trkpt lat="30.6428540" lon="35.1815340">
<time>2008-04-19T07:48:11.785Z</time>
</trkpt>
<trkpt lat="30.6414670" lon="35.1809110">
<time>2008-04-19T07:48:12.675Z</time>
</trkpt>
<trkpt lat="30.6403120" lon="35.1799310">
<time>2008-04-19T07:48:14.109Z</time>
</trkpt>
<trkpt lat="30.6392330" lon="35.1789520">
<time>2008-04-19T07:48:15.155Z</time>
</trkpt>
<trkpt lat="30.6382310" lon="35.1780610">
<time>2008-04-19T07:48:20.330Z</time>
</trkpt>
<trkpt lat="30.6374610" lon="35.1770810">
<time>2008-04-19T07:48:21.099Z</time>
</trkpt>
<trkpt lat="30.6371520" lon="35.1757450">
<time>2008-04-19T07:48:22.490Z</time>
</trkpt>
<trkpt lat="30.6368440" lon="35.1747660">
<time>2008-04-19T07:48:23.345Z</time>
</trkpt>
<trkpt lat="30.6359960" lon="35.1733410">
<time>2008-04-19T07:48:24.287Z</time>
</trkpt>
<trkpt lat="30.6353800" lon="35.1720050">
<time>2008-04-19T07:48:25.030Z</time>
</trkpt>
<trkpt lat="30.6352250" lon="35.1704900">
<time>2008-04-19T07:48:25.739Z</time>
</trkpt>
<trkpt lat="30.6356100" lon="35.1687980">
<time>2008-04-19T07:48:26.577Z</time>
</trkpt>
<trkpt lat="30.6358400" lon="35.1676390">
<time>2008-04-19T07:48:27.829Z</time>
</trkpt>
<trkpt lat="30.6343770" lon="35.1672840">
<time>2008-04-19T07:48:29.048Z</time>
</trkpt>
<trkpt lat="30.6332980" lon="35.1670170">
<time>2008-04-19T07:48:29.894Z</time>
</trkpt>
<trkpt lat="30.6321420" lon="35.1663940">
<time>2008-04-19T07:48:31.018Z</time>
</trkpt>
<trkpt lat="30.6308330" lon="35.1662170">
<time>2008-04-19T07:48:32.348Z</time>
</trkpt>
<trkpt lat="30.6296780" lon="35.1666620">
<time>2008-04-19T07:48:33.566Z</time>
</trkpt>
<trkpt lat="30.6279060" lon="35.1676430">
<time>2008-04-19T07:48:36.703Z</time>
</trkpt>
<trkpt lat="30.6265970" lon="35.1682670">
<time>2008-04-19T07:48:37.895Z</time>
</trkpt>
<trkpt lat="30.6257500" lon="35.1679110">
<time>2008-04-19T07:48:38.811Z</time>
</trkpt>
<trkpt lat="30.6246710" lon="35.1675550">
<time>2008-04-19T07:48:39.848Z</time>
</trkpt>
<trkpt lat="30.6232070" lon="35.1673780">
<time>2008-04-19T07:48:41.239Z</time>
</trkpt>
<trkpt lat="30.6220520" lon="35.1679130">
<time>2008-04-19T07:48:42.561Z</time>
</trkpt>
<trkpt lat="30.6208200" lon="35.1689820">
<time>2008-04-19T07:48:44.124Z</time>
</trkpt>
<trkpt lat="30.6198960" lon="35.1694280">
<time>2008-04-19T07:48:45.282Z</time>
</trkpt>
<trkpt lat="30.6188180" lon="35.1698740">
<time>2008-04-19T07:48:49.801Z</time>
</trkpt>
<trkpt lat="30.6168920" lon="35.1704980">
<time>2008-04-19T07:48:50.786Z</time>
</trkpt>
<trkpt lat="30.6146590" lon="35.1717460">
<time>2008-04-19T07:48:52.004Z</time>
</trkpt>
<trkpt lat="30.6127330" lon="35.1730830">
<time>2008-04-19T07:48:53.940Z</time>
</trkpt>
<trkpt lat="30.6117320" lon="35.1737950">
<time>2008-04-19T07:48:55.279Z</time>
</trkpt>
<trkpt lat="30.6106540" lon="35.1739740">
<time>2008-04-19T07:48:56.592Z</time>
</trkpt>
<trkpt lat="30.6095750" lon="35.1742420">
<time>2008-04-19T07:48:57.629Z</time>
</trkpt>
<trkpt lat="30.6087280" lon="35.1748650">
<time>2008-04-19T07:48:59.003Z</time>
</trkpt>
<trkpt lat="30.6079580" lon="35.1752220">
<time>2008-04-19T07:49:00.359Z</time>
</trkpt>
<trkpt lat="30.6063410" lon="35.1759350">
<time>2008-04-19T07:49:01.560Z</time>
</trkpt>
<trkpt lat="30.6053390" lon="35.1760240">
<time>2008-04-19T07:49:02.796Z</time>
</trkpt>
<trkpt lat="30.6041840" lon="35.1761140">
<time>2008-04-19T07:49:03.850Z</time>
</trkpt>
<trkpt lat="30.6033370" lon="35.1764700">
<time>2008-04-19T07:49:05.284Z</time>
</trkpt>
<trkpt lat="30.6018730" lon="35.1766490">
<time>2008-04-19T07:49:06.874Z</time>
</trkpt>
<trkpt lat="30.6007950" lon="35.1767380">
<time>2008-04-19T07:49:07.936Z</time>
</trkpt>
<trkpt lat="30.5993310" lon="35.1769170">
<time>2008-04-19T07:49:09.811Z</time>
</trkpt>
<trkpt lat="30.5980220" lon="35.1770070">
<time>2008-04-19T07:49:11.099Z</time>
</trkpt>
<trkpt lat="30.5968660" lon="35.1767400">
<time>2008-04-19T07:49:12.611Z</time>
</trkpt>
<trkpt lat="30.5957110" lon="35.1764730">
<time>2008-04-19T07:49:14.408Z</time>
</trkpt>
<trkpt lat="30.5943240" lon="35.1762060">
<time>2008-04-19T07:49:15.816Z</time>
</trkpt>
<trkpt lat="30.5929370" lon="35.1756730">
<time>2008-04-19T07:49:27.221Z</time>
</trkpt>
<trkpt lat="30.5914740" lon="35.1750500">
<time>2008-04-19T07:49:28.327Z</time>
</trkpt>
<trkpt lat="30.5903950" lon="35.1745160">
<time>2008-04-19T07:49:29.156Z</time>
</trkpt>
<trkpt lat="30.5901640" lon="35.1744270">
<time>2008-04-19T07:49:30.755Z</time>
</trkpt>
<trkpt lat="30.5894710" lon="35.1745170">
<time>2008-04-19T07:49:37.580Z</time>
</trkpt>
<trkpt lat="30.5881610" lon="35.1741610">
<time>2008-04-19T07:49:38.410Z</time>
</trkpt>
<trkpt lat="30.5870050" lon="35.1732710">
<time>2008-04-19T07:49:39.412Z</time>
</trkpt>
<trkpt lat="30.5857730" lon="35.1719360">
<time>2008-04-19T07:49:40.207Z</time>
</trkpt>
<trkpt lat="30.5847710" lon="35.1707790">
<time>2008-04-19T07:49:41.036Z</time>
</trkpt>
<trkpt lat="30.5840000" lon="35.1700670">
<time>2008-04-19T07:49:41.892Z</time>
</trkpt>
<trkpt lat="30.5832300" lon="35.1700670">
<time>2008-04-19T07:49:42.721Z</time>
</trkpt>
<trkpt lat="30.5816890" lon="35.1698010">
<time>2008-04-19T07:49:43.723Z</time>
</trkpt>
<trkpt lat="30.5798400" lon="35.1695350">
<time>2008-04-19T07:49:44.717Z</time>
</trkpt>
<trkpt lat="30.5783770" lon="35.1689120">
<time>2008-04-19T07:49:45.624Z</time>
</trkpt>
<trkpt lat="30.5772980" lon="35.1685560">
<time>2008-04-19T07:49:46.505Z</time>
</trkpt>
<trkpt lat="30.5756800" lon="35.1679340">
<time>2008-04-19T07:49:47.516Z</time>
</trkpt>
<trkpt lat="30.5745250" lon="35.1671330">
<time>2008-04-19T07:49:48.596Z</time>
</trkpt>
<trkpt lat="30.5738310" lon="35.1659760">
<time>2008-04-19T07:49:49.547Z</time>
</trkpt>
<trkpt lat="30.5735990" lon="35.1648190">
<time>2008-04-19T07:49:50.670Z</time>
</trkpt>
<trkpt lat="30.5735990" lon="35.1635730">
<time>2008-04-19T07:49:53.642Z</time>
</trkpt>
<trkpt lat="30.5735210" lon="35.1615250">
<time>2008-04-19T07:49:54.549Z</time>
</trkpt>
<trkpt lat="30.5729810" lon="35.1594780">
<time>2008-04-19T07:49:55.456Z</time>
</trkpt>
<trkpt lat="30.5722100" lon="35.1576090">
<time>2008-04-19T07:49:56.407Z</time>
</trkpt>
<trkpt lat="30.5710540" lon="35.1568970">
<time>2008-04-19T07:49:57.582Z</time>
</trkpt>
<trkpt lat="30.5695910" lon="35.1568980">
<time>2008-04-19T07:49:59.828Z</time>
</trkpt>
<trkpt lat="30.5688210" lon="35.1572550">
<time>2008-04-19T07:50:01.971Z</time>
</trkpt>
<trkpt lat="30.5677420" lon="35.1578790">
<time>2008-04-19T07:50:03.094Z</time>
</trkpt>
<trkpt lat="30.5665870" lon="35.1589470">
<time>2008-04-19T07:50:04.217Z</time>
</trkpt>
<trkpt lat="30.5654330" lon="35.1602830">
<time>2008-04-19T07:50:05.487Z</time>
</trkpt>
<trkpt lat="30.5646630" lon="35.1610850">
<time>2008-04-19T07:50:06.412Z</time>
</trkpt>
<trkpt lat="30.5641230" lon="35.1614410">
<time>2008-04-19T07:50:07.457Z</time>
</trkpt>
<trkpt lat="30.5635840" lon="35.1612630">
<time>2008-04-19T07:50:08.045Z</time>
</trkpt>
<trkpt lat="30.5627370" lon="35.1606410">
<time>2008-04-19T07:50:09.315Z</time>
</trkpt>
<trkpt lat="30.5613500" lon="35.1602850">
<time>2008-04-19T07:50:10.378Z</time>
</trkpt>
<trkpt lat="30.5595780" lon="35.1599300">
<time>2008-04-19T07:50:11.846Z</time>
</trkpt>
<trkpt lat="30.5587310" lon="35.1598420">
<time>2008-04-19T07:50:12.624Z</time>
</trkpt>
<trkpt lat="30.5576520" lon="35.1595750">
<time>2008-04-19T07:50:13.739Z</time>
</trkpt>
<trkpt lat="30.5565740" lon="35.1594870">
<time>2008-04-19T07:50:14.732Z</time>
</trkpt>
<trkpt lat="30.5550330" lon="35.1593990">
<time>2008-04-19T07:50:16.218Z</time>
</trkpt>
<trkpt lat="30.5534930" lon="35.1595780">
<time>2008-04-19T07:50:20.936Z</time>
</trkpt>
<trkpt lat="30.5521830" lon="35.1601120">
<time>2008-04-19T07:50:21.998Z</time>
</trkpt>
<trkpt lat="30.5517210" lon="35.1606470">
<time>2008-04-19T07:50:22.828Z</time>
</trkpt>
<trkpt lat="30.5504120" lon="35.1606470">
<time>2008-04-19T07:50:23.942Z</time>
</trkpt>
<trkpt lat="30.5498730" lon="35.1610930">
<time>2008-04-19T07:50:24.815Z</time>
</trkpt>
<trkpt lat="30.5491800" lon="35.1620720">
<time>2008-04-19T07:50:25.670Z</time>
</trkpt>
<trkpt lat="30.5484870" lon="35.1626950">
<time>2008-04-19T07:50:26.984Z</time>
</trkpt>
<trkpt lat="30.5474850" lon="35.1626070">
<time>2008-04-19T07:50:28.064Z</time>
</trkpt>
<trkpt lat="30.5464070" lon="35.1623400">
<time>2008-04-19T07:50:29.221Z</time>
</trkpt>
<trkpt lat="30.5454820" lon="35.1620740">
<time>2008-04-19T07:50:30.500Z</time>
</trkpt>
<trkpt lat="30.5447120" lon="35.1620740">
<time>2008-04-19T07:50:31.269Z</time>
</trkpt>
<trkpt lat="30.5432490" lon="35.1626980">
<time>2008-04-19T07:50:33.671Z</time>
</trkpt>
<trkpt lat="30.5425550" lon="35.1626980">
<time>2008-04-19T07:50:34.423Z</time>
</trkpt>
<trkpt lat="30.5420160" lon="35.1621650">
<time>2008-04-19T07:50:34.984Z</time>
</trkpt>
<trkpt lat="30.5414770" lon="35.1620760">
<time>2008-04-19T07:50:35.615Z</time>
</trkpt>
<trkpt lat="30.5407060" lon="35.1615420">
<time>2008-04-19T07:50:36.859Z</time>
</trkpt>
<trkpt lat="30.5398590" lon="35.1607420">
<time>2008-04-19T07:50:37.395Z</time>
</trkpt>
<trkpt lat="30.5389340" lon="35.1602080">
<time>2008-04-19T07:50:38.052Z</time>
</trkpt>
<trkpt lat="30.5378550" lon="35.1595860">
<time>2008-04-19T07:50:39.270Z</time>
</trkpt>
<trkpt lat="30.5363920" lon="35.1591420">
<time>2008-04-19T07:50:40.842Z</time>
</trkpt>
<trkpt lat="30.5347740" lon="35.1586090">
<time>2008-04-19T07:50:42.156Z</time>
</trkpt>
<trkpt lat="30.5335410" lon="35.1577200">
<time>2008-04-19T07:50:43.236Z</time>
</trkpt>
<trkpt lat="30.5324620" lon="35.1565630">
<time>2008-04-19T07:50:44.376Z</time>
</trkpt>
<trkpt lat="30.5312290" lon="35.1560300">
<time>2008-04-19T07:50:46.035Z</time>
</trkpt>
<trkpt lat="30.5303050" lon="35.1558530">
<time>2008-04-19T07:50:47.892Z</time>
</trkpt>
<trkpt lat="30.5298430" lon="35.1556750">
<time>2008-04-19T07:50:57.051Z</time>
</trkpt>
<trkpt lat="30.5291490" lon="35.1550530">
<time>2008-04-19T07:50:57.733Z</time>
</trkpt>
<trkpt lat="30.5285330" lon="35.1544300">
<time>2008-04-19T07:50:58.347Z</time>
</trkpt>
<trkpt lat="30.5277620" lon="35.1536300">
<time>2008-04-19T07:50:58.891Z</time>
</trkpt>
<trkpt lat="30.5272220" lon="35.1526510">
<time>2008-04-19T07:50:59.375Z</time>
</trkpt>
<trkpt lat="30.5266050" lon="35.1509610">
<time>2008-04-19T07:51:00.109Z</time>
</trkpt>
<trkpt lat="30.5257570" lon="35.1498940">
<time>2008-04-19T07:51:00.749Z</time>
</trkpt>
<trkpt lat="30.5251400" lon="35.1485590">
<time>2008-04-19T07:51:01.673Z</time>
</trkpt>
<trkpt lat="30.5238300" lon="35.1474920">
<time>2008-04-19T07:51:02.598Z</time>
</trkpt>
<trkpt lat="30.5223660" lon="35.1464260">
<time>2008-04-19T07:51:04.092Z</time>
</trkpt>
<trkpt lat="30.5211340" lon="35.1464270">
<time>2008-04-19T07:51:05.052Z</time>
</trkpt>
<trkpt lat="30.5201320" lon="35.1461600">
<time>2008-04-19T07:51:05.769Z</time>
</trkpt>
<trkpt lat="30.5188220" lon="35.1450940">
<time>2008-04-19T07:51:07.082Z</time>
</trkpt>
<trkpt lat="30.5174350" lon="35.1440270">
<time>2008-04-19T07:51:08.266Z</time>
</trkpt>
<trkpt lat="30.5164330" lon="35.1434940">
<time>2008-04-19T07:51:09.441Z</time>
</trkpt>
<trkpt lat="30.5157400" lon="35.1432270">
<time>2008-04-19T07:51:10.953Z</time>
</trkpt>
<trkpt lat="30.5146620" lon="35.1432280">
<time>2008-04-19T07:51:11.817Z</time>
</trkpt>
<trkpt lat="30.5137370" lon="35.1431400">
<time>2008-04-19T07:51:12.516Z</time>
</trkpt>
<trkpt lat="30.5128900" lon="35.1425180">
<time>2008-04-19T07:51:13.190Z</time>
</trkpt>
<trkpt lat="30.5119650" lon="35.1418950">
<time>2008-04-19T07:51:14.564Z</time>
</trkpt>
<trkpt lat="30.5111940" lon="35.1415400">
<time>2008-04-19T07:51:24.422Z</time>
</trkpt>
<trkpt lat="30.5099620" lon="35.1418970">
<time>2008-04-19T07:51:25.373Z</time>
</trkpt>
<trkpt lat="30.5090380" lon="35.1422530">
<time>2008-04-19T07:51:26.487Z</time>
</trkpt>
<trkpt lat="30.5081130" lon="35.1413640">
<time>2008-04-19T07:51:27.144Z</time>
</trkpt>
<trkpt lat="30.5071110" lon="35.1403870">
<time>2008-04-19T07:51:27.939Z</time>
</trkpt>
<trkpt lat="30.5057240" lon="35.1395870">
<time>2008-04-19T07:51:28.967Z</time>
</trkpt>
<trkpt lat="30.5044140" lon="35.1386980">
<time>2008-04-19T07:51:29.814Z</time>
</trkpt>
<trkpt lat="30.5029500" lon="35.1378100">
<time>2008-04-19T07:51:30.833Z</time>
</trkpt>
<trkpt lat="30.5021020" lon="35.1373660">
<time>2008-04-19T07:51:31.568Z</time>
</trkpt>
<trkpt lat="30.5014860" lon="35.1366540">
<time>2008-04-19T07:51:32.311Z</time>
</trkpt>
<trkpt lat="30.5006380" lon="35.1357660">
<time>2008-04-19T07:51:34.566Z</time>
</trkpt>
<trkpt lat="30.5000210" lon="35.1348760">
<time>2008-04-19T07:51:35.940Z</time>
</trkpt>
<trkpt lat="30.4991730" lon="35.1341650">
<time>2008-04-19T07:51:41.970Z</time>
</trkpt>
<trkpt lat="30.4981710" lon="35.1330100">
<time>2008-04-19T07:51:42.800Z</time>
</trkpt>
<trkpt lat="30.4969380" lon="35.1321210">
<time>2008-04-19T07:51:43.811Z</time>
</trkpt>
<trkpt lat="30.4959360" lon="35.1314990">
<time>2008-04-19T07:51:45.003Z</time>
</trkpt>
<trkpt lat="30.4945490" lon="35.1306110">
<time>2008-04-19T07:51:48.295Z</time>
</trkpt>
<trkpt lat="30.4933160" lon="35.1292780">
<time>2008-04-19T07:51:48.986Z</time>
</trkpt>
<trkpt lat="30.4920050" lon="35.1277670">
<time>2008-04-19T07:51:50.204Z</time>
</trkpt>
<trkpt lat="30.4913880" lon="35.1264330">
<time>2008-04-19T07:51:50.999Z</time>
</trkpt>
<trkpt lat="30.4913870" lon="35.1244760">
<time>2008-04-19T07:51:51.880Z</time>
</trkpt>
<trkpt lat="30.4912310" lon="35.1220750">
<time>2008-04-19T07:51:52.796Z</time>
</trkpt>
<trkpt lat="30.4903830" lon="35.1212750">
<time>2008-04-19T07:51:53.531Z</time>
</trkpt>
<trkpt lat="30.4889960" lon="35.1194080">
<time>2008-04-19T07:51:54.827Z</time>
</trkpt>
<trkpt lat="30.4874540" lon="35.1179870">
<time>2008-04-19T07:51:55.829Z</time>
</trkpt>
<trkpt lat="30.4863750" lon="35.1166540">
<time>2008-04-19T07:51:56.736Z</time>
</trkpt>
<trkpt lat="30.4849870" lon="35.1154100">
<time>2008-04-19T07:51:58.110Z</time>
</trkpt>
<trkpt lat="30.4832910" lon="35.1138110">
<time>2008-04-19T07:51:59.596Z</time>
</trkpt>
<trkpt lat="30.4821350" lon="35.1130110">
<time>2008-04-19T07:52:00.719Z</time>
</trkpt>
<trkpt lat="30.4814420" lon="35.1127450">
<time>2008-04-19T07:52:02.050Z</time>
</trkpt>
<trkpt lat="30.4804400" lon="35.1129240">
<time>2008-04-19T07:52:03.190Z</time>
</trkpt>
<trkpt lat="30.4794400" lon="35.1136370">
<time>2008-04-19T07:52:04.123Z</time>
</trkpt>
<trkpt lat="30.4783610" lon="35.1139930">
<time>2008-04-19T07:52:05.877Z</time>
</trkpt>
<trkpt lat="30.4773600" lon="35.1141720">
<time>2008-04-19T07:52:07.156Z</time>
</trkpt>
<trkpt lat="30.4766670" lon="35.1150620">
<time>2008-04-19T07:52:08.141Z</time>
</trkpt>
<trkpt lat="30.4760510" lon="35.1151520">
<time>2008-04-19T07:52:09.955Z</time>
</trkpt>
<trkpt lat="30.4752040" lon="35.1151530">
<time>2008-04-19T07:52:11.234Z</time>
</trkpt>
<trkpt lat="30.4740480" lon="35.1145310">
<time>2008-04-19T07:52:12.219Z</time>
</trkpt>
<trkpt lat="30.4732770" lon="35.1131090">
<time>2008-04-19T07:52:13.342Z</time>
</trkpt>
<trkpt lat="30.4723510" lon="35.1119540">
<time>2008-04-19T07:52:14.612Z</time>
</trkpt>
<trkpt lat="30.4715040" lon="35.1113320">
<time>2008-04-19T07:52:15.969Z</time>
</trkpt>
<trkpt lat="30.4705020" lon="35.1111560">
<time>2008-04-19T07:52:17.031Z</time>
</trkpt>
<trkpt lat="30.4697320" lon="35.1109790">
<time>2008-04-19T07:52:17.895Z</time>
</trkpt>
<trkpt lat="30.4690380" lon="35.1104460">
<time>2008-04-19T07:52:19.036Z</time>
</trkpt>
<trkpt lat="30.4686520" lon="35.1091120">
<time>2008-04-19T07:52:20.176Z</time>
</trkpt>
<trkpt lat="30.4683430" lon="35.1078670">
<time>2008-04-19T07:52:20.833Z</time>
</trkpt>
<trkpt lat="30.4675720" lon="35.1069790">
<time>2008-04-19T07:52:21.645Z</time>
</trkpt>
<trkpt lat="30.4663390" lon="35.1063580">
<time>2008-04-19T07:52:22.734Z</time>
</trkpt>
<trkpt lat="30.4652600" lon="35.1060920">
<time>2008-04-19T07:52:23.969Z</time>
</trkpt>
<trkpt lat="30.4641820" lon="35.1063600">
<time>2008-04-19T07:52:25.222Z</time>
</trkpt>
<trkpt lat="30.4636430" lon="35.1070720">
<time>2008-04-19T07:52:26.000Z</time>
</trkpt>
<trkpt lat="30.4630270" lon="35.1076950">
<time>2008-04-19T07:52:27.218Z</time>
</trkpt>
<trkpt lat="30.4621800" lon="35.1071630">
<time>2008-04-19T07:52:28.471Z</time>
</trkpt>
<trkpt lat="30.4620250" lon="35.1063630">
<time>2008-04-19T07:52:29.240Z</time>
</trkpt>
<trkpt lat="30.4619470" lon="35.1052070">
<time>2008-04-19T07:52:38.847Z</time>
</trkpt>
<trkpt lat="30.4613300" lon="35.1039620">
<time>2008-04-19T07:52:39.642Z</time>
</trkpt>
<trkpt lat="30.4603270" lon="35.1031630">
<time>2008-04-19T07:52:40.256Z</time>
</trkpt>
<trkpt lat="30.4594790" lon="35.1022750">
<time>2008-04-19T07:52:40.921Z</time>
</trkpt>
<trkpt lat="30.4584000" lon="35.1013870">
<time>2008-04-19T07:52:41.923Z</time>
</trkpt>
<trkpt lat="30.4578600" lon="35.0999650">
<time>2008-04-19T07:52:42.925Z</time>
</trkpt>
<trkpt lat="30.4577040" lon="35.0979200">
<time>2008-04-19T07:52:43.738Z</time>
</trkpt>
<trkpt lat="30.4566240" lon="35.0965880">
<time>2008-04-19T07:52:44.818Z</time>
</trkpt>
<trkpt lat="30.4556220" lon="35.0956110">
<time>2008-04-19T07:52:45.552Z</time>
</trkpt>
<trkpt lat="30.4540820" lon="35.0957900">
<time>2008-04-19T07:52:46.623Z</time>
</trkpt>
<trkpt lat="30.4530040" lon="35.0965920">
<time>2008-04-19T07:52:47.738Z</time>
</trkpt>
<trkpt lat="30.4517720" lon="35.0970380">
<time>2008-04-19T07:52:48.783Z</time>
</trkpt>
<trkpt lat="30.4503080" lon="35.0970400">
<time>2008-04-19T07:52:50.269Z</time>
</trkpt>
<trkpt lat="30.4488440" lon="35.0968630">
<time>2008-04-19T07:52:51.393Z</time>
</trkpt>
<trkpt lat="30.4478430" lon="35.0972200">
<time>2008-04-19T07:52:52.645Z</time>
</trkpt>
<trkpt lat="30.4472280" lon="35.0979320">
<time>2008-04-19T07:52:53.717Z</time>
</trkpt>
<trkpt lat="30.4463810" lon="35.0989110">
<time>2008-04-19T07:52:54.659Z</time>
</trkpt>
<trkpt lat="30.4461510" lon="35.0997120">
<time>2008-04-19T07:52:55.566Z</time>
</trkpt>
<trkpt lat="30.4460750" lon="35.1007790">
<time>2008-04-19T07:52:56.361Z</time>
</trkpt>
<trkpt lat="30.4453050" lon="35.1016690">
<time>2008-04-19T07:52:57.579Z</time>
</trkpt>
<trkpt lat="30.4438420" lon="35.1024700">
<time>2008-04-19T07:52:59.238Z</time>
</trkpt>
<trkpt lat="30.4430720" lon="35.1030940">
<time>2008-04-19T07:53:00.283Z</time>
</trkpt>
<trkpt lat="30.4420710" lon="35.1035390">
<time>2008-04-19T07:53:01.380Z</time>
</trkpt>
<trkpt lat="30.4414550" lon="35.1039840">
<time>2008-04-19T07:53:02.279Z</time>
</trkpt>
<trkpt lat="30.4407630" lon="35.1047850">
<time>2008-04-19T07:53:03.394Z</time>
</trkpt>
<trkpt lat="30.4393770" lon="35.1051420">
<time>2008-04-19T07:53:04.940Z</time>
</trkpt>
<trkpt lat="30.4388370" lon="35.1051430">
<time>2008-04-19T07:53:05.692Z</time>
</trkpt>
<trkpt lat="30.4382990" lon="35.1057660">
<time>2008-04-19T07:53:06.720Z</time>
</trkpt>
<trkpt lat="30.4373750" lon="35.1067450">
<time>2008-04-19T07:53:16.518Z</time>
</trkpt>
<trkpt lat="30.4366050" lon="35.1075460">
<time>2008-04-19T07:53:17.390Z</time>
</trkpt>
<trkpt lat="30.4355270" lon="35.1079020">
<time>2008-04-19T07:53:18.565Z</time>
</trkpt>
<trkpt lat="30.4341410" lon="35.1080820">
<time>2008-04-19T07:53:20.077Z</time>
</trkpt>
<trkpt lat="30.4333700" lon="35.1078160">
<time>2008-04-19T07:53:30.834Z</time>
</trkpt>
<trkpt lat="30.4326770" lon="35.1075500">
<time>2008-04-19T07:53:31.785Z</time>
</trkpt>
<trkpt lat="30.4319840" lon="35.1076390">
<time>2008-04-19T07:53:32.536Z</time>
</trkpt>
<trkpt lat="30.4312130" lon="35.1077290">
<time>2008-04-19T07:53:33.141Z</time>
</trkpt>
<trkpt lat="30.4305200" lon="35.1071080">
<time>2008-04-19T07:53:33.608Z</time>
</trkpt>
<trkpt lat="30.4297490" lon="35.1070200">
<time>2008-04-19T07:53:34.238Z</time>
</trkpt>
<trkpt lat="30.4285940" lon="35.1076430">
<time>2008-04-19T07:53:35.474Z</time>
</trkpt>
<trkpt lat="30.4271310" lon="35.1082670">
<time>2008-04-19T07:53:37.107Z</time>
</trkpt>
<trkpt lat="30.4252830" lon="35.1087130">
<time>2008-04-19T07:53:38.662Z</time>
</trkpt>
<trkpt lat="30.4241280" lon="35.1091590">
<time>2008-04-19T07:53:39.552Z</time>
</trkpt>
<trkpt lat="30.4235890" lon="35.1097820">
<time>2008-04-19T07:53:40.252Z</time>
</trkpt>
<trkpt lat="30.4230500" lon="35.1103160">
<time>2008-04-19T07:53:40.926Z</time>
</trkpt>
<trkpt lat="30.4224340" lon="35.1111160">
<time>2008-04-19T07:53:41.755Z</time>
</trkpt>
<trkpt lat="30.4215100" lon="35.1117390">
<time>2008-04-19T07:53:42.999Z</time>
</trkpt>
<trkpt lat="30.4212030" lon="35.1127170">
<time>2008-04-19T07:53:43.751Z</time>
</trkpt>
<trkpt lat="30.4205100" lon="35.1134290">
<time>2008-04-19T07:53:45.393Z</time>
</trkpt>
<trkpt lat="30.4195090" lon="35.1137860">
<time>2008-04-19T07:53:46.412Z</time>
</trkpt>
<trkpt lat="30.4181230" lon="35.1145870">
<time>2008-04-19T07:53:48.970Z</time>
</trkpt>
<trkpt lat="30.4171220" lon="35.1152990">
<time>2008-04-19T07:53:50.611Z</time>
</trkpt>
<trkpt lat="30.4165840" lon="35.1161880">
<time>2008-04-19T07:53:51.959Z</time>
</trkpt>
<trkpt lat="30.4161220" lon="35.1172550">
<time>2008-04-19T07:53:53.082Z</time>
</trkpt>
<trkpt lat="30.4151220" lon="35.1182340">
<time>2008-04-19T07:53:54.594Z</time>
</trkpt>
<trkpt lat="30.4135050" lon="35.1193020">
<time>2008-04-19T07:53:56.236Z</time>
</trkpt>
<trkpt lat="30.4121190" lon="35.1201030">
<time>2008-04-19T07:54:01.066Z</time>
</trkpt>
<trkpt lat="30.4109630" lon="35.1203710">
<time>2008-04-19T07:54:01.826Z</time>
</trkpt>
<trkpt lat="30.4098080" lon="35.1199280">
<time>2008-04-19T07:54:03.286Z</time>
</trkpt>
<trkpt lat="30.4088830" lon="35.1197510">
<time>2008-04-19T07:54:08.850Z</time>
</trkpt>
<trkpt lat="30.4081900" lon="35.1197520">
<time>2008-04-19T07:54:09.438Z</time>
</trkpt>
<trkpt lat="30.4071890" lon="35.1203750">
<time>2008-04-19T07:54:10.656Z</time>
</trkpt>
<trkpt lat="30.4058020" lon="35.1203760">
<time>2008-04-19T07:54:11.892Z</time>
</trkpt>
<trkpt lat="30.4040300" lon="35.1199330">
<time>2008-04-19T07:54:13.092Z</time>
</trkpt>
<trkpt lat="30.4017190" lon="35.1192240">
<time>2008-04-19T07:54:14.233Z</time>
</trkpt>
<trkpt lat="30.4002550" lon="35.1187810">
<time>2008-04-19T07:54:15.624Z</time>
</trkpt>
<trkpt lat="30.3985600" lon="35.1182500">
<time>2008-04-19T07:54:16.816Z</time>
</trkpt>
<trkpt lat="30.3964030" lon="35.1178080">
<time>2008-04-19T07:54:18.017Z</time>
</trkpt>
<trkpt lat="30.3947070" lon="35.1170100">
<time>2008-04-19T07:54:19.192Z</time>
</trkpt>
<trkpt lat="30.3927810" lon="35.1163000">
<time>2008-04-19T07:54:20.566Z</time>
</trkpt>
<trkpt lat="30.3917790" lon="35.1157680">
<time>2008-04-19T07:54:21.223Z</time>
</trkpt>
<trkpt lat="30.3899300" lon="35.1150590">
<time>2008-04-19T07:54:22.735Z</time>
</trkpt>
<trkpt lat="30.3880040" lon="35.1147950">
<time>2008-04-19T07:54:23.763Z</time>
</trkpt>
<trkpt lat="30.3853840" lon="35.1141750">
<time>2008-04-19T07:54:25.404Z</time>
</trkpt>
<trkpt lat="30.3843060" lon="35.1141760">
<time>2008-04-19T07:54:26.173Z</time>
</trkpt>
<trkpt lat="30.3833820" lon="35.1141770">
<time>2008-04-19T07:54:27.331Z</time>
</trkpt>
<trkpt lat="30.3819190" lon="35.1152450">
<time>2008-04-19T07:54:28.567Z</time>
</trkpt>
<trkpt lat="30.3798400" lon="35.1169350">
<time>2008-04-19T07:54:30.036Z</time>
</trkpt>
<trkpt lat="30.3783770" lon="35.1180030">
<time>2008-04-19T07:54:31.548Z</time>
</trkpt>
<trkpt lat="30.3757590" lon="35.1196040">
<time>2008-04-19T07:54:40.421Z</time>
</trkpt>
<trkpt lat="30.3746040" lon="35.1204940">
<time>2008-04-19T07:54:41.250Z</time>
</trkpt>
<trkpt lat="30.3737580" lon="35.1212940">
<time>2008-04-19T07:54:42.080Z</time>
</trkpt>
<trkpt lat="30.3732190" lon="35.1217390">
<time>2008-04-19T07:54:42.702Z</time>
</trkpt>
<trkpt lat="30.3720640" lon="35.1221840">
<time>2008-04-19T07:54:43.678Z</time>
</trkpt>
<trkpt lat="30.3712940" lon="35.1228070">
<time>2008-04-19T07:54:44.689Z</time>
</trkpt>
<trkpt lat="30.3695230" lon="35.1244960">
<time>2008-04-19T07:54:46.037Z</time>
</trkpt>
<trkpt lat="30.3675210" lon="35.1262750">
<time>2008-04-19T07:54:47.281Z</time>
</trkpt>
<trkpt lat="30.3653660" lon="35.1284970">
<time>2008-04-19T07:54:49.052Z</time>
</trkpt>
<trkpt lat="30.3635180" lon="35.1300980">
<time>2008-04-19T07:54:50.547Z</time>
</trkpt>
<trkpt lat="30.3604390" lon="35.1327660">
<time>2008-04-19T07:54:52.154Z</time>
</trkpt>
<trkpt lat="30.3620580" lon="35.1354290">
<time>2008-04-19T07:54:54.279Z</time>
</trkpt>
<trkpt lat="30.3636000" lon="35.1376490">
<time>2008-04-19T07:54:55.342Z</time>
</trkpt>
<trkpt lat="30.3647560" lon="35.1399580">
<time>2008-04-19T07:54:56.906Z</time>
</trkpt>
<trkpt lat="30.3652960" lon="35.1411120">
<time>2008-04-19T07:54:58.159Z</time>
</trkpt>
<trkpt lat="30.3653740" lon="35.1428890">
<time>2008-04-19T07:54:59.412Z</time>
</trkpt>
<trkpt lat="30.3655290" lon="35.1443100">
<time>2008-04-19T07:55:03.282Z</time>
</trkpt>
<trkpt lat="30.3656070" lon="35.1453760">
<time>2008-04-19T07:55:04.907Z</time>
</trkpt>
<trkpt lat="30.3660690" lon="35.1456420">
<time>2008-04-19T07:55:05.987Z</time>
</trkpt>
<trkpt lat="30.3647610" lon="35.1489300">
<time>2008-04-19T07:55:08.518Z</time>
</trkpt>
<trkpt lat="30.3632220" lon="35.1529280">
<time>2008-04-19T07:55:10.237Z</time>
</trkpt>
</trkseg>
</trk>
<trk>
 <name>day09</name>
 <desc>19/4/2008 10:57:27 AM</desc>
<trkseg>
<trkpt lat="30.3630680" lon="35.1529280">
<time>2008-04-19T07:57:27.847Z</time>
</trkpt>
<trkpt lat="30.3643760" lon="35.1499960">
<time>2008-04-19T07:57:29.359Z</time>
</trkpt>
<trkpt lat="30.3649150" lon="35.1486630">
<time>2008-04-19T07:57:30.162Z</time>
</trkpt>
<trkpt lat="30.3659920" lon="35.1455530">
<time>2008-04-19T07:57:32.124Z</time>
</trkpt>
<trkpt lat="30.3655300" lon="35.1452870">
<time>2008-04-19T07:57:33.013Z</time>
</trkpt>
<trkpt lat="30.3649870" lon="35.1397800">
<time>2008-04-19T07:57:34.629Z</time>
</trkpt>
<trkpt lat="30.3636770" lon="35.1379150">
<time>2008-04-19T07:57:36.763Z</time>
</trkpt>
<trkpt lat="30.3626740" lon="35.1361390">
<time>2008-04-19T07:57:37.800Z</time>
</trkpt>
<trkpt lat="30.3604390" lon="35.1328540">
<time>2008-04-19T07:57:39.468Z</time>
</trkpt>
<trkpt lat="30.3598230" lon="35.1334770">
<time>2008-04-19T07:58:09.552Z</time>
</trkpt>
<trkpt lat="30.3590530" lon="35.1341880">
<time>2008-04-19T07:58:10.770Z</time>
</trkpt>
<trkpt lat="30.3578970" lon="35.1343660">
<time>2008-04-19T07:58:11.487Z</time>
</trkpt>
<trkpt lat="30.3567420" lon="35.1345450">
<time>2008-04-19T07:58:12.516Z</time>
</trkpt>
<trkpt lat="30.3563570" lon="35.1346340">
<time>2008-04-19T07:58:13.129Z</time>
</trkpt>
<trkpt lat="30.3558950" lon="35.1349010">
<time>2008-04-19T07:58:13.803Z</time>
</trkpt>
<trkpt lat="30.3553560" lon="35.1351680">
<time>2008-04-19T07:58:14.537Z</time>
</trkpt>
<trkpt lat="30.3541230" lon="35.1355240">
<time>2008-04-19T07:58:15.721Z</time>
</trkpt>
<trkpt lat="30.3530450" lon="35.1361470">
<time>2008-04-19T07:58:16.749Z</time>
</trkpt>
<trkpt lat="30.3523530" lon="35.1372130">
<time>2008-04-19T07:58:17.769Z</time>
</trkpt>
<trkpt lat="30.3512750" lon="35.1388130">
<time>2008-04-19T07:58:23.186Z</time>
</trkpt>
<trkpt lat="30.3504280" lon="35.1394350">
<time>2008-04-19T07:58:23.877Z</time>
</trkpt>
<trkpt lat="30.3493500" lon="35.1397910">
<time>2008-04-19T07:58:24.905Z</time>
</trkpt>
<trkpt lat="30.3479630" lon="35.1400590">
<time>2008-04-19T07:58:25.985Z</time>
</trkpt>
<trkpt lat="30.3467320" lon="35.1413920">
<time>2008-04-19T07:58:27.005Z</time>
</trkpt>
<trkpt lat="30.3459620" lon="35.1423690">
<time>2008-04-19T07:58:27.800Z</time>
</trkpt>
<trkpt lat="30.3450380" lon="35.1432580">
<time>2008-04-19T07:58:29.173Z</time>
</trkpt>
<trkpt lat="30.3443450" lon="35.1435250">
<time>2008-04-19T07:58:30.193Z</time>
</trkpt>
<trkpt lat="30.3430350" lon="35.1435260">
<time>2008-04-19T07:58:31.342Z</time>
</trkpt>
<trkpt lat="30.3424960" lon="35.1435260">
<time>2008-04-19T07:58:32.439Z</time>
</trkpt>
<trkpt lat="30.3418030" lon="35.1438820">
<time>2008-04-19T07:58:33.286Z</time>
</trkpt>
<trkpt lat="30.3404940" lon="35.1443270">
<time>2008-04-19T07:58:34.833Z</time>
</trkpt>
<trkpt lat="30.3394150" lon="35.1445050">
<time>2008-04-19T07:58:35.671Z</time>
</trkpt>
<trkpt lat="30.3381060" lon="35.1446840">
<time>2008-04-19T07:58:36.656Z</time>
</trkpt>
<trkpt lat="30.3371050" lon="35.1451290">
<time>2008-04-19T07:58:37.347Z</time>
</trkpt>
<trkpt lat="30.3362570" lon="35.1453070">
<time>2008-04-19T07:58:38.237Z</time>
</trkpt>
<trkpt lat="30.3359490" lon="35.1453070">
<time>2008-04-19T07:58:39.014Z</time>
</trkpt>
<trkpt lat="30.3354100" lon="35.1445080">
<time>2008-04-19T07:58:39.861Z</time>
</trkpt>
<trkpt lat="30.3351780" lon="35.1437090">
<time>2008-04-19T07:58:40.829Z</time>
</trkpt>
<trkpt lat="30.3355630" lon="35.1425540">
<time>2008-04-19T07:58:41.658Z</time>
</trkpt>
<trkpt lat="30.3358700" lon="35.1414000">
<time>2008-04-19T07:58:42.859Z</time>
</trkpt>
<trkpt lat="30.3355610" lon="35.1402450">
<time>2008-04-19T07:58:43.801Z</time>
</trkpt>
<trkpt lat="30.3350980" lon="35.1378480">
<time>2008-04-19T07:58:45.270Z</time>
</trkpt>
<trkpt lat="30.3347890" lon="35.1358940">
<time>2008-04-19T07:58:46.350Z</time>
</trkpt>
<trkpt lat="30.3347100" lon="35.1334970">
<time>2008-04-19T07:58:47.361Z</time>
</trkpt>
<trkpt lat="30.3344010" lon="35.1320760">
<time>2008-04-19T07:58:48.311Z</time>
</trkpt>
<trkpt lat="30.3335530" lon="35.1303890">
<time>2008-04-19T07:58:49.659Z</time>
</trkpt>
<trkpt lat="30.3327820" lon="35.1292360">
<time>2008-04-19T07:58:50.566Z</time>
</trkpt>
<trkpt lat="30.3313170" lon="35.1277270">
<time>2008-04-19T07:58:52.078Z</time>
</trkpt>
<trkpt lat="30.3300060" lon="35.1262190">
<time>2008-04-19T07:58:53.175Z</time>
</trkpt>
<trkpt lat="30.3278480" lon="35.1241780">
<time>2008-04-19T07:58:54.739Z</time>
</trkpt>
<trkpt lat="30.3266920" lon="35.1232020">
<time>2008-04-19T07:58:56.268Z</time>
</trkpt>
<trkpt lat="30.3255360" lon="35.1217830">
<time>2008-04-19T07:58:57.660Z</time>
</trkpt>
<trkpt lat="30.3246870" lon="35.1204510">
<time>2008-04-19T07:58:58.748Z</time>
</trkpt>
<trkpt lat="30.3243790" lon="35.1200080">
<time>2008-04-19T07:59:07.094Z</time>
</trkpt>
<trkpt lat="30.3229150" lon="35.1200090">
<time>2008-04-19T07:59:07.751Z</time>
</trkpt>
<trkpt lat="30.3214510" lon="35.1193000">
<time>2008-04-19T07:59:08.546Z</time>
</trkpt>
<trkpt lat="30.3204490" lon="35.1183240">
<time>2008-04-19T07:59:09.177Z</time>
</trkpt>
<trkpt lat="30.3196010" lon="35.1176150">
<time>2008-04-19T07:59:11.691Z</time>
</trkpt>
<trkpt lat="30.3187540" lon="35.1173490">
<time>2008-04-19T07:59:19.795Z</time>
</trkpt>
<trkpt lat="30.3172900" lon="35.1170840">
<time>2008-04-19T07:59:20.685Z</time>
</trkpt>
<trkpt lat="30.3160570" lon="35.1170860">
<time>2008-04-19T07:59:21.359Z</time>
</trkpt>
<trkpt lat="30.3149010" lon="35.1164650">
<time>2008-04-19T07:59:21.998Z</time>
</trkpt>
<trkpt lat="30.3139000" lon="35.1162000">
<time>2008-04-19T07:59:26.923Z</time>
</trkpt>
<trkpt lat="30.3127440" lon="35.1158460">
<time>2008-04-19T07:59:27.675Z</time>
</trkpt>
<trkpt lat="30.3115880" lon="35.1153140">
<time>2008-04-19T07:59:28.643Z</time>
</trkpt>
<trkpt lat="30.3105870" lon="35.1155810">
<time>2008-04-19T07:59:29.671Z</time>
</trkpt>
<trkpt lat="30.3091230" lon="35.1159380">
<time>2008-04-19T07:59:30.768Z</time>
</trkpt>
<trkpt lat="30.3075830" lon="35.1162950">
<time>2008-04-19T07:59:32.021Z</time>
</trkpt>
<trkpt lat="30.3062740" lon="35.1166510">
<time>2008-04-19T07:59:33.014Z</time>
</trkpt>
<trkpt lat="30.3051180" lon="35.1168300">
<time>2008-04-19T07:59:34.250Z</time>
</trkpt>
<trkpt lat="30.3040400" lon="35.1163870">
<time>2008-04-19T07:59:35.140Z</time>
</trkpt>
<trkpt lat="30.3028070" lon="35.1158550">
<time>2008-04-19T07:59:36.263Z</time>
</trkpt>
<trkpt lat="30.3019590" lon="35.1156790">
<time>2008-04-19T07:59:37.084Z</time>
</trkpt>
<trkpt lat="30.3002650" lon="35.1162130">
<time>2008-04-19T07:59:38.639Z</time>
</trkpt>
<trkpt lat="30.2991100" lon="35.1168360">
<time>2008-04-19T07:59:39.814Z</time>
</trkpt>
<trkpt lat="30.2981090" lon="35.1179020">
<time>2008-04-19T07:59:44.316Z</time>
</trkpt>
<trkpt lat="30.2970290" lon="35.1150620">
<time>2008-04-19T07:59:58.563Z</time>
</trkpt>
<trkpt lat="30.2958710" lon="35.1122230">
<time>2008-04-19T07:59:59.971Z</time>
</trkpt>
<trkpt lat="30.2951760" lon="35.1106250">
<time>2008-04-19T08:00:14.927Z</time>
</trkpt>
<trkpt lat="30.2934020" lon="35.1075200">
<time>2008-04-19T08:00:16.456Z</time>
</trkpt>
<trkpt lat="30.2925550" lon="35.1078760">
<time>2008-04-19T08:00:17.718Z</time>
</trkpt>
<trkpt lat="30.2913220" lon="35.1076110">
<time>2008-04-19T08:00:18.677Z</time>
</trkpt>
<trkpt lat="30.2896270" lon="35.1065480">
<time>2008-04-19T08:00:19.878Z</time>
</trkpt>
<trkpt lat="30.2892410" lon="35.1061930">
<time>2008-04-19T08:00:21.217Z</time>
</trkpt>
<trkpt lat="30.2887020" lon="35.1059270">
<time>2008-04-19T08:00:32.812Z</time>
</trkpt>
<trkpt lat="30.2883160" lon="35.1055730">
<time>2008-04-19T08:00:33.987Z</time>
</trkpt>
<trkpt lat="30.2867750" lon="35.1046870">
<time>2008-04-19T08:00:38.532Z</time>
</trkpt>
<trkpt lat="30.2852340" lon="35.1044220">
<time>2008-04-19T08:00:43.327Z</time>
</trkpt>
<trkpt lat="30.2833080" lon="35.1039810">
<time>2008-04-19T08:00:44.364Z</time>
</trkpt>
<trkpt lat="30.2814590" lon="35.1034500">
<time>2008-04-19T08:00:45.547Z</time>
</trkpt>
<trkpt lat="30.2796870" lon="35.1030080">
<time>2008-04-19T08:00:46.316Z</time>
</trkpt>
<trkpt lat="30.2770670" lon="35.1023900">
<time>2008-04-19T08:00:47.811Z</time>
</trkpt>
<trkpt lat="30.2745240" lon="35.1017710">
<time>2008-04-19T08:00:49.124Z</time>
</trkpt>
<trkpt lat="30.2725210" lon="35.1010640">
<time>2008-04-19T08:00:50.083Z</time>
</trkpt>
<trkpt lat="30.2700550" lon="35.1002680">
<time>2008-04-19T08:00:51.906Z</time>
</trkpt>
<trkpt lat="30.2681290" lon="35.0996490">
<time>2008-04-19T08:00:52.891Z</time>
</trkpt>
<trkpt lat="30.2666640" lon="35.0988520">
<time>2008-04-19T08:00:54.092Z</time>
</trkpt>
<trkpt lat="30.2651230" lon="35.0978770">
<time>2008-04-19T08:00:55.345Z</time>
</trkpt>
<trkpt lat="30.2639670" lon="35.0969020">
<time>2008-04-19T08:00:56.157Z</time>
</trkpt>
<trkpt lat="30.2631180" lon="35.0956610">
<time>2008-04-19T08:00:57.237Z</time>
</trkpt>
<trkpt lat="30.2623470" lon="35.0949520">
<time>2008-04-19T08:00:57.859Z</time>
</trkpt>
<trkpt lat="30.2603430" lon="35.0939780">
<time>2008-04-19T08:00:59.388Z</time>
</trkpt>
<trkpt lat="30.2585710" lon="35.0930040">
<time>2008-04-19T08:01:00.693Z</time>
</trkpt>
<trkpt lat="30.2567210" lon="35.0921190">
<time>2008-04-19T08:01:47.816Z</time>
</trkpt>
<trkpt lat="30.2554110" lon="35.0915880">
<time>2008-04-19T08:01:48.533Z</time>
</trkpt>
<trkpt lat="30.2540240" lon="35.0910580">
<time>2008-04-19T08:01:49.345Z</time>
</trkpt>
<trkpt lat="30.2524060" lon="35.0907050">
<time>2008-04-19T08:01:50.503Z</time>
</trkpt>
<trkpt lat="30.2514810" lon="35.0901730">
<time>2008-04-19T08:01:51.626Z</time>
</trkpt>
<trkpt lat="30.2506330" lon="35.0894650">
<time>2008-04-19T08:01:53.233Z</time>
</trkpt>
<trkpt lat="30.2494000" lon="35.0892000">
<time>2008-04-19T08:01:54.330Z</time>
</trkpt>
<trkpt lat="30.2485520" lon="35.0888460">
<time>2008-04-19T08:01:55.177Z</time>
</trkpt>
<trkpt lat="30.2474730" lon="35.0880490">
<time>2008-04-19T08:01:56.127Z</time>
</trkpt>
<trkpt lat="30.2464710" lon="35.0872520">
<time>2008-04-19T08:01:59.350Z</time>
</trkpt>
<trkpt lat="30.2443890" lon="35.0853910">
<time>2008-04-19T08:02:00.499Z</time>
</trkpt>
<trkpt lat="30.2427700" lon="35.0839730">
<time>2008-04-19T08:02:01.467Z</time>
</trkpt>
<trkpt lat="30.2417680" lon="35.0828210">
<time>2008-04-19T08:02:02.452Z</time>
</trkpt>
<trkpt lat="30.2409970" lon="35.0820240">
<time>2008-04-19T08:02:03.454Z</time>
</trkpt>
<trkpt lat="30.2396860" lon="35.0809610">
<time>2008-04-19T08:02:04.404Z</time>
</trkpt>
<trkpt lat="30.2388380" lon="35.0805180">
<time>2008-04-19T08:02:05.303Z</time>
</trkpt>
<trkpt lat="30.2374500" lon="35.0791890">
<time>2008-04-19T08:02:10.625Z</time>
</trkpt>
<trkpt lat="30.2364480" lon="35.0787470">
<time>2008-04-19T08:02:11.705Z</time>
</trkpt>
<trkpt lat="30.2354460" lon="35.0781280">
<time>2008-04-19T08:02:12.673Z</time>
</trkpt>
<trkpt lat="30.2345990" lon="35.0784840">
<time>2008-04-19T08:02:17.641Z</time>
</trkpt>
<trkpt lat="30.2332900" lon="35.0791060">
<time>2008-04-19T08:02:18.686Z</time>
</trkpt>
<trkpt lat="30.2322890" lon="35.0792850">
<time>2008-04-19T08:02:19.490Z</time>
</trkpt>
<trkpt lat="30.2312100" lon="35.0790200">
<time>2008-04-19T08:02:20.328Z</time>
</trkpt>
<trkpt lat="30.2299770" lon="35.0784010">
<time>2008-04-19T08:02:21.097Z</time>
</trkpt>
<trkpt lat="30.2294370" lon="35.0777810">
<time>2008-04-19T08:02:23.421Z</time>
</trkpt>
<trkpt lat="30.2282040" lon="35.0774280">
<time>2008-04-19T08:02:29.279Z</time>
</trkpt>
<trkpt lat="30.2267400" lon="35.0771640">
<time>2008-04-19T08:02:30.489Z</time>
</trkpt>
<trkpt lat="30.2258930" lon="35.0769870">
<time>2008-04-19T08:02:36.468Z</time>
</trkpt>
<trkpt lat="30.2247370" lon="35.0766340">
<time>2008-04-19T08:02:37.176Z</time>
</trkpt>
<trkpt lat="30.2236580" lon="35.0760150">
<time>2008-04-19T08:02:38.031Z</time>
</trkpt>
<trkpt lat="30.2231170" lon="35.0746850">
<time>2008-04-19T08:02:39.077Z</time>
</trkpt>
<trkpt lat="30.2224230" lon="35.0737100">
<time>2008-04-19T08:02:39.958Z</time>
</trkpt>
<trkpt lat="30.2214200" lon="35.0726470">
<time>2008-04-19T08:02:40.675Z</time>
</trkpt>
<trkpt lat="30.2205720" lon="35.0716720">
<time>2008-04-19T08:02:41.358Z</time>
</trkpt>
<trkpt lat="30.2198780" lon="35.0706980">
<time>2008-04-19T08:02:41.988Z</time>
</trkpt>
<trkpt lat="30.2191070" lon="35.0700780">
<time>2008-04-19T08:02:42.783Z</time>
</trkpt>
<trkpt lat="30.2181820" lon="35.0696360">
<time>2008-04-19T08:02:43.967Z</time>
</trkpt>
<trkpt lat="30.2172560" lon="35.0687500">
<time>2008-04-19T08:02:44.857Z</time>
</trkpt>
<trkpt lat="30.2166390" lon="35.0680410">
<time>2008-04-19T08:02:45.721Z</time>
</trkpt>
<trkpt lat="30.2160220" lon="35.0675990">
<time>2008-04-19T08:02:50.067Z</time>
</trkpt>
<trkpt lat="30.2152520" lon="35.0675110">
<time>2008-04-19T08:02:51.130Z</time>
</trkpt>
<trkpt lat="30.2141730" lon="35.0668920">
<time>2008-04-19T08:02:52.279Z</time>
</trkpt>
<trkpt lat="30.2130940" lon="35.0660950">
<time>2008-04-19T08:02:53.359Z</time>
</trkpt>
<trkpt lat="30.2121680" lon="35.0652090">
<time>2008-04-19T08:02:54.205Z</time>
</trkpt>
<trkpt lat="30.2115510" lon="35.0646780">
<time>2008-04-19T08:02:55.000Z</time>
</trkpt>
<trkpt lat="30.2116270" lon="35.0639690">
<time>2008-04-19T08:02:55.942Z</time>
</trkpt>
<trkpt lat="30.2116260" lon="35.0628160">
<time>2008-04-19T08:02:56.754Z</time>
</trkpt>
<trkpt lat="30.2107770" lon="35.0615750">
<time>2008-04-19T08:02:58.482Z</time>
</trkpt>
<trkpt lat="30.2099290" lon="35.0606890">
<time>2008-04-19T08:02:59.329Z</time>
</trkpt>
<trkpt lat="30.2090810" lon="35.0600700">
<time>2008-04-19T08:03:03.053Z</time>
</trkpt>
<trkpt lat="30.2078470" lon="35.0592740">
<time>2008-04-19T08:03:03.969Z</time>
</trkpt>
<trkpt lat="30.2068450" lon="35.0586540">
<time>2008-04-19T08:03:04.859Z</time>
</trkpt>
<trkpt lat="30.2057660" lon="35.0579460">
<time>2008-04-19T08:03:05.921Z</time>
</trkpt>
<trkpt lat="30.2046100" lon="35.0574160">
<time>2008-04-19T08:03:07.330Z</time>
</trkpt>
<trkpt lat="30.2039160" lon="35.0568850">
<time>2008-04-19T08:03:08.470Z</time>
</trkpt>
<trkpt lat="30.2029130" lon="35.0559110">
<time>2008-04-19T08:03:09.956Z</time>
</trkpt>
<trkpt lat="30.2019100" lon="35.0546710">
<time>2008-04-19T08:03:11.079Z</time>
</trkpt>
<trkpt lat="30.2009850" lon="35.0536970">
<time>2008-04-19T08:03:12.064Z</time>
</trkpt>
<trkpt lat="30.2002140" lon="35.0529890">
<time>2008-04-19T08:03:13.015Z</time>
</trkpt>
<trkpt lat="30.1994430" lon="35.0526350">
<time>2008-04-19T08:03:14.224Z</time>
</trkpt>
<trkpt lat="30.1986720" lon="35.0524590">
<time>2008-04-19T08:03:18.052Z</time>
</trkpt>
<trkpt lat="30.1979020" lon="35.0526380">
<time>2008-04-19T08:03:21.568Z</time>
</trkpt>
<trkpt lat="30.1970540" lon="35.0521070">
<time>2008-04-19T08:03:54.115Z</time>
</trkpt>
<trkpt lat="30.1962050" lon="35.0510440">
<time>2008-04-19T08:03:55.472Z</time>
</trkpt>
<trkpt lat="30.1952030" lon="35.0498930">
<time>2008-04-19T08:03:56.094Z</time>
</trkpt>
<trkpt lat="30.1942770" lon="35.0492740">
<time>2008-04-19T08:03:57.079Z</time>
</trkpt>
<trkpt lat="30.1929690" lon="35.0500740">
<time>2008-04-19T08:03:59.973Z</time>
</trkpt>
<trkpt lat="30.1911980" lon="35.0512300">
<time>2008-04-19T08:04:01.131Z</time>
</trkpt>
<trkpt lat="30.1898900" lon="35.0521180">
<time>2008-04-19T08:04:02.081Z</time>
</trkpt>
<trkpt lat="30.1860410" lon="35.0546960">
<time>2008-04-19T08:04:03.550Z</time>
</trkpt>
<trkpt lat="30.1839630" lon="35.0558520">
<time>2008-04-19T08:04:06.954Z</time>
</trkpt>
<trkpt lat="30.1832700" lon="35.0560310">
<time>2008-04-19T08:04:07.749Z</time>
</trkpt>
<trkpt lat="30.1821920" lon="35.0570960">
<time>2008-04-19T08:04:08.484Z</time>
</trkpt>
<trkpt lat="30.1813460" lon="35.0579840">
<time>2008-04-19T08:04:09.348Z</time>
</trkpt>
<trkpt lat="30.1795760" lon="35.0591400">
<time>2008-04-19T08:04:12.302Z</time>
</trkpt>
<trkpt lat="30.1772660" lon="35.0605620">
<time>2008-04-19T08:04:13.408Z</time>
</trkpt>
<trkpt lat="30.1744180" lon="35.0625170">
<time>2008-04-19T08:04:15.439Z</time>
</trkpt>
<trkpt lat="30.1734170" lon="35.0629620">
<time>2008-04-19T08:04:16.787Z</time>
</trkpt>
<trkpt lat="30.1724920" lon="35.0626090">
<time>2008-04-19T08:04:17.858Z</time>
</trkpt>
<trkpt lat="30.1720300" lon="35.0625210">
<time>2008-04-19T08:04:34.144Z</time>
</trkpt>
<trkpt lat="30.1709510" lon="35.0622560">
<time>2008-04-19T08:04:34.844Z</time>
</trkpt>
<trkpt lat="30.1697960" lon="35.0622580">
<time>2008-04-19T08:04:35.440Z</time>
</trkpt>
<trkpt lat="30.1684860" lon="35.0620830">
<time>2008-04-19T08:04:36.002Z</time>
</trkpt>
<trkpt lat="30.1676390" lon="35.0619070">
<time>2008-04-19T08:04:36.814Z</time>
</trkpt>
<trkpt lat="30.1667920" lon="35.0622630">
<time>2008-04-19T08:04:38.326Z</time>
</trkpt>
<trkpt lat="30.1657910" lon="35.0628850">
<time>2008-04-19T08:04:39.311Z</time>
</trkpt>
<trkpt lat="30.1654060" lon="35.0632400">
<time>2008-04-19T08:04:39.907Z</time>
</trkpt>
<trkpt lat="30.1652530" lon="35.0642150">
<time>2008-04-19T08:04:40.676Z</time>
</trkpt>
<trkpt lat="30.1655630" lon="35.0655450">
<time>2008-04-19T08:04:41.488Z</time>
</trkpt>
<trkpt lat="30.1661030" lon="35.0667850">
<time>2008-04-19T08:04:42.689Z</time>
</trkpt>
<trkpt lat="30.1647160" lon="35.0666100">
<time>2008-04-19T08:04:46.128Z</time>
</trkpt>
<trkpt lat="30.1637920" lon="35.0664340">
<time>2008-04-19T08:04:47.130Z</time>
</trkpt>
<trkpt lat="30.1626360" lon="35.0658150">
<time>2008-04-19T08:04:48.063Z</time>
</trkpt>
<trkpt lat="30.1613260" lon="35.0656390">
<time>2008-04-19T08:04:49.031Z</time>
</trkpt>
<trkpt lat="30.1599390" lon="35.0656420">
<time>2008-04-19T08:04:49.826Z</time>
</trkpt>
<trkpt lat="30.1588610" lon="35.0656430">
<time>2008-04-19T08:04:51.519Z</time>
</trkpt>
<trkpt lat="30.1577050" lon="35.0654680">
<time>2008-04-19T08:04:52.815Z</time>
</trkpt>
<trkpt lat="30.1569360" lon="35.0668870">
<time>2008-04-19T08:05:11.374Z</time>
</trkpt>
<trkpt lat="30.1550140" lon="35.0699920">
<time>2008-04-19T08:05:12.670Z</time>
</trkpt>
<trkpt lat="30.1533960" lon="35.0700830">
<time>2008-04-19T08:05:15.193Z</time>
</trkpt>
<trkpt lat="30.1515480" lon="35.0704410">
<time>2008-04-19T08:05:16.178Z</time>
</trkpt>
<trkpt lat="30.1500840" lon="35.0706200">
<time>2008-04-19T08:05:17.111Z</time>
</trkpt>
<trkpt lat="30.1483120" lon="35.0706220">
<time>2008-04-19T08:05:18.468Z</time>
</trkpt>
<trkpt lat="30.1462330" lon="35.0714230">
<time>2008-04-19T08:05:29.561Z</time>
</trkpt>
<trkpt lat="30.1453090" lon="35.0718680">
<time>2008-04-19T08:05:30.926Z</time>
</trkpt>
<trkpt lat="30.1429220" lon="35.0726690">
<time>2008-04-19T08:05:40.016Z</time>
</trkpt>
<trkpt lat="30.1416890" lon="35.0724050">
<time>2008-04-19T08:05:40.975Z</time>
</trkpt>
<trkpt lat="30.1407650" lon="35.0722290">
<time>2008-04-19T08:05:41.813Z</time>
</trkpt>
<trkpt lat="30.1399940" lon="35.0719640">
<time>2008-04-19T08:05:44.906Z</time>
</trkpt>
<trkpt lat="30.1390700" lon="35.0718770">
<time>2008-04-19T08:05:47.005Z</time>
</trkpt>
<trkpt lat="30.1382990" lon="35.0717000">
<time>2008-04-19T08:05:53.045Z</time>
</trkpt>
<trkpt lat="30.1370660" lon="35.0714360">
<time>2008-04-19T08:05:53.909Z</time>
</trkpt>
<trkpt lat="30.1365270" lon="35.0713480">
<time>2008-04-19T08:05:56.095Z</time>
</trkpt>
<trkpt lat="30.1355250" lon="35.0710840">
<time>2008-04-19T08:05:57.002Z</time>
</trkpt>
<trkpt lat="30.1345240" lon="35.0717940">
<time>2008-04-19T08:05:58.376Z</time>
</trkpt>
<trkpt lat="30.1341400" lon="35.0725040">
<time>2008-04-19T08:05:59.456Z</time>
</trkpt>
<trkpt lat="30.1341420" lon="35.0742760">
<time>2008-04-19T08:06:00.423Z</time>
</trkpt>
<trkpt lat="30.1339900" lon="35.0763150">
<time>2008-04-19T08:06:01.391Z</time>
</trkpt>
<trkpt lat="30.1338380" lon="35.0787080">
<time>2008-04-19T08:06:02.186Z</time>
</trkpt>
<trkpt lat="30.1334550" lon="35.0807470">
<time>2008-04-19T08:06:03.171Z</time>
</trkpt>
<trkpt lat="30.1326860" lon="35.0819890">
<time>2008-04-19T08:06:04.139Z</time>
</trkpt>
<trkpt lat="30.1310700" lon="35.0832320">
<time>2008-04-19T08:06:05.936Z</time>
</trkpt>
<trkpt lat="30.1299920" lon="35.0838530">
<time>2008-04-19T08:06:06.817Z</time>
</trkpt>
<trkpt lat="30.1288370" lon="35.0844750">
<time>2008-04-19T08:06:07.906Z</time>
</trkpt>
<trkpt lat="30.1280680" lon="35.0861600">
<time>2008-04-19T08:06:08.830Z</time>
</trkpt>
<trkpt lat="30.1272990" lon="35.0877560">
<time>2008-04-19T08:06:10.593Z</time>
</trkpt>
<trkpt lat="30.1261440" lon="35.0882890">
<time>2008-04-19T08:06:12.061Z</time>
</trkpt>
<trkpt lat="30.1252970" lon="35.0882020">
<time>2008-04-19T08:06:12.969Z</time>
</trkpt>
<trkpt lat="30.1235250" lon="35.0880270">
<time>2008-04-19T08:06:14.515Z</time>
</trkpt>
<trkpt lat="30.1222150" lon="35.0878510">
<time>2008-04-19T08:06:15.785Z</time>
</trkpt>
<trkpt lat="30.1215210" lon="35.0874980">
<time>2008-04-19T08:06:16.831Z</time>
</trkpt>
<trkpt lat="30.1208270" lon="35.0863460">
<time>2008-04-19T08:06:18.014Z</time>
</trkpt>
<trkpt lat="30.1202860" lon="35.0850180">
<time>2008-04-19T08:06:19.060Z</time>
</trkpt>
<trkpt lat="30.1195150" lon="35.0843990">
<time>2008-04-19T08:06:20.002Z</time>
</trkpt>
<trkpt lat="30.1182060" lon="35.0843120">
<time>2008-04-19T08:06:21.583Z</time>
</trkpt>
<trkpt lat="30.1167420" lon="35.0844020">
<time>2008-04-19T08:06:23.017Z</time>
</trkpt>
<trkpt lat="30.1153560" lon="35.0844930">
<time>2008-04-19T08:06:27.536Z</time>
</trkpt>
<trkpt lat="30.1143540" lon="35.0844050">
<time>2008-04-19T08:06:34.266Z</time>
</trkpt>
<trkpt lat="30.1125820" lon="35.0838760">
<time>2008-04-19T08:06:35.225Z</time>
</trkpt>
<trkpt lat="30.1111950" lon="35.0836120">
<time>2008-04-19T08:06:36.020Z</time>
</trkpt>
<trkpt lat="30.1092680" lon="35.0830830">
<time>2008-04-19T08:06:37.100Z</time>
</trkpt>
<trkpt lat="30.1080350" lon="35.0821100">
<time>2008-04-19T08:06:38.094Z</time>
</trkpt>
<trkpt lat="30.1066470" lon="35.0812250">
<time>2008-04-19T08:06:39.191Z</time>
</trkpt>
<trkpt lat="30.1056450" lon="35.0805180">
<time>2008-04-19T08:06:40.599Z</time>
</trkpt>
<trkpt lat="30.1044890" lon="35.0798110">
<time>2008-04-19T08:06:49.490Z</time>
</trkpt>
<trkpt lat="30.1034870" lon="35.0791030">
<time>2008-04-19T08:06:50.190Z</time>
</trkpt>
<trkpt lat="30.1025610" lon="35.0781300">
<time>2008-04-19T08:06:50.881Z</time>
</trkpt>
<trkpt lat="30.1013270" lon="35.0767140">
<time>2008-04-19T08:06:51.952Z</time>
</trkpt>
<trkpt lat="30.1000930" lon="35.0753870">
<time>2008-04-19T08:06:52.782Z</time>
</trkpt>
<trkpt lat="30.0989370" lon="35.0744140">
<time>2008-04-19T08:06:53.810Z</time>
</trkpt>
<trkpt lat="30.0981660" lon="35.0736180">
<time>2008-04-19T08:06:54.562Z</time>
</trkpt>
<trkpt lat="30.0973940" lon="35.0726440">
<time>2008-04-19T08:06:55.452Z</time>
</trkpt>
<trkpt lat="30.0962380" lon="35.0717600">
<time>2008-04-19T08:06:56.549Z</time>
</trkpt>
<trkpt lat="30.0948510" lon="35.0713190">
<time>2008-04-19T08:07:00.834Z</time>
</trkpt>
<trkpt lat="30.0926940" lon="35.0710560">
<time>2008-04-19T08:07:01.811Z</time>
</trkpt>
<trkpt lat="30.0912300" lon="35.0707920">
<time>2008-04-19T08:07:02.614Z</time>
</trkpt>
<trkpt lat="30.0896110" lon="35.0704400">
<time>2008-04-19T08:07:03.625Z</time>
</trkpt>
<trkpt lat="30.0879930" lon="35.0695570">
<time>2008-04-19T08:07:04.584Z</time>
</trkpt>
<trkpt lat="30.0862200" lon="35.0689390">
<time>2008-04-19T08:07:05.733Z</time>
</trkpt>
<trkpt lat="30.0838320" lon="35.0686770">
<time>2008-04-19T08:07:07.003Z</time>
</trkpt>
<trkpt lat="30.0827530" lon="35.0684130">
<time>2008-04-19T08:07:07.781Z</time>
</trkpt>
<trkpt lat="30.0818280" lon="35.0678830">
<time>2008-04-19T08:07:09.301Z</time>
</trkpt>
<trkpt lat="30.0809030" lon="35.0673520">
<time>2008-04-19T08:07:10.191Z</time>
</trkpt>
<trkpt lat="30.0803620" lon="35.0657590">
<time>2008-04-19T08:07:11.660Z</time>
</trkpt>
<trkpt lat="30.0798210" lon="35.0645200">
<time>2008-04-19T08:07:12.740Z</time>
</trkpt>
<trkpt lat="30.0788190" lon="35.0633700">
<time>2008-04-19T08:07:14.313Z</time>
</trkpt>
<trkpt lat="30.0780480" lon="35.0629280">
<time>2008-04-19T08:07:15.358Z</time>
</trkpt>
<trkpt lat="30.0766610" lon="35.0624870">
<time>2008-04-19T08:07:28.733Z</time>
</trkpt>
<trkpt lat="30.0755040" lon="35.0617800">
<time>2008-04-19T08:07:29.519Z</time>
</trkpt>
<trkpt lat="30.0744250" lon="35.0614280">
<time>2008-04-19T08:07:30.253Z</time>
</trkpt>
<trkpt lat="30.0729620" lon="35.0614300">
<time>2008-04-19T08:07:30.798Z</time>
</trkpt>
<trkpt lat="30.0718830" lon="35.0608110">
<time>2008-04-19T08:07:31.549Z</time>
</trkpt>
<trkpt lat="30.0708030" lon="35.0596620">
<time>2008-04-19T08:07:32.249Z</time>
</trkpt>
<trkpt lat="30.0695690" lon="35.0584240">
<time>2008-04-19T08:07:33.079Z</time>
</trkpt>
<trkpt lat="30.0683350" lon="35.0578940">
<time>2008-04-19T08:07:33.943Z</time>
</trkpt>
<trkpt lat="30.0662550" lon="35.0577200">
<time>2008-04-19T08:07:34.936Z</time>
</trkpt>
<trkpt lat="30.0650230" lon="35.0580760">
<time>2008-04-19T08:07:36.422Z</time>
</trkpt>
<trkpt lat="30.0637140" lon="35.0586100">
<time>2008-04-19T08:07:37.252Z</time>
</trkpt>
<trkpt lat="30.0627130" lon="35.0587000">
<time>2008-04-19T08:07:38.176Z</time>
</trkpt>
<trkpt lat="30.0610180" lon="35.0583480">
<time>2008-04-19T08:07:39.170Z</time>
</trkpt>
<trkpt lat="30.0596310" lon="35.0581730">
<time>2008-04-19T08:07:40.423Z</time>
</trkpt>
<trkpt lat="30.0581670" lon="35.0578210">
<time>2008-04-19T08:07:41.598Z</time>
</trkpt>
<trkpt lat="30.0568570" lon="35.0573800">
<time>2008-04-19T08:07:42.488Z</time>
</trkpt>
<trkpt lat="30.0549300" lon="35.0570290">
<time>2008-04-19T08:07:43.654Z</time>
</trkpt>
<trkpt lat="30.0540050" lon="35.0564110">
<time>2008-04-19T08:07:44.769Z</time>
</trkpt>
<trkpt lat="30.0535410" lon="35.0545520">
<time>2008-04-19T08:07:45.892Z</time>
</trkpt>
<trkpt lat="30.0534610" lon="35.0525150">
<time>2008-04-19T08:07:46.764Z</time>
</trkpt>
<trkpt lat="30.0529970" lon="35.0509220">
<time>2008-04-19T08:08:29.092Z</time>
</trkpt>
<trkpt lat="30.0524560" lon="35.0497720">
<time>2008-04-19T08:08:29.921Z</time>
</trkpt>
<trkpt lat="30.0513770" lon="35.0487990">
<time>2008-04-19T08:08:30.656Z</time>
</trkpt>
<trkpt lat="30.0502960" lon="35.0474730">
<time>2008-04-19T08:08:31.459Z</time>
</trkpt>
<trkpt lat="30.0498320" lon="35.0460570">
<time>2008-04-19T08:08:32.107Z</time>
</trkpt>
<trkpt lat="30.0489080" lon="35.0457040">
<time>2008-04-19T08:08:36.298Z</time>
</trkpt>
<trkpt lat="30.0476750" lon="35.0457060">
<time>2008-04-19T08:08:43.547Z</time>
</trkpt>
<trkpt lat="30.0457480" lon="35.0451780">
<time>2008-04-19T08:08:44.877Z</time>
</trkpt>
<trkpt lat="30.0449770" lon="35.0442940">
<time>2008-04-19T08:08:45.612Z</time>
</trkpt>
<trkpt lat="30.0443590" lon="35.0431440">
<time>2008-04-19T08:08:46.303Z</time>
</trkpt>
<trkpt lat="30.0436650" lon="35.0423480">
<time>2008-04-19T08:08:46.951Z</time>
</trkpt>
<trkpt lat="30.0428940" lon="35.0419070">
<time>2008-04-19T08:08:47.521Z</time>
</trkpt>
<trkpt lat="30.0413530" lon="35.0416440">
<time>2008-04-19T08:08:49.404Z</time>
</trkpt>
<trkpt lat="30.0427380" lon="35.0404020">
<time>2008-04-19T08:08:50.865Z</time>
</trkpt>
<trkpt lat="30.0434300" lon="35.0397810">
<time>2008-04-19T08:08:51.642Z</time>
</trkpt>
<trkpt lat="30.0439680" lon="35.0383630">
<time>2008-04-19T08:08:52.670Z</time>
</trkpt>
<trkpt lat="30.0450430" lon="35.0361480">
<time>2008-04-19T08:08:53.880Z</time>
</trkpt>
<trkpt lat="30.0457340" lon="35.0341980">
<time>2008-04-19T08:09:10.469Z</time>
</trkpt>
<trkpt lat="30.0468090" lon="35.0314510">
<time>2008-04-19T08:09:12.378Z</time>
</trkpt>
<trkpt lat="30.0464200" lon="35.0287960">
<time>2008-04-19T08:09:13.968Z</time>
</trkpt>
<trkpt lat="30.0461870" lon="35.0274680">
<time>2008-04-19T08:13:36.624Z</time>
</trkpt>
<trkpt lat="30.0458770" lon="35.0264940">
<time>2008-04-19T08:13:37.436Z</time>
</trkpt>
<trkpt lat="30.0451820" lon="35.0249020">
<time>2008-04-19T08:13:38.490Z</time>
</trkpt>
<trkpt lat="30.0441010" lon="35.0229560">
<time>2008-04-19T08:13:39.613Z</time>
</trkpt>
<trkpt lat="30.0434050" lon="35.0212750">
<time>2008-04-19T08:13:40.443Z</time>
</trkpt>
<trkpt lat="30.0431710" lon="35.0195040">
<time>2008-04-19T08:13:41.376Z</time>
</trkpt>
<trkpt lat="30.0434770" lon="35.0177330">
<time>2008-04-19T08:13:42.404Z</time>
</trkpt>
<trkpt lat="30.0443990" lon="35.0165800">
<time>2008-04-19T08:13:43.329Z</time>
</trkpt>
<trkpt lat="30.0457080" lon="35.0157810">
<time>2008-04-19T08:13:44.348Z</time>
</trkpt>
<trkpt lat="30.0480170" lon="35.0142710">
<time>2008-04-19T08:13:46.111Z</time>
</trkpt>
<trkpt lat="30.0477820" lon="35.0119690">
<time>2008-04-19T08:15:56.004Z</time>
</trkpt>
<trkpt lat="30.0476210" lon="35.0077190">
<time>2008-04-19T08:15:56.998Z</time>
</trkpt>
<trkpt lat="30.0471540" lon="35.0045320">
<time>2008-04-19T08:15:58.311Z</time>
</trkpt>
<trkpt lat="30.0466890" lon="35.0028510">
<time>2008-04-19T08:16:00.108Z</time>
</trkpt>
<trkpt lat="30.0459940" lon="35.0013470">
<time>2008-04-19T08:16:14.287Z</time>
</trkpt>
<trkpt lat="30.0449880" lon="34.9989580">
<time>2008-04-19T08:16:15.626Z</time>
</trkpt>
<trkpt lat="30.0437530" lon="34.9975440">
<time>2008-04-19T08:16:16.732Z</time>
</trkpt>
<trkpt lat="30.0377340" lon="34.9913590">
<time>2008-04-19T08:16:18.831Z</time>
</trkpt>
<trkpt lat="30.0330270" lon="34.9866770">
<time>2008-04-19T08:16:20.732Z</time>
</trkpt>
<trkpt lat="30.0307890" lon="34.9844690">
<time>2008-04-19T08:16:22.426Z</time>
</trkpt>
<trkpt lat="30.0254660" lon="34.9800550">
<time>2008-04-19T08:16:24.266Z</time>
</trkpt>
<trkpt lat="30.0204520" lon="34.9762600">
<time>2008-04-19T08:16:26.581Z</time>
</trkpt>
<trkpt lat="30.0197600" lon="34.9771470">
<time>2008-04-19T08:16:31.567Z</time>
</trkpt>
<trkpt lat="30.0186820" lon="34.9774150">
<time>2008-04-19T08:16:32.638Z</time>
</trkpt>
<trkpt lat="30.0170640" lon="34.9769760">
<time>2008-04-19T08:16:33.563Z</time>
</trkpt>
<trkpt lat="30.0160620" lon="34.9768010">
<time>2008-04-19T08:16:34.686Z</time>
</trkpt>
<trkpt lat="30.0089000" lon="34.9779690">
<time>2008-04-19T08:16:36.327Z</time>
</trkpt>
<trkpt lat="30.0028920" lon="34.9786910">
<time>2008-04-19T08:16:37.597Z</time>
</trkpt>
<trkpt lat="29.9998110" lon="34.9789640">
<time>2008-04-19T08:16:39.109Z</time>
</trkpt>
<trkpt lat="29.9987330" lon="34.9789660">
<time>2008-04-19T08:16:39.973Z</time>
</trkpt>
<trkpt lat="29.9975770" lon="34.9786150">
<time>2008-04-19T08:16:41.503Z</time>
</trkpt>
<trkpt lat="29.9931840" lon="34.9776520">
<time>2008-04-19T08:16:43.784Z</time>
</trkpt>
<trkpt lat="29.9902550" lon="34.9769510">
<time>2008-04-19T08:17:04.295Z</time>
</trkpt>
<trkpt lat="29.9873260" lon="34.9762500">
<time>2008-04-19T08:17:06.006Z</time>
</trkpt>
<trkpt lat="29.9833190" lon="34.9755510">
<time>2008-04-19T08:17:11.579Z</time>
</trkpt>
<trkpt lat="29.9809310" lon="34.9754680">
<time>2008-04-19T08:17:12.831Z</time>
</trkpt>
<trkpt lat="29.9782350" lon="34.9757400">
<time>2008-04-19T08:17:13.937Z</time>
</trkpt>
<trkpt lat="29.9759250" lon="34.9762760">
<time>2008-04-19T08:17:16.607Z</time>
</trkpt>
<trkpt lat="29.9737690" lon="34.9767240">
<time>2008-04-19T08:17:17.756Z</time>
</trkpt>
<trkpt lat="29.9726140" lon="34.9768150">
<time>2008-04-19T08:17:18.577Z</time>
</trkpt>
<trkpt lat="29.9709950" lon="34.9763770">
<time>2008-04-19T08:17:19.864Z</time>
</trkpt>
<trkpt lat="29.9680660" lon="34.9754990">
<time>2008-04-19T08:17:26.310Z</time>
</trkpt>
<trkpt lat="29.9647520" lon="34.9745330">
<time>2008-04-19T08:17:30.924Z</time>
</trkpt>
<trkpt lat="29.9623620" lon="34.9735660">
<time>2008-04-19T08:17:31.943Z</time>
</trkpt>
<trkpt lat="29.9598170" lon="34.9719790">
<time>2008-04-19T08:17:33.455Z</time>
</trkpt>
<trkpt lat="29.9585820" lon="34.9710980">
<time>2008-04-19T08:17:35.468Z</time>
</trkpt>
<trkpt lat="29.9575020" lon="34.9701270">
<time>2008-04-19T08:17:45.050Z</time>
</trkpt>
<trkpt lat="29.9554190" lon="34.9681860">
<time>2008-04-19T08:17:46.078Z</time>
</trkpt>
<trkpt lat="29.9530260" lon="34.9659800">
<time>2008-04-19T08:17:47.530Z</time>
</trkpt>
<trkpt lat="29.9505600" lon="34.9654550">
<time>2008-04-19T08:17:48.687Z</time>
</trkpt>
<trkpt lat="29.9469380" lon="34.9644910">
<time>2008-04-19T08:17:49.957Z</time>
</trkpt>
<trkpt lat="29.9446250" lon="34.9638780">
<time>2008-04-19T08:17:53.154Z</time>
</trkpt>
<trkpt lat="29.9433930" lon="34.9639690">
<time>2008-04-19T08:17:53.906Z</time>
</trkpt>
<trkpt lat="29.9427010" lon="34.9645020">
<time>2008-04-19T08:17:54.640Z</time>
</trkpt>
<trkpt lat="29.9423940" lon="34.9654760">
<time>2008-04-19T08:17:55.582Z</time>
</trkpt>
<trkpt lat="29.9420900" lon="34.9673340">
<time>2008-04-19T08:17:56.740Z</time>
</trkpt>
<trkpt lat="29.9425540" lon="34.9684830">
<time>2008-04-19T08:17:57.457Z</time>
</trkpt>
<trkpt lat="29.9427890" lon="34.9704280">
<time>2008-04-19T08:17:58.096Z</time>
</trkpt>
<trkpt lat="29.9433310" lon="34.9721070">
<time>2008-04-19T08:17:59.099Z</time>
</trkpt>
<trkpt lat="29.9426410" lon="34.9737900">
<time>2008-04-19T08:18:00.420Z</time>
</trkpt>
<trkpt lat="29.9419500" lon="34.9752070">
<time>2008-04-19T08:18:01.362Z</time>
</trkpt>
<trkpt lat="29.9401060" lon="34.9779530">
<time>2008-04-19T08:18:02.719Z</time>
</trkpt>
<trkpt lat="29.9385680" lon="34.9796370">
<time>2008-04-19T08:18:03.756Z</time>
</trkpt>
<trkpt lat="29.9367990" lon="34.9809680">
<time>2008-04-19T08:18:04.766Z</time>
</trkpt>
<trkpt lat="29.9348740" lon="34.9815920">
<time>2008-04-19T08:18:06.080Z</time>
</trkpt>
<trkpt lat="29.9327940" lon="34.9816850">
<time>2008-04-19T08:18:07.203Z</time>
</trkpt>
<trkpt lat="29.9318700" lon="34.9819530">
<time>2008-04-19T08:18:12.456Z</time>
</trkpt>
<trkpt lat="29.9310240" lon="34.9829270">
<time>2008-04-19T08:18:13.303Z</time>
</trkpt>
<trkpt lat="29.9304860" lon="34.9834590">
<time>2008-04-19T08:18:13.830Z</time>
</trkpt>
<trkpt lat="29.9285610" lon="34.9840830">
<time>2008-04-19T08:18:14.953Z</time>
</trkpt>
<trkpt lat="29.9274840" lon="34.9846160">
<time>2008-04-19T08:18:15.670Z</time>
</trkpt>
<trkpt lat="29.9265610" lon="34.9855020">
<time>2008-04-19T08:18:16.595Z</time>
</trkpt>
<trkpt lat="29.9262540" lon="34.9863870">
<time>2008-04-19T08:18:17.467Z</time>
</trkpt>
<trkpt lat="29.9259480" lon="34.9877150">
<time>2008-04-19T08:18:18.703Z</time>
</trkpt>
<trkpt lat="29.9252560" lon="34.9885120">
<time>2008-04-19T08:18:19.411Z</time>
</trkpt>
<trkpt lat="29.9241020" lon="34.9893990">
<time>2008-04-19T08:18:20.500Z</time>
</trkpt>
<trkpt lat="29.9236410" lon="34.9902850">
<time>2008-04-19T08:18:21.468Z</time>
</trkpt>
<trkpt lat="29.9234910" lon="34.9924080">
<time>2008-04-19T08:18:22.470Z</time>
</trkpt>
<trkpt lat="29.9227230" lon="34.9938240">
<time>2008-04-19T08:18:33.192Z</time>
</trkpt>
<trkpt lat="29.9214930" lon="34.9953300">
<time>2008-04-19T08:18:34.160Z</time>
</trkpt>
<trkpt lat="29.9195690" lon="34.9968380">
<time>2008-04-19T08:18:35.093Z</time>
</trkpt>
<trkpt lat="29.9174140" lon="34.9978150">
<time>2008-04-19T08:18:36.060Z</time>
</trkpt>
<trkpt lat="29.9167990" lon="34.9986130">
<time>2008-04-19T08:19:35.754Z</time>
</trkpt>
<trkpt lat="29.9157220" lon="34.9998530">
<time>2008-04-19T08:19:37.577Z</time>
</trkpt>
<trkpt lat="29.9163390" lon="35.0004710">
<time>2008-04-19T08:19:43.375Z</time>
</trkpt>
<trkpt lat="29.9170340" lon="35.0011770">
<time>2008-04-19T08:19:44.049Z</time>
</trkpt>
<trkpt lat="29.9171900" lon="35.0025910">
<time>2008-04-19T08:19:45.146Z</time>
</trkpt>
</trkseg>
</trk>
<trk>
 <name>day10</name>
 <desc>Reversed - 19-Apr-08 11:17:55-11:19</desc>
<trkseg>
<trkpt lat="29.9171900" lon="35.0025910">
<time>2008-04-19T08:19:45.146Z</time>
</trkpt>
<trkpt lat="29.9170340" lon="35.0011770">
<time>2008-04-19T08:19:44.049Z</time>
</trkpt>
<trkpt lat="29.9163390" lon="35.0004710">
<time>2008-04-19T08:19:43.375Z</time>
</trkpt>
<trkpt lat="29.9157220" lon="34.9998530">
<time>2008-04-19T08:19:37.577Z</time>
</trkpt>
<trkpt lat="29.9167990" lon="34.9986130">
<time>2008-04-19T08:19:35.754Z</time>
</trkpt>
<trkpt lat="29.9174140" lon="34.9978150">
<time>2008-04-19T08:18:36.060Z</time>
</trkpt>
<trkpt lat="29.9195690" lon="34.9968380">
<time>2008-04-19T08:18:35.093Z</time>
</trkpt>
<trkpt lat="29.9214930" lon="34.9953300">
<time>2008-04-19T08:18:34.160Z</time>
</trkpt>
<trkpt lat="29.9227230" lon="34.9938240">
<time>2008-04-19T08:18:33.192Z</time>
</trkpt>
<trkpt lat="29.9234910" lon="34.9924080">
<time>2008-04-19T08:18:22.470Z</time>
</trkpt>
<trkpt lat="29.9236410" lon="34.9902850">
<time>2008-04-19T08:18:21.468Z</time>
</trkpt>
<trkpt lat="29.9241020" lon="34.9893990">
<time>2008-04-19T08:18:20.500Z</time>
</trkpt>
<trkpt lat="29.9252560" lon="34.9885120">
<time>2008-04-19T08:18:19.411Z</time>
</trkpt>
<trkpt lat="29.9259480" lon="34.9877150">
<time>2008-04-19T08:18:18.703Z</time>
</trkpt>
<trkpt lat="29.9262540" lon="34.9863870">
<time>2008-04-19T08:18:17.467Z</time>
</trkpt>
<trkpt lat="29.9265610" lon="34.9855020">
<time>2008-04-19T08:18:16.595Z</time>
</trkpt>
<trkpt lat="29.9274840" lon="34.9846160">
<time>2008-04-19T08:18:15.670Z</time>
</trkpt>
<trkpt lat="29.9285610" lon="34.9840830">
<time>2008-04-19T08:18:14.953Z</time>
</trkpt>
<trkpt lat="29.9304860" lon="34.9834590">
<time>2008-04-19T08:18:13.830Z</time>
</trkpt>
<trkpt lat="29.9310240" lon="34.9829270">
<time>2008-04-19T08:18:13.303Z</time>
</trkpt>
<trkpt lat="29.9318700" lon="34.9819530">
<time>2008-04-19T08:18:12.456Z</time>
</trkpt>
<trkpt lat="29.9327940" lon="34.9816850">
<time>2008-04-19T08:18:07.203Z</time>
</trkpt>
<trkpt lat="29.9348740" lon="34.9815920">
<time>2008-04-19T08:18:06.080Z</time>
</trkpt>
<trkpt lat="29.9367990" lon="34.9809680">
<time>2008-04-19T08:18:04.766Z</time>
</trkpt>
<trkpt lat="29.9385680" lon="34.9796370">
<time>2008-04-19T08:18:03.756Z</time>
</trkpt>
<trkpt lat="29.9401060" lon="34.9779530">
<time>2008-04-19T08:18:02.719Z</time>
</trkpt>
<trkpt lat="29.9419500" lon="34.9752070">
<time>2008-04-19T08:18:01.362Z</time>
</trkpt>
<trkpt lat="29.9426410" lon="34.9737900">
<time>2008-04-19T08:18:00.420Z</time>
</trkpt>
<trkpt lat="29.9433310" lon="34.9721070">
<time>2008-04-19T08:17:59.099Z</time>
</trkpt>
<trkpt lat="29.9427890" lon="34.9704280">
<time>2008-04-19T08:17:58.096Z</time>
</trkpt>
<trkpt lat="29.9425540" lon="34.9684830">
<time>2008-04-19T08:17:57.457Z</time>
</trkpt>
<trkpt lat="29.9420900" lon="34.9673340">
<time>2008-04-19T08:17:56.740Z</time>
</trkpt>
<trkpt lat="29.9423940" lon="34.9654760">
<time>2008-04-19T08:17:55.582Z</time>
</trkpt>
<trkpt lat="29.9428540" lon="34.9643240">
<time>2008-04-19T08:24:27.225Z</time>
</trkpt>
<trkpt lat="29.9418520" lon="34.9637080">
<time>2008-04-19T08:24:28.858Z</time>
</trkpt>
<trkpt lat="29.9405410" lon="34.9631800">
<time>2008-04-19T08:24:30.015Z</time>
</trkpt>
<trkpt lat="29.9389220" lon="34.9626540">
<time>2008-04-19T08:24:33.765Z</time>
</trkpt>
<trkpt lat="29.9370730" lon="34.9622160">
<time>2008-04-19T08:24:39.061Z</time>
</trkpt>
<trkpt lat="29.9356080" lon="34.9618660">
<time>2008-04-19T08:24:40.081Z</time>
</trkpt>
<trkpt lat="29.9339130" lon="34.9614280">
<time>2008-04-19T08:24:40.971Z</time>
</trkpt>
<trkpt lat="29.9316780" lon="34.9612570">
<time>2008-04-19T08:24:42.345Z</time>
</trkpt>
<trkpt lat="29.9295210" lon="34.9613500">
<time>2008-04-19T08:24:43.546Z</time>
</trkpt>
<trkpt lat="29.9275950" lon="34.9610900">
<time>2008-04-19T08:24:44.971Z</time>
</trkpt>
<trkpt lat="29.9264380" lon="34.9603850">
<time>2008-04-19T08:24:45.688Z</time>
</trkpt>
<trkpt lat="29.9255880" lon="34.9590610">
<time>2008-04-19T08:24:47.019Z</time>
</trkpt>
<trkpt lat="29.9247400" lon="34.9588860">
<time>2008-04-19T08:25:15.263Z</time>
</trkpt>
<trkpt lat="29.9223510" lon="34.9581850">
<time>2008-04-19T08:25:16.188Z</time>
</trkpt>
<trkpt lat="29.9198830" lon="34.9566870">
<time>2008-04-19T08:25:16.896Z</time>
</trkpt>
<trkpt lat="29.9169520" lon="34.9549260">
<time>2008-04-19T08:25:32.733Z</time>
</trkpt>
<trkpt lat="29.9131720" lon="34.9524600">
<time>2008-04-19T08:25:33.701Z</time>
</trkpt>
<trkpt lat="29.9104730" lon="34.9509640">
<time>2008-04-19T08:25:34.660Z</time>
</trkpt>
<trkpt lat="29.9082370" lon="34.9502620">
<time>2008-04-19T08:25:35.766Z</time>
</trkpt>
<trkpt lat="29.9062320" lon="34.9487640">
<time>2008-04-19T08:25:36.906Z</time>
</trkpt>
<trkpt lat="29.9039950" lon="34.9474440">
<time>2008-04-19T08:25:37.597Z</time>
</trkpt>
<trkpt lat="29.9019120" lon="34.9459460">
<time>2008-04-19T08:25:38.608Z</time>
</trkpt>
<trkpt lat="29.8995210" lon="34.9448030">
<time>2008-04-19T08:25:39.395Z</time>
</trkpt>
<trkpt lat="29.8978240" lon="34.9433930">
<time>2008-04-19T08:25:40.094Z</time>
</trkpt>
<trkpt lat="29.8968190" lon="34.9420690">
<time>2008-04-19T08:25:41.114Z</time>
</trkpt>
<trkpt lat="29.8968930" lon="34.9402120">
<time>2008-04-19T08:25:42.159Z</time>
</trkpt>
<trkpt lat="29.8956580" lon="34.9389780">
<time>2008-04-19T08:25:42.894Z</time>
</trkpt>
<trkpt lat="29.8942690" lon="34.9380090">
<time>2008-04-19T08:25:43.671Z</time>
</trkpt>
<trkpt lat="29.8914170" lon="34.9374870">
<time>2008-04-19T08:25:44.751Z</time>
</trkpt>
<trkpt lat="29.8895670" lon="34.9367840">
<time>2008-04-19T08:25:45.546Z</time>
</trkpt>
<trkpt lat="29.8870240" lon="34.9364380">
<time>2008-04-19T08:25:46.739Z</time>
</trkpt>
<trkpt lat="29.8840180" lon="34.9357390">
<time>2008-04-19T08:25:48.078Z</time>
</trkpt>
<trkpt lat="29.8821670" lon="34.9347710">
<time>2008-04-19T08:25:53.141Z</time>
</trkpt>
<trkpt lat="29.8816270" lon="34.9341540">
<time>2008-04-19T08:25:53.685Z</time>
</trkpt>
<trkpt lat="29.8799310" lon="34.9338940">
<time>2008-04-19T08:25:54.299Z</time>
</trkpt>
<trkpt lat="29.8777730" lon="34.9332810">
<time>2008-04-19T08:25:55.050Z</time>
</trkpt>
<trkpt lat="29.8761520" lon="34.9318710">
<time>2008-04-19T08:25:56.001Z</time>
</trkpt>
<trkpt lat="29.8749140" lon="34.9293110">
<time>2008-04-19T08:25:57.063Z</time>
</trkpt>
<trkpt lat="29.8742150" lon="34.9266610">
<time>2008-04-19T08:25:57.971Z</time>
</trkpt>
<trkpt lat="29.8740540" lon="34.9233030">
<time>2008-04-19T08:25:59.068Z</time>
</trkpt>
<trkpt lat="29.8737430" lon="34.9221540">
<time>2008-04-19T08:26:03.301Z</time>
</trkpt>
<trkpt lat="29.8735090" lon="34.9210940">
<time>2008-04-19T08:26:05.548Z</time>
</trkpt>
<trkpt lat="29.8731980" lon="34.9195920">
<time>2008-04-19T08:26:22.880Z</time>
</trkpt>
<trkpt lat="29.8723460" lon="34.9177390">
<time>2008-04-19T08:26:23.614Z</time>
</trkpt>
<trkpt lat="29.8708030" lon="34.9165940">
<time>2008-04-19T08:26:24.487Z</time>
</trkpt>
<trkpt lat="29.8683360" lon="34.9158940">
<time>2008-04-19T08:26:26.500Z</time>
</trkpt>
<trkpt lat="29.8671040" lon="34.9158980">
<time>2008-04-19T08:26:31.580Z</time>
</trkpt>
<trkpt lat="29.8654850" lon="34.9155490">
<time>2008-04-19T08:26:35.114Z</time>
</trkpt>
<trkpt lat="29.8630200" lon="34.9154680">
<time>2008-04-19T08:26:35.909Z</time>
</trkpt>
<trkpt lat="29.8587840" lon="34.9159220">
<time>2008-04-19T08:26:37.265Z</time>
</trkpt>
<trkpt lat="29.8572430" lon="34.9158390">
<time>2008-04-19T08:26:39.857Z</time>
</trkpt>
<trkpt lat="29.8553170" lon="34.9161090">
<time>2008-04-19T08:26:40.661Z</time>
</trkpt>
<trkpt lat="29.8533150" lon="34.9164690">
<time>2008-04-19T08:26:41.404Z</time>
</trkpt>
<trkpt lat="29.8508510" lon="34.9167410">
<time>2008-04-19T08:26:42.389Z</time>
</trkpt>
<trkpt lat="29.8483090" lon="34.9171910">
<time>2008-04-19T08:26:43.624Z</time>
</trkpt>
<trkpt lat="29.8463070" lon="34.9172850">
<time>2008-04-19T08:26:44.549Z</time>
</trkpt>
<trkpt lat="29.8449970" lon="34.9172000">
<time>2008-04-19T08:26:45.845Z</time>
</trkpt>
<trkpt lat="29.8441460" lon="34.9156120">
<time>2008-04-19T08:26:49.612Z</time>
</trkpt>
<trkpt lat="29.8433720" lon="34.9142010">
<time>2008-04-19T08:26:50.692Z</time>
</trkpt>
<trkpt lat="29.8423700" lon="34.9137620">
<time>2008-04-19T08:26:51.677Z</time>
</trkpt>
<trkpt lat="29.8416740" lon="34.9127920">
<time>2008-04-19T08:26:54.614Z</time>
</trkpt>
<trkpt lat="29.8409760" lon="34.9106730">
<time>2008-04-19T08:26:55.332Z</time>
</trkpt>
<trkpt lat="29.8398950" lon="34.9093510">
<time>2008-04-19T08:26:56.282Z</time>
</trkpt>
<trkpt lat="29.8385060" lon="34.9083830">
<time>2008-04-19T08:26:57.232Z</time>
</trkpt>
<trkpt lat="29.8359600" lon="34.9067120">
<time>2008-04-19T08:26:58.364Z</time>
</trkpt>
<trkpt lat="29.8343400" lon="34.9057450">
<time>2008-04-19T08:26:59.375Z</time>
</trkpt>
<trkpt lat="29.8325640" lon="34.9041600">
<time>2008-04-19T08:27:02.313Z</time>
</trkpt>
<trkpt lat="29.8310960" lon="34.9024860">
<time>2008-04-19T08:27:03.082Z</time>
</trkpt>
<trkpt lat="29.8296290" lon="34.9009880">
<time>2008-04-19T08:27:03.876Z</time>
</trkpt>
<trkpt lat="29.8281620" lon="34.8997560">
<time>2008-04-19T08:27:05.172Z</time>
</trkpt>
<trkpt lat="29.8270050" lon="34.8991410">
<time>2008-04-19T08:27:30.220Z</time>
</trkpt>
<trkpt lat="29.8254650" lon="34.8992340">
<time>2008-04-19T08:27:31.049Z</time>
</trkpt>
<trkpt lat="29.8243850" lon="34.8987950">
<time>2008-04-19T08:27:32.172Z</time>
</trkpt>
<trkpt lat="29.8258440" lon="34.8965820">
<time>2008-04-19T08:27:33.330Z</time>
</trkpt>
<trkpt lat="29.8265340" lon="34.8950780">
<time>2008-04-19T08:27:34.281Z</time>
</trkpt>
<trkpt lat="29.8255290" lon="34.8940210">
<time>2008-04-19T08:27:35.300Z</time>
</trkpt>
<trkpt lat="29.8246040" lon="34.8936700">
<time>2008-04-19T08:27:36.130Z</time>
</trkpt>
<trkpt lat="29.8237560" lon="34.8933200">
<time>2008-04-19T08:27:37.598Z</time>
</trkpt>
<trkpt lat="29.8229830" lon="34.8923500">
<time>2008-04-19T08:27:38.238Z</time>
</trkpt>
<trkpt lat="29.8215960" lon="34.8921780">
<time>2008-04-19T08:27:39.162Z</time>
</trkpt>
<trkpt lat="29.8192840" lon="34.8918320">
<time>2008-04-19T08:27:40.363Z</time>
</trkpt>
<trkpt lat="29.8182820" lon="34.8914820">
<time>2008-04-19T08:27:41.037Z</time>
</trkpt>
<trkpt lat="29.8171220" lon="34.8897190">
<time>2008-04-19T08:27:42.186Z</time>
</trkpt>
<trkpt lat="29.8163490" lon="34.8887490">
<time>2008-04-19T08:27:44.268Z</time>
</trkpt>
<trkpt lat="29.8155010" lon="34.8885750">
<time>2008-04-19T08:27:45.063Z</time>
</trkpt>
<trkpt lat="29.8145000" lon="34.8887550">
<time>2008-04-19T08:27:45.798Z</time>
</trkpt>
<trkpt lat="29.8134970" lon="34.8879630">
<time>2008-04-19T08:27:46.593Z</time>
</trkpt>
<trkpt lat="29.8131860" lon="34.8869930">
<time>2008-04-19T08:27:47.439Z</time>
</trkpt>
<trkpt lat="29.8131080" lon="34.8865510">
<time>2008-04-19T08:27:48.208Z</time>
</trkpt>
<trkpt lat="29.8122600" lon="34.8862890">
<time>2008-04-19T08:27:49.625Z</time>
</trkpt>
<trkpt lat="29.8116420" lon="34.8857610">
<time>2008-04-19T08:27:50.515Z</time>
</trkpt>
<trkpt lat="29.8113330" lon="34.8852320">
<time>2008-04-19T08:27:51.379Z</time>
</trkpt>
<trkpt lat="29.8104080" lon="34.8848820">
<time>2008-04-19T08:27:52.615Z</time>
</trkpt>
<trkpt lat="29.8091750" lon="34.8847970">
<time>2008-04-19T08:27:54.472Z</time>
</trkpt>
<trkpt lat="29.8086360" lon="34.8848870">
<time>2008-04-19T08:27:58.110Z</time>
</trkpt>
<trkpt lat="29.8077140" lon="34.8858620">
<time>2008-04-19T08:27:59.380Z</time>
</trkpt>
<trkpt lat="29.8071740" lon="34.8858640">
<time>2008-04-19T08:28:00.114Z</time>
</trkpt>
<trkpt lat="29.8070180" lon="34.8848040">
<time>2008-04-19T08:28:01.099Z</time>
</trkpt>
<trkpt lat="29.8064750" lon="34.8834810">
<time>2008-04-19T08:28:02.188Z</time>
</trkpt>
<trkpt lat="29.8060880" lon="34.8825990">
<time>2008-04-19T08:28:07.717Z</time>
</trkpt>
<trkpt lat="29.8050860" lon="34.8826020">
<time>2008-04-19T08:28:08.685Z</time>
</trkpt>
<trkpt lat="29.8033930" lon="34.8830490">
<time>2008-04-19T08:28:09.549Z</time>
</trkpt>
<trkpt lat="29.8018530" lon="34.8834080">
<time>2008-04-19T08:28:10.707Z</time>
</trkpt>
<trkpt lat="29.8005420" lon="34.8829700">
<time>2008-04-19T08:28:11.752Z</time>
</trkpt>
<trkpt lat="29.7986910" lon="34.8820930">
<time>2008-04-19T08:28:12.876Z</time>
</trkpt>
<trkpt lat="29.7972250" lon="34.8810380">
<time>2008-04-19T08:28:14.379Z</time>
</trkpt>
<trkpt lat="29.7962960" lon="34.8795400">
<time>2008-04-19T08:28:17.999Z</time>
</trkpt>
<trkpt lat="29.7950570" lon="34.8768060">
<time>2008-04-19T08:28:19.079Z</time>
</trkpt>
<trkpt lat="29.7942800" lon="34.8742470">
<time>2008-04-19T08:28:20.107Z</time>
</trkpt>
<trkpt lat="29.7934290" lon="34.8729250">
<time>2008-04-19T08:28:21.161Z</time>
</trkpt>
<trkpt lat="29.7914250" lon="34.8724900">
<time>2008-04-19T08:28:22.129Z</time>
</trkpt>
<trkpt lat="29.7894200" lon="34.8718780">
<time>2008-04-19T08:28:23.624Z</time>
</trkpt>
<trkpt lat="29.7883400" lon="34.8709990">
<time>2008-04-19T08:28:24.565Z</time>
</trkpt>
<trkpt lat="29.7861810" lon="34.8705650">
<time>2008-04-19T08:28:26.172Z</time>
</trkpt>
<trkpt lat="29.7845630" lon="34.8703050">
<time>2008-04-19T08:28:27.529Z</time>
</trkpt>
<trkpt lat="29.7832510" lon="34.8693380">
<time>2008-04-19T08:28:28.764Z</time>
</trkpt>
<trkpt lat="29.7816310" lon="34.8684600">
<time>2008-04-19T08:28:30.190Z</time>
</trkpt>
<trkpt lat="29.7794730" lon="34.8682910">
<time>2008-04-19T08:28:31.642Z</time>
</trkpt>
<trkpt lat="29.7779340" lon="34.8687380">
<time>2008-04-19T08:28:33.223Z</time>
</trkpt>
<trkpt lat="29.7766240" lon="34.8689190">
<time>2008-04-19T08:28:41.863Z</time>
</trkpt>
<trkpt lat="29.7760080" lon="34.8690100">
<time>2008-04-19T08:29:06.253Z</time>
</trkpt>
<trkpt lat="29.7750850" lon="34.8695430">
<time>2008-04-19T08:29:07.705Z</time>
</trkpt>
<trkpt lat="29.7734670" lon="34.8694600">
<time>2008-04-19T08:29:08.655Z</time>
</trkpt>
<trkpt lat="29.7716930" lon="34.8684940">
<time>2008-04-19T08:29:09.640Z</time>
</trkpt>
<trkpt lat="29.7693000" lon="34.8668250">
<time>2008-04-19T08:29:11.412Z</time>
</trkpt>
<trkpt lat="29.7670650" lon="34.8663030">
<time>2008-04-19T08:29:12.733Z</time>
</trkpt>
<trkpt lat="29.7645230" lon="34.8664880">
<time>2008-04-19T08:29:14.349Z</time>
</trkpt>
<trkpt lat="29.7622910" lon="34.8674670">
<time>2008-04-19T08:29:15.844Z</time>
</trkpt>
<trkpt lat="29.7605970" lon="34.8676490">
<time>2008-04-19T08:29:17.192Z</time>
</trkpt>
<trkpt lat="29.7586730" lon="34.8682740">
<time>2008-04-19T08:29:18.203Z</time>
</trkpt>
<trkpt lat="29.7551300" lon="34.8689040">
<time>2008-04-19T08:29:19.378Z</time>
</trkpt>
<trkpt lat="29.7527430" lon="34.8691770">
<time>2008-04-19T08:29:20.302Z</time>
</trkpt>
<trkpt lat="29.7512030" lon="34.8694470">
<time>2008-04-19T08:29:21.581Z</time>
</trkpt>
<trkpt lat="29.7500500" lon="34.8703340">
<time>2008-04-19T08:29:22.548Z</time>
</trkpt>
<trkpt lat="29.7484320" lon="34.8703390">
<time>2008-04-19T08:29:23.689Z</time>
</trkpt>
<trkpt lat="29.7469690" lon="34.8708740">
<time>2008-04-19T08:29:24.717Z</time>
</trkpt>
<trkpt lat="29.7454290" lon="34.8709680">
<time>2008-04-19T08:29:25.892Z</time>
</trkpt>
<trkpt lat="29.7438100" lon="34.8706200">
<time>2008-04-19T08:29:26.756Z</time>
</trkpt>
<trkpt lat="29.7418080" lon="34.8708920">
<time>2008-04-19T08:29:27.888Z</time>
</trkpt>
<trkpt lat="29.7403420" lon="34.8701900">
<time>2008-04-19T08:29:28.925Z</time>
</trkpt>
<trkpt lat="29.7385700" lon="34.8698430">
<time>2008-04-19T08:29:30.083Z</time>
</trkpt>
<trkpt lat="29.7362590" lon="34.8702040">
<time>2008-04-19T08:29:31.050Z</time>
</trkpt>
<trkpt lat="29.7344100" lon="34.8702100">
<time>2008-04-19T08:29:32.018Z</time>
</trkpt>
<trkpt lat="29.7337910" lon="34.8690650">
<time>2008-04-19T08:29:32.796Z</time>
</trkpt>
<trkpt lat="29.7334030" lon="34.8679190">
<time>2008-04-19T08:29:33.660Z</time>
</trkpt>
<trkpt lat="29.7314740" lon="34.8667780">
<time>2008-04-19T08:29:35.016Z</time>
</trkpt>
<trkpt lat="29.7305500" lon="34.8669580">
<time>2008-04-19T08:29:35.940Z</time>
</trkpt>
<trkpt lat="29.7292420" lon="34.8677560">
<time>2008-04-19T08:29:36.925Z</time>
</trkpt>
<trkpt lat="29.7279350" lon="34.8684670">
<time>2008-04-19T08:29:38.049Z</time>
</trkpt>
<trkpt lat="29.7270110" lon="34.8689120">
<time>2008-04-19T08:29:39.111Z</time>
</trkpt>
<trkpt lat="29.7262390" lon="34.8682080">
<time>2008-04-19T08:29:39.906Z</time>
</trkpt>
<trkpt lat="29.7253870" lon="34.8663570">
<time>2008-04-19T08:29:41.107Z</time>
</trkpt>
<trkpt lat="29.7244590" lon="34.8651250">
<time>2008-04-19T08:29:46.067Z</time>
</trkpt>
<trkpt lat="29.7225310" lon="34.8642490">
<time>2008-04-19T08:29:46.766Z</time>
</trkpt>
<trkpt lat="29.7209880" lon="34.8636360">
<time>2008-04-19T08:29:47.829Z</time>
</trkpt>
<trkpt lat="29.7199110" lon="34.8639930">
<time>2008-04-19T08:29:48.935Z</time>
</trkpt>
<trkpt lat="29.7194520" lon="34.8652300">
<time>2008-04-19T08:29:49.799Z</time>
</trkpt>
<trkpt lat="29.7182990" lon="34.8663820">
<time>2008-04-19T08:29:51.000Z</time>
</trkpt>
<trkpt lat="29.7169150" lon="34.8673570">
<time>2008-04-19T08:29:52.045Z</time>
</trkpt>
<trkpt lat="29.7160700" lon="34.8684190">
<time>2008-04-19T08:29:52.953Z</time>
</trkpt>
<trkpt lat="29.7152280" lon="34.8701870">
<time>2008-04-19T08:29:53.817Z</time>
</trkpt>
<trkpt lat="29.7143050" lon="34.8710730">
<time>2008-04-19T08:29:54.750Z</time>
</trkpt>
<trkpt lat="29.7137680" lon="34.8718690">
<time>2008-04-19T08:29:56.452Z</time>
</trkpt>
<trkpt lat="29.7129250" lon="34.8736370">
<time>2008-04-19T08:29:58.016Z</time>
</trkpt>
<trkpt lat="29.7117710" lon="34.8742580">
<time>2008-04-19T08:29:58.940Z</time>
</trkpt>
<trkpt lat="29.7105390" lon="34.8743510">
<time>2008-04-19T08:30:00.253Z</time>
</trkpt>
<trkpt lat="29.7089180" lon="34.8730330">
<time>2008-04-19T08:30:01.100Z</time>
</trkpt>
<trkpt lat="29.7069890" lon="34.8721570">
<time>2008-04-19T08:30:02.223Z</time>
</trkpt>
<trkpt lat="29.7055230" lon="34.8711910">
<time>2008-04-19T08:30:08.816Z</time>
</trkpt>
<trkpt lat="29.7036720" lon="34.8701380">
<time>2008-04-19T08:30:10.051Z</time>
</trkpt>
<trkpt lat="29.7025130" lon="34.8691710">
<time>2008-04-19T08:30:10.907Z</time>
</trkpt>
<trkpt lat="29.7015870" lon="34.8683800">
<time>2008-04-19T08:30:11.615Z</time>
</trkpt>
<trkpt lat="29.6989650" lon="34.8675070">
<time>2008-04-19T08:30:12.764Z</time>
</trkpt>
<trkpt lat="29.6960370" lon="34.8671640">
<time>2008-04-19T08:30:14.060Z</time>
</trkpt>
<trkpt lat="29.6939550" lon="34.8666420">
<time>2008-04-19T08:30:17.093Z</time>
</trkpt>
<trkpt lat="29.6922600" lon="34.8664710">
<time>2008-04-19T08:30:17.957Z</time>
</trkpt>
<trkpt lat="29.6904130" lon="34.8673590">
<time>2008-04-19T08:30:18.942Z</time>
</trkpt>
<trkpt lat="29.6894910" lon="34.8679800">
<time>2008-04-19T08:30:19.953Z</time>
</trkpt>
<trkpt lat="29.6888790" lon="34.8696590">
<time>2008-04-19T08:30:21.050Z</time>
</trkpt>
<trkpt lat="29.6882660" lon="34.8708960">
<time>2008-04-19T08:30:22.000Z</time>
</trkpt>
<trkpt lat="29.6876490" lon="34.8708980">
<time>2008-04-19T08:30:24.705Z</time>
</trkpt>
<trkpt lat="29.6866470" lon="34.8707250">
<time>2008-04-19T08:30:30.459Z</time>
</trkpt>
<trkpt lat="29.6857990" lon="34.8703750">
<time>2008-04-19T08:30:31.271Z</time>
</trkpt>
<trkpt lat="29.6850310" lon="34.8714360">
<time>2008-04-19T08:30:32.092Z</time>
</trkpt>
<trkpt lat="29.6843390" lon="34.8720560">
<time>2008-04-19T08:30:32.800Z</time>
</trkpt>
<trkpt lat="29.6838800" lon="34.8731170">
<time>2008-04-19T08:30:33.785Z</time>
</trkpt>
<trkpt lat="29.6834970" lon="34.8740880">
<time>2008-04-19T08:30:34.692Z</time>
</trkpt>
<trkpt lat="29.6816490" lon="34.8744470">
<time>2008-04-19T08:30:35.928Z</time>
</trkpt>
<trkpt lat="29.6800310" lon="34.8742760">
<time>2008-04-19T08:30:36.844Z</time>
</trkpt>
<trkpt lat="29.6794140" lon="34.8739260">
<time>2008-04-19T08:30:48.879Z</time>
</trkpt>
<trkpt lat="29.6775620" lon="34.8729610">
<time>2008-04-19T08:30:49.614Z</time>
</trkpt>
<trkpt lat="29.6751730" lon="34.8725280">
<time>2008-04-19T08:30:50.599Z</time>
</trkpt>
<trkpt lat="29.6739390" lon="34.8719150">
<time>2008-04-19T08:30:57.951Z</time>
</trkpt>
<trkpt lat="29.6722420" lon="34.8713030">
<time>2008-04-19T08:30:58.686Z</time>
</trkpt>
<trkpt lat="29.6707780" lon="34.8711320">
<time>2008-04-19T08:31:00.155Z</time>
</trkpt>
<trkpt lat="29.6693150" lon="34.8714010">
<time>2008-04-19T08:31:06.470Z</time>
</trkpt>
<trkpt lat="29.6680060" lon="34.8714940">
<time>2008-04-19T08:31:07.412Z</time>
</trkpt>
<trkpt lat="29.6670030" lon="34.8710560">
<time>2008-04-19T08:31:08.388Z</time>
</trkpt>
<trkpt lat="29.6656940" lon="34.8711490">
<time>2008-04-19T08:31:12.881Z</time>
</trkpt>
<trkpt lat="29.6633810" lon="34.8708040">
<time>2008-04-19T08:31:13.892Z</time>
</trkpt>
<trkpt lat="29.6612240" lon="34.8708110">
<time>2008-04-19T08:31:15.050Z</time>
</trkpt>
<trkpt lat="29.6582990" lon="34.8717910">
<time>2008-04-19T08:31:16.674Z</time>
</trkpt>
<trkpt lat="29.6572990" lon="34.8723240">
<time>2008-04-19T08:31:17.815Z</time>
</trkpt>
<trkpt lat="29.6556890" lon="34.8751520">
<time>2008-04-19T08:31:19.128Z</time>
</trkpt>
<trkpt lat="29.6544620" lon="34.8775370">
<time>2008-04-19T08:31:40.581Z</time>
</trkpt>
<trkpt lat="29.6531580" lon="34.8800110">
<time>2008-04-19T08:31:41.704Z</time>
</trkpt>
<trkpt lat="29.6517760" lon="34.8815150">
<time>2008-04-19T08:31:42.707Z</time>
</trkpt>
<trkpt lat="29.6501600" lon="34.8823140">
<time>2008-04-19T08:31:43.925Z</time>
</trkpt>
<trkpt lat="29.6479240" lon="34.8816160">
<time>2008-04-19T08:31:45.143Z</time>
</trkpt>
<trkpt lat="29.6455320" lon="34.8803010">
<time>2008-04-19T08:31:45.990Z</time>
</trkpt>
<trkpt lat="29.6434510" lon="34.8798670">
<time>2008-04-19T08:31:46.957Z</time>
</trkpt>
<trkpt lat="29.6409090" lon="34.8800510">
<time>2008-04-19T08:31:48.124Z</time>
</trkpt>
<trkpt lat="29.6369800" lon="34.8801520">
<time>2008-04-19T08:31:49.342Z</time>
</trkpt>
<trkpt lat="29.6352090" lon="34.8803350">
<time>2008-04-19T08:31:52.643Z</time>
</trkpt>
<trkpt lat="29.6348250" lon="34.8809530">
<time>2008-04-19T08:31:53.645Z</time>
</trkpt>
<trkpt lat="29.6337470" lon="34.8812210">
<time>2008-04-19T08:31:54.422Z</time>
</trkpt>
<trkpt lat="29.6329010" lon="34.8815770">
<time>2008-04-19T08:31:55.217Z</time>
</trkpt>
<trkpt lat="29.6317450" lon="34.8814920">
<time>2008-04-19T08:31:56.375Z</time>
</trkpt>
<trkpt lat="29.6309000" lon="34.8825530">
<time>2008-04-19T08:31:57.317Z</time>
</trkpt>
<trkpt lat="29.6299780" lon="34.8835260">
<time>2008-04-19T08:31:58.380Z</time>
</trkpt>
<trkpt lat="29.6288230" lon="34.8835300">
<time>2008-04-19T08:31:59.537Z</time>
</trkpt>
<trkpt lat="29.6276680" lon="34.8838860">
<time>2008-04-19T08:32:00.514Z</time>
</trkpt>
<trkpt lat="29.6261270" lon="34.8838910">
<time>2008-04-19T08:32:01.473Z</time>
</trkpt>
<trkpt lat="29.6248160" lon="34.8835430">
<time>2008-04-19T08:32:05.032Z</time>
</trkpt>
<trkpt lat="29.6239670" lon="34.8825760">
<time>2008-04-19T08:32:06.017Z</time>
</trkpt>
<trkpt lat="29.6235020" lon="34.8816960">
<time>2008-04-19T08:32:06.639Z</time>
</trkpt>
<trkpt lat="29.6219610" lon="34.8816120">
<time>2008-04-19T08:32:07.443Z</time>
</trkpt>
<trkpt lat="29.6200350" lon="34.8814420">
<time>2008-04-19T08:32:08.220Z</time>
</trkpt>
<trkpt lat="29.6184950" lon="34.8817120">
<time>2008-04-19T08:32:09.145Z</time>
</trkpt>
<trkpt lat="29.6163350" lon="34.8808370">
<time>2008-04-19T08:32:10.052Z</time>
</trkpt>
<trkpt lat="29.6147140" lon="34.8796080">
<time>2008-04-19T08:32:10.864Z</time>
</trkpt>
<trkpt lat="29.6137850" lon="34.8776720">
<time>2008-04-19T08:32:12.065Z</time>
</trkpt>
<trkpt lat="29.6117800" lon="34.8767960">
<time>2008-04-19T08:32:18.295Z</time>
</trkpt>
<trkpt lat="29.6095430" lon="34.8756580">
<time>2008-04-19T08:32:19.452Z</time>
</trkpt>
<trkpt lat="29.6080040" lon="34.8766330">
<time>2008-04-19T08:32:21.301Z</time>
</trkpt>
<trkpt lat="29.6067740" lon="34.8776950">
<time>2008-04-19T08:32:22.459Z</time>
</trkpt>
<trkpt lat="29.6061630" lon="34.8796360">
<time>2008-04-19T08:32:23.582Z</time>
</trkpt>
<trkpt lat="29.6056290" lon="34.8816660">
<time>2008-04-19T08:32:24.593Z</time>
</trkpt>
<trkpt lat="29.6037810" lon="34.8822890">
<time>2008-04-19T08:32:25.751Z</time>
</trkpt>
<trkpt lat="29.6022410" lon="34.8824700">
<time>2008-04-19T08:32:26.753Z</time>
</trkpt>
<trkpt lat="29.6017000" lon="34.8819430">
<time>2008-04-19T08:32:27.686Z</time>
</trkpt>
<trkpt lat="29.6020050" lon="34.8807080">
<time>2008-04-19T08:32:28.360Z</time>
</trkpt>
<trkpt lat="29.6016960" lon="34.8800920">
<time>2008-04-19T08:32:29.190Z</time>
</trkpt>
<trkpt lat="29.6002330" lon="34.8806250">
<time>2008-04-19T08:32:31.436Z</time>
</trkpt>
<trkpt lat="29.5995400" lon="34.8805390">
<time>2008-04-19T08:32:32.516Z</time>
</trkpt>
<trkpt lat="29.5992310" lon="34.8802760">
<time>2008-04-19T08:32:33.363Z</time>
</trkpt>
<trkpt lat="29.5981530" lon="34.8806320">
<time>2008-04-19T08:32:34.365Z</time>
</trkpt>
<trkpt lat="29.5975370" lon="34.8805460">
<time>2008-04-19T08:32:35.488Z</time>
</trkpt>
<trkpt lat="29.5961500" lon="34.8805510">
<time>2008-04-19T08:33:01.374Z</time>
</trkpt>
<trkpt lat="29.5949950" lon="34.8806420">
<time>2008-04-19T08:33:02.203Z</time>
</trkpt>
<trkpt lat="29.5936850" lon="34.8808230">
<time>2008-04-19T08:33:02.920Z</time>
</trkpt>
<trkpt lat="29.5925290" lon="34.8805620">
<time>2008-04-19T08:33:03.655Z</time>
</trkpt>
<trkpt lat="29.5914510" lon="34.8807420">
<time>2008-04-19T08:33:04.346Z</time>
</trkpt>
<trkpt lat="29.5903710" lon="34.8801290">
<time>2008-04-19T08:33:05.201Z</time>
</trkpt>
<trkpt lat="29.5897530" lon="34.8794260">
<time>2008-04-19T08:33:06.178Z</time>
</trkpt>
<trkpt lat="29.5885230" lon="34.8804870">
<time>2008-04-19T08:33:14.126Z</time>
</trkpt>
<trkpt lat="29.5882170" lon="34.8814580">
<time>2008-04-19T08:33:14.895Z</time>
</trkpt>
<trkpt lat="29.5881450" lon="34.8833970">
<time>2008-04-19T08:33:15.768Z</time>
</trkpt>
<trkpt lat="29.5879940" lon="34.8848960">
<time>2008-04-19T08:33:17.220Z</time>
</trkpt>
<trkpt lat="29.5872270" lon="34.8859560">
<time>2008-04-19T08:33:18.550Z</time>
</trkpt>
<trkpt lat="29.5861480" lon="34.8861360">
<time>2008-04-19T08:33:35.268Z</time>
</trkpt>
<trkpt lat="29.5842220" lon="34.8861420">
<time>2008-04-19T08:34:04.048Z</time>
</trkpt>
<trkpt lat="29.5835290" lon="34.8860570">
<time>2008-04-19T08:34:04.817Z</time>
</trkpt>
<trkpt lat="29.5826070" lon="34.8869410">
<time>2008-04-19T08:34:05.880Z</time>
</trkpt>
<trkpt lat="29.5810670" lon="34.8873870">
<time>2008-04-19T08:34:06.943Z</time>
</trkpt>
<trkpt lat="29.5800660" lon="34.8878300">
<time>2008-04-19T08:34:07.893Z</time>
</trkpt>
<trkpt lat="29.5790660" lon="34.8883620">
<time>2008-04-19T08:34:08.671Z</time>
</trkpt>
<trkpt lat="29.5789910" lon="34.8892440">
<time>2008-04-19T08:34:09.474Z</time>
</trkpt>
<trkpt lat="29.5786840" lon="34.8896860">
<time>2008-04-19T08:34:10.286Z</time>
</trkpt>
<trkpt lat="29.5779140" lon="34.8896880">
<time>2008-04-19T08:34:11.107Z</time>
</trkpt>
<trkpt lat="29.5777600" lon="34.8900410">
<time>2008-04-19T08:34:11.738Z</time>
</trkpt>
<trkpt lat="29.5778390" lon="34.8905700">
<time>2008-04-19T08:34:12.377Z</time>
</trkpt>
<trkpt lat="29.5767610" lon="34.8909260">
<time>2008-04-19T08:34:13.457Z</time>
</trkpt>
<trkpt lat="29.5761480" lon="34.8920730">
<time>2008-04-19T08:34:14.658Z</time>
</trkpt>
<trkpt lat="29.5748410" lon="34.8935760">
<time>2008-04-19T08:34:21.190Z</time>
</trkpt>
<trkpt lat="29.5732230" lon="34.8934930">
<time>2008-04-19T08:34:22.020Z</time>
</trkpt>
<trkpt lat="29.5720660" lon="34.8927910">
<time>2008-04-19T08:34:22.771Z</time>
</trkpt>
<trkpt lat="29.5714480" lon="34.8920880">
<time>2008-04-19T08:34:24.361Z</time>
</trkpt>
<trkpt lat="29.5700610" lon="34.8920040">
<time>2008-04-19T08:34:29.908Z</time>
</trkpt>
<trkpt lat="29.5682140" lon="34.8926270">
<time>2008-04-19T08:34:30.755Z</time>
</trkpt>
<trkpt lat="29.5665970" lon="34.8931610">
<time>2008-04-19T08:34:31.921Z</time>
</trkpt>
<trkpt lat="29.5639800" lon="34.8942270">
<time>2008-04-19T08:34:33.658Z</time>
</trkpt>
<trkpt lat="29.5624430" lon="34.8957300">
<time>2008-04-19T08:34:34.427Z</time>
</trkpt>
<trkpt lat="29.5615210" lon="34.8968780">
<time>2008-04-19T08:34:35.662Z</time>
</trkpt>
<trkpt lat="29.5602910" lon="34.8980270">
<time>2008-04-19T08:34:36.846Z</time>
</trkpt>
<trkpt lat="29.5588280" lon="34.8983840">
<time>2008-04-19T08:34:44.233Z</time>
</trkpt>
<trkpt lat="29.5576740" lon="34.8987400">
<time>2008-04-19T08:34:44.985Z</time>
</trkpt>
<trkpt lat="29.5565970" lon="34.8994490">
<time>2008-04-19T08:34:45.875Z</time>
</trkpt>
<trkpt lat="29.5552870" lon="34.8993650">
<time>2008-04-19T08:34:46.626Z</time>
</trkpt>
<trkpt lat="29.5538230" lon="34.8995450">
<time>2008-04-19T08:34:48.190Z</time>
</trkpt>
<trkpt lat="29.5528230" lon="34.9000770">
<time>2008-04-19T08:34:49.123Z</time>
</trkpt>
<trkpt lat="29.5515900" lon="34.9000810">
<time>2008-04-19T08:34:50.186Z</time>
</trkpt>
<trkpt lat="29.5502800" lon="34.8999090">
<time>2008-04-19T08:34:51.249Z</time>
</trkpt>
<trkpt lat="29.5482780" lon="34.9000910">
<time>2008-04-19T08:34:52.579Z</time>
</trkpt>
<trkpt lat="29.5467380" lon="34.9004480">
<time>2008-04-19T08:34:53.858Z</time>
</trkpt>
<trkpt lat="29.5444290" lon="34.9013360">
<time>2008-04-19T08:35:03.803Z</time>
</trkpt>
<trkpt lat="29.5425820" lon="34.9023110">
<time>2008-04-19T08:35:04.952Z</time>
</trkpt>
<trkpt lat="29.5396590" lon="34.9041700">
<time>2008-04-19T08:35:06.334Z</time>
</trkpt>
<trkpt lat="29.5377350" lon="34.9053210">
<time>2008-04-19T08:35:07.457Z</time>
</trkpt>
<trkpt lat="29.5369670" lon="34.9063810">
<time>2008-04-19T08:35:09.082Z</time>
</trkpt>
<trkpt lat="29.5352760" lon="34.9080600">
<time>2008-04-19T08:35:09.954Z</time>
</trkpt>
<trkpt lat="29.5337390" lon="34.9095620">
<time>2008-04-19T08:35:10.844Z</time>
</trkpt>
<trkpt lat="29.5329710" lon="34.9106220">
<time>2008-04-19T08:35:11.829Z</time>
</trkpt>
<trkpt lat="29.5315840" lon="34.9107140">
<time>2008-04-19T08:35:13.125Z</time>
</trkpt>
<trkpt lat="29.5292740" lon="34.9111610">
<time>2008-04-19T08:35:14.240Z</time>
</trkpt>
<trkpt lat="29.5276580" lon="34.9119590">
<time>2008-04-19T08:35:17.238Z</time>
</trkpt>
<trkpt lat="29.5268900" lon="34.9131060">
<time>2008-04-19T08:35:18.076Z</time>
</trkpt>
<trkpt lat="29.5265090" lon="34.9151330">
<time>2008-04-19T08:35:19.173Z</time>
</trkpt>
<trkpt lat="29.5266680" lon="34.9170710">
<time>2008-04-19T08:35:20.564Z</time>
</trkpt>
<trkpt lat="29.5247440" lon="34.9179570">
<time>2008-04-19T08:35:22.223Z</time>
</trkpt>
<trkpt lat="29.5235130" lon="34.9189300">
<time>2008-04-19T08:35:23.286Z</time>
</trkpt>
<trkpt lat="29.5232070" lon="34.9199000">
<time>2008-04-19T08:35:24.331Z</time>
</trkpt>
<trkpt lat="29.5229010" lon="34.9208700">
<time>2008-04-19T08:35:25.316Z</time>
</trkpt>
<trkpt lat="29.5216710" lon="34.9219300">
<time>2008-04-19T08:35:26.785Z</time>
</trkpt>
<trkpt lat="29.5210580" lon="34.9235180">
<time>2008-04-19T08:35:27.701Z</time>
</trkpt>
<trkpt lat="29.5196820" lon="34.9283660">
<time>2008-04-19T08:35:29.628Z</time>
</trkpt>
</trkseg>
</trk>
</gpx>
